# Wetter Temperatur Luftdruck Luftfeuchtigkeit Sichtweite Windgeschwindigkeit Windrichtung Zeit
1 Clouds -16 1029 63 0 3.4 132 21:57 28.01.2020
2 Clouds -16 1029 63 0 3.4 132 21:38 28.01.2020
3 Clouds -16 1029 63 0 3.4 132 21:19 28.01.2020
4 Clouds -16 1029 63 0 3.4 132 20:46 28.01.2020
5 Clouds -16 1029 65 0 3.39 131 20:26 28.01.2020
6 Clear -16 1030 64 0 3.37 132 19:55 28.01.2020
7 Clear -16 1030 64 0 3.37 132 19:37 28.01.2020
8 Clear -16 1030 64 0 3.37 132 19:19 28.01.2020
9 Clear -16 1030 64 0 3.37 132 18:42 28.01.2020
10 Clear -16 1030 64 0 3.37 132 18:23 28.01.2020
11 Clear -16 1030 64 0 3.37 132 17:59 28.01.2020
12 Clear -16 1030 64 0 3.37 132 17:40 28.01.2020
13 Clear -16 1030 60 0 2.99 131 17:21 28.01.2020
14 Clear -16 1030 60 0 2.99 131 16:59 28.01.2020
15 Clear -16 1030 60 0 2.99 131 16:40 28.01.2020
16 Clear -16 1030 60 0 2.99 131 16:22 28.01.2020
17 Clear -16 1030 60 0 2.99 131 15:48 28.01.2020
18 Clear -16 1030 60 0 2.99 131 15:19 28.01.2020
19 Clear -16 1030 60 0 2.99 131 14:59 28.01.2020
20 Clear -16 1030 60 0 2.99 131 14:41 28.01.2020
21 Clear -16 1029 56 0 2.5 126 14:18 28.01.2020
22 Clear -16 1029 56 0 2.5 126 13:42 28.01.2020
23 Clear -16 1029 57 0 2.77 131 13:24 28.01.2020
24 Clear -16 1029 57 0 2.77 131 12:44 28.01.2020
25 Clear -16 1029 57 0 2.77 131 12:25 28.01.2020
26 Clear -16 1029 57 0 2.77 131 11:58 28.01.2020
27 Clear -16 1029 57 0 2.77 131 11:40 28.01.2020
28 Clear -13 1027 63 0 1.59 139 11:21 28.01.2020
29 Clear -13 1027 63 0 1.59 139 10:43 28.01.2020
30 Clear -13 1027 63 0 1.59 139 10:24 28.01.2020
31 Clear -13 1027 63 0 1.59 139 09:58 28.01.2020
32 Clear -13 1027 63 0 1.59 139 09:38 28.01.2020
33 Clear -13 1027 63 0 1.59 139 09:19 28.01.2020
34 Clear -13 1027 63 0 1.59 139 08:44 28.01.2020
35 Clear -13 1027 62 0 1.72 132 08:22 28.01.2020
36 Clear -10 1027 67 0 1.45 131 07:42 28.01.2020
37 Clear -10 1027 67 0 1.45 131 07:23 28.01.2020
38 Clear -10 1027 67 0 1.45 131 06:44 28.01.2020
39 Clear -10 1027 67 0 1.45 131 06:23 28.01.2020
40 Clear -10 1027 67 0 1.45 131 05:35 28.01.2020
41 Clear -15 1030 59 0 2.27 123 04:40 28.01.2020
42 Clear -15 1030 59 0 2.27 123 03:41 28.01.2020
43 Clear -15 1030 59 0 2.27 123 02:43 28.01.2020
44 Clear -15 1030 59 0 2.27 123 02:24 28.01.2020
45 Clear -17 1029 54 0 2.54 121 01:50 28.01.2020
46 Clear -17 1029 56 0 2.57 121 00:58 28.01.2020
47 Clear -17 1029 56 0 2.57 121 00:39 28.01.2020
48 Clear -17 1029 56 0 2.57 121 00:19 28.01.2020
49 Clear -17 1029 56 0 2.57 121 23:42 27.01.2020
50 Clear -17 1028 55 0 2.38 122 23:18 27.01.2020
51 Clear -17 1028 55 0 2.38 122 22:44 27.01.2020
52 Clear -17 1028 55 0 2.38 122 22:20 27.01.2020
53 Clear -17 1028 55 0 2.38 122 22:20 27.01.2020
54 Clear -17 1028 55 0 2.38 122 22:20 27.01.2020
55 Clear -17 1028 55 0 2.38 122 21:57 27.01.2020
56 Clear -17 1028 55 0 2.38 122 21:38 27.01.2020
57 Clear -17 1028 55 0 2.38 122 21:38 27.01.2020
58 Clear -17 1028 55 0 2.38 122 21:18 27.01.2020
59 Clear -17 1028 55 0 2.38 122 20:56 27.01.2020
60 Clear -17 1028 55 0 2.38 122 20:37 27.01.2020
61 Clear -17 1028 56 0 2.39 123 20:18 27.01.2020
62 Clear -17 1028 56 0 2.39 123 19:42 27.01.2020
63 Clear -17 1028 56 0 2.39 123 19:23 27.01.2020
64 Clear -17 1028 56 0 2.39 123 18:58 27.01.2020
65 Clear -17 1028 56 0 2.39 123 18:39 27.01.2020
66 Clear -17 1028 56 0 2.39 123 18:20 27.01.2020
67 Clear -17 1028 56 0 2.39 123 18:20 27.01.2020
68 Clear -17 1028 56 0 2.39 123 17:57 27.01.2020
69 Clear -17 1028 56 0 2.39 123 17:37 27.01.2020
70 Clear -16 1027 55 0 2.42 120 17:18 27.01.2020
71 Clear -16 1027 55 0 2.42 120 16:42 27.01.2020
72 Clear -16 1027 55 0 2.42 120 16:24 27.01.2020
73 Clear -16 1027 55 0 2.42 120 16:24 27.01.2020
74 Clear -16 1027 55 0 2.42 120 15:56 27.01.2020
75 Clear -16 1027 55 0 2.42 120 15:38 27.01.2020
76 Clear -16 1027 55 0 2.42 120 15:19 27.01.2020
77 Clear -16 1027 55 0 2.42 120 14:55 27.01.2020
78 Clear -16 1027 55 0 2.42 120 14:36 27.01.2020
79 Clouds -16 1027 56 0 1.97 123 14:18 27.01.2020
80 Clouds -16 1027 56 0 1.97 123 13:42 27.01.2020
81 Clouds -16 1027 56 0 1.97 123 13:21 27.01.2020
82 Clouds -16 1027 56 0 1.97 123 13:21 27.01.2020
83 Clouds -16 1027 56 0 1.88 125 12:56 27.01.2020
84 Clouds -16 1027 56 0 1.88 125 12:37 27.01.2020
85 Clouds -16 1027 56 0 1.88 125 12:19 27.01.2020
86 Clouds -16 1027 56 0 1.88 125 11:41 27.01.2020
87 Clouds -13 1024 65 0 0.55 117 11:21 27.01.2020
88 Clouds -13 1024 65 0 0.55 117 10:43 27.01.2020
89 Clouds -13 1024 65 0 0.55 117 10:25 27.01.2020
90 Clouds -13 1024 65 0 0.55 117 09:57 27.01.2020
91 Clouds -13 1024 65 0 0.55 117 09:38 27.01.2020
92 Clouds -13 1024 65 0 0.55 117 09:18 27.01.2020
93 Clouds -13 1024 65 0 0.55 117 08:43 27.01.2020
94 Clouds -13 1024 61 0 0.92 115 08:22 27.01.2020
95 Clouds -10 1024 62 0 0.54 125 07:54 27.01.2020
96 Clouds -10 1024 62 0 0.54 125 07:35 27.01.2020
97 Clouds -10 1024 62 0 0.54 125 06:53 27.01.2020
98 Clouds -10 1024 62 0 0.54 125 06:25 27.01.2020
99 Clouds -10 1024 62 0 0.54 125 05:24 27.01.2020
100 Clouds -13 1027 57 0 1.74 125 03:49 27.01.2020
101 Clouds -13 1027 57 0 1.74 125 02:38 27.01.2020
102 Clouds -14 1026 55 0 1.93 128 01:29 27.01.2020
103 Clouds -14 1026 55 0 1.93 128 00:57 27.01.2020
104 Clouds -14 1026 55 0 1.93 128 00:36 27.01.2020
105 Clouds -14 1026 55 0 1.93 128 00:18 27.01.2020
106 Clouds -14 1026 55 0 1.93 128 00:18 27.01.2020
107 Clouds -14 1026 55 0 1.93 128 23:41 26.01.2020
108 Clouds -13 1026 58 0 2.15 130 23:19 26.01.2020
109 Clouds -13 1026 58 0 2.15 130 22:54 26.01.2020
110 Clouds -13 1026 58 0 2.15 130 22:36 26.01.2020
111 Clouds -13 1026 58 0 2.15 130 22:18 26.01.2020
112 Clouds -13 1026 58 0 2.15 130 21:55 26.01.2020
113 Clouds -13 1026 58 0 2.15 130 21:37 26.01.2020
114 Clouds -13 1026 58 0 2.15 130 21:18 26.01.2020
115 Clouds -13 1026 58 0 2.15 130 21:18 26.01.2020
116 Clouds -13 1026 58 0 2.15 130 20:55 26.01.2020
117 Clouds -13 1026 58 0 2.15 130 20:36 26.01.2020
118 Clouds -13 1027 57 0 2.25 122 20:18 26.01.2020
119 Clouds -13 1027 57 0 2.25 122 19:41 26.01.2020
120 Clouds -13 1027 57 0 2.25 122 19:21 26.01.2020
121 Clouds -13 1027 57 0 2.25 122 18:59 26.01.2020
122 Clouds -13 1027 57 0 2.25 122 18:40 26.01.2020
123 Clouds -13 1027 57 0 2.25 122 18:21 26.01.2020
124 Clouds -13 1027 57 0 2.25 122 17:57 26.01.2020
125 Clouds -13 1027 57 0 2.25 122 17:38 26.01.2020
126 Clouds -13 1028 55 0 2.27 117 17:18 26.01.2020
127 Clouds -13 1028 55 0 2.27 117 17:18 26.01.2020
128 Clouds -13 1028 55 0 2.27 117 16:57 26.01.2020
129 Clouds -13 1028 55 0 2.27 117 16:39 26.01.2020
130 Clouds -13 1028 55 0 2.27 117 16:20 26.01.2020
131 Clouds -13 1028 55 0 2.27 117 15:46 26.01.2020
132 Clouds -13 1028 55 0 2.27 117 15:22 26.01.2020
133 Clouds -13 1028 55 0 2.27 117 14:58 26.01.2020
134 Clouds -13 1028 55 0 2.27 117 14:39 26.01.2020
135 Clouds -13 1028 55 0 2.21 119 14:19 26.01.2020
136 Clouds -13 1028 55 0 2.21 119 13:41 26.01.2020
137 Clouds -13 1028 55 0 2.21 119 13:20 26.01.2020
138 Clouds -14 1028 55 0 2.21 121 12:57 26.01.2020
139 Clouds -14 1028 55 0 2.21 121 12:38 26.01.2020
140 Clouds -14 1028 55 0 2.21 121 12:19 26.01.2020
141 Clouds -14 1028 55 0 2.21 121 11:57 26.01.2020
142 Clouds -14 1028 55 0 2.21 121 11:37 26.01.2020
143 Clouds -11 1026 64 0 1.83 129 11:18 26.01.2020
144 Clouds -11 1026 64 0 1.83 129 10:56 26.01.2020
145 Clouds -11 1026 64 0 1.83 129 10:38 26.01.2020
146 Clouds -11 1026 64 0 1.83 129 10:19 26.01.2020
147 Clouds -11 1026 64 0 1.83 129 10:19 26.01.2020
148 Clouds -11 1026 64 0 1.83 129 09:56 26.01.2020
149 Clouds -11 1026 64 0 1.83 129 09:37 26.01.2020
150 Clouds -11 1026 64 0 1.83 129 09:19 26.01.2020
151 Clouds -11 1026 64 0 1.83 129 08:41 26.01.2020
152 Clouds -12 1026 63 0 1.75 126 08:22 26.01.2020
153 Clouds -10 1026 71 0 1.97 129 07:50 26.01.2020
154 Clouds -10 1026 71 0 1.97 129 07:27 26.01.2020
155 Clouds -10 1026 71 0 1.97 129 06:55 26.01.2020
156 Clouds -10 1026 71 0 1.97 129 06:25 26.01.2020
157 Clouds -10 1026 71 0 1.97 129 05:29 26.01.2020
158 Clear -15 1030 59 0 2.88 124 03:57 26.01.2020
159 Clear -15 1030 59 0 2.88 124 02:38 26.01.2020
160 Clouds -17 1030 55 0 3.52 124 01:45 26.01.2020
161 Clouds -16 1030 55 0 3.56 124 01:23 26.01.2020
162 Clouds -16 1030 55 0 3.56 124 00:42 26.01.2020
163 Clouds -16 1030 55 0 3.56 124 00:24 26.01.2020
164 Clouds -16 1030 55 0 3.56 124 23:40 25.01.2020
165 Clear -16 1029 54 0 3.78 125 23:21 25.01.2020
166 Clear -16 1029 54 0 3.78 125 22:56 25.01.2020
167 Clear -16 1029 54 0 3.78 125 22:56 25.01.2020
168 Clear -16 1029 54 0 3.78 125 22:36 25.01.2020
169 Clear -16 1029 54 0 3.78 125 22:18 25.01.2020
170 Clear -16 1029 54 0 3.78 125 21:55 25.01.2020
171 Clear -16 1029 54 0 3.78 125 21:55 25.01.2020
172 Clear -16 1029 54 0 3.78 125 21:36 25.01.2020
173 Clear -16 1029 54 0 3.78 125 21:18 25.01.2020
174 Clear -16 1029 54 0 3.78 125 20:43 25.01.2020
175 Clear -16 1029 54 0 3.78 125 20:24 25.01.2020
176 Clouds -16 1029 53 0 3.65 125 19:48 25.01.2020
177 Clouds -16 1029 53 0 3.65 125 19:20 25.01.2020
178 Clouds -16 1029 53 0 3.65 125 18:59 25.01.2020
179 Clouds -16 1029 53 0 3.65 125 18:41 25.01.2020
180 Clouds -16 1029 53 0 3.75 125 18:20 25.01.2020
181 Clouds -16 1029 53 0 3.75 125 17:42 25.01.2020
182 Clouds -16 1029 53 0 3.65 125 17:24 25.01.2020
183 Clouds -15 1029 52 0 3.84 126 16:58 25.01.2020
184 Clouds -15 1030 51 0 3.88 126 16:40 25.01.2020
185 Clouds -15 1030 51 0 3.88 126 16:21 25.01.2020
186 Clouds -15 1030 51 0 3.88 126 15:55 25.01.2020
187 Clouds -15 1030 51 0 3.88 126 15:37 25.01.2020
188 Clouds -15 1030 51 0 3.88 126 15:18 25.01.2020
189 Clouds -15 1030 51 0 3.88 126 14:41 25.01.2020
190 Clouds -15 1029 47 0 3.97 123 14:19 25.01.2020
191 Clouds -15 1029 47 0 3.97 123 13:43 25.01.2020
192 Clouds -15 1028 49 0 4.03 123 13:24 25.01.2020
193 Clouds -15 1028 49 0 4.03 123 13:24 25.01.2020
194 Clouds -15 1028 49 0 4.03 123 12:46 25.01.2020
195 Clouds -15 1028 49 0 4.03 123 12:28 25.01.2020
196 Clouds -15 1028 49 0 4.03 123 11:46 25.01.2020
197 Clouds -15 1028 49 0 4.03 123 11:23 25.01.2020
198 Clouds -12 1026 56 0 3.69 125 11:00 25.01.2020
199 Clouds -12 1026 56 0 3.69 125 10:40 25.01.2020
200 Clouds -12 1026 56 0 3.69 125 10:21 25.01.2020
201 Clouds -12 1026 56 0 3.69 125 09:57 25.01.2020
202 Clouds -12 1026 56 0 3.69 125 09:37 25.01.2020
203 Clouds -12 1026 56 0 3.69 125 09:18 25.01.2020
204 Clouds -12 1026 56 0 3.69 125 08:42 25.01.2020
205 Clear -10 1025 64 0 3.51 129 07:53 25.01.2020
206 Clear -10 1025 64 0 3.51 129 06:58 25.01.2020
207 Clear -10 1025 64 0 3.51 129 06:31 25.01.2020
208 Clear -10 1025 64 0 3.51 129 05:50 25.01.2020
209 Clear -10 1025 64 0 3.51 129 05:30 25.01.2020
210 Clear -14 1029 56 0 4.19 120 03:55 25.01.2020
211 Clear -14 1029 56 0 4.19 120 03:34 25.01.2020
212 Clear -14 1029 56 0 4.19 120 02:24 25.01.2020
213 Clear -16 1030 50 0 4.52 117 01:53 25.01.2020
214 Clear -16 1030 50 0 4.54 118 00:52 25.01.2020
215 Clear -16 1030 50 0 4.54 118 00:27 25.01.2020
216 Clear -16 1030 50 0 4.54 118 23:59 24.01.2020
217 Clear -16 1030 50 0 4.54 118 23:59 24.01.2020
218 Clear -16 1030 50 0 4.54 118 23:41 24.01.2020
219 Clear -16 1030 50 0 4.54 118 23:41 24.01.2020
220 Clear -16 1030 50 0 4.54 118 23:23 24.01.2020
221 Clear -16 1030 51 0 4.31 120 22:46 24.01.2020
222 Clear -16 1030 51 0 4.31 120 22:46 24.01.2020
223 Clear -16 1030 51 0 4.31 120 22:25 24.01.2020
224 Clear -16 1030 51 0 4.31 120 21:57 24.01.2020
225 Clear -16 1030 51 0 4.31 120 21:38 24.01.2020
226 Clear -16 1030 51 0 4.31 120 21:18 24.01.2020
227 Clear -16 1030 51 0 4.31 120 20:42 24.01.2020
228 Clear -16 1030 53 0 3.91 122 20:21 24.01.2020
229 Clear -16 1030 53 0 3.91 122 19:57 24.01.2020
230 Clear -16 1030 53 0 3.91 122 19:39 24.01.2020
231 Clear -16 1030 53 0 3.91 122 19:21 24.01.2020
232 Clear -16 1030 53 0 3.91 122 18:43 24.01.2020
233 Clear -16 1030 53 0 3.91 122 18:43 24.01.2020
234 Clear -16 1030 53 0 3.91 122 18:24 24.01.2020
235 Clear -16 1030 53 0 3.91 122 17:56 24.01.2020
236 Clear -16 1030 53 0 3.91 122 17:38 24.01.2020
237 Clear -16 1032 52 0 3.74 120 17:18 24.01.2020
238 Clear -16 1032 52 0 3.74 120 16:39 24.01.2020
239 Clear -16 1032 52 0 3.74 120 16:21 24.01.2020
240 Clear -16 1032 52 0 3.74 120 15:55 24.01.2020
241 Clear -16 1032 52 0 3.74 120 15:37 24.01.2020
242 Clear -16 1032 52 0 3.74 120 15:18 24.01.2020
243 Clear -16 1032 52 0 3.74 120 14:41 24.01.2020
244 Clear -16 1032 52 0 3.74 120 14:22 24.01.2020
245 Clear -16 1032 52 0 3.31 123 13:44 24.01.2020
246 Clear -16 1031 53 0 3.51 123 13:24 24.01.2020
247 Clear -16 1031 53 0 3.51 123 12:45 24.01.2020
248 Clear -16 1031 53 0 3.51 123 12:23 24.01.2020
249 Clear -16 1031 53 0 3.51 123 11:58 24.01.2020
250 Clear -16 1031 53 0 3.51 123 11:39 24.01.2020
251 Clear -13 1031 58 0 2.55 130 11:18 24.01.2020
252 Clear -13 1031 58 0 2.55 130 10:43 24.01.2020
253 Clear -13 1031 58 0 2.55 130 10:21 24.01.2020
254 Clear -13 1031 58 0 2.55 130 09:55 24.01.2020
255 Clear -13 1031 58 0 2.55 130 09:37 24.01.2020
256 Clear -13 1031 58 0 2.55 130 09:18 24.01.2020
257 Clear -13 1031 58 0 2.55 130 08:39 24.01.2020
258 Clear -11 1031 69 0 2.15 137 08:19 24.01.2020
259 Clear -11 1031 69 0 2.15 137 07:49 24.01.2020
260 Clear -11 1031 69 0 2.15 137 07:24 24.01.2020
261 Clear -11 1031 69 0 2.15 137 06:45 24.01.2020
262 Clear -11 1031 69 0 2.15 137 06:24 24.01.2020
263 Clear -11 1031 69 0 2.15 137 05:43 24.01.2020
264 Clear -16 1036 60 0 3.19 131 03:55 24.01.2020
265 Clear -16 1036 60 0 3.19 131 02:43 24.01.2020
266 Clear -16 1036 60 0 3.19 131 02:23 24.01.2020
267 Clear -18 1038 60 0 3.46 131 01:39 24.01.2020
268 Clear -18 1038 60 0 3.51 130 00:54 24.01.2020
269 Clear -18 1038 60 0 3.51 130 00:19 24.01.2020
270 Clear -18 1038 60 0 3.51 130 23:45 23.01.2020
271 Clear -18 1038 60 0 3.51 130 23:26 23.01.2020
272 Clear -19 1038 64 0 2.96 127 22:59 23.01.2020
273 Clear -19 1038 64 0 2.96 127 22:37 23.01.2020
274 Clear -19 1038 64 0 2.96 127 22:18 23.01.2020
275 Clear -19 1038 64 0 2.96 127 21:55 23.01.2020
276 Clear -19 1038 64 0 2.96 127 21:37 23.01.2020
277 Clear -19 1038 64 0 2.96 127 21:19 23.01.2020
278 Clear -19 1038 64 0 2.96 127 20:55 23.01.2020
279 Clear -19 1038 64 0 2.96 127 20:37 23.01.2020
280 Clear -19 1038 64 0 2.58 132 20:19 23.01.2020
281 Clear -19 1038 64 0 2.58 132 19:44 23.01.2020
282 Clear -19 1038 64 0 2.58 132 19:24 23.01.2020
283 Clear -19 1038 64 0 2.58 132 18:59 23.01.2020
284 Clear -19 1038 64 0 2.58 132 18:39 23.01.2020
285 Clear -19 1038 64 0 2.58 132 18:20 23.01.2020
286 Clear -19 1038 64 0 2.58 132 17:57 23.01.2020
287 Clear -19 1038 64 0 2.58 132 17:38 23.01.2020
288 Clear -19 1038 65 0 2.4 133 17:18 23.01.2020
289 Clear -19 1038 65 0 2.4 133 16:39 23.01.2020
290 Clear -19 1038 65 0 2.4 133 16:20 23.01.2020
291 Clear -19 1038 65 0 2.4 133 15:58 23.01.2020
292 Clear -19 1038 65 0 2.4 133 15:40 23.01.2020
293 Clear -19 1038 65 0 2.4 133 15:19 23.01.2020
294 Clear -19 1038 65 0 2.4 133 14:59 23.01.2020
295 Clear -19 1038 65 0 2.4 133 14:41 23.01.2020
296 Clear -19 1038 65 0 2.4 133 14:23 23.01.2020
297 Clouds -20 1037 64 0 1.73 142 13:59 23.01.2020
298 Clouds -20 1037 64 0 1.73 142 13:37 23.01.2020
299 Clouds -19 1036 64 0 1.84 139 13:19 23.01.2020
300 Clouds -19 1036 64 0 1.84 139 12:44 23.01.2020
301 Clouds -19 1036 64 0 1.84 139 12:25 23.01.2020
302 Clouds -19 1036 64 0 1.84 139 11:56 23.01.2020
303 Clouds -19 1036 64 0 1.84 139 11:37 23.01.2020
304 Clouds -19 1036 64 0 1.84 139 11:37 23.01.2020
305 Clear -17 1033 71 0 0.7 222 11:18 23.01.2020
306 Clear -17 1033 71 0 0.69 224 10:44 23.01.2020
307 Clear -17 1033 71 0 0.69 224 10:22 23.01.2020
308 Clear -17 1033 71 0 0.7 222 09:43 23.01.2020
309 Clear -17 1033 71 0 0.7 222 09:25 23.01.2020
310 Clear -17 1033 71 0 0.69 224 08:59 23.01.2020
311 Clear -17 1033 71 0 0.69 224 08:40 23.01.2020
312 Clear -17 1033 71 0 0.7 222 08:22 23.01.2020
313 Clouds -13 1032 69 0 0.89 167 07:45 23.01.2020
314 Clouds -13 1032 69 0 0.89 167 07:26 23.01.2020
315 Clouds -13 1032 69 0 0.89 167 06:51 23.01.2020
316 Clouds -13 1032 69 0 0.89 167 06:22 23.01.2020
317 Clouds -13 1032 69 0 0.89 167 05:44 23.01.2020
318 Clouds -18 1034 66 0 2.51 130 04:24 23.01.2020
319 Clouds -18 1034 66 0 2.51 130 02:34 23.01.2020
320 Clouds -19 1035 64 0 2.66 122 01:19 23.01.2020
321 Clouds -19 1035 64 0 2.66 122 00:27 23.01.2020
322 Clouds -19 1035 64 0 2.66 122 23:48 22.01.2020
323 Clouds -19 1035 64 0 2.66 122 23:29 22.01.2020
324 Clouds -20 1034 63 0 2.7 124 22:59 22.01.2020
325 Clouds -20 1034 63 0 2.7 124 22:40 22.01.2020
326 Clouds -20 1034 63 0 2.7 124 22:40 22.01.2020
327 Clouds -20 1034 63 0 2.7 124 22:22 22.01.2020
328 Clouds -20 1034 63 0 2.7 124 21:40 22.01.2020
329 Clouds -20 1034 63 0 2.7 124 21:22 22.01.2020
330 Clouds -20 1034 63 0 2.7 124 20:57 22.01.2020
331 Clouds -20 1034 63 0 2.7 124 20:37 22.01.2020
332 Clouds -20 1033 61 0 2.62 120 20:19 22.01.2020
333 Clear -20 1034 61 0 2.78 119 19:56 22.01.2020
334 Clear -20 1034 61 0 2.78 119 19:37 22.01.2020
335 Clear -20 1034 61 0 2.78 119 19:18 22.01.2020
336 Clear -20 1034 61 0 2.78 119 18:56 22.01.2020
337 Clear -20 1034 61 0 2.78 119 18:37 22.01.2020
338 Clear -20 1034 61 0 2.78 119 18:19 22.01.2020
339 Clear -20 1034 61 0 2.78 119 17:40 22.01.2020
340 Clear -20 1033 59 0 2.4 123 17:21 22.01.2020
341 Clear -20 1033 59 0 2.4 123 16:58 22.01.2020
342 Clear -20 1033 59 0 2.4 123 16:39 22.01.2020
343 Clear -20 1033 59 0 2.4 123 16:21 22.01.2020
344 Clear -20 1033 59 0 2.4 123 15:56 22.01.2020
345 Clear -20 1033 59 0 2.4 123 15:38 22.01.2020
346 Clear -20 1033 59 0 2.4 123 15:19 22.01.2020
347 Clear -20 1033 59 0 2.4 123 14:40 22.01.2020
348 Clouds -20 1032 63 0 2.06 122 14:21 22.01.2020
349 Clouds -20 1032 63 0 2.06 122 13:59 22.01.2020
350 Clouds -20 1032 63 0 2.06 122 13:38 22.01.2020
351 Clouds -20 1031 62 0 2.07 123 13:19 22.01.2020
352 Clouds -20 1031 62 0 2.07 123 12:57 22.01.2020
353 Clouds -20 1031 62 0 2.07 123 12:39 22.01.2020
354 Clouds -20 1031 62 0 2.07 123 12:20 22.01.2020
355 Clouds -20 1031 62 0 2.07 123 11:58 22.01.2020
356 Clouds -20 1031 62 0 2.07 123 11:39 22.01.2020
357 Clouds -18 1028 69 0 0.7 150 11:19 22.01.2020
358 Clouds -18 1028 69 0 0.7 150 11:19 22.01.2020
359 Clouds -18 1028 69 0 0.7 150 10:54 22.01.2020
360 Clouds -18 1028 69 0 0.7 150 10:36 22.01.2020
361 Clouds -18 1028 69 0 0.7 150 10:18 22.01.2020
362 Clouds -18 1028 69 0 0.7 150 09:41 22.01.2020
363 Clouds -18 1028 69 0 0.7 150 09:23 22.01.2020
364 Clouds -18 1028 69 0 0.7 150 08:57 22.01.2020
365 Clouds -18 1028 69 0 0.7 150 08:38 22.01.2020
366 Clouds -14 1027 71 0 0.86 233 08:20 22.01.2020
367 Clouds -14 1027 71 0 0.86 233 07:45 22.01.2020
368 Clouds -14 1027 71 0 0.86 233 07:27 22.01.2020
369 Clouds -14 1027 71 0 0.86 233 06:38 22.01.2020
370 Clouds -14 1027 71 0 0.86 233 06:19 22.01.2020
371 Clouds -14 1027 71 0 0.86 233 06:19 22.01.2020
372 Clouds -19 1029 74 0 1.15 155 04:27 22.01.2020
373 Clouds -19 1029 74 0 1.15 155 03:29 22.01.2020
374 Clouds -19 1029 74 0 1.15 155 02:49 22.01.2020
375 Clouds -21 1027 77 0 1.3 153 01:30 22.01.2020
376 Clouds -21 1027 78 0 0.94 146 00:40 22.01.2020
377 Clouds -21 1027 78 0 0.94 146 00:19 22.01.2020
378 Clouds -21 1027 78 0 0.94 146 23:37 21.01.2020
379 Clouds -21 1027 78 0 0.94 146 23:37 21.01.2020
380 Clouds -19 1025 73 0 1.3 152 23:19 21.01.2020
381 Clouds -19 1025 73 0 1.3 152 22:42 21.01.2020
382 Clouds -19 1025 73 0 1.3 152 22:24 21.01.2020
383 Clouds -19 1025 73 0 1.3 152 21:58 21.01.2020
384 Clouds -19 1025 73 0 1.3 152 21:39 21.01.2020
385 Clouds -19 1025 73 0 1.3 152 21:21 21.01.2020
386 Clouds -19 1025 73 0 1.3 152 20:58 21.01.2020
387 Clouds -19 1025 73 0 1.3 152 20:39 21.01.2020
388 Clouds -21 1024 71 0 1.59 154 20:20 21.01.2020
389 Clouds -21 1024 71 0 1.59 154 19:58 21.01.2020
390 Clouds -21 1024 71 0 1.59 154 19:39 21.01.2020
391 Clouds -21 1024 71 0 1.59 154 19:21 21.01.2020
392 Clouds -21 1024 71 0 1.59 154 18:57 21.01.2020
393 Clouds -21 1024 71 0 1.59 154 18:39 21.01.2020
394 Clouds -21 1024 71 0 1.59 154 18:39 21.01.2020
395 Clouds -21 1024 71 0 1.59 154 18:20 21.01.2020
396 Clouds -21 1024 71 0 1.59 154 17:56 21.01.2020
397 Clouds -21 1024 71 0 1.59 154 17:38 21.01.2020
398 Clouds -19 1024 64 0 2.05 153 17:18 21.01.2020
399 Clouds -19 1024 64 0 2.05 153 16:38 21.01.2020
400 Clouds -19 1024 64 0 2.05 153 16:19 21.01.2020
401 Clouds -19 1024 64 0 2.05 153 15:58 21.01.2020
402 Clouds -19 1024 64 0 2.05 153 15:38 21.01.2020
403 Clouds -19 1024 64 0 2.05 153 15:19 21.01.2020
404 Clouds -19 1024 64 0 2.05 153 14:39 21.01.2020
405 Clouds -19 1024 64 0 2.05 153 14:39 21.01.2020
406 Clear -20 1023 72 0 2.72 134 14:21 21.01.2020
407 Clear -20 1023 72 0 2.72 134 13:43 21.01.2020
408 Clear -20 1023 72 0 2.72 134 13:43 21.01.2020
409 Clear -20 1023 72 0 2.72 134 13:20 21.01.2020
410 Clear -20 1023 72 0 2.75 135 12:57 21.01.2020
411 Clear -20 1023 72 0 2.75 135 12:39 21.01.2020
412 Clear -20 1023 72 0 2.75 135 12:21 21.01.2020
413 Clear -20 1023 72 0 2.75 135 11:41 21.01.2020
414 Clear -20 1023 72 0 2.75 135 11:22 21.01.2020
415 Clear -17 1021 78 0 1.25 181 11:00 21.01.2020
416 Clear -17 1021 78 0 1.25 181 10:41 21.01.2020
417 Clear -17 1021 78 0 1.25 181 10:22 21.01.2020
418 Clear -17 1021 78 0 1.25 181 09:43 21.01.2020
419 Clear -17 1021 78 0 1.25 181 09:43 21.01.2020
420 Clear -17 1021 78 0 1.25 181 09:23 21.01.2020
421 Clear -17 1021 78 0 1.25 181 08:58 21.01.2020
422 Clear -17 1021 78 0 1.25 181 08:40 21.01.2020
423 Clouds -14 1021 75 0 1.35 226 08:19 21.01.2020
424 Clouds -14 1021 75 0 1.35 226 07:42 21.01.2020
425 Clouds -14 1021 75 0 1.35 226 07:23 21.01.2020
426 Clouds -14 1021 75 0 1.35 226 07:23 21.01.2020
427 Clouds -14 1021 75 0 1.35 226 06:56 21.01.2020
428 Clouds -14 1021 75 0 1.35 226 06:37 21.01.2020
429 Clouds -14 1021 75 0 1.35 226 05:50 21.01.2020
430 Clouds -17 1022 69 0 1.36 164 04:41 21.01.2020
431 Clouds -17 1022 69 0 1.36 164 03:40 21.01.2020
432 Clouds -17 1022 69 0 1.36 164 02:26 21.01.2020
433 Clouds -18 1022 67 0 1.73 145 01:31 21.01.2020
434 Clouds -18 1022 67 0 1.73 145 00:41 21.01.2020
435 Clouds -18 1022 67 0 1.73 145 00:21 21.01.2020
436 Clouds -18 1022 67 0 1.73 145 23:41 20.01.2020
437 Clouds -18 1021 64 0 1.93 124 23:19 20.01.2020
438 Clouds -18 1021 64 0 1.93 124 22:59 20.01.2020
439 Clouds -18 1021 64 0 1.93 124 22:39 20.01.2020
440 Clouds -18 1021 64 0 1.93 124 22:21 20.01.2020
441 Clouds -18 1021 64 0 1.93 124 21:58 20.01.2020
442 Clouds -18 1021 64 0 1.93 124 21:38 20.01.2020
443 Clouds -18 1021 64 0 1.93 124 21:19 20.01.2020
444 Clouds -18 1021 64 0 1.93 124 20:57 20.01.2020
445 Clouds -18 1021 64 0 1.93 124 20:38 20.01.2020
446 Clouds -19 1022 63 0 1.92 130 20:19 20.01.2020
447 Clouds -19 1022 63 0 1.92 130 19:56 20.01.2020
448 Clouds -19 1022 63 0 1.92 130 19:38 20.01.2020
449 Clouds -19 1022 63 0 1.92 130 19:18 20.01.2020
450 Clouds -19 1022 63 0 1.92 130 18:45 20.01.2020
451 Clouds -19 1022 63 0 1.92 130 18:23 20.01.2020
452 Clouds -19 1022 63 0 1.92 130 17:59 20.01.2020
453 Clouds -19 1022 63 0 1.92 130 17:36 20.01.2020
454 Clouds -19 1022 63 0 1.92 130 17:36 20.01.2020
455 Clear -19 1022 66 0 2.01 125 17:18 20.01.2020
456 Clear -19 1022 66 0 2.01 125 16:43 20.01.2020
457 Clear -19 1022 66 0 2.01 125 16:25 20.01.2020
458 Clear -19 1022 66 0 2.01 125 15:58 20.01.2020
459 Clear -19 1022 66 0 2.01 125 15:39 20.01.2020
460 Clear -19 1022 66 0 2.01 125 15:21 20.01.2020
461 Clear -19 1022 66 0 2.01 125 14:44 20.01.2020
462 Clear -19 1022 66 0 2.01 125 14:25 20.01.2020
463 Clouds -19 1021 80 0 1.59 121 13:59 20.01.2020
464 Clouds -19 1021 80 0 1.59 121 13:40 20.01.2020
465 Clouds -19 1021 80 0 1.59 121 13:22 20.01.2020
466 Clouds -19 1020 79 0 1.37 142 12:48 20.01.2020
467 Clouds -19 1020 79 0 1.37 142 12:29 20.01.2020
468 Clouds -19 1020 79 0 1.37 142 12:29 20.01.2020
469 Clouds -19 1020 79 0 1.37 142 11:59 20.01.2020
470 Clouds -19 1020 79 0 1.37 142 11:40 20.01.2020
471 Clouds -15 1016 81 0 1.32 248 11:22 20.01.2020
472 Clouds -15 1016 81 0 1.32 248 10:57 20.01.2020
473 Clouds -15 1016 81 0 1.32 248 10:39 20.01.2020
474 Clouds -15 1016 81 0 1.32 248 10:19 20.01.2020
475 Clouds -15 1016 81 0 1.32 248 10:19 20.01.2020
476 Clouds -15 1016 81 0 1.32 248 09:40 20.01.2020
477 Clouds -15 1016 81 0 1.32 248 09:21 20.01.2020
478 Clouds -15 1016 81 0 1.32 248 08:49 20.01.2020
479 Clouds -16 1017 80 0 0.52 283 08:30 20.01.2020
480 Clouds -11 1016 82 0 1.71 264 07:53 20.01.2020
481 Clouds -11 1016 82 0 1.71 264 07:30 20.01.2020
482 Clouds -11 1016 82 0 1.71 264 06:59 20.01.2020
483 Clouds -11 1016 82 0 1.71 264 06:28 20.01.2020
484 Clouds -11 1016 82 0 1.71 264 05:44 20.01.2020
485 Clouds -11 1016 82 0 1.71 264 05:23 20.01.2020
486 Clouds -13 1017 84 0 1.3 156 04:48 20.01.2020
487 Clouds -13 1017 84 0 1.3 156 02:59 20.01.2020
488 Clouds -14 1017 76 0 2.04 149 01:57 20.01.2020
489 Clouds -14 1017 76 0 2.04 149 01:37 20.01.2020
490 Clouds -15 1017 76 0 2.01 154 00:45 20.01.2020
491 Clouds -15 1017 76 0 2.01 154 00:25 20.01.2020
492 Clouds -15 1017 76 0 2.01 154 23:40 19.01.2020
493 Clouds -15 1018 71 0 3.08 147 23:20 19.01.2020
494 Clouds -15 1018 71 0 3.08 147 22:57 19.01.2020
495 Clouds -15 1018 71 0 3.08 147 22:39 19.01.2020
496 Clouds -15 1018 71 0 3.08 147 22:21 19.01.2020
497 Clouds -15 1018 71 0 3.08 147 21:57 19.01.2020
498 Clouds -15 1018 71 0 3.08 147 21:39 19.01.2020
499 Clouds -15 1018 71 0 3.08 147 21:20 19.01.2020
500 Clouds -15 1018 71 0 3.08 147 20:57 19.01.2020
501 Clouds -15 1018 71 0 3.08 147 20:39 19.01.2020
502 Clouds -16 1021 66 0 3.4 137 20:21 19.01.2020
503 Clouds -16 1021 66 0 3.4 137 19:57 19.01.2020
504 Clouds -16 1021 66 0 3.4 137 19:39 19.01.2020
505 Clouds -16 1021 66 0 3.4 137 19:21 19.01.2020
506 Clouds -16 1021 66 0 3.4 137 18:59 19.01.2020
507 Clouds -16 1021 66 0 3.4 137 18:41 19.01.2020
508 Clouds -16 1021 66 0 3.4 137 18:21 19.01.2020
509 Clouds -16 1021 66 0 3.4 137 17:58 19.01.2020
510 Clouds -16 1021 66 0 3.4 137 17:58 19.01.2020
511 Clouds -16 1021 66 0 3.4 137 17:40 19.01.2020
512 Clouds -18 1024 62 0 3.42 134 17:21 19.01.2020
513 Clouds -18 1024 62 0 3.42 134 16:59 19.01.2020
514 Clouds -18 1024 62 0 3.42 134 16:40 19.01.2020
515 Clouds -18 1024 62 0 3.42 134 16:21 19.01.2020
516 Clouds -18 1024 62 0 3.42 134 15:59 19.01.2020
517 Clouds -18 1024 62 0 3.42 134 15:39 19.01.2020
518 Clouds -18 1024 62 0 3.42 134 15:20 19.01.2020
519 Clouds -18 1024 62 0 3.42 134 14:58 19.01.2020
520 Clouds -18 1024 62 0 3.42 134 14:39 19.01.2020
521 Clouds -17 1025 53 0 3.32 138 14:18 19.01.2020
522 Clouds -17 1025 53 0 3.32 138 13:58 19.01.2020
523 Clouds -17 1025 53 0 3.32 138 13:38 19.01.2020
524 Clouds -17 1025 55 0 3.41 137 13:20 19.01.2020
525 Clouds -17 1025 55 0 3.41 137 12:55 19.01.2020
526 Clouds -17 1025 55 0 3.41 137 12:37 19.01.2020
527 Clouds -17 1025 55 0 3.41 137 12:37 19.01.2020
528 Clouds -17 1025 55 0 3.41 137 12:19 19.01.2020
529 Clouds -17 1025 55 0 3.41 137 11:42 19.01.2020
530 Clear -17 1026 55 0 3.39 124 11:21 19.01.2020
531 Clear -17 1026 55 0 3.39 124 10:56 19.01.2020
532 Clear -17 1026 55 0 3.39 124 10:56 19.01.2020
533 Clear -17 1026 55 0 3.39 124 10:38 19.01.2020
534 Clear -17 1026 55 0 3.39 124 10:19 19.01.2020
535 Clear -17 1026 55 0 3.39 124 09:56 19.01.2020
536 Clear -17 1026 55 0 3.39 124 09:56 19.01.2020
537 Clear -17 1026 55 0 3.39 124 09:56 19.01.2020
538 Clear -17 1026 55 0 3.39 124 09:56 19.01.2020
539 Clear -17 1026 55 0 3.39 124 09:37 19.01.2020
540 Clear -17 1026 55 0 3.39 124 09:18 19.01.2020
541 Clear -17 1026 55 0 3.39 124 08:48 19.01.2020
542 Clear -17 1026 55 0 3.39 124 08:28 19.01.2020
543 Clear -16 1029 67 0 2.77 127 07:42 19.01.2020
544 Clear -16 1029 67 0 2.77 127 07:22 19.01.2020
545 Clear -16 1029 67 0 2.77 127 06:54 19.01.2020
546 Clear -16 1029 67 0 2.77 127 06:21 19.01.2020
547 Clear -20 1035 56 0 3.08 121 03:28 19.01.2020
548 Clear -20 1035 56 0 3.08 121 02:26 19.01.2020
549 Clear -22 1036 69 0 2.34 114 01:28 19.01.2020
550 Clear -22 1036 69 0 2.34 114 00:54 19.01.2020
551 Clear -22 1036 69 0 2.34 114 00:29 19.01.2020
552 Clear -22 1036 69 0 2.34 114 23:59 18.01.2020
553 Clear -22 1036 69 0 2.34 114 23:41 18.01.2020
554 Clear -22 1036 69 0 2.34 114 23:23 18.01.2020
555 Clear -23 1035 79 0 2 101 22:55 18.01.2020
556 Clear -23 1035 79 0 2 101 22:37 18.01.2020
557 Clear -23 1035 79 0 2 101 22:19 18.01.2020
558 Clear -23 1035 79 0 2 101 21:57 18.01.2020
559 Clear -23 1035 79 0 2 101 21:37 18.01.2020
560 Clear -23 1035 79 0 2 101 21:19 18.01.2020
561 Clear -23 1035 79 0 2 101 20:43 18.01.2020
562 Clouds -23 1034 81 0 1.31 110 20:21 18.01.2020
563 Clouds -22 1035 80 0 1.77 104 19:58 18.01.2020
564 Clouds -22 1035 80 0 1.77 104 19:40 18.01.2020
565 Clouds -22 1035 80 0 1.77 104 19:22 18.01.2020
566 Clouds -22 1035 80 0 1.77 104 18:42 18.01.2020
567 Clouds -22 1035 80 0 1.77 104 18:22 18.01.2020
568 Clouds -22 1035 80 0 1.77 104 17:55 18.01.2020
569 Clouds -22 1035 80 0 1.77 104 17:37 18.01.2020
570 Clouds -22 1033 89 0 0.49 98 17:18 18.01.2020
571 Clouds -22 1033 89 0 0.49 98 16:42 18.01.2020
572 Clouds -22 1033 89 0 0.49 98 16:24 18.01.2020
573 Clouds -22 1033 89 0 0.49 98 15:59 18.01.2020
574 Clouds -22 1033 89 0 0.49 98 15:41 18.01.2020
575 Clouds -22 1033 89 0 0.49 98 15:22 18.01.2020
576 Clouds -22 1033 89 0 0.49 98 14:54 18.01.2020
577 Clouds -22 1033 89 0 0.49 98 14:36 18.01.2020
578 Snow -18 1029 95 0 1.36 271 14:18 18.01.2020
579 Snow -18 1029 95 0 1.36 271 13:43 18.01.2020
580 Snow -19 1029 99 0 1.25 276 13:24 18.01.2020
581 Snow -19 1029 99 0 1.25 276 12:56 18.01.2020
582 Snow -19 1029 99 0 1.25 276 12:38 18.01.2020
583 Snow -19 1029 99 0 1.25 276 12:19 18.01.2020
584 Snow -19 1029 99 0 1.25 276 11:44 18.01.2020
585 Snow -14 1025 90 0 0.71 297 11:21 18.01.2020
586 Snow -14 1025 90 0 0.71 297 10:56 18.01.2020
587 Snow -14 1025 90 0 0.71 297 10:38 18.01.2020
588 Snow -14 1025 90 0 0.71 297 10:18 18.01.2020
589 Snow -14 1025 90 0 0.71 297 10:18 18.01.2020
590 Snow -14 1025 90 0 0.71 297 09:42 18.01.2020
591 Snow -14 1025 90 0 0.71 297 09:20 18.01.2020
592 Snow -14 1025 90 0 0.71 297 08:55 18.01.2020
593 Snow -14 1025 90 0 0.71 297 08:37 18.01.2020
594 Clouds -14 1026 63 0 1.31 167 08:18 18.01.2020
595 Clouds -14 1026 63 0 1.31 167 07:40 18.01.2020
596 Clouds -14 1026 63 0 1.31 167 07:21 18.01.2020
597 Clouds -14 1026 63 0 1.31 167 06:45 18.01.2020
598 Clouds -14 1026 63 0 1.31 167 05:55 18.01.2020
599 Clouds -19 1032 53 0 2.26 132 04:29 18.01.2020
600 Clouds -19 1032 53 0 2.26 132 02:50 18.01.2020
601 Clouds -23 1034 53 0 2.66 128 01:51 18.01.2020
602 Clouds -23 1034 53 0 2.79 129 00:40 18.01.2020
603 Clouds -23 1034 53 0 2.79 129 00:21 18.01.2020
604 Clouds -23 1034 53 0 2.79 129 23:59 17.01.2020
605 Clouds -23 1034 53 0 2.79 129 23:40 17.01.2020
606 Clear -25 1037 60 0 2.11 128 23:19 17.01.2020
607 Clear -25 1037 60 0 2.11 128 22:43 17.01.2020
608 Clear -25 1037 60 0 2.11 128 22:21 17.01.2020
609 Clear -25 1037 60 0 2.11 128 21:57 17.01.2020
610 Clear -25 1037 60 0 2.11 128 21:39 17.01.2020
611 Clear -25 1037 60 0 2.11 128 21:20 17.01.2020
612 Clear -25 1037 60 0 2.11 128 20:55 17.01.2020
613 Clear -25 1037 60 0 2.11 128 20:36 17.01.2020
614 Clouds -26 1039 78 0 1.53 144 20:18 17.01.2020
615 Clouds -26 1039 78 0 1.53 144 20:18 17.01.2020
616 Clouds -26 1039 78 0 1.53 144 19:54 17.01.2020
617 Clouds -26 1039 78 0 1.53 144 19:54 17.01.2020
618 Clouds -26 1039 78 0 1.53 144 19:36 17.01.2020
619 Clouds -26 1039 78 0 1.53 144 19:18 17.01.2020
620 Clouds -26 1039 78 0 1.53 144 18:44 17.01.2020
621 Clouds -26 1039 78 0 1.53 144 18:26 17.01.2020
622 Clouds -26 1039 78 0 1.53 144 17:56 17.01.2020
623 Clouds -26 1039 78 0 1.53 144 17:38 17.01.2020
624 Clouds -27 1040 94 0 1.18 180 17:19 17.01.2020
625 Clouds -27 1040 94 0 1.18 180 16:41 17.01.2020
626 Clouds -27 1040 94 0 1.18 180 16:20 17.01.2020
627 Clouds -27 1040 94 0 1.18 180 15:48 17.01.2020
628 Clouds -27 1040 94 0 1.18 180 15:27 17.01.2020
629 Clouds -27 1040 94 0 1.18 180 14:56 17.01.2020
630 Clouds -27 1040 94 0 1.18 180 14:37 17.01.2020
631 Clouds -25 1037 93 0 1.19 224 14:19 17.01.2020
632 Clouds -25 1037 93 0 1.19 224 13:39 17.01.2020
633 Clouds -25 1037 93 0 1.19 224 13:20 17.01.2020
634 Clouds -25 1037 94 0 1.21 207 12:45 17.01.2020
635 Clouds -25 1037 94 0 1.21 207 12:22 17.01.2020
636 Clouds -25 1037 94 0 1.21 207 11:41 17.01.2020
637 Clouds -21 1033 85 0 1.1 237 11:19 17.01.2020
638 Clouds -21 1033 85 0 1.1 237 10:45 17.01.2020
639 Clouds -21 1033 85 0 1.1 237 10:24 17.01.2020
640 Clouds -21 1033 85 0 1.1 237 09:59 17.01.2020
641 Clouds -21 1033 85 0 1.1 237 09:41 17.01.2020
642 Clouds -21 1033 85 0 1.1 237 09:20 17.01.2020
643 Clouds -21 1033 85 0 1.1 237 08:46 17.01.2020
644 Clouds -21 1033 83 0 1.49 247 08:26 17.01.2020
645 Clear -17 1031 80 0 2.19 236 07:56 17.01.2020
646 Clear -17 1031 80 0 2.19 236 07:36 17.01.2020
647 Clear -17 1031 80 0 2.19 236 07:18 17.01.2020
648 Clear -17 1031 80 0 2.19 236 06:43 17.01.2020
649 Clear -17 1031 80 0 2.19 236 05:59 17.01.2020
650 Clouds -20 1034 81 0 1.86 191 03:44 17.01.2020
651 Clouds -20 1034 81 0 1.86 191 02:55 17.01.2020
652 Clouds -20 1034 81 0 1.86 191 02:28 17.01.2020
653 Clouds -20 1032 85 0 1.78 198 01:32 17.01.2020
654 Clouds -20 1032 85 0 1.78 198 00:55 17.01.2020
655 Clouds -20 1032 85 0 1.78 198 00:28 17.01.2020
656 Clouds -20 1032 85 0 1.78 198 23:50 16.01.2020
657 Clouds -20 1032 85 0 1.78 198 23:26 16.01.2020
658 Clouds -18 1030 64 0 0.53 196 22:58 16.01.2020
659 Clouds -18 1030 64 0 0.53 196 22:40 16.01.2020
660 Clouds -18 1030 64 0 0.53 196 22:21 16.01.2020
661 Clouds -18 1030 64 0 0.53 196 21:55 16.01.2020
662 Clouds -18 1030 64 0 0.53 196 21:37 16.01.2020
663 Clouds -18 1030 64 0 0.53 196 21:18 16.01.2020
664 Clouds -18 1030 64 0 0.53 196 20:56 16.01.2020
665 Clouds -18 1030 64 0 0.53 196 20:37 16.01.2020
666 Clouds -19 1030 65 0 1.58 145 20:18 16.01.2020
667 Clouds -19 1030 65 0 1.58 145 20:18 16.01.2020
668 Clouds -19 1030 65 0 1.58 145 19:41 16.01.2020
669 Clouds -19 1030 65 0 1.58 145 19:23 16.01.2020
670 Clouds -19 1030 65 0 1.58 145 18:58 16.01.2020
671 Clouds -19 1030 65 0 1.58 145 18:39 16.01.2020
672 Clouds -19 1030 65 0 1.58 145 18:21 16.01.2020
673 Clouds -19 1030 65 0 1.58 145 17:59 16.01.2020
674 Clouds -19 1030 65 0 1.58 145 17:41 16.01.2020
675 Clouds -19 1032 73 0 1.36 122 17:21 16.01.2020
676 Clouds -19 1032 73 0 1.36 122 16:56 16.01.2020
677 Clouds -19 1032 73 0 1.36 122 16:37 16.01.2020
678 Clouds -19 1032 73 0 1.36 122 16:18 16.01.2020
679 Clouds -19 1032 73 0 1.36 122 15:44 16.01.2020
680 Clouds -19 1032 73 0 1.36 122 15:21 16.01.2020
681 Clouds -19 1032 73 0 1.36 122 14:55 16.01.2020
682 Clouds -19 1032 73 0 1.36 122 14:37 16.01.2020
683 Clouds -18 1032 76 0 0.91 110 14:18 16.01.2020
684 Clouds -18 1032 76 0 0.91 110 13:43 16.01.2020
685 Clouds -18 1032 74 0 0.85 102 13:24 16.01.2020
686 Clouds -18 1032 74 0 0.85 102 12:46 16.01.2020
687 Clouds -18 1032 74 0 0.85 102 12:28 16.01.2020
688 Clouds -18 1032 74 0 0.85 102 11:57 16.01.2020
689 Clouds -18 1032 74 0 0.85 102 11:39 16.01.2020
690 Clouds -17 1031 74 0 0.33 353 11:21 16.01.2020
691 Clouds -17 1031 74 0 0.33 353 10:39 16.01.2020
692 Clouds -17 1031 74 0 0.33 353 10:21 16.01.2020
693 Clouds -17 1031 74 0 0.33 353 09:58 16.01.2020
694 Clouds -17 1031 74 0 0.33 353 09:39 16.01.2020
695 Clouds -17 1031 74 0 0.33 353 09:21 16.01.2020
696 Clouds -17 1031 74 0 0.33 353 08:52 16.01.2020
697 Clouds -17 1031 74 0 0.33 353 08:34 16.01.2020
698 Clouds -14 1032 71 0 0.79 313 07:59 16.01.2020
699 Clouds -14 1032 71 0 0.79 313 07:39 16.01.2020
700 Clouds -14 1032 71 0 0.79 313 07:20 16.01.2020
701 Clouds -14 1032 71 0 0.79 313 06:43 16.01.2020
702 Clouds -14 1032 71 0 0.79 313 05:59 16.01.2020
703 Clouds -14 1032 71 0 0.79 313 05:40 16.01.2020
704 Clouds -18 1034 64 0 1.04 92 04:37 16.01.2020
705 Clouds -18 1034 64 0 1.04 92 04:37 16.01.2020
706 Clouds -18 1034 64 0 1.04 92 03:28 16.01.2020
707 Clouds -18 1034 64 0 1.04 92 02:42 16.01.2020
708 Clouds -19 1033 64 0 1.33 119 00:54 16.01.2020
709 Clouds -19 1033 64 0 1.33 119 00:24 16.01.2020
710 Clouds -19 1033 64 0 1.33 119 23:50 15.01.2020
711 Clouds -19 1033 64 0 1.33 119 23:50 15.01.2020
712 Clouds -19 1033 64 0 1.33 119 23:23 15.01.2020
713 Clouds -18 1032 63 0 1.68 132 22:59 15.01.2020
714 Clouds -18 1032 63 0 1.68 132 22:41 15.01.2020
715 Clouds -18 1032 63 0 1.68 132 22:19 15.01.2020
716 Clouds -18 1032 63 0 1.68 132 21:58 15.01.2020
717 Clouds -18 1032 63 0 1.68 132 21:40 15.01.2020
718 Clouds -18 1032 63 0 1.68 132 21:21 15.01.2020
719 Clouds -18 1032 63 0 1.68 132 20:58 15.01.2020
720 Clouds -18 1032 63 0 1.68 132 20:58 15.01.2020
721 Clouds -18 1032 63 0 1.68 132 20:40 15.01.2020
722 Clouds -16 1032 63 0 1.58 132 20:21 15.01.2020
723 Clouds -16 1032 63 0 1.58 132 19:55 15.01.2020
724 Clouds -16 1032 63 0 1.58 132 19:55 15.01.2020
725 Clouds -16 1032 63 0 1.58 132 19:37 15.01.2020
726 Clouds -16 1032 63 0 1.58 132 19:19 15.01.2020
727 Clouds -16 1032 63 0 1.58 132 18:57 15.01.2020
728 Clouds -16 1032 63 0 1.58 132 18:38 15.01.2020
729 Clouds -16 1032 63 0 1.58 132 18:20 15.01.2020
730 Clouds -16 1032 63 0 1.58 132 18:20 15.01.2020
731 Clouds -16 1032 63 0 1.58 132 17:58 15.01.2020
732 Clouds -16 1032 63 0 1.58 132 17:39 15.01.2020
733 Clouds -15 1032 61 0 1.68 134 17:20 15.01.2020
734 Clouds -15 1032 61 0 1.68 134 16:42 15.01.2020
735 Clouds -15 1032 61 0 1.68 134 16:24 15.01.2020
736 Clouds -15 1032 61 0 1.68 134 15:59 15.01.2020
737 Clouds -15 1032 61 0 1.68 134 15:41 15.01.2020
738 Clouds -15 1032 61 0 1.68 134 15:20 15.01.2020
739 Clouds -15 1032 61 0 1.68 134 14:45 15.01.2020
740 Clouds -15 1032 60 0 1.98 132 14:21 15.01.2020
741 Clouds -15 1032 60 0 1.98 132 13:56 15.01.2020
742 Clouds -15 1032 60 0 1.98 132 13:38 15.01.2020
743 Clouds -15 1031 61 0 2.03 134 13:20 15.01.2020
744 Clouds -15 1031 61 0 2.03 134 12:55 15.01.2020
745 Clouds -15 1031 61 0 2.03 134 12:36 15.01.2020
746 Clouds -15 1031 61 0 2.03 134 12:18 15.01.2020
747 Clouds -15 1031 61 0 2.03 134 11:38 15.01.2020
748 Clouds -13 1030 65 0 1.97 135 11:20 15.01.2020
749 Clouds -13 1030 65 0 1.97 135 10:47 15.01.2020
750 Clouds -13 1030 65 0 1.97 135 10:28 15.01.2020
751 Clouds -13 1030 65 0 1.97 135 09:58 15.01.2020
752 Clouds -13 1030 65 0 1.97 135 09:39 15.01.2020
753 Clouds -13 1030 65 0 1.97 135 09:19 15.01.2020
754 Clouds -13 1030 65 0 1.97 135 08:44 15.01.2020
755 Clouds -13 1030 65 0 1.97 135 08:24 15.01.2020
756 Clouds -11 1030 71 0 2.29 119 07:54 15.01.2020
757 Clouds -11 1030 71 0 2.29 119 07:33 15.01.2020
758 Clouds -11 1030 71 0 2.29 119 06:52 15.01.2020
759 Clouds -11 1030 71 0 2.29 119 06:28 15.01.2020
760 Clouds -15 1033 62 0 3 114 04:56 15.01.2020
761 Clouds -15 1033 62 0 3 114 02:48 15.01.2020
762 Clouds -17 1033 54 0 3.04 115 01:48 15.01.2020
763 Clouds -17 1033 55 0 3.11 115 01:21 15.01.2020
764 Clouds -17 1033 55 0 3.11 115 00:37 15.01.2020
765 Clouds -17 1033 55 0 3.11 115 00:19 15.01.2020
766 Clouds -17 1033 55 0 3.11 115 23:46 14.01.2020
767 Clouds -17 1033 55 0 3.11 115 23:24 14.01.2020
768 Clouds -18 1032 57 0 3.13 118 22:57 14.01.2020
769 Clouds -18 1032 57 0 3.13 118 22:38 14.01.2020
770 Clouds -18 1032 57 0 3.13 118 22:18 14.01.2020
771 Clouds -18 1032 57 0 3.13 118 21:56 14.01.2020
772 Clouds -18 1032 57 0 3.13 118 21:37 14.01.2020
773 Clouds -18 1032 57 0 3.13 118 21:19 14.01.2020
774 Clouds -18 1032 57 0 3.13 118 20:42 14.01.2020
775 Clouds -17 1032 60 0 2.95 117 20:22 14.01.2020
776 Clouds -17 1032 58 0 2.52 114 19:57 14.01.2020
777 Clouds -17 1032 58 0 2.52 114 19:57 14.01.2020
778 Clouds -17 1032 58 0 2.52 114 19:38 14.01.2020
779 Clouds -17 1032 58 0 2.52 114 19:20 14.01.2020
780 Clouds -17 1032 58 0 2.52 114 18:59 14.01.2020
781 Clouds -17 1032 58 0 2.52 114 18:40 14.01.2020
782 Clouds -17 1032 58 0 2.52 114 18:19 14.01.2020
783 Clouds -17 1032 58 0 2.52 114 18:19 14.01.2020
784 Clouds -17 1032 58 0 2.52 114 17:39 14.01.2020
785 Clouds -17 1032 56 0 1.88 117 17:20 14.01.2020
786 Clouds -17 1032 56 0 1.88 117 16:59 14.01.2020
787 Clouds -17 1032 56 0 1.88 117 16:41 14.01.2020
788 Clouds -17 1032 56 0 1.88 117 16:21 14.01.2020
789 Clouds -17 1032 56 0 1.88 117 15:55 14.01.2020
790 Clouds -17 1032 56 0 1.88 117 15:37 14.01.2020
791 Clouds -17 1032 56 0 1.88 117 15:18 14.01.2020
792 Clouds -17 1032 56 0 1.88 117 14:43 14.01.2020
793 Clouds -16 1031 58 0 1.6 119 14:20 14.01.2020
794 Clouds -16 1031 58 0 1.6 119 13:43 14.01.2020
795 Clouds -16 1030 58 0 1.61 125 13:20 14.01.2020
796 Clouds -16 1030 58 0 1.61 125 12:59 14.01.2020
797 Clouds -16 1030 58 0 1.61 125 12:40 14.01.2020
798 Clouds -16 1030 58 0 1.61 125 12:20 14.01.2020
799 Clouds -16 1030 58 0 1.61 125 12:20 14.01.2020
800 Clouds -16 1030 58 0 1.61 125 12:20 14.01.2020
801 Clouds -16 1030 58 0 1.61 125 11:43 14.01.2020
802 Clouds -16 1030 58 0 1.61 125 11:23 14.01.2020
803 Clouds -15 1027 64 0 1.14 110 10:58 14.01.2020
804 Clouds -15 1027 64 0 1.14 110 10:39 14.01.2020
805 Clouds -15 1027 64 0 1.14 110 10:20 14.01.2020
806 Clouds -15 1027 64 0 1.14 110 09:57 14.01.2020
807 Clouds -15 1027 64 0 1.14 110 09:39 14.01.2020
808 Clouds -15 1027 64 0 1.14 110 09:20 14.01.2020
809 Clouds -15 1027 64 0 1.14 110 08:44 14.01.2020
810 Clouds -15 1027 64 0 1.14 110 08:23 14.01.2020
811 Clouds -12 1026 72 0 1.11 155 07:53 14.01.2020
812 Clouds -12 1026 72 0 1.11 155 07:31 14.01.2020
813 Clouds -12 1026 72 0 1.11 155 06:51 14.01.2020
814 Clouds -12 1026 72 0 1.11 155 06:27 14.01.2020
815 Clouds -12 1026 72 0 1.11 155 05:25 14.01.2020
816 Clouds -16 1028 64 0 2.55 118 03:51 14.01.2020
817 Clouds -16 1028 64 0 2.55 118 03:51 14.01.2020
818 Clouds -16 1028 64 0 2.55 118 02:42 14.01.2020
819 Clear -19 1029 63 0 2.75 118 01:53 14.01.2020
820 Clear -19 1029 64 0 2.88 116 00:49 14.01.2020
821 Clear -19 1029 64 0 2.88 116 00:28 14.01.2020
822 Clear -19 1029 64 0 2.88 116 23:54 13.01.2020
823 Clear -19 1029 64 0 2.88 116 23:36 13.01.2020
824 Clear -19 1030 68 0 2.32 114 23:18 13.01.2020
825 Clear -19 1030 68 0 2.32 114 22:41 13.01.2020
826 Clear -19 1030 68 0 2.32 114 22:21 13.01.2020
827 Clear -19 1030 68 0 2.32 114 21:56 13.01.2020
828 Clear -19 1030 68 0 2.32 114 21:37 13.01.2020
829 Clear -19 1030 68 0 2.32 114 21:18 13.01.2020
830 Clear -19 1030 68 0 2.32 114 20:57 13.01.2020
831 Clear -19 1030 68 0 2.32 114 20:38 13.01.2020
832 Clouds -19 1030 68 0 1.85 129 20:20 13.01.2020
833 Clouds -19 1030 68 0 1.89 122 19:57 13.01.2020
834 Clouds -19 1030 68 0 1.89 122 19:38 13.01.2020
835 Clouds -19 1030 68 0 1.89 122 19:18 13.01.2020
836 Clouds -19 1030 68 0 1.89 122 18:56 13.01.2020
837 Clouds -19 1030 68 0 1.89 122 18:56 13.01.2020
838 Clouds -19 1030 68 0 1.89 122 18:37 13.01.2020
839 Clouds -19 1030 68 0 1.89 122 18:37 13.01.2020
840 Clouds -19 1030 68 0 1.89 122 18:18 13.01.2020
841 Clouds -19 1030 68 0 1.89 122 17:40 13.01.2020
842 Clouds -19 1030 68 0 1.89 122 17:22 13.01.2020
843 Clouds -19 1030 68 0 1.89 122 17:22 13.01.2020
844 Clouds -19 1030 62 0 2.04 113 16:56 13.01.2020
845 Clouds -19 1030 62 0 2.04 113 16:38 13.01.2020
846 Clouds -19 1030 62 0 2.04 113 16:19 13.01.2020
847 Clouds -19 1030 62 0 2.04 113 15:43 13.01.2020
848 Clouds -19 1030 62 0 2.04 113 15:23 13.01.2020
849 Clouds -19 1030 62 0 2.04 113 14:58 13.01.2020
850 Clouds -19 1030 62 0 2.04 113 14:38 13.01.2020
851 Clouds -20 1030 55 0 1.33 121 14:19 13.01.2020
852 Clouds -20 1030 55 0 1.33 121 13:42 13.01.2020
853 Clouds -20 1030 55 0 1.33 121 13:24 13.01.2020
854 -273 0 0 0 0 0 12:59 13.01.2020
855 Clouds -20 1030 56 0 1.22 138 12:41 13.01.2020
856 Clouds -20 1030 56 0 1.22 138 12:22 13.01.2020
857 Clouds -20 1030 56 0 1.22 138 11:57 13.01.2020
858 Clouds -20 1030 56 0 1.22 138 11:37 13.01.2020
859 Clouds -18 1028 61 0 0.53 158 11:19 13.01.2020
860 Clouds -18 1028 61 0 0.53 158 10:55 13.01.2020
861 Clouds -18 1028 61 0 0.53 158 10:37 13.01.2020
862 Clouds -18 1028 61 0 0.53 158 10:19 13.01.2020
863 Clouds -18 1028 61 0 0.53 158 09:43 13.01.2020
864 Clouds -18 1028 61 0 0.53 158 09:23 13.01.2020
865 Clouds -18 1028 61 0 0.53 158 08:56 13.01.2020
866 Clouds -18 1028 61 0 0.53 158 08:36 13.01.2020
867 Clouds -14 1027 68 0 0.47 161 08:18 13.01.2020
868 Clouds -14 1027 68 0 0.47 161 07:42 13.01.2020
869 Clouds -14 1027 68 0 0.47 161 07:21 13.01.2020
870 Clouds -14 1027 68 0 0.47 161 06:37 13.01.2020
871 Clouds -14 1027 68 0 0.47 161 06:37 13.01.2020
872 Clouds -14 1027 68 0 0.47 161 05:37 13.01.2020
873 Clouds -18 1029 56 0 1.66 139 04:56 13.01.2020
874 Clouds -18 1029 56 0 1.66 139 03:38 13.01.2020
875 Clouds -18 1029 56 0 1.66 139 02:49 13.01.2020
876 Clouds -18 1029 56 0 1.66 139 02:30 13.01.2020
877 Clouds -18 1029 56 0 1.66 139 02:30 13.01.2020
878 Clouds -19 1030 47 0 2.33 130 01:33 13.01.2020
879 Clouds -19 1030 47 0 2.33 130 00:44 13.01.2020
880 Clouds -19 1030 47 0 2.33 130 00:26 13.01.2020
881 Clouds -19 1030 47 0 2.33 130 23:57 12.01.2020
882 Clouds -19 1030 47 0 2.33 130 23:39 12.01.2020
883 Clouds -20 1031 52 0 2.77 126 23:21 12.01.2020
884 Clouds -20 1031 52 0 2.77 126 22:43 12.01.2020
885 Clouds -20 1031 52 0 2.77 126 22:43 12.01.2020
886 Clouds -20 1031 52 0 2.77 126 22:25 12.01.2020
887 Clouds -20 1031 52 0 2.77 126 21:59 12.01.2020
888 Clouds -20 1031 52 0 2.77 126 21:40 12.01.2020
889 Clouds -20 1031 52 0 2.77 126 21:20 12.01.2020
890 Clouds -20 1031 52 0 2.77 126 20:58 12.01.2020
891 Clouds -20 1031 52 0 2.77 126 20:39 12.01.2020
892 Clear -22 1032 51 0 2.98 117 20:21 12.01.2020
893 Clear -22 1032 51 0 2.98 117 19:56 12.01.2020
894 Clear -22 1032 51 0 2.98 117 19:56 12.01.2020
895 Clear -22 1032 51 0 2.98 117 19:38 12.01.2020
896 Clear -22 1032 51 0 2.98 117 19:38 12.01.2020
897 Clear -22 1032 51 0 2.98 117 19:19 12.01.2020
898 Clear -22 1032 51 0 2.98 117 18:58 12.01.2020
899 Clear -22 1032 51 0 2.98 117 18:58 12.01.2020
900 Clear -22 1032 51 0 2.98 117 18:40 12.01.2020
901 Clear -22 1032 51 0 2.98 117 18:40 12.01.2020
902 Clear -22 1032 51 0 2.98 117 18:21 12.01.2020
903 Clear -22 1032 51 0 2.98 117 17:58 12.01.2020
904 Clear -22 1032 51 0 2.98 117 17:38 12.01.2020
905 Clear -22 1034 56 0 2.76 121 17:19 12.01.2020
906 Clear -22 1034 56 0 2.76 121 16:55 12.01.2020
907 Clear -22 1034 56 0 2.76 121 16:37 12.01.2020
908 Clear -22 1034 56 0 2.76 121 16:19 12.01.2020
909 Clear -22 1034 56 0 2.76 121 15:42 12.01.2020
910 Clear -22 1034 56 0 2.76 121 15:24 12.01.2020
911 Clear -22 1034 56 0 2.76 121 14:57 12.01.2020
912 Clear -22 1034 56 0 2.76 121 14:38 12.01.2020
913 Clear -22 1034 68 0 2.45 120 14:19 12.01.2020
914 Clear -22 1034 68 0 2.45 120 13:44 12.01.2020
915 Clear -22 1034 68 0 2.45 120 13:44 12.01.2020
916 Clear -22 1033 65 0 2.53 120 13:25 12.01.2020
917 Clear -22 1033 65 0 2.53 120 12:59 12.01.2020
918 Clear -22 1033 65 0 2.53 120 12:39 12.01.2020
919 Clear -22 1033 65 0 2.53 120 12:20 12.01.2020
920 Clear -22 1033 65 0 2.53 120 11:58 12.01.2020
921 Clear -22 1033 65 0 2.53 120 11:39 12.01.2020
922 Clear -20 1033 79 0 1.45 119 11:20 12.01.2020
923 Clear -20 1033 79 0 1.45 119 10:41 12.01.2020
924 Clear -20 1033 79 0 1.45 119 10:22 12.01.2020
925 Clear -20 1033 79 0 1.45 119 09:57 12.01.2020
926 Clear -20 1033 79 0 1.45 119 09:38 12.01.2020
927 Clear -20 1033 79 0 1.45 119 09:19 12.01.2020
928 Clear -20 1033 79 0 1.45 119 08:45 12.01.2020
929 Clear -17 1034 82 0 1.04 138 08:20 12.01.2020
930 Clear -17 1034 82 0 1.04 138 07:41 12.01.2020
931 Clear -17 1034 82 0 1.04 138 07:23 12.01.2020
932 Clear -17 1034 82 0 1.04 138 06:48 12.01.2020
933 Clear -17 1034 82 0 1.04 138 06:29 12.01.2020
934 Clear -17 1034 82 0 1.04 138 05:32 12.01.2020
935 Clear -17 1034 82 0 1.04 138 05:32 12.01.2020
936 Clear -22 1038 84 0 1.91 119 04:27 12.01.2020
937 Clear -22 1038 84 0 1.91 119 03:24 12.01.2020
938 Clear -22 1038 84 0 1.91 119 02:33 12.01.2020
939 Clear -25 1039 90 0 1.77 125 01:51 12.01.2020
940 Clear -25 1039 91 0 1.72 120 01:29 12.01.2020
941 Clear -25 1039 91 0 1.72 120 00:41 12.01.2020
942 Clear -25 1039 91 0 1.72 120 00:20 12.01.2020
943 Clear -25 1039 91 0 1.72 120 00:20 12.01.2020
944 Clear -25 1039 91 0 1.72 120 23:42 11.01.2020
945 Clear -25 1040 97 0 1.31 124 23:20 11.01.2020
946 Clear -25 1040 97 0 1.31 124 22:58 11.01.2020
947 Clear -25 1040 97 0 1.31 124 22:58 11.01.2020
948 Clear -25 1040 97 0 1.31 124 22:40 11.01.2020
949 Clear -25 1040 97 0 1.31 124 22:20 11.01.2020
950 Clear -25 1040 97 0 1.31 124 21:58 11.01.2020
951 Clear -25 1040 97 0 1.31 124 21:40 11.01.2020
952 Clear -25 1040 97 0 1.31 124 21:40 11.01.2020
953 Clear -25 1040 97 0 1.31 124 21:18 11.01.2020
954 Clear -25 1040 97 0 1.31 124 20:41 11.01.2020
955 Clear -25 1040 97 0 1.31 124 20:22 11.01.2020
956 Clouds -25 1039 100 0 0.85 120 19:58 11.01.2020
957 Clouds -25 1039 100 0 0.85 120 19:39 11.01.2020
958 Clouds -25 1039 100 0 0.85 120 19:21 11.01.2020
959 Clouds -25 1039 100 0 0.85 120 18:58 11.01.2020
960 Clouds -25 1039 100 0 0.85 120 18:38 11.01.2020
961 Clouds -25 1039 100 0 0.85 120 18:20 11.01.2020
962 Clouds -25 1039 100 0 0.85 120 17:57 11.01.2020
963 Clouds -25 1039 100 0 0.85 120 17:39 11.01.2020
964 Clouds -24 1039 99 0 0.5 121 17:19 11.01.2020
965 Clouds -24 1039 99 0 0.5 121 16:45 11.01.2020
966 Clouds -24 1039 99 0 0.5 121 16:27 11.01.2020
967 Clouds -24 1039 99 0 0.5 121 15:59 11.01.2020
968 Clouds -24 1039 99 0 0.5 121 15:40 11.01.2020
969 Clouds -24 1039 99 0 0.5 121 15:22 11.01.2020
970 Clouds -24 1039 99 0 0.5 121 14:57 11.01.2020
971 Clouds -24 1039 99 0 0.5 121 14:38 11.01.2020
972 Clouds -22 1037 94 0 0.18 303 14:20 11.01.2020
973 Clouds -22 1037 94 0 0.18 303 13:40 11.01.2020
974 Clouds -22 1037 98 0 0.25 11 13:20 11.01.2020
975 Clouds -22 1037 98 0 0.25 11 12:58 11.01.2020
976 Clouds -22 1037 98 0 0.25 11 12:39 11.01.2020
977 Clouds -22 1037 98 0 0.25 11 12:21 11.01.2020
978 Clouds -22 1037 98 0 0.25 11 11:47 11.01.2020
979 Clouds -22 1037 98 0 0.25 11 11:26 11.01.2020
980 Clouds -21 1035 97 0 0.65 338 10:50 11.01.2020
981 Clouds -21 1035 97 0 0.65 338 10:30 11.01.2020
982 Clouds -21 1035 97 0 0.65 338 09:57 11.01.2020
983 Clouds -21 1035 97 0 0.65 338 09:37 11.01.2020
984 Clouds -21 1035 97 0 0.65 338 09:19 11.01.2020
985 Clouds -21 1035 97 0 0.65 338 08:41 11.01.2020
986 Clouds -19 1034 93 0 1.18 302 08:21 11.01.2020
987 Clouds -19 1034 93 0 1.18 302 07:44 11.01.2020
988 Clouds -19 1034 93 0 1.18 302 07:25 11.01.2020
989 Clouds -19 1034 93 0 1.18 302 06:48 11.01.2020
990 Clouds -19 1034 93 0 1.18 302 05:34 11.01.2020
991 Clouds -22 1036 96 0 1.3 99 04:46 11.01.2020
992 Clouds -22 1036 96 0 1.3 99 04:27 11.01.2020
993 Clouds -22 1036 96 0 1.3 99 02:49 11.01.2020
994 Clouds -22 1035 100 0 0.82 98 01:57 11.01.2020
995 Clouds -22 1035 100 0 0.82 98 01:38 11.01.2020
996 Clouds -22 1035 99 0 0.86 100 01:18 11.01.2020
997 Clouds -22 1035 99 0 0.86 100 00:38 11.01.2020
998 Clouds -22 1035 99 0 0.86 100 23:59 10.01.2020
999 Clouds -22 1035 99 0 0.86 100 23:40 10.01.2020
1000 Clouds -20 1034 99 0 0.7 72 23:21 10.01.2020
1001 Clouds -20 1034 99 0 0.7 72 22:55 10.01.2020
1002 Clouds -20 1034 99 0 0.7 72 22:37 10.01.2020
1003 Clouds -20 1034 99 0 0.7 72 22:18 10.01.2020
1004 Clouds -20 1034 99 0 0.7 72 21:55 10.01.2020
1005 Clouds -20 1034 99 0 0.7 72 21:36 10.01.2020
1006 Clouds -20 1034 99 0 0.7 72 21:18 10.01.2020
1007 Clouds -20 1034 99 0 0.7 72 20:42 10.01.2020
1008 Clouds -20 1034 99 0 0.7 72 20:24 10.01.2020
1009 Snow -20 1034 100 0 0.36 237 19:54 10.01.2020
1010 Snow -20 1034 100 0 0.36 237 19:36 10.01.2020
1011 Snow -20 1034 100 0 0.36 237 19:18 10.01.2020
1012 Snow -20 1034 100 0 0.36 237 18:41 10.01.2020
1013 Snow -20 1034 100 0 0.36 237 18:19 10.01.2020
1014 Snow -20 1034 100 0 0.36 237 17:57 10.01.2020
1015 Snow -20 1034 100 0 0.36 237 17:38 10.01.2020
1016 Snow -19 1033 99 0 0.6 234 17:20 10.01.2020
1017 Snow -19 1033 99 0 0.6 234 17:20 10.01.2020
1018 Snow -19 1033 99 0 0.6 234 16:55 10.01.2020
1019 Snow -19 1033 99 0 0.6 234 16:37 10.01.2020
1020 Snow -19 1033 99 0 0.6 234 16:19 10.01.2020
1021 Snow -19 1033 99 0 0.6 234 15:55 10.01.2020
1022 Snow -19 1033 99 0 0.6 234 15:36 10.01.2020
1023 Snow -19 1033 99 0 0.6 234 15:18 10.01.2020
1024 Snow -19 1033 99 0 0.6 234 14:42 10.01.2020
1025 Snow -17 1033 97 0 1.11 277 14:20 10.01.2020
1026 Snow -17 1033 97 0 1.11 277 13:59 10.01.2020
1027 Snow -17 1033 97 0 1.11 277 13:41 10.01.2020
1028 Snow -17 1032 97 0 1.18 274 13:23 10.01.2020
1029 Snow -17 1032 97 0 1.18 274 12:58 10.01.2020
1030 Snow -17 1032 97 0 1.18 274 12:38 10.01.2020
1031 Snow -17 1032 97 0 1.18 274 12:19 10.01.2020
1032 Snow -17 1032 97 0 1.18 274 11:55 10.01.2020
1033 Snow -17 1032 97 0 1.18 274 11:37 10.01.2020
1034 Snow -14 1031 96 0 0.93 303 11:18 10.01.2020
1035 Snow -14 1031 96 0 0.93 303 10:42 10.01.2020
1036 Snow -14 1031 96 0 0.93 303 10:24 10.01.2020
1037 Snow -14 1031 96 0 0.93 303 09:56 10.01.2020
1038 Snow -14 1031 96 0 0.93 303 09:56 10.01.2020
1039 Snow -14 1031 96 0 0.93 303 09:37 10.01.2020
1040 Snow -14 1031 96 0 0.93 303 09:19 10.01.2020
1041 Snow -14 1031 96 0 0.93 303 08:41 10.01.2020
1042 Snow -15 1031 96 0 0.91 325 08:23 10.01.2020
1043 Clouds -14 1031 83 0 0.39 4 07:45 10.01.2020
1044 Clouds -14 1031 83 0 0.39 4 07:26 10.01.2020
1045 Clouds -14 1031 83 0 0.39 4 06:46 10.01.2020
1046 Clouds -14 1031 83 0 0.39 4 06:26 10.01.2020
1047 Clouds -14 1031 83 0 0.39 4 05:51 10.01.2020
1048 Clouds -16 1034 66 0 1.73 151 03:37 10.01.2020
1049 Clouds -16 1034 66 0 1.73 151 03:18 10.01.2020
1050 Clouds -16 1034 66 0 1.73 151 02:49 10.01.2020
1051 Clouds -17 1034 59 0 1.98 121 01:44 10.01.2020
1052 Clouds -17 1034 59 0 1.98 121 01:26 10.01.2020
1053 Clouds -17 1034 59 0 1.98 117 00:40 10.01.2020
1054 Clouds -17 1034 59 0 1.98 117 23:58 09.01.2020
1055 Clouds -17 1034 59 0 1.98 117 23:39 09.01.2020
1056 Clouds -17 1036 58 0 2.42 110 23:20 09.01.2020
1057 Clouds -17 1036 58 0 2.42 110 22:57 09.01.2020
1058 Clouds -17 1036 58 0 2.42 110 22:39 09.01.2020
1059 Clouds -17 1036 58 0 2.42 110 22:19 09.01.2020
1060 Clouds -17 1036 58 0 2.42 110 21:57 09.01.2020
1061 Clouds -17 1036 58 0 2.42 110 21:37 09.01.2020
1062 Clouds -17 1036 58 0 2.42 110 21:19 09.01.2020
1063 Clouds -17 1036 58 0 2.42 110 20:57 09.01.2020
1064 Clouds -17 1036 58 0 2.42 110 20:39 09.01.2020
1065 Clouds -19 1038 54 0 2.6 111 20:19 09.01.2020
1066 Clouds -19 1037 56 0 2.65 110 19:57 09.01.2020
1067 Clouds -19 1037 56 0 2.65 110 19:37 09.01.2020
1068 Clouds -19 1037 56 0 2.65 110 19:19 09.01.2020
1069 Clouds -19 1037 56 0 2.65 110 18:55 09.01.2020
1070 Clouds -19 1037 56 0 2.65 110 18:36 09.01.2020
1071 Clouds -19 1037 56 0 2.65 110 18:18 09.01.2020
1072 Clouds -19 1037 56 0 2.65 110 17:41 09.01.2020
1073 Clouds -20 1039 60 0 2.71 110 17:18 09.01.2020
1074 Clouds -20 1039 60 0 2.71 110 16:49 09.01.2020
1075 Clouds -20 1039 60 0 2.71 110 16:24 09.01.2020
1076 Clouds -20 1039 60 0 2.71 110 15:59 09.01.2020
1077 Clouds -20 1039 60 0 2.71 110 15:40 09.01.2020
1078 Clouds -20 1039 60 0 2.71 110 15:19 09.01.2020
1079 Clouds -20 1039 60 0 2.71 110 14:42 09.01.2020
1080 Clouds -21 1039 65 0 2.22 100 14:22 09.01.2020
1081 Clouds -21 1039 65 0 2.22 100 13:57 09.01.2020
1082 Clouds -21 1039 65 0 2.22 100 13:39 09.01.2020
1083 Clouds -20 1039 65 0 2.14 99 13:20 09.01.2020
1084 Clouds -20 1039 65 0 2.14 99 12:59 09.01.2020
1085 Clouds -20 1039 65 0 2.14 99 12:40 09.01.2020
1086 Clouds -20 1039 65 0 2.14 99 12:20 09.01.2020
1087 Clouds -20 1039 65 0 2.14 99 11:57 09.01.2020
1088 Clouds -20 1039 65 0 2.14 99 11:38 09.01.2020
1089 Clouds -20 1037 68 0 1.19 83 11:20 09.01.2020
1090 Clouds -20 1037 68 0 1.19 83 10:43 09.01.2020
1091 Clouds -20 1037 68 0 1.19 83 10:22 09.01.2020
1092 Clouds -20 1037 68 0 1.19 83 09:56 09.01.2020
1093 Clouds -20 1037 68 0 1.19 83 09:38 09.01.2020
1094 Clouds -20 1037 68 0 1.19 83 09:18 09.01.2020
1095 Clouds -20 1037 68 0 1.19 83 08:55 09.01.2020
1096 Clouds -20 1037 68 0 1.19 83 08:37 09.01.2020
1097 Clear -17 1038 74 0 0.67 68 08:19 09.01.2020
1098 Clear -17 1038 74 0 0.67 68 07:42 09.01.2020
1099 Clear -17 1038 74 0 0.67 68 07:23 09.01.2020
1100 Clear -17 1038 74 0 0.67 68 06:38 09.01.2020
1101 Clear -17 1038 74 0 0.67 68 06:19 09.01.2020
1102 Clear -17 1038 74 0 0.67 68 05:44 09.01.2020
1103 Clear -22 1041 69 0 1.39 94 04:42 09.01.2020
1104 Clear -22 1041 69 0 1.39 94 03:30 09.01.2020
1105 Clear -22 1041 69 0 1.39 94 03:30 09.01.2020
1106 Clear -22 1041 69 0 1.39 94 02:48 09.01.2020
1107 Clear -22 1041 69 0 1.39 94 02:23 09.01.2020
1108 Clear -25 1041 77 0 1.59 100 01:35 09.01.2020
1109 Clear -24 1041 79 0 1.54 98 00:42 09.01.2020
1110 Clear -24 1041 79 0 1.54 98 00:21 09.01.2020
1111 Clear -24 1041 79 0 1.54 98 23:42 08.01.2020
1112 Clear -24 1041 79 0 1.54 98 23:24 08.01.2020
1113 Clear -25 1040 85 0 1.58 102 22:58 08.01.2020
1114 Clear -25 1040 85 0 1.58 102 22:38 08.01.2020
1115 Clear -25 1040 85 0 1.58 102 22:20 08.01.2020
1116 Clear -25 1040 85 0 1.58 102 21:56 08.01.2020
1117 Clear -25 1040 85 0 1.58 102 21:38 08.01.2020
1118 Clear -25 1040 85 0 1.58 102 21:19 08.01.2020
1119 Clear -25 1040 85 0 1.58 102 20:57 08.01.2020
1120 Clear -25 1040 85 0 1.58 102 20:38 08.01.2020
1121 Clear -25 1040 86 0 0.85 125 20:19 08.01.2020
1122 Clear -25 1040 86 0 0.85 125 19:55 08.01.2020
1123 Clear -25 1040 86 0 0.85 125 19:55 08.01.2020
1124 Clear -25 1040 86 0 0.85 125 19:36 08.01.2020
1125 Clear -25 1040 86 0 0.85 125 19:18 08.01.2020
1126 Clear -25 1040 86 0 0.85 125 18:54 08.01.2020
1127 Clear -25 1040 86 0 0.85 125 18:54 08.01.2020
1128 Clear -25 1040 86 0 0.85 125 18:36 08.01.2020
1129 Clear -25 1040 86 0 0.85 125 18:18 08.01.2020
1130 Clear -25 1040 86 0 0.85 125 18:18 08.01.2020
1131 Clear -25 1040 86 0 0.85 125 17:42 08.01.2020
1132 Clear -25 1040 86 0 0.85 125 17:23 08.01.2020
1133 Clear -25 1039 86 0 0.82 138 16:57 08.01.2020
1134 Clear -25 1039 86 0 0.82 138 16:39 08.01.2020
1135 Clear -25 1039 86 0 0.82 138 16:19 08.01.2020
1136 Clear -25 1039 86 0 0.82 138 16:19 08.01.2020
1137 Clear -25 1039 86 0 0.82 138 15:56 08.01.2020
1138 Clear -25 1039 86 0 0.82 138 15:38 08.01.2020
1139 Clear -25 1039 86 0 0.82 138 15:18 08.01.2020
1140 Clear -25 1039 86 0 0.82 138 14:41 08.01.2020
1141 Clear -24 1037 86 0 0.79 160 14:21 08.01.2020
1142 Clear -24 1037 86 0 0.79 160 13:56 08.01.2020
1143 Clear -24 1037 86 0 0.79 160 13:37 08.01.2020
1144 Clear -24 1036 85 0 0.92 162 13:18 08.01.2020
1145 Clear -24 1036 85 0 0.92 162 12:40 08.01.2020
1146 Clear -24 1036 85 0 0.92 162 12:18 08.01.2020
1147 Clear -24 1036 85 0 0.92 162 11:49 08.01.2020
1148 Clear -21 1034 82 0 0.34 216 11:20 08.01.2020
1149 Clear -21 1034 82 0 0.34 216 10:59 08.01.2020
1150 Clear -21 1034 82 0 0.34 216 10:41 08.01.2020
1151 Clear -21 1034 82 0 0.34 216 10:22 08.01.2020
1152 Clear -21 1034 82 0 0.34 216 09:58 08.01.2020
1153 Clear -21 1034 82 0 0.34 216 09:38 08.01.2020
1154 Clear -21 1034 82 0 0.34 216 09:18 08.01.2020
1155 Clear -21 1034 82 0 0.34 216 08:42 08.01.2020
1156 Clear -21 1034 80 0 0.33 214 08:23 08.01.2020
1157 Clear -17 1033 77 0 0.64 264 07:59 08.01.2020
1158 Clear -17 1033 77 0 0.64 264 07:59 08.01.2020
1159 Clear -17 1033 77 0 0.64 264 07:59 08.01.2020
1160 Clear -17 1033 77 0 0.64 264 07:41 08.01.2020
1161 Clear -17 1033 77 0 0.64 264 07:20 08.01.2020
1162 Clear -17 1033 77 0 0.64 264 06:42 08.01.2020
1163 Clear -17 1033 77 0 0.64 264 05:57 08.01.2020
1164 Clear -17 1033 77 0 0.64 264 05:27 08.01.2020
1165 Clear -21 1035 68 0 0.88 112 04:37 08.01.2020
1166 Clear -21 1035 68 0 0.88 112 02:48 08.01.2020
1167 Clear -21 1035 68 0 0.88 112 02:30 08.01.2020
1168 Clear -22 1034 66 0 1.21 132 01:58 08.01.2020
1169 Clear -22 1034 66 0 1.21 132 01:32 08.01.2020
1170 -273 0 0 0 0 0 00:52 08.01.2020
1171 Clear -22 1034 64 0 1.09 135 00:24 08.01.2020
1172 Clear -22 1034 64 0 1.09 135 23:46 07.01.2020
1173 Clear -21 1033 61 0 1.75 126 23:21 07.01.2020
1174 Clear -21 1033 61 0 1.75 126 23:21 07.01.2020
1175 Clear -21 1033 61 0 1.75 126 22:57 07.01.2020
1176 Clear -21 1033 61 0 1.75 126 22:38 07.01.2020
1177 Clear -21 1033 61 0 1.75 126 22:19 07.01.2020
1178 Clear -21 1033 61 0 1.75 126 21:42 07.01.2020
1179 Clear -21 1033 61 0 1.75 126 21:22 07.01.2020
1180 Clear -21 1033 61 0 1.75 126 20:58 07.01.2020
1181 Clear -21 1033 61 0 1.75 126 20:40 07.01.2020
1182 Clouds -20 1033 58 0 1.53 133 20:22 07.01.2020
1183 Clouds -20 1033 58 0 1.53 133 19:57 07.01.2020
1184 Clouds -20 1033 58 0 1.53 133 19:38 07.01.2020
1185 Clouds -20 1033 58 0 1.53 133 19:19 07.01.2020
1186 Clouds -20 1033 58 0 1.53 133 18:56 07.01.2020
1187 Clouds -20 1033 58 0 1.53 133 18:38 07.01.2020
1188 Clouds -20 1033 58 0 1.53 133 18:18 07.01.2020
1189 Clouds -20 1033 58 0 1.53 133 17:55 07.01.2020
1190 Clouds -20 1033 58 0 1.53 133 17:37 07.01.2020
1191 Clouds -18 1033 57 0 1.26 140 17:18 07.01.2020
1192 Clouds -18 1033 57 0 1.26 140 16:55 07.01.2020
1193 Clouds -18 1033 57 0 1.26 140 16:37 07.01.2020
1194 Clouds -18 1033 57 0 1.26 140 16:18 07.01.2020
1195 Clouds -18 1033 57 0 1.26 140 15:43 07.01.2020
1196 Clouds -18 1033 57 0 1.26 140 15:24 07.01.2020
1197 Clouds -18 1033 57 0 1.26 140 15:24 07.01.2020
1198 Clouds -18 1033 57 0 1.26 140 14:58 07.01.2020
1199 Clouds -18 1033 57 0 1.26 140 14:58 07.01.2020
1200 Clouds -18 1033 57 0 1.26 140 14:40 07.01.2020
1201 Clouds -16 1033 55 0 1.64 127 14:21 07.01.2020
1202 Clouds -16 1033 55 0 1.64 127 13:46 07.01.2020
1203 Clouds -17 1033 57 0 1.52 129 13:21 07.01.2020
1204 Clouds -17 1033 57 0 1.52 129 12:56 07.01.2020
1205 Clouds -17 1033 57 0 1.52 129 12:38 07.01.2020
1206 Clouds -17 1033 57 0 1.52 129 12:19 07.01.2020
1207 Clouds -17 1033 57 0 1.52 129 11:41 07.01.2020
1208 Clouds -17 1033 57 0 1.52 129 11:23 07.01.2020
1209 Clouds -16 1032 60 0 1.2 149 10:57 07.01.2020
1210 Clouds -16 1032 60 0 1.2 149 10:39 07.01.2020
1211 Clouds -16 1032 60 0 1.2 149 10:39 07.01.2020
1212 Clouds -16 1032 60 0 1.2 149 10:39 07.01.2020
1213 Clouds -16 1032 60 0 1.2 149 10:39 07.01.2020
1214 Clouds -16 1032 60 0 1.2 149 10:21 07.01.2020
1215 Clouds -16 1032 60 0 1.2 149 09:39 07.01.2020
1216 Clouds -16 1032 60 0 1.2 149 09:21 07.01.2020
1217 Clouds -16 1032 60 0 1.2 149 08:59 07.01.2020
1218 Clouds -16 1032 60 0 1.2 149 08:41 07.01.2020
1219 Clouds -13 1032 67 0 1.14 131 08:18 07.01.2020
1220 Clouds -13 1032 67 0 1.14 131 07:47 07.01.2020
1221 Clouds -13 1032 67 0 1.14 131 07:20 07.01.2020
1222 Clouds -13 1032 67 0 1.14 131 06:49 07.01.2020
1223 Clouds -13 1032 67 0 1.14 131 06:29 07.01.2020
1224 Clouds -13 1032 67 0 1.14 131 05:41 07.01.2020
1225 Clear -17 1035 53 0 2.22 123 03:47 07.01.2020
1226 Clear -17 1035 53 0 2.22 123 03:25 07.01.2020
1227 Clear -18 1035 52 0 2.35 123 02:19 07.01.2020
1228 Clear -18 1035 52 0 2.35 123 01:40 07.01.2020
1229 Clear -18 1035 53 0 2.27 124 00:58 07.01.2020
1230 Clear -18 1035 53 0 2.27 124 00:21 07.01.2020
1231 Clear -18 1035 53 0 2.27 124 00:21 07.01.2020
1232 Clear -18 1035 53 0 2.27 124 23:57 06.01.2020
1233 Clear -18 1035 53 0 2.27 124 23:38 06.01.2020
1234 Clear -17 1036 54 0 2.44 120 23:20 06.01.2020
1235 Clear -17 1036 54 0 2.44 120 22:44 06.01.2020
1236 Clear -17 1036 54 0 2.44 120 22:25 06.01.2020
1237 Clear -17 1036 54 0 2.44 120 21:59 06.01.2020
1238 Clear -17 1036 54 0 2.44 120 21:40 06.01.2020
1239 Clear -17 1036 54 0 2.44 120 21:21 06.01.2020
1240 Clear -17 1036 54 0 2.44 120 20:58 06.01.2020
1241 Clear -17 1036 54 0 2.44 120 20:40 06.01.2020
1242 Clear -17 1036 55 0 2.56 117 20:20 06.01.2020
1243 Clear -17 1036 54 0 2.5 116 19:57 06.01.2020
1244 Clear -17 1036 54 0 2.5 116 19:39 06.01.2020
1245 Clear -17 1036 54 0 2.5 116 19:20 06.01.2020
1246 Clear -17 1036 54 0 2.5 116 18:48 06.01.2020
1247 Clear -17 1036 54 0 2.5 116 18:25 06.01.2020
1248 Clear -17 1036 54 0 2.5 116 18:00 06.01.2020
1249 Clear -17 1036 54 0 2.5 116 17:39 06.01.2020
1250 Clear -17 1037 54 0 2.57 114 17:19 06.01.2020
1251 Clear -17 1037 54 0 2.57 114 16:55 06.01.2020
1252 Clear -17 1037 54 0 2.57 114 16:36 06.01.2020
1253 Clear -17 1037 54 0 2.57 114 16:18 06.01.2020
1254 Clear -17 1037 54 0 2.57 114 15:42 06.01.2020
1255 Clear -17 1037 54 0 2.57 114 15:20 06.01.2020
1256 Clear -17 1037 54 0 2.57 114 14:59 06.01.2020
1257 Clear -17 1037 54 0 2.57 114 14:41 06.01.2020
1258 Clear -17 1037 54 0 2.57 114 14:41 06.01.2020
1259 Clear -17 1037 52 0 2.35 114 14:21 06.01.2020
1260 Clear -17 1037 52 0 2.35 114 13:57 06.01.2020
1261 Clear -17 1037 52 0 2.35 114 13:38 06.01.2020
1262 Clear -17 1037 53 0 2.35 114 13:19 06.01.2020
1263 Clear -17 1037 53 0 2.35 114 12:43 06.01.2020
1264 Clear -17 1037 53 0 2.35 114 12:21 06.01.2020
1265 Clear -17 1037 53 0 2.35 114 11:58 06.01.2020
1266 Clear -17 1037 53 0 2.35 114 11:39 06.01.2020
1267 Clear -15 1036 58 0 1.58 117 11:21 06.01.2020
1268 Clear -15 1036 58 0 1.58 117 10:54 06.01.2020
1269 Clear -15 1036 58 0 1.58 117 10:36 06.01.2020
1270 Clear -15 1036 58 0 1.58 117 10:18 06.01.2020
1271 Clear -15 1036 58 0 1.58 117 09:37 06.01.2020
1272 Clear -15 1036 58 0 1.58 117 09:19 06.01.2020
1273 Clear -15 1036 58 0 1.58 117 08:43 06.01.2020
1274 Clear -15 1036 58 0 1.58 117 08:25 06.01.2020
1275 Clear -12 1036 67 0 0.71 123 07:53 06.01.2020
1276 Clear -12 1036 67 0 0.71 123 07:28 06.01.2020
1277 Clear -12 1036 67 0 0.71 123 06:45 06.01.2020
1278 Clear -12 1036 67 0 0.71 123 06:20 06.01.2020
1279 Clear -12 1036 67 0 0.71 123 05:45 06.01.2020
1280 Clear -16 1038 52 0 1.98 117 04:37 06.01.2020
1281 Clear -16 1038 52 0 1.98 117 04:18 06.01.2020
1282 Clear -16 1038 52 0 1.98 117 02:46 06.01.2020
1283 Clear -16 1038 52 0 1.98 117 02:23 06.01.2020
1284 Clear -18 1037 50 0 2.11 115 01:44 06.01.2020
1285 Clouds -18 1037 51 0 2.12 121 01:24 06.01.2020
1286 Clouds -18 1037 51 0 2.12 121 00:41 06.01.2020
1287 Clouds -18 1037 51 0 2.12 121 00:20 06.01.2020
1288 Clouds -18 1037 51 0 2.12 121 23:41 05.01.2020
1289 Clouds -18 1037 51 0 2.12 121 23:22 05.01.2020
1290 Clouds -17 1037 50 0 2.23 114 22:56 05.01.2020
1291 Clouds -17 1037 50 0 2.23 114 22:37 05.01.2020
1292 Clouds -17 1037 50 0 2.23 114 22:19 05.01.2020
1293 Clouds -17 1037 50 0 2.23 114 21:54 05.01.2020
1294 Clouds -17 1037 50 0 2.23 114 21:36 05.01.2020
1295 Clouds -17 1037 50 0 2.23 114 21:18 05.01.2020
1296 Clouds -17 1037 50 0 2.23 114 21:18 05.01.2020
1297 Clouds -17 1037 50 0 2.23 114 20:54 05.01.2020
1298 Clouds -17 1037 50 0 2.23 114 20:36 05.01.2020
1299 Clouds -17 1037 50 0 2.23 114 20:36 05.01.2020
1300 Clouds -17 1037 50 0 1.89 111 20:18 05.01.2020
1301 Clouds -17 1037 50 0 1.89 111 19:41 05.01.2020
1302 Clouds -17 1037 50 0 1.89 111 19:21 05.01.2020
1303 Clouds -17 1037 50 0 1.89 111 18:56 05.01.2020
1304 Clouds -17 1037 50 0 1.89 111 18:38 05.01.2020
1305 Clouds -17 1037 50 0 1.89 111 18:20 05.01.2020
1306 Clouds -17 1037 50 0 1.89 111 17:59 05.01.2020
1307 Clouds -17 1037 50 0 1.89 111 17:59 05.01.2020
1308 Clouds -17 1037 50 0 1.89 111 17:39 05.01.2020
1309 Clouds -17 1036 48 0 1.9 117 17:20 05.01.2020
1310 Clouds -17 1036 48 0 1.9 117 16:57 05.01.2020
1311 Clouds -17 1036 48 0 1.9 117 16:39 05.01.2020
1312 Clouds -17 1036 48 0 1.9 117 16:20 05.01.2020
1313 Clouds -17 1036 48 0 1.9 117 15:40 05.01.2020
1314 Clouds -17 1036 48 0 1.9 117 15:22 05.01.2020
1315 Clouds -17 1036 48 0 1.9 117 15:22 05.01.2020
1316 Clouds -17 1036 48 0 1.9 117 14:57 05.01.2020
1317 Clouds -17 1036 48 0 1.9 117 14:39 05.01.2020
1318 Clouds -16 1035 52 0 2.06 95 14:21 05.01.2020
1319 Clouds -16 1035 52 0 2.06 95 13:58 05.01.2020
1320 Clouds -16 1035 52 0 2.06 95 13:38 05.01.2020
1321 Clouds -16 1035 52 0 2.06 95 13:20 05.01.2020
1322 Clouds -15 1035 53 0 1.51 100 12:56 05.01.2020
1323 Clouds -15 1035 53 0 1.51 100 12:38 05.01.2020
1324 Clouds -15 1035 53 0 1.51 100 12:19 05.01.2020
1325 Clouds -15 1035 53 0 1.51 100 11:54 05.01.2020
1326 Clouds -15 1035 53 0 1.51 100 11:54 05.01.2020
1327 Clouds -15 1035 53 0 1.51 100 11:36 05.01.2020
1328 Clouds -15 1035 53 0 1.51 100 11:36 05.01.2020
1329 Clouds -15 1034 64 0 0.93 77 11:18 05.01.2020
1330 Clouds -15 1034 64 0 0.93 77 10:40 05.01.2020
1331 Clouds -15 1034 64 0 0.93 77 10:20 05.01.2020
1332 Clouds -15 1034 64 0 0.93 77 09:43 05.01.2020
1333 Clouds -15 1034 64 0 0.93 77 09:22 05.01.2020
1334 Clouds -15 1034 64 0 0.93 77 08:56 05.01.2020
1335 Clouds -15 1034 64 0 0.93 77 08:38 05.01.2020
1336 Clear -13 1034 71 0 0.6 60 08:20 05.01.2020
1337 Clear -13 1034 71 0 0.6 60 07:39 05.01.2020
1338 Clear -13 1034 71 0 0.6 60 07:21 05.01.2020
1339 Clear -13 1034 71 0 0.6 60 06:47 05.01.2020
1340 Clear -13 1034 71 0 0.6 60 05:39 05.01.2020
1341 Clear -17 1036 70 0 1.79 105 04:56 05.01.2020
1342 Clear -17 1036 70 0 1.79 105 04:19 05.01.2020
1343 Clear -17 1036 70 0 1.79 105 03:31 05.01.2020
1344 Clear -17 1036 70 0 1.79 105 02:33 05.01.2020
1345 Clear -20 1036 78 0 1.75 108 01:49 05.01.2020
1346 Clear -20 1035 79 0 1.78 110 01:20 05.01.2020
1347 Clear -20 1035 79 0 1.78 110 00:57 05.01.2020
1348 Clear -20 1035 79 0 1.78 110 00:39 05.01.2020
1349 Clear -20 1035 79 0 1.78 110 00:19 05.01.2020
1350 Clear -20 1035 79 0 1.78 110 23:41 04.01.2020
1351 Clear -20 1035 81 0 1.45 103 23:20 04.01.2020
1352 Clear -20 1035 81 0 1.45 103 22:56 04.01.2020
1353 Clear -20 1035 81 0 1.45 103 22:38 04.01.2020
1354 Clear -20 1035 81 0 1.45 103 22:20 04.01.2020
1355 Clear -20 1035 81 0 1.45 103 21:55 04.01.2020
1356 Clear -20 1035 81 0 1.45 103 21:36 04.01.2020
1357 Clear -20 1035 81 0 1.45 103 21:18 04.01.2020
1358 Clear -20 1035 81 0 1.45 103 20:41 04.01.2020
1359 Clear -20 1035 81 0 1.31 113 20:22 04.01.2020
1360 Clear -20 1034 81 0 1.15 113 19:57 04.01.2020
1361 Clear -20 1034 81 0 1.15 113 19:39 04.01.2020
1362 Clear -20 1034 81 0 1.15 113 19:21 04.01.2020
1363 Clear -20 1034 81 0 1.15 113 18:57 04.01.2020
1364 Clear -20 1034 81 0 1.15 113 18:38 04.01.2020
1365 Clear -20 1034 81 0 1.15 113 18:19 04.01.2020
1366 Clear -20 1034 81 0 1.15 113 17:42 04.01.2020
1367 Clear -20 1034 81 0 1.15 113 17:42 04.01.2020
1368 Clear -20 1034 81 0 1.15 113 17:24 04.01.2020
1369 Clear -20 1034 81 0 1.15 113 17:24 04.01.2020
1370 Clear -20 1033 82 0 1.1 114 16:59 04.01.2020
1371 Clear -20 1033 82 0 1.1 114 16:40 04.01.2020
1372 Clear -20 1033 82 0 1.1 114 16:22 04.01.2020
1373 Clear -20 1033 82 0 1.1 114 16:22 04.01.2020
1374 Clear -20 1033 82 0 1.1 114 15:56 04.01.2020
1375 Clear -20 1033 82 0 1.1 114 15:38 04.01.2020
1376 Clear -20 1033 82 0 1.1 114 15:19 04.01.2020
1377 Clear -20 1033 82 0 1.1 114 14:54 04.01.2020
1378 Clear -20 1033 82 0 1.1 114 14:36 04.01.2020
1379 Clouds -19 1031 82 0 0.91 120 14:18 04.01.2020
1380 Clouds -19 1031 82 0 0.91 120 13:39 04.01.2020
1381 Clouds -19 1031 82 0 0.91 120 13:39 04.01.2020
1382 Clouds -19 1031 83 0 0.8 117 13:20 04.01.2020
1383 Clouds -19 1031 83 0 0.8 117 12:59 04.01.2020
1384 Clouds -19 1031 83 0 0.8 117 12:41 04.01.2020
1385 Clouds -19 1031 83 0 0.8 117 12:19 04.01.2020
1386 Clouds -19 1031 83 0 0.8 117 11:57 04.01.2020
1387 Clouds -19 1031 83 0 0.8 117 11:38 04.01.2020
1388 Clouds -16 1027 79 0 0.45 118 11:19 04.01.2020
1389 Clouds -16 1027 79 0 0.45 118 10:41 04.01.2020
1390 Clouds -16 1027 79 0 0.45 118 10:22 04.01.2020
1391 Clouds -16 1027 79 0 0.45 118 09:50 04.01.2020
1392 Clouds -16 1027 79 0 0.45 118 09:26 04.01.2020
1393 Clouds -16 1027 79 0 0.45 118 08:58 04.01.2020
1394 Clouds -16 1027 79 0 0.45 118 08:39 04.01.2020
1395 Clouds -11 1027 76 0 0.71 287 08:20 04.01.2020
1396 Clouds -11 1027 76 0 0.71 287 07:42 04.01.2020
1397 Clouds -11 1027 76 0 0.71 287 06:52 04.01.2020
1398 Clouds -11 1027 76 0 0.71 287 06:33 04.01.2020
1399 Clouds -14 1030 71 0 2.02 127 05:18 04.01.2020
1400 Clouds -14 1030 71 0 2.02 127 04:33 04.01.2020
1401 Clouds -14 1030 71 0 2.02 127 03:43 04.01.2020
1402 Clouds -14 1030 71 0 2.02 127 03:18 04.01.2020
1403 Clouds -16 1029 68 0 2.8 119 02:21 04.01.2020
1404 Clouds -16 1029 68 0 2.8 119 01:53 04.01.2020
1405 Clouds -16 1029 68 0 2.8 119 01:30 04.01.2020
1406 Clear -16 1030 69 0 2.68 120 00:41 04.01.2020
1407 Clear -16 1030 69 0 2.68 120 00:22 04.01.2020
1408 Clear -16 1030 69 0 2.68 120 23:42 03.01.2020
1409 Clear -16 1030 69 0 2.68 120 23:23 03.01.2020
1410 Clear -15 1029 68 0 2.73 123 22:41 03.01.2020
1411 Clear -15 1029 68 0 2.73 123 22:20 03.01.2020
1412 Clear -15 1029 68 0 2.73 123 21:58 03.01.2020
1413 Clear -15 1029 68 0 2.73 123 21:38 03.01.2020
1414 Clear -15 1029 68 0 2.73 123 21:19 03.01.2020
1415 Clear -15 1029 68 0 2.73 123 21:19 03.01.2020
1416 Clear -15 1029 68 0 2.73 123 20:58 03.01.2020
1417 Clear -15 1029 68 0 2.73 123 20:40 03.01.2020
1418 Clear -15 1030 66 0 3.04 118 20:18 03.01.2020
1419 Clear -15 1030 66 0 3.04 118 19:56 03.01.2020
1420 Clear -15 1030 66 0 3.04 118 19:37 03.01.2020
1421 Clear -15 1030 66 0 3.04 118 19:19 03.01.2020
1422 Clear -15 1030 66 0 3.04 118 18:43 03.01.2020
1423 Clear -15 1030 66 0 3.04 118 18:24 03.01.2020
1424 Clear -15 1030 66 0 3.04 118 17:55 03.01.2020
1425 Clear -15 1030 66 0 3.04 118 17:37 03.01.2020
1426 Clear -15 1030 66 0 3.04 118 17:37 03.01.2020
1427 Clear -14 1030 64 0 2.99 122 17:18 03.01.2020
1428 Clear -14 1030 64 0 2.99 122 17:18 03.01.2020
1429 Clear -14 1030 64 0 2.99 122 16:42 03.01.2020
1430 Clear -14 1030 64 0 2.99 122 16:22 03.01.2020
1431 Clear -14 1030 64 0 2.99 122 15:44 03.01.2020
1432 Clear -14 1030 64 0 2.99 122 15:19 03.01.2020
1433 Clear -14 1030 64 0 2.99 122 14:59 03.01.2020
1434 Clear -14 1030 64 0 2.99 122 14:38 03.01.2020
1435 Clear -13 1031 62 0 2.94 118 14:19 03.01.2020
1436 Clear -13 1031 62 0 2.94 118 13:44 03.01.2020
1437 Clear -13 1030 62 0 2.95 117 13:24 03.01.2020
1438 Clear -13 1030 62 0 2.95 117 12:58 03.01.2020
1439 Clear -13 1030 62 0 2.95 117 12:39 03.01.2020
1440 Clear -13 1030 62 0 2.95 117 12:21 03.01.2020
1441 Clear -13 1030 62 0 2.95 117 11:44 03.01.2020
1442 Clear -11 1028 66 0 2.48 115 11:21 03.01.2020
1443 Clear -11 1028 66 0 2.48 115 10:44 03.01.2020
1444 Clear -11 1028 66 0 2.48 115 10:26 03.01.2020
1445 Clear -11 1028 66 0 2.48 115 09:58 03.01.2020
1446 Clear -11 1028 66 0 2.48 115 09:39 03.01.2020
1447 Clear -11 1028 66 0 2.48 115 09:21 03.01.2020
1448 Clear -11 1028 66 0 2.48 115 08:56 03.01.2020
1449 Clear -11 1028 66 0 2.48 115 08:38 03.01.2020
1450 Clear -9 1030 71 0 2.12 122 08:19 03.01.2020
1451 Clear -9 1030 71 0 2.12 122 07:40 03.01.2020
1452 Clear -9 1030 71 0 2.12 122 07:18 03.01.2020
1453 Clear -9 1030 71 0 2.12 122 07:18 03.01.2020
1454 Clear -9 1030 71 0 2.12 122 06:47 03.01.2020
1455 Clear -9 1030 71 0 2.12 122 06:29 03.01.2020
1456 Clear -9 1030 71 0 2.12 122 05:39 03.01.2020
1457 Clear -13 1032 63 0 2.88 117 04:21 03.01.2020
1458 Clear -13 1032 63 0 2.88 117 02:56 03.01.2020
1459 Clear -13 1032 63 0 2.88 117 02:33 03.01.2020
1460 Clear -14 1033 61 0 2.99 117 01:42 03.01.2020
1461 Clear -14 1033 61 0 2.99 117 01:42 03.01.2020
1462 Clear -14 1033 58 0 2.92 119 00:50 03.01.2020
1463 Clear -14 1033 58 0 2.92 119 00:29 03.01.2020
1464 Clear -14 1033 58 0 2.92 119 23:55 02.01.2020
1465 Clear -14 1033 58 0 2.92 119 23:37 02.01.2020
1466 Clear -14 1033 48 0 2.96 116 23:18 02.01.2020
1467 Clear -14 1033 48 0 2.96 116 22:45 02.01.2020
1468 Clear -14 1033 48 0 2.96 116 22:21 02.01.2020
1469 Clear -14 1033 48 0 2.96 116 21:59 02.01.2020
1470 Clear -14 1033 48 0 2.96 116 21:41 02.01.2020
1471 Clear -14 1033 48 0 2.96 116 21:23 02.01.2020
1472 Clear -14 1033 48 0 2.96 116 20:58 02.01.2020
1473 Clear -14 1033 48 0 2.96 116 20:39 02.01.2020
1474 Clear -14 1034 44 0 2.99 118 20:20 02.01.2020
1475 Clear -14 1034 44 0 2.99 118 19:55 02.01.2020
1476 Clear -14 1034 44 0 2.99 118 19:37 02.01.2020
1477 Clear -14 1034 44 0 2.99 118 19:37 02.01.2020
1478 Clear -14 1034 44 0 2.99 118 19:19 02.01.2020
1479 Clear -14 1034 44 0 2.99 118 18:56 02.01.2020
1480 Clear -14 1034 44 0 2.99 118 18:37 02.01.2020
1481 Clear -14 1034 44 0 2.99 118 18:19 02.01.2020
1482 Clear -14 1034 44 0 2.99 118 17:55 02.01.2020
1483 Clear -14 1034 44 0 2.99 118 17:36 02.01.2020
1484 Clear -14 1034 44 0 3.2 120 17:18 02.01.2020
1485 Clear -14 1034 44 0 3.2 120 17:18 02.01.2020
1486 Clear -14 1034 44 0 3.2 120 16:54 02.01.2020
1487 Clear -14 1034 44 0 3.2 120 16:36 02.01.2020
1488 Clear -14 1034 44 0 3.2 120 16:18 02.01.2020
1489 Clear -14 1034 44 0 3.2 120 15:41 02.01.2020
1490 Clear -14 1034 44 0 3.2 120 15:23 02.01.2020
1491 Clear -14 1034 44 0 3.2 120 14:57 02.01.2020
1492 Clear -14 1034 44 0 3.2 120 14:57 02.01.2020
1493 Clear -14 1034 44 0 3.2 120 14:37 02.01.2020
1494 Clear -14 1034 47 0 2.99 118 14:18 02.01.2020
1495 Clear -14 1034 47 0 2.99 118 13:55 02.01.2020
1496 Clear -14 1034 47 0 2.97 118 13:36 02.01.2020
1497 Clear -14 1034 47 0 2.97 118 12:58 02.01.2020
1498 Clear -14 1034 47 0 2.97 118 12:39 02.01.2020
1499 Clear -14 1034 47 0 2.97 118 12:20 02.01.2020
1500 Clear -14 1034 47 0 2.97 118 11:41 02.01.2020
1501 Clear -12 1032 56 0 2.19 124 11:20 02.01.2020
1502 Clear -12 1032 56 0 2.19 124 10:45 02.01.2020
1503 Clear -12 1032 56 0 2.19 124 10:27 02.01.2020
1504 Clear -12 1032 56 0 2.19 124 09:56 02.01.2020
1505 Clear -12 1032 56 0 2.19 124 09:35 02.01.2020
1506 Clear -12 1032 56 0 2.19 124 08:53 02.01.2020
1507 Clear -12 1032 56 0 2.25 121 08:32 02.01.2020
1508 Clear -9 1032 66 0 1.93 134 07:58 02.01.2020
1509 Clear -9 1032 66 0 1.93 134 07:31 02.01.2020
1510 Clear -9 1032 66 0 1.93 134 06:57 02.01.2020
1511 Clear -9 1032 66 0 1.93 134 06:39 02.01.2020
1512 Clear -9 1032 66 0 1.93 134 05:38 02.01.2020
1513 Clear -13 1035 55 0 2.39 129 04:34 02.01.2020
1514 Clear -13 1035 55 0 2.39 129 03:23 02.01.2020
1515 Clear -15 1034 53 0 2.28 127 02:20 02.01.2020
1516 Clear -15 1034 53 0 2.28 127 01:48 02.01.2020
1517 Clear -15 1034 53 0 2.28 127 01:23 02.01.2020
1518 Clear -14 1034 55 0 2.28 128 00:38 02.01.2020
1519 Clear -14 1034 55 0 2.28 128 00:38 02.01.2020
1520 Clear -14 1034 55 0 2.28 128 00:19 02.01.2020
1521 Clear -14 1034 55 0 2.28 128 23:41 01.01.2020
1522 Clear -14 1033 56 0 2.2 130 23:21 01.01.2020
1523 Clear -14 1033 56 0 2.2 130 22:38 01.01.2020
1524 Clear -14 1033 56 0 2.2 130 22:20 01.01.2020
1525 Clear -14 1033 56 0 2.2 130 21:58 01.01.2020
1526 Clear -14 1033 56 0 2.2 130 21:39 01.01.2020
1527 Clear -14 1033 56 0 2.2 130 21:20 01.01.2020
1528 Clear -14 1033 56 0 2.2 130 20:56 01.01.2020
1529 Clear -14 1033 56 0 2.2 130 20:38 01.01.2020
1530 Clear -14 1032 57 0 2.27 129 20:19 01.01.2020
1531 Clouds -15 1032 58 0 2.08 130 19:55 01.01.2020
1532 Clouds -15 1032 58 0 2.08 130 19:55 01.01.2020
1533 Clouds -15 1032 58 0 2.08 130 19:55 01.01.2020
1534 Clouds -15 1032 58 0 2.08 130 19:55 01.01.2020
1535 Clouds -15 1032 58 0 2.08 130 19:37 01.01.2020
1536 Clouds -15 1032 58 0 2.08 130 19:19 01.01.2020
1537 Clouds -15 1032 58 0 2.08 130 18:56 01.01.2020
1538 Clouds -15 1032 58 0 2.08 130 18:36 01.01.2020
1539 Clouds -15 1032 58 0 2.08 130 18:18 01.01.2020
1540 Clouds -15 1032 58 0 2.08 130 17:56 01.01.2020
1541 Clouds -15 1032 58 0 2.08 130 17:38 01.01.2020
1542 Clouds -14 1031 57 0 2.14 137 17:19 01.01.2020
1543 Clouds -14 1031 57 0 2.14 137 16:42 01.01.2020
1544 Clouds -14 1031 57 0 2.14 137 16:23 01.01.2020
1545 Clouds -14 1031 57 0 2.14 137 15:58 01.01.2020
1546 Clouds -14 1031 57 0 2.14 137 15:40 01.01.2020
1547 Clouds -14 1031 57 0 2.14 137 15:21 01.01.2020
1548 Clouds -14 1031 57 0 2.14 137 14:59 01.01.2020
1549 Clouds -14 1031 57 0 2.14 137 14:40 01.01.2020
1550 Clouds -12 1031 58 0 2.36 130 14:21 01.01.2020
1551 Clouds -12 1031 58 0 2.36 130 13:56 01.01.2020
1552 Clouds -12 1031 58 0 2.36 130 13:37 01.01.2020
1553 Clouds -12 1031 58 0 2.36 130 13:37 01.01.2020
1554 Clouds -12 1031 58 0 2.36 130 13:37 01.01.2020
1555 Clouds -12 1030 57 0 2.65 133 13:18 01.01.2020
1556 Clouds -12 1030 57 0 2.65 133 12:56 01.01.2020
1557 Clouds -12 1030 57 0 2.65 133 12:56 01.01.2020
1558 Clouds -12 1030 57 0 2.65 133 12:38 01.01.2020
1559 Clouds -12 1030 57 0 2.65 133 12:18 01.01.2020
1560 Clouds -12 1030 57 0 2.65 133 11:43 01.01.2020
1561 Clouds -12 1030 57 0 2.65 133 11:23 01.01.2020
1562 Clouds -11 1029 64 0 2.4 135 10:59 01.01.2020
1563 Clouds -11 1029 64 0 2.4 135 10:41 01.01.2020
1564 Clouds -11 1029 64 0 2.4 135 10:21 01.01.2020
1565 Clouds -11 1029 64 0 2.4 135 10:21 01.01.2020
1566 Clouds -11 1029 64 0 2.4 135 09:58 01.01.2020
1567 Clouds -11 1029 64 0 2.4 135 09:37 01.01.2020
1568 Clouds -11 1029 64 0 2.4 135 09:18 01.01.2020
1569 Clouds -11 1029 64 0 2.4 135 09:18 01.01.2020
1570 Clouds -11 1029 64 0 2.4 135 08:55 01.01.2020
1571 Clouds -11 1029 64 0 2.4 135 08:36 01.01.2020
1572 Clear -10 1029 70 0 1.87 135 08:18 01.01.2020
1573 Clear -10 1029 70 0 1.87 135 07:54 01.01.2020
1574 Clear -10 1029 70 0 1.87 135 07:35 01.01.2020
1575 Clear -10 1029 70 0 1.87 135 06:44 01.01.2020
1576 Clear -10 1029 70 0 1.87 135 06:20 01.01.2020
1577 Clear -13 1032 62 0 2.49 122 05:22 01.01.2020
1578 Clear -13 1032 62 0 2.49 122 03:45 01.01.2020
1579 Clear -13 1032 62 0 2.49 122 03:23 01.01.2020
1580 Clear -13 1032 62 0 2.49 122 02:57 01.01.2020
1581 Clear -13 1032 62 0 2.49 122 02:35 01.01.2020
1582 Clear -15 1031 64 0 2.33 118 01:56 01.01.2020
1583 Clear -15 1031 64 0 2.33 118 01:38 01.01.2020
1584 Clear -15 1031 64 0 2.5 119 01:19 01.01.2020
1585 Clear -15 1031 64 0 2.5 119 00:44 01.01.2020
1586 Clear -15 1031 64 0 2.5 119 00:25 01.01.2020
1587 Clear -15 1031 64 0 2.5 119 23:41 31.12.2019
1588 Clear -15 1030 63 0 1.77 122 23:21 31.12.2019
1589 Clear -15 1030 63 0 1.77 122 22:57 31.12.2019
1590 Clear -15 1030 63 0 1.77 122 22:39 31.12.2019
1591 Clear -15 1030 63 0 1.77 122 22:20 31.12.2019
1592 Clear -15 1030 63 0 1.77 122 21:57 31.12.2019
1593 Clear -15 1030 63 0 1.77 122 21:38 31.12.2019
1594 Clear -15 1030 63 0 1.77 122 21:20 31.12.2019
1595 Clear -15 1030 63 0 1.77 122 20:55 31.12.2019
1596 Clear -15 1030 63 0 1.77 122 20:36 31.12.2019
1597 Clear -16 1029 60 0 1.16 129 20:18 31.12.2019
1598 Clouds -16 1029 60 0 1.17 128 19:42 31.12.2019
1599 Clouds -16 1029 60 0 1.17 128 19:24 31.12.2019
1600 Clouds -16 1029 60 0 1.17 128 18:59 31.12.2019
1601 Clouds -16 1029 60 0 1.17 128 18:40 31.12.2019
1602 Clouds -16 1029 60 0 1.17 128 18:20 31.12.2019
1603 Clouds -16 1029 60 0 1.17 128 17:57 31.12.2019
1604 Clouds -16 1029 60 0 1.17 128 17:38 31.12.2019
1605 Clouds -15 1029 54 0 1.2 144 17:19 31.12.2019
1606 Clouds -15 1029 54 0 1.2 144 16:57 31.12.2019
1607 Clouds -15 1029 54 0 1.2 144 16:38 31.12.2019
1608 Clouds -15 1029 54 0 1.2 144 16:19 31.12.2019
1609 Clouds -15 1029 54 0 1.2 144 15:57 31.12.2019
1610 Clouds -15 1029 54 0 1.2 144 15:39 31.12.2019
1611 Clouds -15 1029 54 0 1.2 144 15:21 31.12.2019
1612 Clouds -15 1029 54 0 1.2 144 14:58 31.12.2019
1613 Clouds -15 1029 54 0 1.2 144 14:39 31.12.2019
1614 Clouds -15 1027 52 0 1.2 139 14:19 31.12.2019
1615 Clouds -15 1027 52 0 1.2 139 13:58 31.12.2019
1616 Clouds -15 1027 52 0 1.2 139 13:40 31.12.2019
1617 Clouds -14 1027 50 0 1.38 141 13:21 31.12.2019
1618 Clouds -14 1027 50 0 1.38 141 12:58 31.12.2019
1619 Clouds -14 1027 50 0 1.38 141 12:40 31.12.2019
1620 Clouds -14 1027 50 0 1.38 141 12:20 31.12.2019
1621 Clouds -14 1027 50 0 1.38 141 11:56 31.12.2019
1622 Clouds -14 1027 50 0 1.38 141 11:38 31.12.2019
1623 Clouds -14 1027 50 0 1.38 141 11:38 31.12.2019
1624 Clouds -14 1026 57 0 0.63 176 11:20 31.12.2019
1625 Clouds -14 1026 57 0 0.63 176 10:58 31.12.2019
1626 Clouds -14 1026 57 0 0.63 176 10:38 31.12.2019
1627 Clouds -14 1026 57 0 0.63 176 10:20 31.12.2019
1628 Clouds -14 1026 57 0 0.63 176 09:59 31.12.2019
1629 Clouds -14 1026 57 0 0.63 176 09:39 31.12.2019
1630 Clouds -14 1026 57 0 0.63 176 09:20 31.12.2019
1631 Clouds -14 1026 57 0 0.63 176 08:57 31.12.2019
1632 Clouds -14 1026 57 0 0.63 176 08:39 31.12.2019
1633 Clear -10 1025 62 0 1.3 149 08:19 31.12.2019
1634 Clear -10 1025 62 0 1.3 149 07:43 31.12.2019
1635 Clear -10 1025 62 0 1.3 149 07:21 31.12.2019
1636 Clear -10 1025 62 0 1.3 149 06:50 31.12.2019
1637 Clear -10 1025 62 0 1.3 149 05:57 31.12.2019
1638 Clear -14 1028 45 0 2.42 126 04:29 31.12.2019
1639 Clear -14 1028 45 0 2.42 126 03:28 31.12.2019
1640 Clear -14 1028 45 0 2.42 126 02:54 31.12.2019
1641 Clear -16 1029 30 0 2.61 127 02:18 31.12.2019
1642 Clear -16 1029 30 0 2.61 127 01:42 31.12.2019
1643 Clear -16 1029 30 0 2.69 126 01:23 31.12.2019
1644 Clear -16 1029 30 0 2.69 126 00:46 31.12.2019
1645 Clear -16 1029 30 0 2.69 126 00:22 31.12.2019
1646 Clear -16 1029 30 0 2.69 126 23:56 30.12.2019
1647 Clear -16 1029 30 0 2.69 126 23:38 30.12.2019
1648 Clear -17 1031 27 0 2.55 124 23:20 30.12.2019
1649 Clear -17 1031 27 0 2.55 124 22:57 30.12.2019
1650 Clear -17 1031 27 0 2.55 124 22:38 30.12.2019
1651 Clear -17 1031 27 0 2.55 124 22:19 30.12.2019
1652 Clear -17 1031 27 0 2.55 124 21:56 30.12.2019
1653 Clear -17 1031 27 0 2.55 124 21:38 30.12.2019
1654 Clear -17 1031 27 0 2.55 124 21:18 30.12.2019
1655 Clear -17 1031 27 0 2.55 124 20:56 30.12.2019
1656 Clear -17 1031 27 0 2.55 124 20:38 30.12.2019
1657 Clear -18 1033 26 0 2.55 129 20:19 30.12.2019
1658 Clear -18 1033 25 0 2.46 124 19:57 30.12.2019
1659 Clear -18 1033 25 0 2.46 124 19:37 30.12.2019
1660 Clear -18 1033 25 0 2.46 124 19:19 30.12.2019
1661 Clear -18 1033 25 0 2.46 124 18:56 30.12.2019
1662 Clear -18 1033 25 0 2.46 124 18:37 30.12.2019
1663 Clear -18 1033 25 0 2.46 124 18:19 30.12.2019
1664 Clear -18 1033 25 0 2.46 124 17:55 30.12.2019
1665 Clear -18 1033 25 0 2.46 124 17:36 30.12.2019
1666 Clear -19 1035 23 0 2.32 132 17:18 30.12.2019
1667 Clear -19 1035 23 0 2.32 132 16:54 30.12.2019
1668 Clear -19 1035 23 0 2.32 132 16:36 30.12.2019
1669 Clear -19 1035 23 0 2.32 132 16:18 30.12.2019
1670 Clear -19 1035 23 0 2.32 132 15:54 30.12.2019
1671 Clear -19 1035 23 0 2.32 132 15:36 30.12.2019
1672 Clear -19 1035 23 0 2.32 132 15:18 30.12.2019
1673 Clear -19 1035 23 0 2.32 132 14:42 30.12.2019
1674 Clouds -19 1035 24 0 2.1 135 14:19 30.12.2019
1675 Clouds -19 1035 24 0 2.1 135 13:54 30.12.2019
1676 Clouds -19 1035 24 0 2.1 135 13:36 30.12.2019
1677 Clouds -18 1034 26 0 2.1 135 13:18 30.12.2019
1678 Clouds -18 1034 26 0 2.1 135 12:42 30.12.2019
1679 Clouds -18 1034 26 0 2.1 135 12:20 30.12.2019
1680 Clouds -18 1034 26 0 2.1 135 11:58 30.12.2019
1681 Clouds -18 1034 26 0 2.1 135 11:39 30.12.2019
1682 Clouds -15 1034 37 0 2.08 138 11:19 30.12.2019
1683 Clouds -15 1034 37 0 2.08 138 10:43 30.12.2019
1684 Clouds -15 1034 37 0 2.08 138 10:21 30.12.2019
1685 Clouds -15 1034 37 0 2.08 138 09:57 30.12.2019
1686 Clouds -15 1034 37 0 2.08 138 09:37 30.12.2019
1687 Clouds -15 1034 37 0 2.08 138 09:19 30.12.2019
1688 Clouds -15 1034 37 0 2.08 138 08:49 30.12.2019
1689 Clouds -15 1034 39 0 1.78 138 08:23 30.12.2019
1690 Clouds -14 1034 49 0 2.23 127 07:55 30.12.2019
1691 Clouds -14 1034 49 0 2.23 127 07:33 30.12.2019
1692 Clouds -14 1034 49 0 2.23 127 06:51 30.12.2019
1693 Clear -18 1039 30 0 2.78 123 04:56 30.12.2019
1694 Clear -18 1039 30 0 2.78 123 03:53 30.12.2019
1695 Clear -18 1039 30 0 2.78 123 02:50 30.12.2019
1696 Clear -18 1039 30 0 2.78 123 02:32 30.12.2019
1697 Clear -21 1041 17 0 2.83 125 01:50 30.12.2019
1698 Clear -21 1040 18 0 2.96 126 01:20 30.12.2019
1699 Clear -21 1040 18 0 2.96 126 00:43 30.12.2019
1700 Clear -21 1040 18 0 2.96 126 00:18 30.12.2019
1701 Clear -21 1040 18 0 2.96 126 23:39 29.12.2019
1702 Clear -22 1042 17 0 2.86 118 23:21 29.12.2019
1703 Clear -22 1042 17 0 2.86 118 22:42 29.12.2019
1704 Clear -22 1042 17 0 2.86 118 22:23 29.12.2019
1705 Clear -22 1042 17 0 2.86 118 21:59 29.12.2019
1706 Clear -22 1042 17 0 2.86 118 21:41 29.12.2019
1707 Clear -22 1042 17 0 2.86 118 21:20 29.12.2019
1708 Clear -22 1042 17 0 2.86 118 21:20 29.12.2019
1709 Clear -22 1042 17 0 2.86 118 20:57 29.12.2019
1710 Clear -22 1042 17 0 2.86 118 20:39 29.12.2019
1711 Clear -24 1044 16 0 2.51 115 20:20 29.12.2019
1712 Clear -24 1044 16 0 2.51 115 19:58 29.12.2019
1713 Clear -24 1044 16 0 2.51 115 19:39 29.12.2019
1714 Clear -24 1044 16 0 2.51 115 19:20 29.12.2019
1715 Clear -24 1044 16 0 2.51 115 18:57 29.12.2019
1716 Clear -24 1044 16 0 2.51 115 18:38 29.12.2019
1717 Clear -24 1044 16 0 2.51 115 18:19 29.12.2019
1718 Clear -24 1044 16 0 2.51 115 17:57 29.12.2019
1719 Clear -24 1044 16 0 2.51 115 17:39 29.12.2019
1720 Clear -26 1046 27 0 2.32 121 17:20 29.12.2019
1721 Clear -26 1046 27 0 2.32 121 16:56 29.12.2019
1722 Clear -26 1046 27 0 2.32 121 16:37 29.12.2019
1723 Clear -26 1046 27 0 2.32 121 16:19 29.12.2019
1724 Clear -26 1046 27 0 2.32 121 15:57 29.12.2019
1725 Clear -26 1046 27 0 2.32 121 15:38 29.12.2019
1726 Clear -26 1046 27 0 2.32 121 15:19 29.12.2019
1727 Clear -26 1046 27 0 2.32 121 14:56 29.12.2019
1728 Clear -26 1046 27 0 2.32 121 14:38 29.12.2019
1729 Clear -28 1046 34 0 2.22 109 14:18 29.12.2019
1730 Clear -28 1046 34 0 2.22 109 13:57 29.12.2019
1731 Clear -28 1046 34 0 2.22 109 13:37 29.12.2019
1732 Clear -28 1046 34 0 2.22 109 13:37 29.12.2019
1733 Clear -28 1046 35 0 2.26 108 13:18 29.12.2019
1734 Clear -28 1046 35 0 2.26 108 13:18 29.12.2019
1735 Clear -28 1046 35 0 2.26 108 12:44 29.12.2019
1736 Clear -28 1046 35 0 2.26 108 12:25 29.12.2019
1737 Clear -28 1046 35 0 2.26 108 12:25 29.12.2019
1738 Clear -28 1046 35 0 2.26 108 11:56 29.12.2019
1739 Clear -28 1046 35 0 2.26 108 11:38 29.12.2019
1740 Clear -29 1045 47 0 0.82 110 11:20 29.12.2019
1741 Clear -29 1045 47 0 0.82 110 10:42 29.12.2019
1742 Clear -29 1045 47 0 0.82 110 10:23 29.12.2019
1743 Clear -29 1045 47 0 0.82 110 09:57 29.12.2019
1744 Clear -29 1045 47 0 0.82 110 09:38 29.12.2019
1745 Clear -29 1045 47 0 0.82 110 09:20 29.12.2019
1746 Clear -29 1045 47 0 0.82 110 08:47 29.12.2019
1747 Clear -29 1045 47 0 0.82 110 08:24 29.12.2019
1748 Clear -25 1044 62 0 0.52 116 07:55 29.12.2019
1749 Clear -25 1044 62 0 0.52 116 07:28 29.12.2019
1750 Clear -25 1044 62 0 0.52 116 06:53 29.12.2019
1751 Clear -25 1044 62 0 0.52 116 06:24 29.12.2019
1752 Clear -25 1044 62 0 0.52 116 05:51 29.12.2019
1753 Clear -30 1047 49 0 1.7 102 04:36 29.12.2019
1754 Clear -30 1047 49 0 1.7 102 03:51 29.12.2019
1755 Clear -30 1047 49 0 1.7 102 03:20 29.12.2019
1756 Clear -32 1048 54 0 1.95 102 02:20 29.12.2019
1757 Clear -32 1048 54 0 1.95 102 01:31 29.12.2019
1758 Clear -32 1048 55 0 1.98 103 00:57 29.12.2019
1759 Clear -32 1048 55 0 1.98 103 00:39 29.12.2019
1760 Clear -32 1048 55 0 1.98 103 00:21 29.12.2019
1761 Clear -32 1048 55 0 1.98 103 23:42 28.12.2019
1762 Clear -33 1047 60 0 1.63 108 23:18 28.12.2019
1763 Clear -33 1047 60 0 1.63 108 22:39 28.12.2019
1764 Clear -33 1047 60 0 1.63 108 22:20 28.12.2019
1765 Clear -33 1047 60 0 1.63 108 22:20 28.12.2019
1766 Clear -33 1047 60 0 1.63 108 21:58 28.12.2019
1767 Clear -33 1047 60 0 1.63 108 21:39 28.12.2019
1768 Clear -33 1047 60 0 1.63 108 21:39 28.12.2019
1769 Clear -33 1047 60 0 1.63 108 21:20 28.12.2019
1770 Clear -33 1047 60 0 1.63 108 20:57 28.12.2019
1771 Clear -33 1047 60 0 1.63 108 20:37 28.12.2019
1772 Clear -33 1046 64 0 1.71 108 20:19 28.12.2019
1773 Clear -33 1046 64 0 1.71 108 19:55 28.12.2019
1774 Clear -33 1046 64 0 1.71 108 19:37 28.12.2019
1775 Clear -33 1046 64 0 1.71 108 19:18 28.12.2019
1776 Clear -33 1046 64 0 1.71 108 18:56 28.12.2019
1777 Clear -33 1046 64 0 1.71 108 18:38 28.12.2019
1778 Clear -33 1046 64 0 1.71 108 18:18 28.12.2019
1779 Clear -33 1046 64 0 1.71 108 17:42 28.12.2019
1780 Clear -32 1045 77 0 2.11 96 17:21 28.12.2019
1781 Clear -32 1045 77 0 2.11 96 16:58 28.12.2019
1782 Clear -32 1045 77 0 2.11 96 16:40 28.12.2019
1783 Clear -32 1045 77 0 2.11 96 16:21 28.12.2019
1784 Clear -32 1045 77 0 2.11 96 15:43 28.12.2019
1785 Clear -32 1045 77 0 2.11 96 15:22 28.12.2019
1786 Clear -32 1045 77 0 2.11 96 14:55 28.12.2019
1787 Clear -32 1045 77 0 2.11 96 14:37 28.12.2019
1788 Clear -32 1042 91 0 1.36 86 14:18 28.12.2019
1789 Clear -32 1042 91 0 1.36 86 13:42 28.12.2019
1790 Clear -32 1042 90 0 1.47 89 13:21 28.12.2019
1791 Clear -32 1042 90 0 1.47 89 13:21 28.12.2019
1792 Clear -32 1042 90 0 1.47 89 12:58 28.12.2019
1793 Clear -32 1042 90 0 1.47 89 12:40 28.12.2019
1794 Clear -32 1042 90 0 1.47 89 12:21 28.12.2019
1795 Clear -32 1042 90 0 1.47 89 11:40 28.12.2019
1796 Clear -30 1036 90 0 0.97 322 11:21 28.12.2019
1797 Clear -30 1036 90 0 0.97 322 10:57 28.12.2019
1798 Clear -30 1036 90 0 0.97 322 10:38 28.12.2019
1799 Clear -30 1036 90 0 0.97 322 10:19 28.12.2019
1800 Clear -30 1036 90 0 0.97 322 09:54 28.12.2019
1801 Clear -30 1036 90 0 0.97 322 09:36 28.12.2019
1802 Clear -30 1036 90 0 0.97 322 09:18 28.12.2019
1803 Clear -30 1036 90 0 0.97 322 08:42 28.12.2019
1804 Clear -30 1036 89 0 0.8 336 08:23 28.12.2019
1805 Clouds -24 1033 78 0 1.46 303 07:47 28.12.2019
1806 Clouds -24 1033 78 0 1.46 303 07:22 28.12.2019
1807 Clouds -24 1033 78 0 1.46 303 05:46 28.12.2019
1808 Clouds -28 1032 69 0 0.72 306 03:48 28.12.2019
1809 Clouds -28 1032 69 0 0.72 306 02:51 28.12.2019
1810 Clouds -28 1028 78 0 0.24 151 02:20 28.12.2019
1811 Clouds -28 1028 78 0 0.24 151 01:55 28.12.2019
1812 Clouds -27 1028 71 0 0.44 266 01:23 28.12.2019
1813 Clouds -27 1028 71 0 0.44 266 00:48 28.12.2019
1814 Clouds -27 1028 71 0 0.44 266 00:30 28.12.2019
1815 Clouds -27 1028 71 0 0.44 266 23:58 27.12.2019
1816 Clouds -27 1028 71 0 0.44 266 23:58 27.12.2019
1817 Clouds -27 1028 71 0 0.44 266 23:38 27.12.2019
1818 Clouds -24 1024 94 0 1.54 31 23:18 27.12.2019
1819 Clouds -24 1024 94 0 1.54 31 22:55 27.12.2019
1820 Clouds -24 1024 94 0 1.54 31 22:37 27.12.2019
1821 Clouds -24 1024 94 0 1.54 31 22:19 27.12.2019
1822 Clouds -24 1024 94 0 1.54 31 21:43 27.12.2019
1823 Clouds -24 1024 94 0 1.54 31 21:24 27.12.2019
1824 Clouds -24 1024 94 0 1.54 31 20:45 27.12.2019
1825 Clouds -24 1024 94 0 1.54 31 20:26 27.12.2019
1826 Snow -20 1021 99 0 1.32 39 19:59 27.12.2019
1827 Snow -20 1021 99 0 1.32 39 19:40 27.12.2019
1828 Snow -20 1021 99 0 1.32 39 19:19 27.12.2019
1829 Snow -20 1021 99 0 1.32 39 18:56 27.12.2019
1830 Snow -20 1021 99 0 1.32 39 18:37 27.12.2019
1831 Snow -20 1021 99 0 1.32 39 18:18 27.12.2019
1832 Snow -20 1021 99 0 1.32 39 17:55 27.12.2019
1833 Snow -20 1021 99 0 1.32 39 17:55 27.12.2019
1834 Snow -20 1021 99 0 1.32 39 17:37 27.12.2019
1835 Snow -16 1018 97 0 1.72 302 17:18 27.12.2019
1836 Snow -16 1018 97 0 1.72 302 16:41 27.12.2019
1837 Snow -16 1018 97 0 1.72 302 16:23 27.12.2019
1838 Snow -16 1018 97 0 1.72 302 15:58 27.12.2019
1839 Snow -16 1018 97 0 1.72 302 15:37 27.12.2019
1840 Snow -16 1018 97 0 1.72 302 15:37 27.12.2019
1841 Snow -16 1018 97 0 1.72 302 15:19 27.12.2019
1842 Snow -16 1018 97 0 1.72 302 14:56 27.12.2019
1843 Snow -16 1018 97 0 1.72 302 14:38 27.12.2019
1844 Snow -14 1017 96 0 1.65 260 14:19 27.12.2019
1845 Snow -14 1017 96 0 1.65 260 13:47 27.12.2019
1846 Snow -14 1016 96 0 1.28 253 13:24 27.12.2019
1847 Snow -14 1016 96 0 1.28 253 12:53 27.12.2019
1848 Snow -14 1016 96 0 1.28 253 12:32 27.12.2019
1849 Snow -14 1016 96 0 1.28 253 11:59 27.12.2019
1850 Snow -14 1016 96 0 1.28 253 11:41 27.12.2019
1851 Snow -13 1014 95 0 2 243 11:20 27.12.2019
1852 Snow -13 1014 95 0 2 243 10:47 27.12.2019
1853 Snow -13 1014 95 0 2 243 10:24 27.12.2019
1854 Snow -13 1014 95 0 2 243 09:58 27.12.2019
1855 Snow -13 1014 95 0 2 243 09:39 27.12.2019
1856 Snow -13 1014 95 0 2 243 09:21 27.12.2019
1857 Snow -13 1014 95 0 2 243 08:49 27.12.2019
1858 Snow -13 1014 95 0 2 243 08:30 27.12.2019
1859 Snow -12 1015 84 0 1.98 219 07:48 27.12.2019
1860 Snow -12 1015 84 0 1.98 219 07:25 27.12.2019
1861 Snow -12 1015 84 0 1.98 219 06:33 27.12.2019
1862 Snow -12 1016 85 0 1.04 218 04:48 27.12.2019
1863 Snow -12 1016 85 0 1.04 218 02:35 27.12.2019
1864 Clouds -15 1018 68 0 1.28 162 01:48 27.12.2019
1865 Clouds -15 1018 68 0 1.28 162 01:23 27.12.2019
1866 Clouds -15 1018 68 0 1.73 156 00:52 27.12.2019
1867 Clouds -15 1018 68 0 1.73 156 00:34 27.12.2019
1868 Clouds -15 1018 68 0 1.73 156 23:57 26.12.2019
1869 Clouds -15 1018 68 0 1.73 156 23:38 26.12.2019
1870 Clouds -17 1020 70 0 2.47 136 23:20 26.12.2019
1871 Clouds -17 1020 70 0 2.47 136 22:42 26.12.2019
1872 Clouds -17 1020 70 0 2.47 136 22:21 26.12.2019
1873 Clouds -17 1020 70 0 2.47 136 21:56 26.12.2019
1874 Clouds -17 1020 70 0 2.47 136 21:37 26.12.2019
1875 Clouds -17 1020 70 0 2.47 136 21:19 26.12.2019
1876 Clouds -17 1020 70 0 2.47 136 20:44 26.12.2019
1877 Clouds -18 1021 71 0 1.98 158 20:22 26.12.2019
1878 Clouds -18 1021 71 0 1.98 158 19:58 26.12.2019
1879 Clouds -18 1021 71 0 1.98 158 19:39 26.12.2019
1880 Clouds -18 1021 71 0 1.98 158 19:20 26.12.2019
1881 Clouds -18 1021 71 0 1.98 158 18:57 26.12.2019
1882 Clouds -18 1021 71 0 1.98 158 18:38 26.12.2019
1883 Clouds -18 1021 71 0 1.98 158 18:19 26.12.2019
1884 Clouds -18 1021 71 0 1.98 158 17:42 26.12.2019
1885 Clouds -18 1022 64 0 1.8 180 17:22 26.12.2019
1886 Clouds -18 1022 64 0 1.8 180 16:58 26.12.2019
1887 Clouds -18 1022 64 0 1.8 180 16:39 26.12.2019
1888 Clouds -18 1022 64 0 1.8 180 16:20 26.12.2019
1889 Clouds -18 1022 64 0 1.8 180 15:41 26.12.2019
1890 Clouds -18 1022 64 0 1.8 180 15:20 26.12.2019
1891 Clouds -18 1022 64 0 1.8 180 14:54 26.12.2019
1892 Clouds -18 1022 64 0 1.8 180 14:36 26.12.2019
1893 Clouds -15 1022 61 0 1.1 186 14:18 26.12.2019
1894 Clouds -15 1022 61 0 1.1 186 13:42 26.12.2019
1895 Clouds -15 1022 61 0 1.1 186 13:20 26.12.2019
1896 Clouds -14 1021 64 0 1.36 205 12:56 26.12.2019
1897 Clouds -14 1021 64 0 1.36 205 12:56 26.12.2019
1898 Clouds -14 1021 64 0 1.36 205 12:37 26.12.2019
1899 Clouds -14 1021 64 0 1.36 205 12:19 26.12.2019
1900 Clouds -14 1021 64 0 1.36 205 11:56 26.12.2019
1901 Clouds -14 1021 64 0 1.36 205 11:37 26.12.2019
1902 Clouds -14 1021 64 0 1.36 205 11:37 26.12.2019
1903 Clouds -13 1020 62 0 1.4 237 11:19 26.12.2019
1904 Clouds -13 1020 62 0 1.4 237 10:41 26.12.2019
1905 Clouds -13 1020 62 0 1.4 237 10:18 26.12.2019
1906 Clouds -13 1020 62 0 1.4 237 09:43 26.12.2019
1907 Clouds -13 1020 62 0 1.4 237 09:25 26.12.2019
1908 Clouds -13 1020 62 0 1.4 237 08:42 26.12.2019
1909 Clouds -13 1020 65 0 0.88 222 08:23 26.12.2019
1910 Clouds -11 1021 66 0 1.36 251 07:52 26.12.2019
1911 Clouds -11 1021 66 0 1.36 251 07:26 26.12.2019
1912 Clouds -11 1021 66 0 1.36 251 06:48 26.12.2019
1913 Clouds -11 1021 66 0 1.36 251 06:30 26.12.2019
1914 Clouds -11 1021 66 0 1.36 251 05:43 26.12.2019
1915 Clouds -13 1024 57 0 1.17 196 04:38 26.12.2019
1916 Clouds -13 1024 57 0 1.17 196 03:47 26.12.2019
1917 Clouds -13 1024 57 0 1.17 196 02:50 26.12.2019
1918 Clouds -13 1024 57 0 1.17 196 02:32 26.12.2019
1919 Clouds -15 1026 45 0 1.22 156 01:46 26.12.2019
1920 Clouds -15 1026 45 0 1.22 156 01:26 26.12.2019
1921 Clouds -15 1026 48 0 1.12 172 00:48 26.12.2019
1922 Clouds -15 1026 48 0 1.12 172 00:24 26.12.2019
1923 Clouds -15 1026 48 0 1.12 172 00:24 26.12.2019
1924 Clouds -15 1026 48 0 1.12 172 00:24 26.12.2019
1925 Clouds -15 1026 48 0 1.12 172 23:58 25.12.2019
1926 Clouds -15 1026 48 0 1.12 172 23:38 25.12.2019
1927 Clouds -16 1027 43 0 1.15 150 23:20 25.12.2019
1928 Clouds -16 1027 43 0 1.15 150 22:58 25.12.2019
1929 Clouds -16 1027 43 0 1.15 150 22:38 25.12.2019
1930 Clouds -16 1027 43 0 1.15 150 22:38 25.12.2019
1931 Clouds -16 1027 43 0 1.15 150 22:19 25.12.2019
1932 Clouds -16 1027 43 0 1.15 150 21:57 25.12.2019
1933 Clouds -16 1027 43 0 1.15 150 21:39 25.12.2019
1934 Clouds -16 1027 43 0 1.15 150 21:19 25.12.2019
1935 Clouds -16 1027 43 0 1.15 150 20:41 25.12.2019
1936 Clouds -17 1031 49 0 1.17 137 20:21 25.12.2019
1937 Clouds -17 1031 49 0 1.17 137 19:59 25.12.2019
1938 Clouds -17 1031 49 0 1.17 137 19:41 25.12.2019
1939 Clouds -17 1031 49 0 1.17 137 19:22 25.12.2019
1940 Clouds -17 1031 49 0 1.17 137 18:54 25.12.2019
1941 Clouds -17 1031 49 0 1.17 137 18:36 25.12.2019
1942 Clouds -17 1031 49 0 1.17 137 18:18 25.12.2019
1943 Clouds -17 1031 49 0 1.17 137 17:40 25.12.2019
1944 Clouds -20 1033 53 0 1.62 123 17:18 25.12.2019
1945 Clouds -20 1033 53 0 1.62 123 16:55 25.12.2019
1946 Clouds -20 1033 53 0 1.62 123 16:37 25.12.2019
1947 Clouds -20 1033 53 0 1.62 123 16:18 25.12.2019
1948 Clouds -20 1033 53 0 1.62 123 15:56 25.12.2019
1949 Clouds -20 1033 53 0 1.62 123 15:37 25.12.2019
1950 Clouds -20 1033 53 0 1.62 123 15:18 25.12.2019
1951 Clouds -20 1033 53 0 1.62 123 14:55 25.12.2019
1952 Clouds -20 1033 53 0 1.62 123 14:37 25.12.2019
1953 Clouds -21 1036 56 0 1.84 128 14:18 25.12.2019
1954 Clouds -21 1036 56 0 1.84 128 13:42 25.12.2019
1955 Clouds -21 1036 56 0 1.84 128 13:21 25.12.2019
1956 Clouds -21 1037 57 0 1.99 128 12:44 25.12.2019
1957 Clouds -21 1037 57 0 1.99 128 12:22 25.12.2019
1958 Clouds -21 1037 57 0 1.99 128 11:58 25.12.2019
1959 Clouds -21 1037 57 0 1.99 128 11:40 25.12.2019
1960 Clear -23 1037 66 0 1.14 127 11:21 25.12.2019
1961 Clear -23 1037 66 0 1.14 127 10:39 25.12.2019
1962 Clear -23 1037 66 0 1.14 127 10:21 25.12.2019
1963 Clear -23 1037 66 0 1.14 127 09:59 25.12.2019
1964 Clear -23 1037 66 0 1.14 127 09:40 25.12.2019
1965 Clear -23 1037 66 0 1.14 127 09:22 25.12.2019
1966 Clear -23 1037 66 0 1.14 127 08:43 25.12.2019
1967 Clear -23 1037 66 0 1.14 127 08:23 25.12.2019
1968 Clouds -21 1038 83 0 0.57 139 07:43 25.12.2019
1969 Clouds -21 1038 83 0 0.57 139 07:22 25.12.2019
1970 Clouds -21 1038 83 0 0.57 139 06:24 25.12.2019
1971 Clouds -21 1038 83 0 0.57 139 05:50 25.12.2019
1972 Clouds -26 1041 91 0 1.44 121 04:44 25.12.2019
1973 Clouds -26 1041 91 0 1.44 121 04:24 25.12.2019
1974 Clouds -26 1041 91 0 1.44 121 03:43 25.12.2019
1975 Clouds -26 1041 91 0 1.44 121 02:58 25.12.2019
1976 Clouds -26 1041 91 0 1.44 121 02:29 25.12.2019
1977 Clouds -28 1041 99 0 1.63 121 01:44 25.12.2019
1978 Clouds -28 1041 99 0 1.61 122 01:19 25.12.2019
1979 Clouds -28 1041 99 0 1.61 122 00:41 25.12.2019
1980 Clouds -28 1041 99 0 1.61 122 00:23 25.12.2019
1981 Clouds -28 1041 99 0 1.61 122 00:23 25.12.2019
1982 Clouds -28 1041 99 0 1.61 122 23:39 24.12.2019
1983 Clouds -26 1039 100 0 0.89 132 23:20 24.12.2019
1984 Clouds -26 1039 100 0 0.89 132 22:42 24.12.2019
1985 Clouds -26 1039 100 0 0.89 132 22:24 24.12.2019
1986 Clouds -26 1039 100 0 0.89 132 21:59 24.12.2019
1987 Clouds -26 1039 100 0 0.89 132 21:41 24.12.2019
1988 Clouds -26 1039 100 0 0.89 132 21:20 24.12.2019
1989 Clouds -26 1039 100 0 0.89 132 20:42 24.12.2019
1990 Snow -26 1039 100 0 0.72 185 20:22 24.12.2019
1991 Snow -26 1039 100 0 0.72 185 19:49 24.12.2019
1992 Snow -26 1039 100 0 0.72 185 19:22 24.12.2019
1993 Snow -26 1039 100 0 0.72 185 18:59 24.12.2019
1994 Snow -26 1039 100 0 0.72 185 18:40 24.12.2019
1995 Snow -26 1039 100 0 0.72 185 18:18 24.12.2019
1996 Snow -26 1039 100 0 0.72 185 18:18 24.12.2019
1997 Snow -26 1039 100 0 0.72 185 17:44 24.12.2019
1998 Clouds -25 1037 100 0 0.76 221 17:22 24.12.2019
1999 Clouds -25 1037 100 0 0.76 221 16:58 24.12.2019
2000 Clouds -25 1037 100 0 0.76 221 16:39 24.12.2019
2001 Clouds -25 1037 100 0 0.76 221 16:21 24.12.2019
2002 Clouds -25 1037 100 0 0.76 221 15:57 24.12.2019
2003 Clouds -25 1037 100 0 0.76 221 15:37 24.12.2019
2004 Clouds -25 1037 100 0 0.76 221 15:37 24.12.2019
2005 Clouds -25 1037 100 0 0.76 221 15:19 24.12.2019
2006 Clouds -25 1037 100 0 0.76 221 14:58 24.12.2019
2007 Clouds -25 1037 100 0 0.76 221 14:39 24.12.2019
2008 Clouds -24 1035 99 0 0.64 208 14:21 24.12.2019
2009 Clouds -24 1035 99 0 0.64 208 13:56 24.12.2019
2010 Clouds -24 1035 99 0 0.64 208 13:37 24.12.2019
2011 Clouds -24 1035 100 0 0.61 224 13:19 24.12.2019
2012 Clouds -24 1035 100 0 0.61 224 12:56 24.12.2019
2013 Clouds -24 1035 100 0 0.61 224 12:56 24.12.2019
2014 Clouds -24 1035 100 0 0.61 224 12:37 24.12.2019
2015 Clouds -24 1035 100 0 0.61 224 12:19 24.12.2019
2016 Clouds -24 1035 100 0 0.61 224 12:19 24.12.2019
2017 Clouds -24 1035 100 0 0.61 224 11:56 24.12.2019
2018 Clouds -24 1035 100 0 0.61 224 11:37 24.12.2019
2019 Clouds -24 1035 100 0 0.61 224 11:37 24.12.2019
2020 Clouds -24 1031 92 0 0.9 198 11:19 24.12.2019
2021 Clouds -24 1031 92 0 0.9 198 10:56 24.12.2019
2022 Clouds -24 1031 92 0 0.9 198 10:37 24.12.2019
2023 Clouds -24 1031 92 0 0.9 198 10:19 24.12.2019
2024 Clouds -24 1031 92 0 0.9 198 09:55 24.12.2019
2025 Clouds -24 1031 92 0 0.9 198 09:37 24.12.2019
2026 Clouds -24 1031 92 0 0.9 198 09:37 24.12.2019
2027 Clouds -24 1031 92 0 0.9 198 09:19 24.12.2019
2028 Clouds -24 1031 92 0 0.9 198 08:45 24.12.2019
2029 Clouds -24 1031 92 0 0.9 198 08:24 24.12.2019
2030 Clouds -20 1030 91 0 1.34 243 07:46 24.12.2019
2031 Clouds -20 1030 91 0 1.34 243 07:26 24.12.2019
2032 Clouds -20 1030 91 0 1.34 243 06:58 24.12.2019
2033 Clouds -20 1030 91 0 1.34 243 06:38 24.12.2019
2034 Clouds -20 1030 91 0 1.34 243 06:19 24.12.2019
2035 Clouds -20 1030 91 0 1.34 243 05:46 24.12.2019
2036 Clouds -24 1030 91 0 0.88 223 05:18 24.12.2019
2037 Clouds -24 1030 91 0 0.88 223 03:55 24.12.2019
2038 Clouds -24 1030 91 0 0.88 223 03:25 24.12.2019
2039 Clouds -24 1030 91 0 0.88 223 02:25 24.12.2019
2040 Clouds -25 1029 100 0 1.22 131 01:52 24.12.2019
2041 Clouds -25 1029 100 0 1.06 134 01:23 24.12.2019
2042 Clouds -25 1029 100 0 1.06 134 00:47 24.12.2019
2043 Clouds -25 1029 100 0 1.06 134 00:26 24.12.2019
2044 Clouds -25 1029 100 0 1.06 134 23:59 23.12.2019
2045 Clouds -25 1029 100 0 1.06 134 23:41 23.12.2019
2046 Clouds -25 1029 100 0 1.06 134 23:23 23.12.2019
2047 Snow -22 1026 100 0 0.74 233 22:56 23.12.2019
2048 Snow -22 1026 100 0 0.74 233 22:56 23.12.2019
2049 Snow -22 1026 100 0 0.74 233 22:56 23.12.2019
2050 Snow -22 1026 100 0 0.74 233 22:37 23.12.2019
2051 Snow -22 1026 100 0 0.74 233 22:19 23.12.2019
2052 Snow -22 1026 100 0 0.74 233 21:55 23.12.2019
2053 Snow -22 1026 100 0 0.74 233 21:55 23.12.2019
2054 Snow -22 1026 100 0 0.74 233 21:36 23.12.2019
2055 Snow -22 1026 100 0 0.74 233 21:18 23.12.2019
2056 Snow -22 1026 100 0 0.74 233 20:57 23.12.2019
2057 Snow -22 1026 100 0 0.74 233 20:39 23.12.2019
2058 Snow -22 1026 100 0 0.74 233 20:39 23.12.2019
2059 Snow -21 1026 100 0 0.8 242 20:18 23.12.2019
2060 Snow -21 1026 100 0 0.8 242 19:56 23.12.2019
2061 Snow -21 1026 100 0 0.8 242 19:38 23.12.2019
2062 Snow -21 1026 100 0 0.8 242 19:19 23.12.2019
2063 Snow -21 1026 100 0 0.8 242 18:58 23.12.2019
2064 Snow -21 1026 100 0 0.8 242 18:58 23.12.2019
2065 Snow -21 1026 100 0 0.8 242 18:38 23.12.2019
2066 Snow -21 1026 100 0 0.8 242 18:20 23.12.2019
2067 Snow -21 1026 100 0 0.8 242 17:56 23.12.2019
2068 Snow -21 1026 100 0 0.8 242 17:38 23.12.2019
2069 Snow -21 1025 100 0 1.04 197 17:19 23.12.2019
2070 Snow -21 1025 100 0 1.04 197 17:19 23.12.2019
2071 Snow -21 1025 100 0 1.04 197 16:55 23.12.2019
2072 Snow -21 1025 100 0 1.04 197 16:55 23.12.2019
2073 Snow -21 1025 100 0 1.04 197 16:36 23.12.2019
2074 Snow -21 1025 100 0 1.04 197 16:18 23.12.2019
2075 Snow -21 1025 100 0 1.04 197 15:55 23.12.2019
2076 Snow -21 1025 100 0 1.04 197 15:36 23.12.2019
2077 Snow -21 1025 100 0 1.04 197 15:18 23.12.2019
2078 Snow -21 1025 100 0 1.04 197 14:45 23.12.2019
2079 Snow -21 1025 100 0 1.04 197 14:26 23.12.2019
2080 Snow -19 1024 99 0 1.35 259 13:59 23.12.2019
2081 Snow -19 1024 99 0 1.35 259 13:41 23.12.2019
2082 Snow -19 1024 99 0 1.55 250 13:22 23.12.2019
2083 Snow -19 1024 99 0 1.55 250 12:58 23.12.2019
2084 Snow -19 1024 99 0 1.55 250 12:58 23.12.2019
2085 Snow -19 1024 99 0 1.55 250 12:39 23.12.2019
2086 Snow -19 1024 99 0 1.55 250 12:20 23.12.2019
2087 Snow -19 1024 99 0 1.55 250 11:55 23.12.2019
2088 Snow -19 1024 99 0 1.55 250 11:37 23.12.2019
2089 Snow -16 1022 97 0 2.08 277 11:18 23.12.2019
2090 Snow -16 1022 97 0 2.08 277 10:54 23.12.2019
2091 Snow -16 1022 97 0 2.08 277 10:36 23.12.2019
2092 Snow -16 1022 97 0 2.08 277 10:18 23.12.2019
2093 Snow -16 1022 97 0 2.08 277 10:18 23.12.2019
2094 Snow -16 1022 97 0 2.08 277 09:40 23.12.2019
2095 Snow -16 1022 97 0 2.08 277 09:22 23.12.2019
2096 Snow -16 1022 97 0 2.08 277 08:58 23.12.2019
2097 Snow -16 1022 97 0 2.08 277 08:40 23.12.2019
2098 Snow -14 1021 94 0 2.32 286 08:22 23.12.2019
2099 Snow -14 1021 94 0 2.32 286 07:48 23.12.2019
2100 Snow -14 1021 94 0 2.32 286 07:21 23.12.2019
2101 Snow -14 1021 94 0 2.32 286 06:57 23.12.2019
2102 Snow -14 1021 94 0 2.32 286 06:27 23.12.2019
2103 Snow -14 1021 94 0 2.32 286 05:56 23.12.2019
2104 Snow -14 1021 94 0 2.32 286 05:29 23.12.2019
2105 Snow -14 1023 95 0 0.75 235 04:34 23.12.2019
2106 Snow -14 1023 95 0 0.75 235 03:26 23.12.2019
2107 Snow -14 1023 95 0 0.75 235 02:42 23.12.2019
2108 Clouds -16 1025 93 0 1.08 144 02:19 23.12.2019
2109 Clouds -16 1025 93 0 1.08 144 01:43 23.12.2019
2110 Clouds -16 1025 82 0 1.28 122 01:25 23.12.2019
2111 Clouds -16 1025 82 0 1.28 122 00:43 23.12.2019
2112 Clouds -16 1025 82 0 1.28 122 00:23 23.12.2019
2113 Clouds -16 1025 82 0 1.28 122 23:40 22.12.2019
2114 Clouds -17 1025 80 0 2.27 120 23:22 22.12.2019
2115 Clouds -17 1025 80 0 2.27 120 22:58 22.12.2019
2116 Clouds -17 1025 80 0 2.27 120 22:58 22.12.2019
2117 Clouds -17 1025 80 0 2.27 120 22:40 22.12.2019
2118 Clouds -17 1025 80 0 2.27 120 22:21 22.12.2019
2119 Clouds -17 1025 80 0 2.27 120 21:58 22.12.2019
2120 Clouds -17 1025 80 0 2.27 120 21:58 22.12.2019
2121 Clouds -17 1025 80 0 2.27 120 21:40 22.12.2019
2122 Clouds -17 1025 80 0 2.27 120 21:21 22.12.2019
2123 Clouds -17 1025 80 0 2.27 120 20:58 22.12.2019
2124 Clouds -17 1025 80 0 2.27 120 20:39 22.12.2019
2125 Clouds -17 1025 79 0 2.64 121 20:19 22.12.2019
2126 Clouds -17 1025 79 0 2.64 121 19:56 22.12.2019
2127 Clouds -17 1025 79 0 2.64 121 19:37 22.12.2019
2128 Clouds -17 1025 79 0 2.64 121 19:19 22.12.2019
2129 Clouds -17 1025 79 0 2.64 121 18:41 22.12.2019
2130 Clouds -17 1025 79 0 2.64 121 18:23 22.12.2019
2131 Clouds -17 1025 79 0 2.64 121 17:56 22.12.2019
2132 Clouds -17 1025 79 0 2.64 121 17:37 22.12.2019
2133 Clouds -17 1025 79 0 2.64 121 17:37 22.12.2019
2134 Clouds -18 1025 78 0 2.59 128 17:18 22.12.2019
2135 Clouds -18 1025 78 0 2.59 128 16:57 22.12.2019
2136 Clouds -18 1025 78 0 2.59 128 16:38 22.12.2019
2137 Clouds -18 1025 78 0 2.59 128 16:19 22.12.2019
2138 Clouds -18 1025 78 0 2.59 128 15:56 22.12.2019
2139 Clouds -18 1025 78 0 2.59 128 15:37 22.12.2019
2140 Clouds -18 1025 78 0 2.59 128 15:19 22.12.2019
2141 Clouds -18 1025 78 0 2.59 128 14:54 22.12.2019
2142 Clouds -18 1025 78 0 2.59 128 14:36 22.12.2019
2143 Clouds -17 1025 66 0 2.67 122 14:18 22.12.2019
2144 Clouds -17 1025 66 0 2.67 122 13:55 22.12.2019
2145 Clouds -17 1025 66 0 2.67 122 13:36 22.12.2019
2146 Clouds -17 1024 68 0 2.8 122 13:18 22.12.2019
2147 Clouds -17 1024 68 0 2.8 122 13:18 22.12.2019
2148 Clouds -17 1024 68 0 2.8 122 13:18 22.12.2019
2149 Clouds -17 1024 68 0 2.8 122 12:54 22.12.2019
2150 Clouds -17 1024 68 0 2.8 122 12:54 22.12.2019
2151 Clouds -17 1024 68 0 2.8 122 12:54 22.12.2019
2152 Clouds -17 1024 68 0 2.8 122 12:36 22.12.2019
2153 Clouds -17 1024 68 0 2.8 122 12:18 22.12.2019
2154 Clouds -17 1024 68 0 2.8 122 11:39 22.12.2019
2155 Clouds -14 1022 65 0 2.24 126 11:21 22.12.2019
2156 Clouds -14 1022 65 0 2.24 126 10:59 22.12.2019
2157 Clouds -14 1022 65 0 2.24 126 10:40 22.12.2019
2158 Clouds -14 1022 65 0 2.24 126 10:21 22.12.2019
2159 Clouds -14 1022 65 0 2.24 126 09:59 22.12.2019
2160 Clouds -14 1022 65 0 2.24 126 09:40 22.12.2019
2161 Clouds -14 1022 65 0 2.24 126 09:21 22.12.2019
2162 Clouds -14 1022 65 0 2.24 126 08:59 22.12.2019
2163 Clouds -14 1022 65 0 2.24 126 08:37 22.12.2019
2164 Clouds -12 1022 72 0 2.12 119 08:18 22.12.2019
2165 Clouds -12 1022 72 0 2.12 119 08:18 22.12.2019
2166 Clouds -12 1022 72 0 2.12 119 08:18 22.12.2019
2167 Clouds -12 1022 72 0 2.15 118 07:38 22.12.2019
2168 Clouds -12 1022 72 0 2.15 118 07:19 22.12.2019
2169 Clouds -12 1022 72 0 2.15 118 06:40 22.12.2019
2170 Clouds -12 1022 72 0 2.15 118 05:53 22.12.2019
2171 Clouds -16 1025 65 0 2.65 119 05:21 22.12.2019
2172 Clouds -16 1025 65 0 2.65 119 04:29 22.12.2019
2173 Clouds -16 1025 65 0 2.65 119 03:52 22.12.2019
2174 Clouds -16 1025 65 0 2.65 119 02:38 22.12.2019
2175 Clouds -17 1026 60 0 2.8 114 01:42 22.12.2019
2176 Clouds -17 1026 60 0 2.8 114 01:22 22.12.2019
2177 Clouds -17 1026 61 0 2.72 115 00:45 22.12.2019
2178 Clouds -17 1026 61 0 2.72 115 00:22 22.12.2019
2179 Clouds -17 1026 61 0 2.72 115 23:55 21.12.2019
2180 Clouds -17 1026 61 0 2.72 115 23:37 21.12.2019
2181 Clouds -19 1026 56 0 2.64 118 23:18 21.12.2019
2182 Clouds -19 1026 56 0 2.64 118 22:40 21.12.2019
2183 Clouds -19 1026 56 0 2.64 118 22:40 21.12.2019
2184 Clouds -19 1026 56 0 2.64 118 22:19 21.12.2019
2185 Clouds -19 1026 56 0 2.64 118 22:19 21.12.2019
2186 Clouds -19 1026 56 0 2.64 118 21:57 21.12.2019
2187 Clouds -19 1026 56 0 2.64 118 21:37 21.12.2019
2188 Clouds -19 1026 56 0 2.64 118 21:19 21.12.2019
2189 Clouds -19 1026 56 0 2.64 118 20:58 21.12.2019
2190 Clouds -19 1026 56 0 2.64 118 20:39 21.12.2019
2191 Clear -20 1028 56 0 2.29 115 20:21 21.12.2019
2192 Clear -20 1028 56 0 2.29 115 19:58 21.12.2019
2193 Clear -20 1028 56 0 2.29 115 19:40 21.12.2019
2194 Clear -20 1028 56 0 2.29 115 19:19 21.12.2019
2195 Clear -20 1028 56 0 2.29 115 19:19 21.12.2019
2196 Clear -20 1028 56 0 2.29 115 18:45 21.12.2019
2197 Clear -20 1028 56 0 2.29 115 18:24 21.12.2019
2198 Clear -20 1028 56 0 2.29 115 17:57 21.12.2019
2199 Clear -20 1028 56 0 2.29 115 17:39 21.12.2019
2200 Clear -20 1028 56 0 2.29 115 17:39 21.12.2019
2201 Clear -21 1028 68 0 2.14 99 17:21 21.12.2019
2202 Clear -21 1028 68 0 2.14 99 16:58 21.12.2019
2203 Clear -21 1028 68 0 2.14 99 16:40 21.12.2019
2204 Clear -21 1028 68 0 2.14 99 16:18 21.12.2019
2205 Clear -21 1028 68 0 2.14 99 16:18 21.12.2019
2206 Clear -21 1028 68 0 2.14 99 15:57 21.12.2019
2207 Clear -21 1028 68 0 2.14 99 15:57 21.12.2019
2208 Clear -21 1028 68 0 2.14 99 15:38 21.12.2019
2209 Clear -21 1028 68 0 2.14 99 15:19 21.12.2019
2210 Clear -21 1028 68 0 2.14 99 14:55 21.12.2019
2211 Clear -21 1028 68 0 2.14 99 14:37 21.12.2019
2212 Clouds -22 1028 82 0 1.64 101 14:18 21.12.2019
2213 Clouds -22 1028 82 0 1.64 101 13:54 21.12.2019
2214 Clouds -22 1028 82 0 1.64 101 13:36 21.12.2019
2215 Clouds -22 1028 81 0 1.57 102 13:18 21.12.2019
2216 Clouds -22 1028 81 0 1.57 102 12:54 21.12.2019
2217 Clouds -22 1028 81 0 1.57 102 12:36 21.12.2019
2218 Clouds -22 1028 81 0 1.57 102 12:36 21.12.2019
2219 Clouds -22 1028 81 0 1.57 102 12:18 21.12.2019
2220 Clouds -22 1028 81 0 1.57 102 11:41 21.12.2019
2221 Clouds -22 1028 81 0 1.57 102 11:41 21.12.2019
2222 Clouds -22 1028 81 0 1.57 102 11:23 21.12.2019
2223 Clouds -21 1025 98 0 0.8 131 10:42 21.12.2019
2224 Clouds -21 1025 98 0 0.8 131 10:23 21.12.2019
2225 Clouds -21 1025 98 0 0.8 131 10:23 21.12.2019
2226 Clouds -21 1025 98 0 0.8 131 09:59 21.12.2019
2227 Clouds -21 1025 98 0 0.8 131 09:41 21.12.2019
2228 Clouds -21 1025 98 0 0.8 131 09:20 21.12.2019
2229 Clouds -21 1025 98 0 0.8 131 08:56 21.12.2019
2230 Clouds -21 1025 98 0 0.8 131 08:37 21.12.2019
2231 Clouds -17 1024 97 0 1.15 257 08:18 21.12.2019
2232 Clouds -17 1024 98 0 1.12 262 07:41 21.12.2019
2233 Clouds -17 1024 98 0 1.12 262 07:21 21.12.2019
2234 Clouds -17 1024 98 0 1.12 262 06:43 21.12.2019
2235 Clouds -17 1024 98 0 1.12 262 06:25 21.12.2019
2236 Clouds -17 1024 98 0 1.12 262 05:47 21.12.2019
2237 Clouds -20 1026 99 0 1.35 198 04:57 21.12.2019
2238 Clouds -20 1026 99 0 1.35 198 03:56 21.12.2019
2239 Clouds -20 1026 99 0 1.35 198 02:50 21.12.2019
2240 Snow -19 1024 99 0 0.99 208 01:55 21.12.2019
2241 Snow -19 1024 99 0 0.99 208 01:27 21.12.2019
2242 Snow -19 1025 100 0 1.14 210 00:51 21.12.2019
2243 Snow -19 1025 100 0 1.14 210 00:31 21.12.2019
2244 Snow -19 1025 100 0 1.14 210 23:56 20.12.2019
2245 Snow -19 1025 100 0 1.14 210 23:37 20.12.2019
2246 Snow -16 1022 97 0 1.71 270 23:18 20.12.2019
2247 Snow -16 1022 97 0 1.71 270 22:40 20.12.2019
2248 Snow -16 1022 97 0 1.71 270 22:21 20.12.2019
2249 Snow -16 1022 97 0 1.71 270 21:57 20.12.2019
2250 Snow -16 1022 97 0 1.71 270 21:39 20.12.2019
2251 Snow -16 1022 97 0 1.71 270 21:18 20.12.2019
2252 Snow -16 1022 97 0 1.71 270 20:39 20.12.2019
2253 Snow -15 1020 96 0 0.83 349 20:19 20.12.2019
2254 Snow -14 1020 96 0 0.91 314 19:57 20.12.2019
2255 Snow -14 1020 96 0 0.91 314 19:57 20.12.2019
2256 Snow -14 1020 96 0 0.91 314 19:57 20.12.2019
2257 Snow -14 1020 96 0 0.91 314 19:39 20.12.2019
2258 Snow -14 1020 96 0 0.91 314 19:19 20.12.2019
2259 Snow -14 1020 96 0 0.91 314 18:42 20.12.2019
2260 Snow -14 1020 96 0 0.91 314 18:24 20.12.2019
2261 Snow -14 1020 96 0 0.91 314 17:59 20.12.2019
2262 Snow -14 1020 96 0 0.91 314 17:41 20.12.2019
2263 Clouds -15 1020 79 0 2.92 138 17:21 20.12.2019
2264 Clouds -15 1020 79 0 2.92 138 17:21 20.12.2019
2265 Clouds -15 1020 79 0 2.92 138 16:59 20.12.2019
2266 Clouds -15 1020 79 0 2.92 138 16:39 20.12.2019
2267 Clouds -15 1020 79 0 2.92 138 16:20 20.12.2019
2268 Clouds -15 1020 79 0 2.92 138 15:56 20.12.2019
2269 Clouds -15 1020 79 0 2.92 138 15:38 20.12.2019
2270 Clouds -15 1020 79 0 2.92 138 15:19 20.12.2019
2271 Clouds -15 1020 79 0 2.92 138 14:43 20.12.2019
2272 Clouds -15 1020 79 0 2.92 138 14:25 20.12.2019
2273 Clouds -14 1022 67 0 2.98 117 13:59 20.12.2019
2274 Clouds -14 1022 67 0 2.98 117 13:41 20.12.2019
2275 Clouds -14 1021 67 0 3.12 117 13:20 20.12.2019
2276 Clouds -14 1021 67 0 3.12 117 12:57 20.12.2019
2277 Clouds -14 1021 67 0 3.12 117 12:37 20.12.2019
2278 Clouds -14 1021 67 0 3.12 117 12:19 20.12.2019
2279 Clouds -14 1021 67 0 3.12 117 11:58 20.12.2019
2280 Clouds -14 1021 67 0 3.12 117 11:39 20.12.2019
2281 Clouds -15 1022 66 0 2.37 118 11:19 20.12.2019
2282 Clouds -15 1022 66 0 2.37 118 10:57 20.12.2019
2283 Clouds -15 1022 66 0 2.37 118 10:57 20.12.2019
2284 Clouds -15 1022 66 0 2.37 118 10:38 20.12.2019
2285 Clouds -15 1022 66 0 2.37 118 10:20 20.12.2019
2286 Clouds -15 1022 66 0 2.37 118 09:44 20.12.2019
2287 Clouds -15 1022 66 0 2.37 118 09:22 20.12.2019
2288 Clouds -15 1022 66 0 2.37 118 09:22 20.12.2019
2289 Clouds -15 1022 66 0 2.37 118 08:59 20.12.2019
2290 Clouds -15 1022 66 0 2.37 118 08:41 20.12.2019
2291 Clouds -14 1025 72 0 1.53 125 08:21 20.12.2019
2292 Clouds -14 1025 72 0 1.53 125 07:57 20.12.2019
2293 Clouds -14 1025 72 0 1.53 125 07:38 20.12.2019
2294 Clouds -14 1025 72 0 1.53 125 07:18 20.12.2019
2295 Clouds -14 1025 72 0 1.53 125 06:48 20.12.2019
2296 Clouds -14 1025 72 0 1.53 125 06:29 20.12.2019
2297 Clouds -14 1025 72 0 1.53 125 05:49 20.12.2019
2298 Clear -18 1028 64 0 2.09 121 05:20 20.12.2019
2299 Clear -18 1028 64 0 2.09 121 03:50 20.12.2019
2300 Clear -18 1028 64 0 2.09 121 03:21 20.12.2019
2301 Clear -18 1028 64 0 2.09 121 02:31 20.12.2019
2302 Clear -20 1029 66 0 2 109 01:36 20.12.2019
2303 Clear -20 1029 66 0 2.03 107 00:58 20.12.2019
2304 Clear -20 1029 66 0 2.03 107 00:36 20.12.2019
2305 Clear -20 1029 66 0 2.03 107 23:58 19.12.2019
2306 Clear -20 1029 66 0 2.03 107 23:40 19.12.2019
2307 Clear -21 1030 69 0 1.38 122 23:21 19.12.2019
2308 Clear -21 1030 69 0 1.38 122 23:21 19.12.2019
2309 Clear -21 1030 69 0 1.38 122 22:40 19.12.2019
2310 Clear -21 1030 69 0 1.38 122 22:22 19.12.2019
2311 Clear -21 1030 69 0 1.38 122 21:59 19.12.2019
2312 Clear -21 1030 69 0 1.38 122 21:41 19.12.2019
2313 Clear -21 1030 69 0 1.38 122 21:20 19.12.2019
2314 Clear -21 1030 69 0 1.38 122 20:58 19.12.2019
2315 Clear -21 1030 69 0 1.38 122 20:38 19.12.2019
2316 Clear -22 1031 72 0 1.09 118 20:20 19.12.2019
2317 Clear -21 1031 70 0 1.34 119 19:58 19.12.2019
2318 Clear -21 1031 70 0 1.34 119 19:40 19.12.2019
2319 Clear -21 1031 70 0 1.34 119 19:19 19.12.2019
2320 Clear -21 1031 70 0 1.34 119 19:19 19.12.2019
2321 Clear -21 1031 70 0 1.34 119 19:19 19.12.2019
2322 Clear -21 1031 70 0 1.34 119 19:19 19.12.2019
2323 Clear -21 1031 70 0 1.34 119 19:19 19.12.2019
2324 Clear -21 1031 70 0 1.34 119 18:58 19.12.2019
2325 Clear -21 1031 70 0 1.34 119 18:40 19.12.2019
2326 Clear -21 1031 70 0 1.34 119 18:20 19.12.2019
2327 Clear -21 1031 70 0 1.34 119 17:56 19.12.2019
2328 Clear -21 1031 70 0 1.34 119 17:38 19.12.2019
2329 Clear -21 1032 77 0 1.69 117 17:18 19.12.2019
2330 Clear -21 1032 77 0 1.69 117 17:18 19.12.2019
2331 Clear -21 1032 77 0 1.69 117 16:56 19.12.2019
2332 Clear -21 1032 77 0 1.69 117 16:37 19.12.2019
2333 Clear -21 1032 77 0 1.69 117 16:19 19.12.2019
2334 Clear -21 1032 77 0 1.69 117 15:57 19.12.2019
2335 Clear -21 1032 77 0 1.69 117 15:57 19.12.2019
2336 Clear -21 1032 77 0 1.69 117 15:37 19.12.2019
2337 Clear -21 1032 77 0 1.69 117 15:19 19.12.2019
2338 Clear -21 1032 77 0 1.69 117 15:19 19.12.2019
2339 Clear -21 1032 77 0 1.69 117 14:44 19.12.2019
2340 Clear -22 1033 83 0 1.47 112 14:20 19.12.2019
2341 Clear -22 1033 83 0 1.47 112 13:59 19.12.2019
2342 Clear -22 1033 83 0 1.47 112 13:38 19.12.2019
2343 Clear -22 1033 82 0 1.49 115 13:19 19.12.2019
2344 Clear -22 1033 82 0 1.49 115 12:57 19.12.2019
2345 Clear -22 1033 82 0 1.49 115 12:39 19.12.2019
2346 Clear -22 1033 82 0 1.49 115 12:19 19.12.2019
2347 Clear -22 1033 82 0 1.49 115 11:58 19.12.2019
2348 Clear -22 1033 82 0 1.49 115 11:40 19.12.2019
2349 Clear -21 1032 86 0 0.95 121 11:18 19.12.2019
2350 Clear -21 1032 86 0 0.95 121 10:58 19.12.2019
2351 Clear -21 1032 86 0 0.95 121 10:38 19.12.2019
2352 Clear -21 1032 86 0 0.95 121 10:20 19.12.2019
2353 Clear -21 1032 86 0 0.95 121 09:54 19.12.2019
2354 Clear -21 1032 86 0 0.95 121 09:36 19.12.2019
2355 Clear -21 1032 86 0 0.95 121 09:18 19.12.2019
2356 Clear -21 1032 86 0 0.95 121 08:41 19.12.2019
2357 Clear -18 1034 86 0 0.37 134 08:20 19.12.2019
2358 Clear -18 1034 86 0 0.3 145 07:59 19.12.2019
2359 Clear -18 1034 86 0 0.3 145 07:38 19.12.2019
2360 Clear -18 1034 86 0 0.3 145 07:20 19.12.2019
2361 Clear -18 1034 86 0 0.3 145 06:50 19.12.2019
2362 Clear -18 1034 86 0 0.3 145 06:30 19.12.2019
2363 Clear -18 1034 86 0 0.3 145 05:55 19.12.2019
2364 Clear -18 1034 86 0 0.3 145 05:36 19.12.2019
2365 Clear -22 1037 89 0 1.33 120 04:52 19.12.2019
2366 Clear -22 1037 89 0 1.33 120 03:23 19.12.2019
2367 Clear -22 1037 89 0 1.33 120 02:23 19.12.2019
2368 Clouds -24 1038 96 0 1.7 106 01:23 19.12.2019
2369 Clouds -24 1038 96 0 1.7 106 00:43 19.12.2019
2370 Clouds -24 1038 96 0 1.7 106 00:24 19.12.2019
2371 Clouds -24 1038 96 0 1.7 106 23:57 18.12.2019
2372 Clouds -24 1038 96 0 1.7 106 23:38 18.12.2019
2373 Clouds -24 1038 99 0 0.79 121 23:18 18.12.2019
2374 Clouds -24 1038 99 0 0.79 121 22:55 18.12.2019
2375 Clouds -24 1038 99 0 0.79 121 22:36 18.12.2019
2376 Clouds -24 1038 99 0 0.79 121 22:18 18.12.2019
2377 Clouds -24 1038 99 0 0.79 121 21:55 18.12.2019
2378 Clouds -24 1038 99 0 0.79 121 21:37 18.12.2019
2379 Clouds -24 1038 99 0 0.79 121 21:18 18.12.2019
2380 Clouds -24 1038 99 0 0.79 121 20:54 18.12.2019
2381 Clouds -24 1038 99 0 0.79 121 20:36 18.12.2019
2382 Clouds -21 1039 92 0 0.56 134 20:18 18.12.2019
2383 Clouds -21 1039 88 0 0.82 120 19:54 18.12.2019
2384 Clouds -21 1039 88 0 0.82 120 19:36 18.12.2019
2385 Clouds -21 1039 88 0 0.82 120 19:18 18.12.2019
2386 Clouds -21 1039 88 0 0.82 120 18:43 18.12.2019
2387 Clouds -21 1039 88 0 0.82 120 18:25 18.12.2019
2388 Clouds -21 1039 88 0 0.82 120 17:56 18.12.2019
2389 Clouds -21 1039 88 0 0.82 120 17:38 18.12.2019
2390 Clouds -22 1039 87 0 1 118 17:19 18.12.2019
2391 Clouds -22 1039 87 0 1 118 16:43 18.12.2019
2392 Clouds -22 1039 87 0 1 118 16:43 18.12.2019
2393 Clouds -22 1039 87 0 1 118 16:43 18.12.2019
2394 Clouds -22 1039 87 0 1 118 16:25 18.12.2019
2395 Clouds -22 1039 87 0 1 118 15:59 18.12.2019
2396 Clouds -22 1039 87 0 1 118 15:40 18.12.2019
2397 Clouds -22 1039 87 0 1 118 15:21 18.12.2019
2398 Clouds -22 1039 87 0 1 118 14:59 18.12.2019
2399 Clouds -22 1039 87 0 1 118 14:40 18.12.2019
2400 Clouds -24 1040 90 0 1.16 100 14:20 18.12.2019
2401 Clouds -24 1040 90 0 1.16 100 13:56 18.12.2019
2402 Clouds -24 1040 90 0 1.16 100 13:37 18.12.2019
2403 Clouds -24 1040 86 0 1.27 106 13:19 18.12.2019
2404 Clouds -24 1040 86 0 1.27 106 13:19 18.12.2019
2405 Clouds -24 1040 86 0 1.27 106 12:57 18.12.2019
2406 Clouds -24 1040 86 0 1.27 106 12:37 18.12.2019
2407 Clouds -24 1040 86 0 1.27 106 12:19 18.12.2019
2408 Clouds -24 1040 86 0 1.27 106 11:55 18.12.2019
2409 Clouds -24 1040 86 0 1.27 106 11:36 18.12.2019
2410 Clouds -22 1039 85 0 0.88 101 11:18 18.12.2019
2411 Clouds -22 1039 85 0 0.88 101 10:55 18.12.2019
2412 Clouds -22 1039 85 0 0.88 101 10:37 18.12.2019
2413 Clouds -22 1039 85 0 0.88 101 10:18 18.12.2019
2414 Clouds -22 1039 85 0 0.88 101 09:21 18.12.2019
2415 Clouds -22 1039 85 0 0.88 101 08:58 18.12.2019
2416 Clouds -22 1039 85 0 0.88 101 08:39 18.12.2019
2417 Clouds -18 1039 83 0 0.45 10 08:21 18.12.2019
2418 Clouds -19 1039 82 0 0.41 30 07:43 18.12.2019
2419 Clouds -19 1039 82 0 0.41 30 07:22 18.12.2019
2420 Clouds -19 1039 82 0 0.41 30 06:53 18.12.2019
2421 Clouds -19 1039 82 0 0.41 30 06:26 18.12.2019
2422 Clouds -19 1039 82 0 0.41 30 05:43 18.12.2019
2423 Clouds -22 1042 76 0 1.2 94 04:37 18.12.2019
2424 Clouds -22 1042 76 0 1.2 94 02:50 18.12.2019
2425 Clouds -22 1042 76 0 1.2 94 02:30 18.12.2019
2426 Clear -25 1042 78 0 1.18 100 01:47 18.12.2019
2427 Clear -25 1042 78 0 1.18 100 01:29 18.12.2019
2428 Clear -24 1042 78 0 1.13 98 00:59 18.12.2019
2429 Clear -24 1042 78 0 1.13 98 00:40 18.12.2019
2430 Clear -24 1042 78 0 1.13 98 00:21 18.12.2019
2431 Clear -24 1042 78 0 1.13 98 23:54 17.12.2019
2432 Clear -24 1042 78 0 1.13 98 23:36 17.12.2019
2433 Clear -24 1041 84 0 1.32 98 23:18 17.12.2019
2434 Clear -24 1041 84 0 1.32 98 23:18 17.12.2019
2435 Clear -24 1041 84 0 1.32 98 22:54 17.12.2019
2436 Clear -24 1041 84 0 1.32 98 22:36 17.12.2019
2437 Clear -24 1041 84 0 1.32 98 22:18 17.12.2019
2438 Clear -24 1041 84 0 1.32 98 21:55 17.12.2019
2439 Clear -24 1041 84 0 1.32 98 21:36 17.12.2019
2440 Clear -24 1041 84 0 1.32 98 21:18 17.12.2019
2441 Clear -24 1041 84 0 1.32 98 20:40 17.12.2019
2442 Clear -24 1041 90 0 1.34 93 20:19 17.12.2019
2443 Clear -24 1041 90 0 1.36 98 19:59 17.12.2019
2444 Clear -24 1041 90 0 1.36 98 19:41 17.12.2019
2445 Clear -24 1041 90 0 1.36 98 19:20 17.12.2019
2446 Clear -24 1041 90 0 1.36 98 18:58 17.12.2019
2447 Clear -24 1041 90 0 1.36 98 18:39 17.12.2019
2448 Clear -24 1041 90 0 1.36 98 18:21 17.12.2019
2449 Clear -24 1041 90 0 1.36 98 17:55 17.12.2019
2450 Clear -24 1041 90 0 1.36 98 17:37 17.12.2019
2451 Clear -24 1042 89 0 1.32 92 17:18 17.12.2019
2452 Clear -24 1042 89 0 1.32 92 16:55 17.12.2019
2453 Clear -24 1042 89 0 1.32 92 16:55 17.12.2019
2454 Clear -24 1042 89 0 1.32 92 16:37 17.12.2019
2455 Clear -24 1042 89 0 1.32 92 16:18 17.12.2019
2456 Clear -24 1042 89 0 1.32 92 15:38 17.12.2019
2457 Clear -24 1042 89 0 1.32 92 15:20 17.12.2019
2458 Clear -24 1042 89 0 1.32 92 14:57 17.12.2019
2459 Clear -24 1042 89 0 1.32 92 14:39 17.12.2019
2460 Clear -24 1041 85 0 1.08 101 14:19 17.12.2019
2461 Clear -24 1041 85 0 1.08 101 13:59 17.12.2019
2462 Clear -24 1041 85 0 1.08 101 13:41 17.12.2019
2463 Clear -24 1041 87 0 1.04 98 13:19 17.12.2019
2464 Clear -24 1041 87 0 1.04 98 12:59 17.12.2019
2465 Clear -24 1041 87 0 1.04 98 12:39 17.12.2019
2466 Clear -24 1041 87 0 1.04 98 12:18 17.12.2019
2467 Clear -24 1041 87 0 1.04 98 11:57 17.12.2019
2468 Clear -24 1041 87 0 1.04 98 11:37 17.12.2019
2469 Clear -22 1039 79 0 0.32 113 11:18 17.12.2019
2470 Clear -22 1039 79 0 0.32 113 10:57 17.12.2019
2471 Clear -22 1039 79 0 0.32 113 10:39 17.12.2019
2472 Clear -22 1039 79 0 0.32 113 10:39 17.12.2019
2473 Clear -22 1039 79 0 0.32 113 10:19 17.12.2019
2474 Clear -22 1039 79 0 0.32 113 09:56 17.12.2019
2475 Clear -22 1039 79 0 0.32 113 09:38 17.12.2019
2476 Clear -22 1039 79 0 0.32 113 09:38 17.12.2019
2477 Clear -22 1039 79 0 0.32 113 09:18 17.12.2019
2478 Clear -22 1039 79 0 0.32 113 08:54 17.12.2019
2479 Clear -22 1039 79 0 0.32 113 08:36 17.12.2019
2480 Clear -18 1038 75 0 0.19 302 08:18 17.12.2019
2481 Clear -18 1038 74 0 0.25 294 07:42 17.12.2019
2482 Clear -18 1038 74 0 0.25 294 07:22 17.12.2019
2483 Clear -18 1038 74 0 0.25 294 06:50 17.12.2019
2484 Clear -18 1038 74 0 0.25 294 06:32 17.12.2019
2485 Clear -18 1038 74 0 0.25 294 05:42 17.12.2019
2486 Clear -18 1038 74 0 0.25 294 05:42 17.12.2019
2487 Clear -22 1041 61 0 1.2 111 04:58 17.12.2019
2488 Clear -22 1041 61 0 1.2 111 03:59 17.12.2019
2489 Clear -22 1041 61 0 1.2 111 02:26 17.12.2019
2490 Clear -24 1041 57 0 1.79 110 01:22 17.12.2019
2491 Clear -24 1041 57 0 1.79 110 00:47 17.12.2019
2492 Clear -24 1041 57 0 1.79 110 00:22 17.12.2019
2493 Clear -24 1041 57 0 1.79 110 23:57 16.12.2019
2494 Clear -24 1041 57 0 1.79 110 23:38 16.12.2019
2495 Clear -23 1041 57 0 2.02 113 23:18 16.12.2019
2496 Clear -23 1041 57 0 2.02 113 22:54 16.12.2019
2497 Clear -23 1041 57 0 2.02 113 22:36 16.12.2019
2498 Clear -23 1041 57 0 2.02 113 22:18 16.12.2019
2499 Clear -23 1041 57 0 2.02 113 21:54 16.12.2019
2500 Clear -23 1041 57 0 2.02 113 21:36 16.12.2019
2501 Clear -23 1041 57 0 2.02 113 21:18 16.12.2019
2502 Clear -23 1041 57 0 2.02 113 20:54 16.12.2019
2503 Clear -23 1041 57 0 2.02 113 20:36 16.12.2019
2504 Clear -24 1042 59 0 2.06 102 20:18 16.12.2019
2505 Clear -24 1042 59 0 2.06 102 19:54 16.12.2019
2506 Clear -24 1042 59 0 2.06 102 19:36 16.12.2019
2507 Clear -24 1042 59 0 2.06 102 19:18 16.12.2019
2508 Clear -24 1042 59 0 2.06 102 19:18 16.12.2019
2509 Clear -24 1042 59 0 2.06 102 18:42 16.12.2019
2510 Clear -24 1042 59 0 2.06 102 18:42 16.12.2019
2511 Clear -24 1042 59 0 2.06 102 18:20 16.12.2019
2512 Clear -24 1042 59 0 2.06 102 18:20 16.12.2019
2513 Clear -24 1042 59 0 2.06 102 17:59 16.12.2019
2514 Clear -24 1042 59 0 2.06 102 17:40 16.12.2019
2515 Clear -24 1042 60 0 1.91 105 17:22 16.12.2019
2516 Clear -24 1042 60 0 1.91 105 16:58 16.12.2019
2517 Clear -24 1042 60 0 1.91 105 16:39 16.12.2019
2518 Clear -24 1042 60 0 1.91 105 16:39 16.12.2019
2519 Clear -24 1042 60 0 1.91 105 16:20 16.12.2019
2520 Clear -24 1042 60 0 1.91 105 15:59 16.12.2019
2521 Clear -24 1042 60 0 1.91 105 15:39 16.12.2019
2522 Clear -24 1042 60 0 1.91 105 15:21 16.12.2019
2523 Clear -24 1042 60 0 1.91 105 14:57 16.12.2019
2524 Clear -24 1042 60 0 1.91 105 14:37 16.12.2019
2525 Clear -24 1042 60 0 1.91 105 14:37 16.12.2019
2526 Clear -24 1042 60 0 1.91 105 14:37 16.12.2019
2527 Clear -24 1041 63 0 1.9 99 14:19 16.12.2019
2528 Clear -24 1041 63 0 1.9 99 13:56 16.12.2019
2529 Clear -24 1041 63 0 1.9 99 13:38 16.12.2019
2530 Clear -24 1041 63 0 1.9 99 13:38 16.12.2019
2531 Clear -23 1041 63 0 2.03 99 13:19 16.12.2019
2532 Clear -23 1041 63 0 2.03 99 13:19 16.12.2019
2533 Clear -23 1041 63 0 2.03 99 12:58 16.12.2019
2534 Clear -23 1041 63 0 1.98 98 12:39 16.12.2019
2535 Clear -23 1041 63 0 1.98 98 12:19 16.12.2019
2536 Clear -23 1041 63 0 1.98 98 11:58 16.12.2019
2537 Clear -23 1041 63 0 2.03 99 11:40 16.12.2019
2538 Clear -22 1039 70 0 0.95 94 11:20 16.12.2019
2539 Clear -22 1039 69 0 0.82 84 10:57 16.12.2019
2540 Clear -22 1039 69 0 0.82 84 10:39 16.12.2019
2541 Clear -22 1039 69 0 0.82 84 10:39 16.12.2019
2542 Clear -22 1039 69 0 0.82 84 10:19 16.12.2019
2543 Clear -22 1039 70 0 0.95 94 09:45 16.12.2019
2544 Clear -22 1039 69 0 0.82 84 09:27 16.12.2019
2545 Clear -22 1039 69 0 0.82 84 09:27 16.12.2019
2546 Clear -22 1039 69 0 0.82 84 08:56 16.12.2019
2547 Clear -22 1039 70 0 0.95 94 08:37 16.12.2019
2548 Clear -18 1037 75 0 0.35 48 08:18 16.12.2019
2549 Clear -18 1038 75 0 0.24 12 07:44 16.12.2019
2550 Clear -18 1038 75 0 0.24 12 07:22 16.12.2019
2551 Clear -18 1038 75 0 0.24 12 06:45 16.12.2019
2552 Clear -18 1038 75 0 0.24 12 06:22 16.12.2019
2553 Clear -18 1038 75 0 0.24 12 05:49 16.12.2019
2554 Clear -18 1038 75 0 0.24 12 05:30 16.12.2019
2555 Clear -21 1039 70 0 0.66 104 04:22 16.12.2019
2556 Clouds -22 1038 78 0 1.41 96 02:19 16.12.2019
2557 Clouds -22 1038 78 0 1.41 96 01:44 16.12.2019
2558 Clouds -22 1037 72 0 1.53 92 00:42 16.12.2019
2559 Clouds -22 1037 72 0 1.53 92 00:24 16.12.2019
2560 Clouds -22 1037 72 0 1.53 92 23:58 15.12.2019
2561 Clouds -22 1037 72 0 1.53 92 23:38 15.12.2019
2562 Clouds -19 1035 88 0 1.5 72 23:19 15.12.2019
2563 Clouds -19 1035 88 0 1.5 72 22:55 15.12.2019
2564 Clouds -19 1035 88 0 1.5 72 22:37 15.12.2019
2565 Clouds -19 1035 88 0 1.5 72 22:18 15.12.2019
2566 Clouds -19 1035 88 0 1.5 72 21:55 15.12.2019
2567 Clouds -19 1035 88 0 1.5 72 21:37 15.12.2019
2568 Clouds -19 1035 88 0 1.5 72 21:19 15.12.2019
2569 Clouds -19 1035 88 0 1.5 72 20:55 15.12.2019
2570 Clouds -19 1035 88 0 1.5 72 20:55 15.12.2019
2571 Clouds -19 1035 88 0 1.5 72 20:37 15.12.2019
2572 Clouds -19 1032 93 0 1.41 71 20:18 15.12.2019
2573 Clouds -18 1032 96 0 1.31 79 19:56 15.12.2019
2574 Clouds -19 1032 93 0 1.41 71 19:38 15.12.2019
2575 Clouds -18 1032 96 0 1.31 79 19:18 15.12.2019
2576 Clouds -19 1032 93 0 1.41 71 18:55 15.12.2019
2577 Clouds -19 1032 93 0 1.41 71 18:37 15.12.2019
2578 Clouds -18 1032 96 0 1.31 79 18:18 15.12.2019
2579 Clouds -18 1032 96 0 1.31 79 17:55 15.12.2019
2580 Clouds -18 1032 96 0 1.31 79 17:36 15.12.2019
2581 Clouds -18 1030 91 0 1.11 88 17:18 15.12.2019
2582 Clouds -18 1030 91 0 1.11 88 16:43 15.12.2019
2583 Clouds -18 1030 91 0 1.11 88 16:23 15.12.2019
2584 Clouds -18 1030 93 0 1.18 93 15:57 15.12.2019
2585 Clouds -18 1030 91 0 1.11 88 15:39 15.12.2019
2586 Clouds -18 1030 91 0 1.11 88 15:19 15.12.2019
2587 Clouds -18 1030 91 0 1.11 88 14:56 15.12.2019
2588 Clouds -18 1030 91 0 1.11 88 14:38 15.12.2019
2589 Clouds -18 1030 91 0 1.11 88 14:38 15.12.2019
2590 Clouds -15 1029 86 0 0.32 52 14:19 15.12.2019
2591 Clouds -15 1029 86 0 0.32 52 13:59 15.12.2019
2592 Clouds -15 1028 86 0 0.45 79 13:39 15.12.2019
2593 Clouds -15 1028 86 0 0.45 79 13:20 15.12.2019
2594 Clouds -15 1028 86 0 0.45 79 12:57 15.12.2019
2595 Clouds -15 1028 86 0 0.45 79 12:57 15.12.2019
2596 Clouds -15 1028 86 0 0.45 79 12:39 15.12.2019
2597 Clouds -15 1028 86 0 0.45 79 12:21 15.12.2019
2598 Clouds -15 1028 86 0 0.45 79 11:59 15.12.2019
2599 Clouds -15 1028 86 0 0.45 79 11:37 15.12.2019
2600 Clouds -12 1025 79 0 0.76 295 11:19 15.12.2019
2601 Clouds -12 1025 79 0 0.76 295 10:55 15.12.2019
2602 Clouds -12 1025 79 0 0.76 295 10:37 15.12.2019
2603 Clouds -12 1025 79 0 0.76 295 10:19 15.12.2019
2604 Clouds -12 1025 79 0 0.76 295 09:41 15.12.2019
2605 Clouds -12 1025 79 0 0.76 295 09:20 15.12.2019
2606 Clouds -12 1025 79 0 0.76 295 08:59 15.12.2019
2607 Clouds -12 1025 79 0 0.76 295 08:41 15.12.2019
2608 Clouds -9 1022 73 0 0.19 214 08:22 15.12.2019
2609 Clouds -9 1022 73 0 0.19 214 08:22 15.12.2019
2610 Clouds -9 1022 73 0 0.19 214 07:56 15.12.2019
2611 Clouds -9 1022 73 0 0.19 214 07:36 15.12.2019
2612 Clouds -9 1022 73 0 0.19 214 06:56 15.12.2019
2613 Clouds -9 1022 73 0 0.19 214 06:21 15.12.2019
2614 Clouds -9 1022 73 0 0.19 214 05:37 15.12.2019
2615 Clouds -11 1023 55 0 0.51 160 05:18 15.12.2019
2616 Clouds -11 1023 55 0 0.51 160 03:54 15.12.2019
2617 Clouds -11 1023 55 0 0.51 160 02:34 15.12.2019
2618 Clouds -12 1021 50 0 1.01 133 01:50 15.12.2019
2619 Clouds -12 1021 50 0 1.01 133 01:28 15.12.2019
2620 Clouds -12 1022 50 0 0.79 138 00:59 15.12.2019
2621 Clouds -12 1022 50 0 0.79 138 00:41 15.12.2019
2622 Clouds -12 1022 50 0 0.79 138 00:23 15.12.2019
2623 Clouds -12 1022 50 0 0.79 138 23:40 14.12.2019
2624 Clouds -12 1022 50 0 0.79 138 23:40 14.12.2019
2625 Clouds -12 1022 50 0 0.79 138 23:40 14.12.2019
2626 Clouds -10 1020 51 0 1.96 136 23:21 14.12.2019
2627 Clouds -10 1020 51 0 1.96 136 22:58 14.12.2019
2628 Clouds -10 1020 51 0 1.96 136 22:58 14.12.2019
2629 Clouds -10 1020 51 0 1.96 136 22:58 14.12.2019
2630 Clouds -10 1020 51 0 1.96 136 22:40 14.12.2019
2631 Clouds -10 1020 51 0 1.96 136 22:21 14.12.2019
2632 Clouds -10 1020 51 0 1.96 136 21:56 14.12.2019
2633 Clouds -10 1020 51 0 1.96 136 21:38 14.12.2019
2634 Clouds -10 1020 51 0 1.96 136 21:19 14.12.2019
2635 Clouds -10 1020 51 0 1.96 136 21:19 14.12.2019
2636 Clouds -10 1020 51 0 1.96 136 21:19 14.12.2019
2637 Clouds -10 1020 51 0 1.96 136 20:56 14.12.2019
2638 Clouds -10 1020 51 0 1.96 136 20:38 14.12.2019
2639 Clouds -10 1021 50 0 2.87 120 20:19 14.12.2019
2640 Clouds -10 1021 50 0 2.87 120 19:55 14.12.2019
2641 Clouds -10 1021 50 0 2.87 120 19:36 14.12.2019
2642 Clouds -10 1021 50 0 2.87 120 19:18 14.12.2019
2643 Clouds -10 1021 50 0 2.87 120 18:55 14.12.2019
2644 Clouds -10 1021 50 0 2.87 120 18:36 14.12.2019
2645 Clouds -10 1021 50 0 2.87 120 18:18 14.12.2019
2646 Clouds -10 1021 50 0 2.87 120 17:42 14.12.2019
2647 Clouds -12 1022 48 0 2.85 122 17:22 14.12.2019
2648 Clouds -12 1022 48 0 2.85 122 16:55 14.12.2019
2649 Clouds -12 1022 48 0 2.85 122 16:37 14.12.2019
2650 Clouds -12 1022 48 0 2.85 122 16:18 14.12.2019
2651 Clouds -12 1022 48 0 2.85 122 15:41 14.12.2019
2652 Clouds -12 1022 48 0 2.85 122 15:20 14.12.2019
2653 Clouds -12 1022 48 0 2.85 122 14:57 14.12.2019
2654 Clouds -12 1022 48 0 2.85 122 14:38 14.12.2019
2655 Clear -13 1023 46 0 3.09 116 14:19 14.12.2019
2656 Clear -13 1023 46 0 3.09 116 13:45 14.12.2019
2657 Clear -13 1023 46 0 3.17 120 13:20 14.12.2019
2658 Clear -13 1022 47 0 3.19 118 12:59 14.12.2019
2659 Clear -13 1023 46 0 3.17 120 12:40 14.12.2019
2660 Clear -13 1023 46 0 3.17 120 12:21 14.12.2019
2661 Clear -13 1023 46 0 3.17 120 12:21 14.12.2019
2662 Clear -13 1022 47 0 3.19 118 11:59 14.12.2019
2663 Clear -13 1023 46 0 3.17 120 11:39 14.12.2019
2664 Clear -12 1022 46 0 2.45 117 11:20 14.12.2019
2665 Clear -12 1022 46 0 2.45 117 10:57 14.12.2019
2666 Clear -12 1022 51 0 2.47 122 10:39 14.12.2019
2667 Clear -12 1022 51 0 2.47 122 10:21 14.12.2019
2668 Clear -12 1022 51 0 2.47 122 09:57 14.12.2019
2669 Clear -12 1022 51 0 2.47 122 09:38 14.12.2019
2670 Clear -12 1022 51 0 2.47 122 09:18 14.12.2019
2671 Clear -12 1022 51 0 2.47 122 08:42 14.12.2019
2672 Clear -10 1022 61 0 1.51 122 08:19 14.12.2019
2673 Clear -10 1022 60 0 1.49 124 07:44 14.12.2019
2674 Clear -10 1022 60 0 1.49 124 07:23 14.12.2019
2675 Clear -10 1022 60 0 1.49 124 06:56 14.12.2019
2676 Clear -10 1022 60 0 1.49 124 06:37 14.12.2019
2677 Clear -10 1022 60 0 1.49 124 05:57 14.12.2019
2678 Clear -13 1025 49 0 2.26 129 04:47 14.12.2019
2679 Clear -13 1025 49 0 2.26 129 02:31 14.12.2019
2680 Clear -15 1025 48 0 2.17 115 01:49 14.12.2019
2681 Clear -15 1025 48 0 2.17 115 01:31 14.12.2019
2682 Clear -15 1025 47 0 2.17 116 00:45 14.12.2019
2683 Clear -15 1025 47 0 2.17 116 00:27 14.12.2019
2684 Clear -15 1025 47 0 2.17 116 23:54 13.12.2019
2685 Clear -15 1025 47 0 2.17 116 23:36 13.12.2019
2686 Clear -15 1025 50 0 2.47 121 23:18 13.12.2019
2687 Clear -15 1025 50 0 2.47 121 22:40 13.12.2019
2688 Clear -15 1025 50 0 2.47 121 22:19 13.12.2019
2689 Clear -15 1025 50 0 2.47 121 21:55 13.12.2019
2690 Clear -15 1025 50 0 2.47 121 21:37 13.12.2019
2691 Clear -15 1025 50 0 2.47 121 21:19 13.12.2019
2692 Clear -15 1025 50 0 2.47 121 20:40 13.12.2019
2693 Clear -15 1025 53 0 2.73 121 20:21 13.12.2019
2694 Clear -15 1025 53 0 2.73 121 19:58 13.12.2019
2695 Clear -15 1025 53 0 2.73 121 19:40 13.12.2019
2696 Clear -15 1025 53 0 2.73 121 19:21 13.12.2019
2697 Clear -15 1025 53 0 2.73 121 18:58 13.12.2019
2698 Clear -15 1025 53 0 2.73 121 18:40 13.12.2019
2699 Clear -15 1025 53 0 2.73 121 18:19 13.12.2019
2700 Clear -15 1025 53 0 2.73 121 18:19 13.12.2019
2701 Clear -15 1025 53 0 2.73 121 17:42 13.12.2019
2702 Clear -15 1025 54 0 3.31 125 17:19 13.12.2019
2703 Clear -15 1025 54 0 3.31 125 16:59 13.12.2019
2704 Clear -15 1025 54 0 3.31 125 16:39 13.12.2019
2705 Clear -15 1025 54 0 3.31 125 16:20 13.12.2019
2706 Clear -15 1025 54 0 3.31 125 16:20 13.12.2019
2707 Clear -15 1025 54 0 3.31 125 15:43 13.12.2019
2708 Clear -15 1025 54 0 3.31 125 15:23 13.12.2019
2709 Clear -15 1025 54 0 3.31 125 14:58 13.12.2019
2710 Clear -15 1025 54 0 3.31 125 14:40 13.12.2019
2711 Clouds -15 1025 54 0 3.53 123 14:20 13.12.2019
2712 Clouds -15 1025 54 0 3.53 123 13:56 13.12.2019
2713 Clouds -15 1025 54 0 3.53 123 13:37 13.12.2019
2714 Clouds -15 1024 54 0 3.48 122 13:19 13.12.2019
2715 Clouds -15 1024 54 0 3.48 122 12:42 13.12.2019
2716 Clouds -15 1024 54 0 3.48 122 12:20 13.12.2019
2717 Clouds -15 1024 54 0 3.48 122 12:20 13.12.2019
2718 Clouds -15 1024 54 0 3.48 122 11:57 13.12.2019
2719 Clouds -15 1024 54 0 3.48 122 11:39 13.12.2019
2720 Clouds -13 1024 56 0 3.72 133 11:19 13.12.2019
2721 Clouds -13 1024 56 0 3.72 133 10:41 13.12.2019
2722 Clouds -13 1024 56 0 3.72 133 10:22 13.12.2019
2723 Clouds -13 1024 56 0 3.72 133 09:54 13.12.2019
2724 Clouds -13 1024 56 0 3.72 133 09:36 13.12.2019
2725 Clouds -13 1024 56 0 3.72 133 09:18 13.12.2019
2726 Clouds -13 1024 56 0 3.72 133 09:18 13.12.2019
2727 Clouds -13 1024 56 0 3.72 133 08:40 13.12.2019
2728 Clouds -11 1024 63 0 3.76 129 08:22 13.12.2019
2729 Clouds -11 1024 63 0 3.76 129 07:44 13.12.2019
2730 Clouds -11 1024 63 0 3.76 129 07:20 13.12.2019
2731 Clouds -11 1024 63 0 3.76 129 06:50 13.12.2019
2732 Clouds -11 1024 63 0 3.76 129 06:28 13.12.2019
2733 Clouds -11 1024 63 0 3.76 129 05:44 13.12.2019
2734 Clouds -11 1024 63 0 3.76 129 05:24 13.12.2019
2735 Clouds -13 1027 53 0 4.16 123 04:35 13.12.2019
2736 Clouds -13 1027 53 0 4.16 123 03:31 13.12.2019
2737 Clouds -13 1027 53 0 4.16 123 02:32 13.12.2019
2738 Clouds -14 1027 43 0 4.5 123 01:42 13.12.2019
2739 Clouds -14 1027 42 0 4.49 123 00:53 13.12.2019
2740 Clouds -14 1027 42 0 4.49 123 00:34 13.12.2019
2741 Clouds -14 1027 42 0 4.49 123 23:57 12.12.2019
2742 Clouds -14 1027 42 0 4.49 123 23:37 12.12.2019
2743 Clear -14 1028 40 0 4.26 121 23:19 12.12.2019
2744 Clear -14 1028 40 0 4.26 121 22:42 12.12.2019
2745 Clear -14 1028 40 0 4.26 121 22:23 12.12.2019
2746 Clear -14 1028 40 0 4.26 121 21:57 12.12.2019
2747 Clear -14 1028 40 0 4.26 121 21:39 12.12.2019
2748 Clear -14 1028 40 0 4.26 121 21:20 12.12.2019
2749 Clear -14 1028 40 0 4.26 121 20:59 12.12.2019
2750 Clear -14 1028 40 0 4.26 121 20:41 12.12.2019
2751 Clear -14 1028 40 0 4.39 121 20:23 12.12.2019
2752 Clear -14 1029 39 0 3.87 115 19:59 12.12.2019
2753 Clear -14 1029 39 0 3.87 115 19:41 12.12.2019
2754 Clear -14 1029 39 0 3.87 115 19:21 12.12.2019
2755 Clear -14 1029 39 0 3.87 115 18:58 12.12.2019
2756 Clear -14 1029 39 0 3.87 115 18:39 12.12.2019
2757 Clear -14 1029 39 0 3.87 115 18:20 12.12.2019
2758 Clear -14 1029 39 0 3.87 115 17:57 12.12.2019
2759 Clear -14 1029 39 0 3.87 115 17:39 12.12.2019
2760 Clear -14 1031 42 0 3.44 113 17:20 12.12.2019
2761 Clear -14 1031 42 0 3.44 113 16:57 12.12.2019
2762 Clear -14 1031 42 0 3.44 113 16:38 12.12.2019
2763 Clear -14 1031 42 0 3.44 113 16:20 12.12.2019
2764 Clear -14 1031 42 0 3.44 113 15:56 12.12.2019
2765 Clear -14 1031 42 0 3.44 113 15:37 12.12.2019
2766 Clear -14 1031 42 0 3.44 113 15:18 12.12.2019
2767 Clear -14 1031 42 0 3.44 113 14:38 12.12.2019
2768 Clouds -14 1031 55 0 2.96 109 14:20 12.12.2019
2769 Clouds -14 1031 55 0 2.96 109 13:58 12.12.2019
2770 Clouds -14 1031 55 0 2.96 109 13:39 12.12.2019
2771 Clear -14 1031 55 0 2.9 108 13:21 12.12.2019
2772 Clear -14 1031 55 0 2.9 108 12:58 12.12.2019
2773 Clear -14 1031 55 0 2.9 108 12:40 12.12.2019
2774 Clear -14 1031 55 0 2.9 108 12:21 12.12.2019
2775 Clear -14 1031 55 0 2.9 108 11:56 12.12.2019
2776 Clear -14 1031 55 0 2.9 108 11:38 12.12.2019
2777 Clear -13 1030 57 0 1.75 104 11:19 12.12.2019
2778 Clear -13 1030 57 0 1.75 104 10:55 12.12.2019
2779 Clear -13 1030 57 0 1.75 104 10:55 12.12.2019
2780 Clear -13 1030 57 0 1.75 104 10:37 12.12.2019
2781 Clear -13 1030 57 0 1.75 104 10:19 12.12.2019
2782 Clear -13 1030 57 0 1.75 104 09:42 12.12.2019
2783 Clear -13 1030 57 0 1.75 104 09:24 12.12.2019
2784 Clear -13 1030 57 0 1.75 104 08:58 12.12.2019
2785 Clear -13 1030 57 0 1.75 104 08:38 12.12.2019
2786 Clear -13 1030 57 0 1.75 104 08:38 12.12.2019
2787 Clouds -11 1028 62 0 0.96 61 08:20 12.12.2019
2788 Clouds -11 1028 62 0 0.96 61 07:46 12.12.2019
2789 Clouds -11 1028 62 0 0.96 61 07:25 12.12.2019
2790 Clouds -11 1028 62 0 0.96 61 06:54 12.12.2019
2791 Clouds -11 1028 62 0 0.96 61 06:33 12.12.2019
2792 Clouds -11 1028 62 0 0.96 61 05:40 12.12.2019
2793 Clouds -15 1030 46 0 1.04 69 04:52 12.12.2019
2794 Clouds -15 1030 46 0 1.04 69 04:52 12.12.2019
2795 Clouds -15 1030 46 0 1.04 69 03:31 12.12.2019
2796 Clouds -15 1030 46 0 1.04 69 02:38 12.12.2019
2797 Clouds -16 1028 45 0 0.91 86 02:20 12.12.2019
2798 Clouds -16 1028 45 0 0.91 86 01:40 12.12.2019
2799 Clouds -16 1028 45 0 0.76 91 01:22 12.12.2019
2800 Clouds -16 1028 45 0 0.76 91 00:46 12.12.2019
2801 Clouds -16 1028 45 0 0.76 91 00:20 12.12.2019
2802 Clouds -16 1028 45 0 0.76 91 23:44 11.12.2019
2803 Clouds -15 1027 45 0 0.89 98 23:21 11.12.2019
2804 Clouds -15 1027 45 0 0.89 98 22:57 11.12.2019
2805 Clouds -15 1027 45 0 0.89 98 22:39 11.12.2019
2806 Clouds -15 1027 45 0 0.89 98 22:20 11.12.2019
2807 Clouds -15 1027 45 0 0.89 98 21:57 11.12.2019
2808 Clouds -15 1027 45 0 0.89 98 21:38 11.12.2019
2809 Clouds -15 1027 45 0 0.89 98 21:19 11.12.2019
2810 Clouds -15 1027 45 0 0.89 98 20:56 11.12.2019
2811 Clouds -15 1027 45 0 0.89 98 20:37 11.12.2019
2812 Clear -14 1025 45 0 1.34 115 20:19 11.12.2019
2813 Clear -14 1025 45 0 1.34 115 19:57 11.12.2019
2814 Clear -14 1025 45 0 1.34 115 19:39 11.12.2019
2815 Clear -14 1025 45 0 1.34 115 19:19 11.12.2019
2816 Clear -14 1025 45 0 1.34 115 18:41 11.12.2019
2817 Clear -14 1025 45 0 1.34 115 18:21 11.12.2019
2818 Clear -14 1025 45 0 1.34 115 17:57 11.12.2019
2819 Clear -14 1025 45 0 1.34 115 17:57 11.12.2019
2820 Clear -14 1025 45 0 1.34 115 17:39 11.12.2019
2821 Clear -14 1025 45 0 1.71 119 17:18 11.12.2019
2822 Clear -14 1025 45 0 1.71 119 16:57 11.12.2019
2823 Clear -14 1025 45 0 1.71 119 16:57 11.12.2019
2824 Clear -14 1025 45 0 1.71 119 16:38 11.12.2019
2825 Clear -14 1025 45 0 1.71 119 16:38 11.12.2019
2826 Clear -14 1025 45 0 1.71 119 16:38 11.12.2019
2827 Clear -14 1025 45 0 1.71 119 16:20 11.12.2019
2828 Clear -14 1025 45 0 1.71 119 15:59 11.12.2019
2829 Clear -14 1025 45 0 1.71 119 15:39 11.12.2019
2830 Clear -14 1025 45 0 1.71 119 15:21 11.12.2019
2831 Clear -14 1025 45 0 1.71 119 14:56 11.12.2019
2832 Clear -14 1025 45 0 1.71 119 14:37 11.12.2019
2833 Clear -14 1025 46 0 1.84 117 14:19 11.12.2019
2834 Clear -14 1025 46 0 1.84 117 13:55 11.12.2019
2835 Clear -14 1025 46 0 1.84 117 13:36 11.12.2019
2836 Clear -13 1025 46 0 1.94 117 13:18 11.12.2019
2837 Clear -13 1025 46 0 1.94 117 12:55 11.12.2019
2838 Clear -13 1025 46 0 1.94 117 12:37 11.12.2019
2839 Clear -13 1025 46 0 1.94 117 12:18 11.12.2019
2840 Clear -13 1025 46 0 1.94 117 11:56 11.12.2019
2841 Clear -13 1025 46 0 1.94 117 11:37 11.12.2019
2842 Clear -13 1025 46 0 1.94 117 11:37 11.12.2019
2843 Clear -12 1024 50 0 1.11 115 11:18 11.12.2019
2844 Clear -12 1024 50 0 1.11 115 10:44 11.12.2019
2845 Clear -12 1024 50 0 1.11 115 10:25 11.12.2019
2846 Clear -12 1024 50 0 1.11 115 09:58 11.12.2019
2847 Clear -12 1024 50 0 1.11 115 09:38 11.12.2019
2848 Clear -12 1024 50 0 1.11 115 09:38 11.12.2019
2849 Clear -12 1024 50 0 1.11 115 09:20 11.12.2019
2850 Clear -12 1024 50 0 1.11 115 08:57 11.12.2019
2851 Clear -12 1024 50 0 1.11 115 08:37 11.12.2019
2852 Clear -9 1025 60 0 0.52 126 08:18 11.12.2019
2853 Clear -9 1025 60 0 0.52 126 07:45 11.12.2019
2854 Clear -9 1025 60 0 0.52 126 07:25 11.12.2019
2855 Clear -9 1025 60 0 0.52 126 06:47 11.12.2019
2856 Clear -9 1025 60 0 0.52 126 06:25 11.12.2019
2857 Clear -9 1025 60 0 0.52 126 05:58 11.12.2019
2858 Clear -9 1025 60 0 0.52 126 05:37 11.12.2019
2859 Clear -12 1029 48 0 1.47 122 04:55 11.12.2019
2860 Clear -12 1029 48 0 1.47 122 03:41 11.12.2019
2861 Clear -12 1029 48 0 1.47 122 02:39 11.12.2019
2862 Clear -14 1029 49 0 1.63 115 01:22 11.12.2019
2863 Clear -14 1029 49 0 1.63 115 00:45 11.12.2019
2864 Clear -14 1029 49 0 1.63 115 00:21 11.12.2019
2865 Clear -14 1029 49 0 1.63 115 23:46 10.12.2019
2866 Clear -14 1029 49 0 1.63 115 23:27 10.12.2019
2867 Clear -15 1029 51 0 1.5 116 22:57 10.12.2019
2868 Clear -15 1029 51 0 1.5 116 22:39 10.12.2019
2869 Clear -15 1029 51 0 1.5 116 22:21 10.12.2019
2870 Clear -15 1029 51 0 1.5 116 21:54 10.12.2019
2871 Clear -15 1029 51 0 1.5 116 21:54 10.12.2019
2872 Clear -15 1029 51 0 1.5 116 21:36 10.12.2019
2873 Clear -15 1029 51 0 1.5 116 21:18 10.12.2019
2874 Clear -15 1029 51 0 1.5 116 20:56 10.12.2019
2875 Clear -15 1029 51 0 1.5 116 20:56 10.12.2019
2876 Clear -15 1029 51 0 1.5 116 20:37 10.12.2019
2877 Clear -15 1030 52 0 1.89 119 20:18 10.12.2019
2878 Clear -15 1030 53 0 1.9 121 19:44 10.12.2019
2879 Clear -15 1030 53 0 1.9 121 19:26 10.12.2019
2880 Clear -15 1030 53 0 1.9 121 18:59 10.12.2019
2881 Clear -15 1030 53 0 1.9 121 18:39 10.12.2019
2882 Clear -15 1030 53 0 1.9 121 18:20 10.12.2019
2883 Clear -15 1030 53 0 1.9 121 17:55 10.12.2019
2884 Clear -15 1030 53 0 1.9 121 17:37 10.12.2019
2885 Clear -15 1031 56 0 1.93 116 17:19 10.12.2019
2886 Clear -15 1031 56 0 1.93 116 16:42 10.12.2019
2887 Clear -15 1031 56 0 1.93 116 16:20 10.12.2019
2888 Clear -15 1031 56 0 1.93 116 16:20 10.12.2019
2889 Clear -15 1031 56 0 1.93 116 15:55 10.12.2019
2890 Clear -15 1031 56 0 1.93 116 15:37 10.12.2019
2891 Clear -15 1031 56 0 1.93 116 15:18 10.12.2019
2892 Clear -15 1031 56 0 1.93 116 15:18 10.12.2019
2893 Clear -15 1031 56 0 1.93 116 14:55 10.12.2019
2894 Clear -15 1031 56 0 1.93 116 14:36 10.12.2019
2895 Clear -16 1031 61 0 1.98 105 14:18 10.12.2019
2896 Clear -16 1031 61 0 1.98 105 13:56 10.12.2019
2897 Clear -16 1031 61 0 1.98 105 13:56 10.12.2019
2898 Clear -16 1031 61 0 1.98 105 13:37 10.12.2019
2899 Clear -16 1031 61 0 1.98 105 13:18 10.12.2019
2900 Clear -16 1031 60 0 1.96 104 12:40 10.12.2019
2901 Clear -16 1031 60 0 1.96 104 12:40 10.12.2019
2902 Clear -16 1031 60 0 1.96 104 12:21 10.12.2019
2903 Clear -16 1031 60 0 1.96 104 11:42 10.12.2019
2904 Clear -16 1031 60 0 1.96 104 11:23 10.12.2019
2905 Clear -15 1030 64 0 1.08 107 10:56 10.12.2019
2906 Clear -15 1030 64 0 1.08 107 10:37 10.12.2019
2907 Clear -15 1030 64 0 1.08 107 10:19 10.12.2019
2908 Clear -15 1030 64 0 1.08 107 09:55 10.12.2019
2909 Clear -15 1030 64 0 1.08 107 09:37 10.12.2019
2910 Clear -15 1030 64 0 1.08 107 09:19 10.12.2019
2911 Clear -15 1030 64 0 1.08 107 08:54 10.12.2019
2912 Clear -15 1030 64 0 1.08 107 08:36 10.12.2019
2913 Clear -12 1031 73 0 0.42 75 08:18 10.12.2019
2914 Clear -12 1031 73 0 0.42 75 07:43 10.12.2019
2915 Clear -12 1031 73 0 0.42 75 07:24 10.12.2019
2916 Clear -12 1031 73 0 0.42 75 06:46 10.12.2019
2917 Clear -12 1031 73 0 0.42 75 06:19 10.12.2019
2918 Clear -12 1031 73 0 0.42 75 05:54 10.12.2019
2919 Clear -16 1033 65 0 1.4 91 04:52 10.12.2019
2920 Clear -16 1033 65 0 1.4 91 03:38 10.12.2019
2921 Clear -16 1033 65 0 1.4 91 02:46 10.12.2019
2922 Clouds -18 1034 59 0 1.68 86 01:45 10.12.2019
2923 Clouds -18 1034 61 0 1.75 89 01:21 10.12.2019
2924 Clouds -18 1034 61 0 1.75 89 00:42 10.12.2019
2925 Clouds -18 1034 61 0 1.75 89 00:21 10.12.2019
2926 Clouds -18 1034 61 0 1.75 89 23:42 09.12.2019
2927 Clouds -18 1034 61 0 1.75 89 23:42 09.12.2019
2928 Clouds -18 1034 61 0 1.75 89 23:23 09.12.2019
2929 Clouds -18 1034 61 0 1.75 89 23:23 09.12.2019
2930 Clouds -18 1033 58 0 1.81 95 22:58 09.12.2019
2931 Clouds -18 1033 58 0 1.81 95 22:40 09.12.2019
2932 Clouds -18 1033 58 0 1.81 95 22:20 09.12.2019
2933 Clouds -18 1033 58 0 1.81 95 21:57 09.12.2019
2934 Clouds -18 1033 58 0 1.81 95 21:38 09.12.2019
2935 Clouds -18 1033 58 0 1.81 95 21:19 09.12.2019
2936 Clouds -18 1033 58 0 1.81 95 20:57 09.12.2019
2937 Clouds -18 1033 58 0 1.81 95 20:57 09.12.2019
2938 Clouds -18 1033 58 0 1.81 95 20:39 09.12.2019
2939 Clouds -16 1033 60 0 0.85 84 20:20 09.12.2019
2940 Clouds -16 1034 58 0 0.76 105 19:56 09.12.2019
2941 Clouds -16 1034 58 0 0.76 105 19:37 09.12.2019
2942 Clouds -16 1034 58 0 0.76 105 19:19 09.12.2019
2943 Clouds -16 1034 58 0 0.76 105 18:56 09.12.2019
2944 Clouds -16 1034 58 0 0.76 105 18:38 09.12.2019
2945 Clouds -16 1034 58 0 0.76 105 18:19 09.12.2019
2946 Clouds -16 1034 58 0 0.76 105 17:57 09.12.2019
2947 Clouds -16 1034 58 0 0.76 105 17:39 09.12.2019
2948 Clouds -18 1035 68 0 2.19 90 17:20 09.12.2019
2949 Clouds -18 1035 68 0 2.19 90 16:56 09.12.2019
2950 Clouds -18 1035 68 0 2.19 90 16:37 09.12.2019
2951 Clouds -18 1035 68 0 2.19 90 16:19 09.12.2019
2952 Clouds -18 1035 68 0 2.19 90 15:55 09.12.2019
2953 Clouds -18 1035 68 0 2.19 90 15:37 09.12.2019
2954 Clouds -18 1035 68 0 2.19 90 15:19 09.12.2019
2955 Clouds -18 1035 68 0 2.19 90 14:42 09.12.2019
2956 Clouds -19 1036 96 0 1.74 91 14:19 09.12.2019
2957 Clouds -19 1036 96 0 1.74 91 13:59 09.12.2019
2958 Clouds -19 1036 96 0 1.74 91 13:39 09.12.2019
2959 Clouds -19 1036 91 0 1.78 94 13:20 09.12.2019
2960 Clouds -19 1036 91 0 1.78 94 12:57 09.12.2019
2961 Clouds -19 1036 91 0 1.78 94 12:38 09.12.2019
2962 Clouds -19 1036 91 0 1.78 94 12:20 09.12.2019
2963 Clouds -19 1036 91 0 1.78 94 11:58 09.12.2019
2964 Clouds -19 1036 91 0 1.78 94 11:39 09.12.2019
2965 Clouds -17 1033 100 0 1.24 3 11:21 09.12.2019
2966 Clouds -17 1033 100 0 1.24 3 10:55 09.12.2019
2967 Clouds -17 1033 100 0 1.24 3 10:37 09.12.2019
2968 Clouds -17 1033 100 0 1.24 3 10:18 09.12.2019
2969 Clouds -17 1033 100 0 1.24 3 09:41 09.12.2019
2970 Clouds -17 1033 100 0 1.24 3 09:22 09.12.2019
2971 Clouds -17 1033 100 0 1.24 3 08:55 09.12.2019
2972 Clouds -17 1033 100 0 1.24 3 08:37 09.12.2019
2973 Clouds -12 1031 99 0 1.97 303 08:19 09.12.2019
2974 Clouds -12 1031 99 0 1.97 303 07:42 09.12.2019
2975 Clouds -12 1031 99 0 1.97 303 07:24 09.12.2019
2976 Clouds -12 1031 99 0 1.97 303 06:54 09.12.2019
2977 Clouds -12 1031 99 0 1.97 303 06:27 09.12.2019
2978 Clouds -12 1031 99 0 1.97 303 05:30 09.12.2019
2979 Snow -13 1029 100 0 2.09 298 04:51 09.12.2019
2980 Snow -13 1029 100 0 2.09 298 04:20 09.12.2019
2981 Snow -13 1029 100 0 2.09 298 02:27 09.12.2019
2982 Snow -10 1024 96 0 3.54 285 01:44 09.12.2019
2983 Snow -9 1024 96 0 3.37 281 00:55 09.12.2019
2984 Snow -9 1024 96 0 3.37 281 00:32 09.12.2019
2985 Snow -9 1024 96 0 3.37 281 23:54 08.12.2019
2986 Snow -9 1024 96 0 3.37 281 23:36 08.12.2019
2987 Snow -9 1021 95 0 1.01 224 23:18 08.12.2019
2988 Snow -9 1021 95 0 1.01 224 22:56 08.12.2019
2989 Snow -9 1021 95 0 1.01 224 22:37 08.12.2019
2990 Snow -9 1021 95 0 1.01 224 22:18 08.12.2019
2991 Snow -9 1021 95 0 1.01 224 21:54 08.12.2019
2992 Snow -9 1021 95 0 1.01 224 21:36 08.12.2019
2993 Snow -9 1021 95 0 1.01 224 21:18 08.12.2019
2994 Snow -9 1021 95 0 1.01 224 20:54 08.12.2019
2995 Snow -9 1021 95 0 1.01 224 20:54 08.12.2019
2996 Snow -9 1021 95 0 1.01 224 20:36 08.12.2019
2997 Clouds -10 1021 70 0 0.63 198 20:18 08.12.2019
2998 Clouds -10 1021 70 0 0.63 198 19:42 08.12.2019
2999 Clouds -10 1021 70 0 0.63 198 19:24 08.12.2019
3000 Clouds -10 1021 70 0 0.63 198 18:56 08.12.2019
3001 Clouds -10 1021 70 0 0.63 198 18:37 08.12.2019
3002 Clouds -10 1021 70 0 0.63 198 18:19 08.12.2019
3003 Clouds -10 1021 70 0 0.63 198 17:57 08.12.2019
3004 Clouds -10 1021 70 0 0.63 198 17:39 08.12.2019
3005 Clouds -11 1023 67 0 1.47 150 17:20 08.12.2019
3006 Clouds -11 1023 67 0 1.47 150 16:58 08.12.2019
3007 Clouds -11 1023 67 0 1.47 150 16:40 08.12.2019
3008 Clouds -11 1023 67 0 1.47 150 16:21 08.12.2019
3009 Clouds -11 1023 67 0 1.47 150 15:57 08.12.2019
3010 Clouds -11 1023 67 0 1.47 150 15:37 08.12.2019
3011 Clouds -11 1023 67 0 1.47 150 15:18 08.12.2019
3012 Clouds -11 1023 67 0 1.47 150 14:44 08.12.2019
3013 Clouds -11 1023 67 0 1.47 150 14:25 08.12.2019
3014 Clouds -12 1023 67 0 1.15 139 13:59 08.12.2019
3015 Clouds -12 1023 67 0 1.15 139 13:40 08.12.2019
3016 Clouds -12 1023 67 0 1.15 139 13:22 08.12.2019
3017 Clouds -11 1023 66 0 0.89 136 12:58 08.12.2019
3018 Clouds -11 1023 66 0 0.89 136 12:58 08.12.2019
3019 Clouds -11 1023 66 0 0.89 136 12:38 08.12.2019
3020 Clouds -11 1023 66 0 0.89 136 12:18 08.12.2019
3021 Clouds -11 1023 66 0 0.89 136 11:57 08.12.2019
3022 Clouds -11 1023 66 0 0.89 136 11:37 08.12.2019
3023 Clouds -10 1022 69 0 1 216 11:19 08.12.2019
3024 Clouds -10 1022 69 0 1 216 10:40 08.12.2019
3025 Clouds -10 1022 69 0 1 216 10:22 08.12.2019
3026 Clouds -10 1022 69 0 1 216 09:58 08.12.2019
3027 Clouds -10 1022 69 0 1 216 09:40 08.12.2019
3028 Clouds -10 1022 69 0 1 216 09:21 08.12.2019
3029 Clouds -10 1022 69 0 1 216 08:59 08.12.2019
3030 Clouds -10 1022 69 0 1 216 08:41 08.12.2019
3031 Clouds -6 1022 75 0 1.29 244 08:22 08.12.2019
3032 Clouds -6 1022 75 0 1.29 244 07:49 08.12.2019
3033 Clouds -6 1022 75 0 1.29 244 07:21 08.12.2019
3034 Clouds -6 1022 75 0 1.29 244 06:53 08.12.2019
3035 Clouds -6 1022 75 0 1.29 244 06:23 08.12.2019
3036 Clouds -6 1022 75 0 1.29 244 05:58 08.12.2019
3037 Clouds -8 1024 74 0 1.64 174 05:22 08.12.2019
3038 Clouds -8 1024 74 0 1.64 174 04:20 08.12.2019
3039 Clouds -8 1024 74 0 1.64 174 03:38 08.12.2019
3040 Clouds -8 1024 74 0 1.64 174 02:41 08.12.2019
3041 Clouds -10 1024 54 0 1.16 197 01:57 08.12.2019
3042 Clouds -10 1024 54 0 1.16 197 01:34 08.12.2019
3043 Clouds -10 1024 54 0 1.09 192 00:45 08.12.2019
3044 Clouds -10 1024 54 0 1.09 192 00:21 08.12.2019
3045 Clouds -10 1024 54 0 1.09 192 23:57 07.12.2019
3046 Clouds -10 1024 54 0 1.09 192 23:36 07.12.2019
3047 Clouds -11 1025 52 0 0.82 176 23:18 07.12.2019
3048 Clouds -11 1025 52 0 0.82 176 22:54 07.12.2019
3049 Clouds -11 1025 52 0 0.82 176 22:36 07.12.2019
3050 Clouds -11 1025 52 0 0.82 176 22:18 07.12.2019
3051 Clouds -11 1025 52 0 0.82 176 21:55 07.12.2019
3052 Clouds -11 1025 52 0 0.82 176 21:36 07.12.2019
3053 Clouds -11 1025 52 0 0.82 176 21:18 07.12.2019
3054 Clouds -11 1025 52 0 0.82 176 20:38 07.12.2019
3055 Clouds -11 1026 52 0 1.24 145 20:20 07.12.2019
3056 Clouds -11 1026 52 0 1.24 145 19:57 07.12.2019
3057 Clouds -11 1026 52 0 1.24 145 19:39 07.12.2019
3058 Clouds -11 1026 52 0 1.24 145 19:21 07.12.2019
3059 Clouds -11 1026 52 0 1.24 145 18:58 07.12.2019
3060 Clouds -11 1026 52 0 1.24 145 18:39 07.12.2019
3061 Clouds -11 1026 52 0 1.24 145 18:18 07.12.2019
3062 Clouds -11 1026 52 0 1.24 145 17:55 07.12.2019
3063 Clouds -11 1026 52 0 1.24 145 17:37 07.12.2019
3064 Clouds -12 1027 49 0 1.67 140 17:18 07.12.2019
3065 Clouds -12 1027 49 0 1.67 140 16:55 07.12.2019
3066 Clouds -12 1027 49 0 1.67 140 16:36 07.12.2019
3067 Clouds -12 1027 49 0 1.67 140 16:18 07.12.2019
3068 Clouds -12 1027 49 0 1.67 140 15:40 07.12.2019
3069 Clouds -12 1027 49 0 1.67 140 15:22 07.12.2019
3070 Clouds -12 1027 49 0 1.67 140 14:43 07.12.2019
3071 Clear -14 1028 56 0 1.79 133 14:20 07.12.2019
3072 Clear -14 1028 56 0 1.79 133 13:59 07.12.2019
3073 Clear -14 1028 56 0 1.79 133 13:39 07.12.2019
3074 Clear -14 1028 56 0 1.79 133 13:20 07.12.2019
3075 Clear -14 1028 58 0 1.62 135 13:20 07.12.2019
3076 Clear -14 1028 58 0 1.62 135 12:55 07.12.2019
3077 Clear -14 1028 58 0 1.62 135 12:37 07.12.2019
3078 Clear -14 1028 58 0 1.62 135 12:18 07.12.2019
3079 Clear -14 1028 58 0 1.62 135 11:41 07.12.2019
3080 Clear -14 1028 58 0 1.62 135 11:23 07.12.2019
3081 Clear -13 1026 57 0 1.08 177 10:56 07.12.2019
3082 Clear -13 1026 57 0 1.08 177 10:36 07.12.2019
3083 Clear -13 1026 57 0 1.08 177 10:18 07.12.2019
3084 Clear -13 1026 57 0 1.08 177 09:39 07.12.2019
3085 Clear -13 1026 57 0 1.08 177 09:21 07.12.2019
3086 Clear -13 1026 57 0 1.08 177 08:46 07.12.2019
3087 Clear -12 1026 57 0 1.27 208 08:25 07.12.2019
3088 Clear -12 1026 57 0 1.27 208 08:25 07.12.2019
3089 Clear -12 1026 57 0 1.27 208 08:25 07.12.2019
3090 Clouds -8 1025 60 0 1.45 240 07:53 07.12.2019
3091 Clouds -8 1025 60 0 1.45 240 07:29 07.12.2019
3092 Clouds -8 1025 60 0 1.45 240 06:53 07.12.2019
3093 Clouds -8 1025 60 0 1.45 240 06:27 07.12.2019
3094 Clouds -8 1025 60 0 1.45 240 05:49 07.12.2019
3095 Clouds -8 1026 54 0 0.71 230 04:48 07.12.2019
3096 Clouds -8 1026 54 0 0.71 230 03:51 07.12.2019
3097 Clouds -8 1026 54 0 0.71 230 02:23 07.12.2019
3098 Clouds -9 1026 38 0 1.5 159 01:51 07.12.2019
3099 Clouds -9 1026 38 0 1.5 159 01:25 07.12.2019
3100 Clouds -9 1026 41 0 0.88 145 00:36 07.12.2019
3101 Clouds -9 1026 41 0 0.88 145 00:18 07.12.2019
3102 Clouds -9 1026 41 0 0.88 145 23:42 06.12.2019
3103 Clear -11 1028 29 0 2.2 132 23:20 06.12.2019
3104 Clear -11 1028 29 0 2.2 132 22:39 06.12.2019
3105 Clear -11 1028 29 0 2.2 132 22:21 06.12.2019
3106 Clear -11 1028 29 0 2.2 132 21:59 06.12.2019
3107 Clear -11 1028 29 0 2.2 132 21:41 06.12.2019
3108 Clear -11 1028 29 0 2.2 132 21:21 06.12.2019
3109 Clear -11 1028 29 0 2.2 132 20:59 06.12.2019
3110 Clear -11 1028 29 0 2.2 132 20:41 06.12.2019
3111 Clear -12 1028 32 0 2.27 131 20:20 06.12.2019
3112 Clear -12 1028 32 0 2.27 131 19:42 06.12.2019
3113 Clear -12 1028 32 0 2.27 131 19:24 06.12.2019
3114 Clear -12 1028 32 0 2.27 131 18:59 06.12.2019
3115 Clear -12 1028 32 0 2.27 131 18:40 06.12.2019
3116 Clear -12 1028 32 0 2.27 131 18:21 06.12.2019
3117 Clear -12 1028 32 0 2.27 131 17:58 06.12.2019
3118 Clear -12 1028 32 0 2.27 131 17:40 06.12.2019
3119 Clear -12 1028 32 0 2.27 131 17:40 06.12.2019
3120 Clear -12 1030 36 0 2.62 129 17:22 06.12.2019
3121 Clear -12 1030 36 0 2.62 129 16:57 06.12.2019
3122 Clear -12 1030 36 0 2.62 129 16:37 06.12.2019
3123 Clear -12 1030 36 0 2.62 129 16:19 06.12.2019
3124 Clear -12 1030 36 0 2.62 129 15:41 06.12.2019
3125 Clear -12 1030 36 0 2.62 129 15:22 06.12.2019
3126 Clear -12 1030 36 0 2.62 129 14:58 06.12.2019
3127 Clear -12 1030 36 0 2.62 129 14:40 06.12.2019
3128 Clouds -12 1030 45 0 2.53 131 14:20 06.12.2019
3129 Clouds -12 1030 45 0 2.53 131 13:46 06.12.2019
3130 Clouds -12 1030 45 0 2.53 131 13:27 06.12.2019
3131 Clouds -11 1029 44 0 2.46 132 12:58 06.12.2019
3132 Clouds -11 1029 44 0 2.46 132 12:39 06.12.2019
3133 Clouds -11 1029 44 0 2.46 132 12:21 06.12.2019
3134 Clouds -11 1029 44 0 2.46 132 11:42 06.12.2019
3135 Clouds -11 1029 44 0 2.46 132 11:23 06.12.2019
3136 Clouds -9 1029 53 0 2.15 127 10:56 06.12.2019
3137 Clouds -9 1029 53 0 2.15 127 10:38 06.12.2019
3138 Clouds -9 1029 53 0 2.15 127 10:20 06.12.2019
3139 Clouds -9 1029 53 0 2.15 127 09:55 06.12.2019
3140 Clouds -9 1029 53 0 2.15 127 09:36 06.12.2019
3141 Clouds -9 1029 53 0 2.15 127 09:18 06.12.2019
3142 Clouds -9 1029 53 0 2.15 127 08:42 06.12.2019
3143 Clouds -9 1029 54 0 2.18 124 08:24 06.12.2019
3144 Clouds -7 1030 61 0 2 124 07:42 06.12.2019
3145 Clouds -7 1030 61 0 2 124 07:22 06.12.2019
3146 Clouds -7 1030 61 0 2 124 06:48 06.12.2019
3147 Clouds -7 1030 61 0 2 124 06:25 06.12.2019
3148 Clouds -7 1030 61 0 2 124 05:48 06.12.2019
3149 Clear -11 1033 48 0 2.6 121 02:51 06.12.2019
3150 Clear -13 1034 33 0 2.65 118 01:45 06.12.2019
3151 Clear -13 1034 34 0 2.75 117 00:51 06.12.2019
3152 Clear -13 1034 34 0 2.75 117 00:23 06.12.2019
3153 Clear -13 1034 34 0 2.75 117 23:52 05.12.2019
3154 Clear -13 1034 30 0 2.54 118 23:21 05.12.2019
3155 Clear -13 1034 30 0 2.54 118 22:58 05.12.2019
3156 Clear -13 1034 30 0 2.54 118 22:39 05.12.2019
3157 Clear -13 1034 30 0 2.54 118 22:20 05.12.2019
3158 Clear -13 1034 30 0 2.54 118 21:58 05.12.2019
3159 Clear -13 1034 30 0 2.54 118 21:40 05.12.2019
3160 Clear -13 1034 30 0 2.54 118 21:21 05.12.2019
3161 Clear -13 1034 30 0 2.54 118 20:57 05.12.2019
3162 Clear -13 1034 30 0 2.54 118 20:38 05.12.2019
3163 Clear -13 1034 30 0 2.54 118 20:38 05.12.2019
3164 Clear -14 1036 28 0 2.31 114 20:19 05.12.2019
3165 Clear -14 1036 28 0 2.31 114 19:43 05.12.2019
3166 Clear -14 1036 28 0 2.31 114 19:25 05.12.2019
3167 Clear -14 1036 28 0 2.31 114 18:59 05.12.2019
3168 Clear -14 1036 28 0 2.31 114 18:39 05.12.2019
3169 Clear -14 1036 28 0 2.31 114 18:20 05.12.2019
3170 Clear -14 1036 28 0 2.31 114 17:56 05.12.2019
3171 Clear -14 1036 28 0 2.31 114 17:37 05.12.2019
3172 Clear -14 1036 28 0 2.22 120 17:18 05.12.2019
3173 Clear -14 1036 28 0 2.22 120 16:40 05.12.2019
3174 Clear -14 1036 28 0 2.22 120 16:22 05.12.2019
3175 Clear -14 1036 28 0 2.22 120 15:59 05.12.2019
3176 Clear -14 1036 28 0 2.22 120 15:40 05.12.2019
3177 Clear -14 1036 28 0 2.22 120 15:21 05.12.2019
3178 Clear -14 1036 28 0 2.22 120 14:57 05.12.2019
3179 Clear -14 1036 28 0 2.22 120 14:39 05.12.2019
3180 Clouds -13 1036 34 0 1.93 119 14:20 05.12.2019
3181 Clouds -13 1036 34 0 1.93 119 13:59 05.12.2019
3182 Clouds -13 1036 34 0 1.93 119 13:40 05.12.2019
3183 Clouds -13 1036 39 0 1.76 118 13:21 05.12.2019
3184 Clouds -13 1036 39 0 1.76 118 12:59 05.12.2019
3185 Clouds -13 1036 39 0 1.76 118 12:40 05.12.2019
3186 Clouds -13 1036 39 0 1.76 118 12:22 05.12.2019
3187 Clouds -13 1036 39 0 1.76 118 11:56 05.12.2019
3188 Clouds -13 1036 39 0 1.76 118 11:37 05.12.2019
3189 Clouds -10 1035 46 0 0.98 151 11:18 05.12.2019
3190 Clouds -10 1035 46 0 0.98 151 10:54 05.12.2019
3191 Clouds -10 1035 46 0 0.98 151 10:36 05.12.2019
3192 Clouds -10 1035 46 0 0.98 151 10:18 05.12.2019
3193 Clouds -10 1035 46 0 0.98 151 09:42 05.12.2019
3194 Clouds -10 1035 46 0 0.98 151 09:20 05.12.2019
3195 Clouds -10 1035 46 0 0.98 151 08:57 05.12.2019
3196 Clouds -10 1035 46 0 0.98 151 08:37 05.12.2019
3197 Clouds -8 1035 57 0 1.15 147 08:19 05.12.2019
3198 Clouds -8 1035 57 0 1.15 147 07:44 05.12.2019
3199 Clouds -8 1035 57 0 1.15 147 07:24 05.12.2019
3200 Clouds -8 1035 57 0 1.15 147 06:49 05.12.2019
3201 Clouds -8 1035 57 0 1.15 147 06:24 05.12.2019
3202 Clouds -8 1035 57 0 1.15 147 05:58 05.12.2019
3203 Clouds -8 1035 57 0 1.15 147 05:38 05.12.2019
3204 Clouds -10 1038 45 0 2.06 120 05:18 05.12.2019
3205 Clouds -10 1038 45 0 2.06 120 03:43 05.12.2019
3206 Clouds -10 1038 45 0 2.06 120 02:42 05.12.2019
3207 Clouds -10 1038 45 0 2.06 120 02:23 05.12.2019
3208 Clouds -13 1038 33 0 2.17 122 01:51 05.12.2019
3209 Clouds -13 1038 33 0 2.17 122 01:51 05.12.2019
3210 Clouds -13 1038 34 0 2.19 120 01:24 05.12.2019
3211 Clouds -13 1038 34 0 2.19 120 00:46 05.12.2019
3212 Clouds -13 1038 34 0 2.19 120 00:21 05.12.2019
3213 Clouds -13 1038 34 0 2.19 120 23:56 04.12.2019
3214 Clouds -13 1038 34 0 2.19 120 23:37 04.12.2019
3215 Clouds -14 1040 33 0 2.5 120 23:18 04.12.2019
3216 Clouds -14 1040 33 0 2.5 120 22:39 04.12.2019
3217 Clouds -14 1040 33 0 2.5 120 22:20 04.12.2019
3218 Clouds -14 1040 33 0 2.5 120 21:58 04.12.2019
3219 Clouds -14 1040 33 0 2.5 120 21:39 04.12.2019
3220 Clouds -14 1040 33 0 2.5 120 21:20 04.12.2019
3221 Clouds -14 1040 33 0 2.5 120 20:57 04.12.2019
3222 Clouds -14 1040 33 0 2.5 120 20:39 04.12.2019
3223 Clear -15 1040 37 0 2.59 120 20:21 04.12.2019
3224 Clear -15 1040 37 0 2.59 120 19:57 04.12.2019
3225 Clear -15 1040 37 0 2.59 120 19:38 04.12.2019
3226 Clear -15 1040 37 0 2.59 120 19:20 04.12.2019
3227 Clear -15 1040 37 0 2.59 120 18:42 04.12.2019
3228 Clear -15 1040 37 0 2.59 120 18:24 04.12.2019
3229 Clear -15 1040 37 0 2.59 120 17:59 04.12.2019
3230 Clear -15 1040 37 0 2.59 120 17:39 04.12.2019
3231 Clear -15 1040 37 0 2.59 120 17:39 04.12.2019
3232 Clear -15 1040 37 0 2.59 120 17:39 04.12.2019
3233 Clear -15 1041 41 0 2.44 114 17:20 04.12.2019
3234 Clear -15 1041 41 0 2.44 114 16:56 04.12.2019
3235 Clear -15 1041 41 0 2.44 114 16:38 04.12.2019
3236 Clear -15 1041 41 0 2.44 114 16:19 04.12.2019
3237 Clear -15 1041 41 0 2.44 114 16:19 04.12.2019
3238 Clear -15 1041 41 0 2.44 114 15:55 04.12.2019
3239 Clear -15 1041 41 0 2.44 114 15:36 04.12.2019
3240 Clear -15 1041 41 0 2.44 114 15:18 04.12.2019
3241 Clear -15 1041 41 0 2.44 114 14:43 04.12.2019
3242 Clear -15 1041 41 0 2.44 114 14:23 04.12.2019
3243 Clear -16 1040 44 0 2.02 102 13:57 04.12.2019
3244 Clear -16 1040 44 0 2.02 102 13:37 04.12.2019
3245 Clear -15 1040 45 0 2.13 104 13:19 04.12.2019
3246 Clear -15 1040 45 0 2.13 104 12:44 04.12.2019
3247 Clear -15 1040 45 0 2.13 104 12:24 04.12.2019
3248 Clear -15 1040 45 0 2.13 104 11:55 04.12.2019
3249 Clear -15 1040 45 0 2.13 104 11:36 04.12.2019
3250 Clear -15 1040 53 0 1.11 95 11:18 04.12.2019
3251 Clear -15 1040 53 0 1.11 95 10:42 04.12.2019
3252 Clear -15 1040 53 0 1.11 95 10:22 04.12.2019
3253 Clear -15 1040 53 0 1.11 95 09:55 04.12.2019
3254 Clear -15 1040 53 0 1.11 95 09:36 04.12.2019
3255 Clear -15 1040 53 0 1.11 95 09:18 04.12.2019
3256 Clear -15 1040 53 0 1.11 95 09:18 04.12.2019
3257 Clear -15 1040 53 0 1.11 95 08:39 04.12.2019
3258 Clear -12 1038 64 0 0.21 31 08:19 04.12.2019
3259 Clear -12 1038 64 0 0.21 31 07:47 04.12.2019
3260 Clear -12 1038 64 0 0.21 31 07:47 04.12.2019
3261 Clear -12 1038 64 0 0.21 31 07:29 04.12.2019
3262 Clear -12 1038 64 0 0.21 31 06:34 04.12.2019
3263 Clear -12 1038 64 0 0.21 31 05:48 04.12.2019
3264 Clear -15 1041 51 0 1.3 102 04:58 04.12.2019
3265 Clear -15 1041 51 0 1.3 102 03:54 04.12.2019
3266 Clear -15 1041 51 0 1.3 102 02:37 04.12.2019
3267 Clear -17 1039 49 0 1.34 102 00:50 04.12.2019
3268 Clear -17 1039 49 0 1.34 102 00:23 04.12.2019
3269 Clear -17 1039 49 0 1.34 102 23:56 03.12.2019
3270 Clear -17 1039 49 0 1.34 102 23:38 03.12.2019
3271 Clear -17 1038 49 0 1.14 117 23:19 03.12.2019
3272 Clear -17 1038 49 0 1.14 117 22:40 03.12.2019
3273 Clear -17 1038 49 0 1.14 117 22:19 03.12.2019
3274 Clear -17 1038 49 0 1.14 117 21:58 03.12.2019
3275 Clear -17 1038 49 0 1.14 117 21:37 03.12.2019
3276 Clear -17 1038 49 0 1.14 117 21:37 03.12.2019
3277 Clear -17 1038 49 0 1.14 117 21:19 03.12.2019
3278 Clear -17 1038 49 0 1.14 117 20:57 03.12.2019
3279 Clear -17 1038 49 0 1.14 117 20:39 03.12.2019
3280 Clear -15 1038 48 0 1.87 108 20:18 03.12.2019
3281 Clear -15 1038 48 0 1.87 108 19:55 03.12.2019
3282 Clear -15 1038 48 0 1.87 108 19:37 03.12.2019
3283 Clear -15 1038 48 0 1.87 108 19:18 03.12.2019
3284 Clear -15 1038 48 0 1.87 108 19:18 03.12.2019
3285 Clear -15 1038 48 0 1.87 108 18:55 03.12.2019
3286 Clear -15 1038 48 0 1.87 108 18:37 03.12.2019
3287 Clear -15 1038 48 0 1.87 108 18:19 03.12.2019
3288 Clear -15 1038 48 0 1.87 108 17:54 03.12.2019
3289 Clear -15 1038 48 0 1.87 108 17:36 03.12.2019
3290 Clear -15 1038 48 0 1.87 108 17:36 03.12.2019
3291 Clear -16 1038 47 0 1.69 112 17:18 03.12.2019
3292 Clear -16 1038 47 0 1.69 112 16:40 03.12.2019
3293 Clear -16 1038 47 0 1.69 112 16:21 03.12.2019
3294 Clear -16 1038 47 0 1.69 112 15:59 03.12.2019
3295 Clear -16 1038 47 0 1.69 112 15:40 03.12.2019
3296 Clear -16 1038 47 0 1.69 112 15:20 03.12.2019
3297 Clear -16 1038 47 0 1.69 112 15:20 03.12.2019
3298 Clear -16 1038 47 0 1.69 112 14:58 03.12.2019
3299 Clear -16 1038 47 0 1.69 112 14:40 03.12.2019
3300 Clear -16 1037 49 0 1.64 113 14:19 03.12.2019
3301 Clear -16 1037 49 0 1.64 113 13:39 03.12.2019
3302 Clear -16 1037 49 0 1.64 113 13:20 03.12.2019
3303 Clear -16 1036 53 0 1.52 111 13:20 03.12.2019
3304 Clear -16 1036 53 0 1.52 111 12:58 03.12.2019
3305 Clear -16 1036 53 0 1.52 111 12:37 03.12.2019
3306 Clear -16 1036 53 0 1.52 111 12:37 03.12.2019
3307 Clear -16 1036 53 0 1.52 111 12:18 03.12.2019
3308 Clear -16 1036 53 0 1.52 111 11:58 03.12.2019
3309 Clear -16 1036 53 0 1.52 111 11:38 03.12.2019
3310 Clear -15 1036 61 0 0.93 86 11:19 03.12.2019
3311 Clear -15 1036 61 0 0.93 86 10:56 03.12.2019
3312 Clear -15 1036 61 0 0.93 86 10:38 03.12.2019
3313 Clear -15 1036 61 0 0.93 86 10:19 03.12.2019
3314 Clear -15 1036 61 0 0.93 86 09:42 03.12.2019
3315 Clear -15 1036 61 0 0.93 86 09:24 03.12.2019
3316 Clear -15 1036 61 0 0.93 86 08:56 03.12.2019
3317 Clear -15 1036 61 0 0.93 86 08:38 03.12.2019
3318 Clear -12 1036 70 0 0.8 106 08:20 03.12.2019
3319 Clear -12 1035 71 0 0.78 106 07:51 03.12.2019
3320 Clear -12 1035 71 0 0.78 106 07:28 03.12.2019
3321 Clear -12 1035 71 0 0.78 106 06:42 03.12.2019
3322 Clear -12 1035 71 0 0.78 106 06:20 03.12.2019
3323 Clear -16 1038 69 0 1.65 101 04:59 03.12.2019
3324 Clear -16 1038 69 0 1.65 101 03:42 03.12.2019
3325 Clear -16 1038 69 0 1.65 101 03:21 03.12.2019
3326 Clear -16 1038 69 0 1.65 101 02:52 03.12.2019
3327 Clear -16 1038 69 0 1.65 101 02:32 03.12.2019
3328 Clear -18 1039 74 0 1.68 103 01:57 03.12.2019
3329 Clear -18 1039 74 0 1.68 103 01:38 03.12.2019
3330 Clear -18 1039 75 0 1.71 104 01:18 03.12.2019
3331 Clear -18 1039 75 0 1.71 104 00:40 03.12.2019
3332 Clear -18 1039 75 0 1.71 104 00:21 03.12.2019
3333 Clear -18 1039 75 0 1.71 104 23:44 02.12.2019
3334 Clear -19 1039 77 0 1.63 95 23:21 02.12.2019
3335 Clear -19 1039 77 0 1.63 95 22:55 02.12.2019
3336 Clear -19 1039 77 0 1.63 95 22:37 02.12.2019
3337 Clear -19 1039 77 0 1.63 95 22:19 02.12.2019
3338 Clear -19 1039 77 0 1.63 95 21:39 02.12.2019
3339 Clear -19 1039 77 0 1.63 95 21:20 02.12.2019
3340 Clear -19 1039 77 0 1.63 95 20:57 02.12.2019
3341 Clear -19 1039 77 0 1.63 95 20:57 02.12.2019
3342 Clear -19 1039 77 0 1.63 95 20:57 02.12.2019
3343 Clear -19 1039 77 0 1.63 95 20:39 02.12.2019
3344 Clear -18 1039 77 0 1.66 97 20:20 02.12.2019
3345 Clear -18 1039 77 0 1.66 97 19:56 02.12.2019
3346 Clear -18 1039 77 0 1.66 97 19:56 02.12.2019
3347 Clear -18 1039 77 0 1.66 97 19:38 02.12.2019
3348 Clear -18 1039 77 0 1.66 97 19:38 02.12.2019
3349 Clear -18 1039 77 0 1.66 97 19:20 02.12.2019
3350 Clear -18 1039 77 0 1.66 97 18:48 02.12.2019
3351 Clear -18 1039 77 0 1.66 97 18:24 02.12.2019
3352 Clear -18 1039 77 0 1.66 97 17:59 02.12.2019
3353 Clear -18 1039 77 0 1.66 97 17:40 02.12.2019
3354 Clear -19 1040 81 0 1.54 89 17:20 02.12.2019
3355 Clear -19 1040 81 0 1.54 89 17:20 02.12.2019
3356 Clear -19 1040 81 0 1.54 89 16:57 02.12.2019
3357 Clear -19 1040 81 0 1.54 89 16:38 02.12.2019
3358 Clear -19 1040 81 0 1.54 89 16:18 02.12.2019
3359 Clear -19 1040 81 0 1.54 89 16:18 02.12.2019
3360 Clear -19 1040 81 0 1.54 89 15:55 02.12.2019
3361 Clear -19 1040 81 0 1.54 89 15:37 02.12.2019
3362 Clear -19 1040 81 0 1.54 89 15:19 02.12.2019
3363 Clear -19 1040 81 0 1.54 89 14:40 02.12.2019
3364 Clear -19 1039 85 0 1.29 88 14:20 02.12.2019
3365 Clear -19 1039 85 0 1.29 88 13:58 02.12.2019
3366 Clear -19 1039 85 0 1.29 88 13:40 02.12.2019
3367 Clear -19 1039 85 0 1.32 90 13:20 02.12.2019
3368 Clear -19 1039 85 0 1.32 90 12:59 02.12.2019
3369 Clear -19 1039 85 0 1.32 90 12:40 02.12.2019
3370 Clear -19 1039 85 0 1.32 90 12:20 02.12.2019
3371 Clear -19 1039 85 0 1.32 90 11:56 02.12.2019
3372 Clear -19 1039 85 0 1.32 90 11:37 02.12.2019
3373 Clear -18 1038 84 0 0.66 25 11:18 02.12.2019
3374 Clear -18 1038 84 0 0.66 25 10:55 02.12.2019
3375 Clear -18 1038 84 0 0.66 25 10:37 02.12.2019
3376 Clear -18 1038 84 0 0.66 25 10:19 02.12.2019
3377 Clear -18 1038 84 0 0.66 25 09:41 02.12.2019
3378 Clear -18 1038 84 0 0.66 25 09:19 02.12.2019
3379 Clear -18 1038 84 0 0.66 25 08:57 02.12.2019
3380 Clear -18 1038 84 0 0.66 25 08:38 02.12.2019
3381 Clear -13 1037 83 0 0.58 342 08:20 02.12.2019
3382 Clear -13 1037 83 0 0.53 352 07:44 02.12.2019
3383 Clear -13 1037 83 0 0.53 352 07:21 02.12.2019
3384 Clear -13 1037 83 0 0.53 352 06:56 02.12.2019
3385 Clear -13 1037 83 0 0.53 352 06:37 02.12.2019
3386 Clear -13 1037 83 0 0.53 352 05:32 02.12.2019
3387 Clear -17 1040 79 0 1.15 93 04:26 02.12.2019
3388 Clear -17 1040 79 0 1.15 93 02:53 02.12.2019
3389 Clear -17 1040 79 0 1.15 93 02:27 02.12.2019
3390 Clear -19 1041 81 0 1.26 90 01:26 02.12.2019
3391 Clear -20 1041 81 0 1.25 91 00:57 02.12.2019
3392 Clear -20 1041 81 0 1.25 91 00:25 02.12.2019
3393 Clear -20 1041 81 0 1.25 91 23:54 01.12.2019
3394 Clear -20 1041 81 0 1.25 91 23:36 01.12.2019
3395 Clear -20 1042 81 0 1.45 97 23:18 01.12.2019
3396 Clear -20 1042 81 0 1.45 97 22:54 01.12.2019
3397 Clear -20 1042 81 0 1.45 97 22:36 01.12.2019
3398 Clear -20 1042 81 0 1.45 97 22:18 01.12.2019
3399 Clear -20 1042 81 0 1.45 97 21:54 01.12.2019
3400 Clear -20 1042 81 0 1.45 97 21:36 01.12.2019
3401 Clear -20 1042 81 0 1.45 97 21:18 01.12.2019
3402 Clear -20 1042 81 0 1.45 97 20:42 01.12.2019
3403 Clear -20 1041 80 0 1.39 99 20:24 01.12.2019
3404 Clear -20 1043 78 0 1.4 96 19:59 01.12.2019
3405 Clear -20 1043 78 0 1.4 96 19:40 01.12.2019
3406 Clear -20 1043 78 0 1.4 96 19:22 01.12.2019
3407 Clear -20 1043 78 0 1.4 96 18:58 01.12.2019
3408 Clear -20 1043 78 0 1.4 96 18:39 01.12.2019
3409 Clear -20 1043 78 0 1.4 96 18:20 01.12.2019
3410 Clear -20 1043 78 0 1.4 96 17:59 01.12.2019
3411 Clear -20 1043 78 0 1.4 96 17:41 01.12.2019
3412 Clear -20 1043 78 0 1.4 96 17:23 01.12.2019
3413 Clear -20 1043 78 0 1.4 96 17:23 01.12.2019
3414 -273 0 0 0 0 0 17:23 01.12.2019
3415 Clear -20 1044 76 0 1.45 93 16:56 01.12.2019
3416 Clear -20 1044 76 0 1.45 93 16:38 01.12.2019
3417 Clear -20 1044 76 0 1.45 93 16:20 01.12.2019
3418 Clear -20 1044 76 0 1.45 93 15:49 01.12.2019
3419 Clear -20 1044 76 0 1.45 93 15:31 01.12.2019
3420 Clear -20 1044 76 0 1.45 93 15:31 01.12.2019
3421 Clear -20 1044 76 0 1.45 93 14:44 01.12.2019
3422 Clear -20 1044 76 0 1.28 116 14:20 01.12.2019
3423 Clear -20 1044 76 0 1.28 116 13:59 01.12.2019
3424 Clear -20 1044 76 0 1.28 116 13:39 01.12.2019
3425 Clear -20 1043 77 0 1.45 121 13:20 01.12.2019
3426 Clear -20 1043 77 0 1.45 121 12:44 01.12.2019
3427 Clear -20 1043 77 0 1.45 121 11:58 01.12.2019
3428 Clear -20 1043 77 0 1.45 121 11:39 01.12.2019
3429 Clear -19 1042 77 0 0.68 138 11:21 01.12.2019
3430 Clear -19 1042 77 0 0.68 138 10:43 01.12.2019
3431 Clear -19 1042 77 0 0.68 138 10:21 01.12.2019
3432 Clear -19 1042 77 0 0.68 138 09:57 01.12.2019
3433 Clear -19 1042 77 0 0.68 138 09:38 01.12.2019
3434 Clear -19 1042 77 0 0.68 138 09:20 01.12.2019
3435 Clear -19 1042 77 0 0.68 138 09:20 01.12.2019
3436 Clear -19 1042 77 0 0.68 138 08:44 01.12.2019
3437 Clear -16 1042 73 0 0.36 145 08:20 01.12.2019
3438 Clear -15 1042 75 0 0.45 173 07:51 01.12.2019
3439 Clear -15 1042 75 0 0.45 173 07:30 01.12.2019
3440 Clear -15 1042 75 0 0.45 173 06:56 01.12.2019
3441 Clear -15 1042 75 0 0.45 173 06:34 01.12.2019
3442 Clear -15 1042 75 0 0.45 173 05:48 01.12.2019
3443 Clear -20 1046 71 0 1.35 97 04:50 01.12.2019
3444 Clear -20 1046 71 0 1.35 97 02:54 01.12.2019
3445 Clear -20 1046 71 0 1.35 97 02:36 01.12.2019
3446 Clear -23 1048 74 0 1.71 98 02:18 01.12.2019
3447 Clear -23 1048 74 0 1.71 98 01:50 01.12.2019
3448 Clouds -23 1048 76 0 1.76 96 01:19 01.12.2019
3449 Clouds -23 1048 76 0 1.76 96 00:40 01.12.2019
3450 Clouds -23 1048 76 0 1.76 96 00:22 01.12.2019
3451 Clouds -23 1048 76 0 1.76 96 23:42 30.11.2019
3452 Clouds -23 1048 76 0 1.76 96 23:23 30.11.2019
3453 Clouds -24 1047 92 0 1.83 92 22:50 30.11.2019
3454 Clouds -24 1047 92 0 1.83 92 22:30 30.11.2019
3455 Clouds -24 1047 92 0 1.83 92 21:59 30.11.2019
3456 Clouds -24 1047 92 0 1.83 92 21:40 30.11.2019
3457 Clouds -24 1047 92 0 1.83 92 21:20 30.11.2019
3458 Clouds -24 1047 92 0 1.83 92 20:55 30.11.2019
3459 Clouds -24 1047 92 0 1.83 92 20:37 30.11.2019
3460 Clouds -25 1048 97 0 1.79 72 20:19 30.11.2019
3461 Clouds -25 1048 97 0 1.79 72 19:55 30.11.2019
3462 Clouds -25 1048 97 0 1.79 72 19:36 30.11.2019
3463 Clouds -25 1048 97 0 1.79 72 19:18 30.11.2019
3464 Clouds -25 1048 97 0 1.79 72 18:55 30.11.2019
3465 Clouds -25 1048 97 0 1.79 72 18:37 30.11.2019
3466 Clouds -25 1048 97 0 1.79 72 18:18 30.11.2019
3467 Clouds -25 1048 97 0 1.79 72 17:56 30.11.2019
3468 Clouds -25 1048 97 0 1.79 72 17:37 30.11.2019
3469 Clouds -25 1046 97 0 0.99 46 17:19 30.11.2019
3470 Clouds -25 1046 97 0 0.99 46 16:55 30.11.2019
3471 Clouds -25 1046 97 0 0.99 46 16:37 30.11.2019
3472 Clouds -25 1046 97 0 0.99 46 16:18 30.11.2019
3473 Clouds -25 1046 97 0 0.99 46 15:41 30.11.2019
3474 Clouds -25 1046 97 0 0.99 46 15:19 30.11.2019
3475 Clouds -25 1046 97 0 0.99 46 14:56 30.11.2019
3476 Clouds -25 1046 97 0 0.99 46 14:38 30.11.2019
3477 Clouds -24 1044 90 0 0.62 309 14:18 30.11.2019
3478 Clouds -24 1044 90 0 0.62 309 13:56 30.11.2019
3479 Clouds -24 1044 90 0 0.62 309 13:36 30.11.2019
3480 Clouds -24 1044 90 0 0.53 310 13:18 30.11.2019
3481 Clouds -24 1044 90 0 0.53 310 12:43 30.11.2019
3482 Clouds -24 1044 90 0 0.53 310 12:25 30.11.2019
3483 Clouds -24 1044 90 0 0.53 310 11:45 30.11.2019
3484 Clouds -19 1040 84 0 1.64 280 11:20 30.11.2019
3485 Clouds -19 1040 84 0 1.64 280 10:57 30.11.2019
3486 Clouds -19 1040 84 0 1.64 280 10:39 30.11.2019
3487 Clouds -19 1040 84 0 1.64 280 10:20 30.11.2019
3488 Clouds -19 1040 84 0 1.64 280 09:46 30.11.2019
3489 Clouds -19 1040 84 0 1.64 280 09:28 30.11.2019
3490 Clouds -19 1040 84 0 1.64 280 08:44 30.11.2019
3491 Clouds -19 1040 84 0 1.64 280 08:44 30.11.2019
3492 Clouds -15 1038 74 0 1.81 292 08:23 30.11.2019
3493 Clouds -15 1038 74 0 1.81 292 07:59 30.11.2019
3494 Clouds -15 1038 74 0 1.81 292 07:40 30.11.2019
3495 Clouds -15 1038 74 0 1.81 292 07:20 30.11.2019
3496 Clouds -15 1038 74 0 1.81 292 06:30 30.11.2019
3497 Clouds -15 1038 74 0 1.81 292 05:53 30.11.2019
3498 Clouds -16 1038 71 0 0.39 252 03:54 30.11.2019
3499 Clouds -16 1038 71 0 0.39 252 02:53 30.11.2019
3500 Clouds -19 1039 64 0 1.18 113 02:22 30.11.2019
3501 Clouds -19 1039 64 0 1.18 113 01:46 30.11.2019
3502 Clouds -19 1039 64 0 1.18 113 01:24 30.11.2019
3503 Clouds -19 1038 64 0 1.11 115 00:38 30.11.2019
3504 Clouds -19 1038 64 0 1.11 115 00:18 30.11.2019
3505 Clouds -19 1038 64 0 1.11 115 23:43 29.11.2019
3506 Clouds -20 1040 64 0 1.5 117 23:23 29.11.2019
3507 Clouds -20 1040 64 0 1.5 117 22:47 29.11.2019
3508 Clouds -20 1040 64 0 1.5 117 22:26 29.11.2019
3509 Clouds -20 1040 64 0 1.5 117 21:45 29.11.2019
3510 Clouds -20 1040 64 0 1.5 117 21:26 29.11.2019
3511 Clouds -20 1040 64 0 1.5 117 20:59 29.11.2019
3512 Clouds -20 1040 64 0 1.5 117 20:40 29.11.2019
3513 Clear -22 1044 61 0 2.28 109 20:21 29.11.2019
3514 Clear -22 1044 61 0 2.28 109 19:58 29.11.2019
3515 Clear -22 1044 61 0 2.28 109 19:40 29.11.2019
3516 Clear -22 1044 61 0 2.28 109 19:20 29.11.2019
3517 Clear -22 1044 61 0 2.28 109 18:58 29.11.2019
3518 Clear -22 1044 61 0 2.28 109 18:40 29.11.2019
3519 Clear -22 1044 61 0 2.28 109 18:21 29.11.2019
3520 Clear -22 1044 61 0 2.28 109 17:45 29.11.2019
3521 Clear -22 1044 61 0 2.28 109 17:27 29.11.2019
3522 Clear -23 1044 71 0 2.18 102 16:59 29.11.2019
3523 Clear -23 1044 71 0 2.18 102 16:59 29.11.2019
3524 Clear -23 1044 71 0 2.18 102 16:41 29.11.2019
3525 Clear -23 1044 71 0 2.18 102 16:19 29.11.2019
3526 Clear -23 1044 71 0 2.18 102 15:42 29.11.2019
3527 Clear -23 1044 71 0 2.18 102 15:24 29.11.2019
3528 Clear -23 1044 71 0 2.18 102 14:58 29.11.2019
3529 Clear -23 1044 71 0 2.18 102 14:40 29.11.2019
3530 Clear -24 1045 86 0 1.73 101 14:21 29.11.2019
3531 Clear -24 1045 86 0 1.73 101 13:55 29.11.2019
3532 Clear -24 1045 86 0 1.73 101 13:37 29.11.2019
3533 Clear -24 1045 84 0 1.84 97 13:19 29.11.2019
3534 Clear -24 1045 84 0 1.84 97 12:41 29.11.2019
3535 Clear -24 1045 84 0 1.84 97 12:23 29.11.2019
3536 Clear -24 1045 84 0 1.84 97 11:55 29.11.2019
3537 Clear -24 1045 84 0 1.84 97 11:55 29.11.2019
3538 Clear -24 1045 84 0 1.84 97 11:36 29.11.2019
3539 Clouds -23 1042 97 0 0.97 18 11:18 29.11.2019
3540 Clouds -23 1042 97 0 0.97 18 10:56 29.11.2019
3541 Clouds -23 1042 97 0 0.97 18 10:38 29.11.2019
3542 Clouds -23 1042 97 0 0.97 18 10:19 29.11.2019
3543 Clouds -23 1042 97 0 0.97 18 09:56 29.11.2019
3544 Clouds -23 1042 97 0 0.97 18 09:37 29.11.2019
3545 Clouds -23 1042 97 0 0.97 18 09:19 29.11.2019
3546 Clouds -23 1042 97 0 0.97 18 08:40 29.11.2019
3547 Clouds -18 1041 94 0 0.94 310 08:22 29.11.2019
3548 Clouds -18 1041 94 0 0.94 310 07:58 29.11.2019
3549 Clouds -18 1041 94 0 0.94 310 07:58 29.11.2019
3550 Clouds -18 1041 94 0 0.94 310 07:40 29.11.2019
3551 Clouds -18 1041 94 0 0.94 310 07:21 29.11.2019
3552 Clouds -18 1041 94 0 0.94 310 06:43 29.11.2019
3553 Clouds -18 1041 94 0 0.94 310 05:48 29.11.2019
3554 Clouds -18 1041 94 0 0.94 310 05:25 29.11.2019
3555 Clear -21 1041 98 0 0.56 231 04:35 29.11.2019
3556 Clear -21 1041 98 0 0.56 231 03:22 29.11.2019
3557 Clear -21 1041 98 0 0.56 231 02:32 29.11.2019
3558 Clouds -22 1040 100 0 1.34 208 01:53 29.11.2019
3559 Clouds -22 1040 100 0 1.34 208 01:26 29.11.2019
3560 Clouds -23 1040 100 0 1.19 209 00:44 29.11.2019
3561 Clouds -23 1040 100 0 1.19 209 00:21 29.11.2019
3562 Clouds -23 1040 100 0 1.19 209 23:56 28.11.2019
3563 Clouds -23 1040 100 0 1.19 209 23:38 28.11.2019
3564 Clouds -21 1037 99 0 1.25 186 23:19 28.11.2019
3565 Clouds -21 1037 99 0 1.25 186 22:38 28.11.2019
3566 Clouds -21 1037 99 0 1.25 186 22:20 28.11.2019
3567 Clouds -21 1037 99 0 1.25 186 21:59 28.11.2019
3568 Clouds -21 1037 99 0 1.25 186 21:40 28.11.2019
3569 Clouds -21 1037 99 0 1.25 186 21:20 28.11.2019
3570 Clouds -21 1037 99 0 1.25 186 20:57 28.11.2019
3571 Clouds -21 1037 99 0 1.25 186 20:38 28.11.2019
3572 Clouds -19 1035 94 0 1.23 193 20:18 28.11.2019
3573 Clouds -19 1036 96 0 1.13 207 19:56 28.11.2019
3574 Clouds -19 1036 96 0 1.13 207 19:36 28.11.2019
3575 Clouds -19 1036 96 0 1.13 207 19:18 28.11.2019
3576 Clouds -19 1036 96 0 1.13 207 18:55 28.11.2019
3577 Clouds -19 1036 96 0 1.13 207 18:37 28.11.2019
3578 Clouds -19 1036 96 0 1.13 207 18:18 28.11.2019
3579 Clouds -19 1036 96 0 1.13 207 17:42 28.11.2019
3580 Clouds -19 1036 96 0 1.13 207 17:42 28.11.2019
3581 Clouds -19 1036 96 0 1.13 207 17:23 28.11.2019
3582 Clouds -19 1036 96 0 1.13 207 17:23 28.11.2019
3583 Clouds -19 1033 89 0 1.18 148 16:59 28.11.2019
3584 Clouds -19 1033 89 0 1.18 148 16:59 28.11.2019
3585 Clouds -19 1033 89 0 1.18 148 16:39 28.11.2019
3586 Clouds -19 1033 89 0 1.18 148 16:19 28.11.2019
3587 Clouds -19 1033 89 0 1.18 148 15:56 28.11.2019
3588 Clouds -19 1033 89 0 1.18 148 15:56 28.11.2019
3589 Clouds -19 1033 89 0 1.18 148 15:37 28.11.2019
3590 Clouds -19 1033 89 0 1.18 148 15:19 28.11.2019
3591 Clouds -19 1033 89 0 1.18 148 14:57 28.11.2019
3592 Clouds -19 1033 89 0 1.18 148 14:38 28.11.2019
3593 Clouds -17 1032 81 0 1.51 145 14:19 28.11.2019
3594 Clouds -17 1032 81 0 1.51 145 13:41 28.11.2019
3595 Clouds -18 1032 79 0 1.59 143 13:22 28.11.2019
3596 Clouds -18 1032 79 0 1.59 143 12:49 28.11.2019
3597 Clouds -18 1032 79 0 1.59 143 12:30 28.11.2019
3598 Clouds -18 1032 79 0 1.59 143 11:59 28.11.2019
3599 Clouds -18 1032 79 0 1.59 143 11:59 28.11.2019
3600 Clouds -18 1032 79 0 1.59 143 11:41 28.11.2019
3601 Clouds -16 1029 77 0 1.23 159 11:21 28.11.2019
3602 Clouds -16 1029 77 0 1.23 159 10:59 28.11.2019
3603 Clouds -16 1029 77 0 1.23 159 10:41 28.11.2019
3604 Clouds -16 1029 77 0 1.23 159 10:20 28.11.2019
3605 Clouds -16 1029 77 0 1.23 159 09:42 28.11.2019
3606 Clouds -16 1029 77 0 1.23 159 09:24 28.11.2019
3607 Clouds -16 1029 77 0 1.23 159 08:59 28.11.2019
3608 Clouds -16 1029 77 0 1.23 159 08:40 28.11.2019
3609 Clouds -11 1030 80 0 0.77 150 08:21 28.11.2019
3610 -273 0 0 0 0 0 07:43 28.11.2019
3611 Clouds -11 1030 80 0 0.77 150 07:25 28.11.2019
3612 Clouds -11 1030 80 0 0.77 150 06:57 28.11.2019
3613 Clouds -11 1030 80 0 0.77 150 06:36 28.11.2019
3614 Clouds -11 1030 80 0 0.77 150 05:53 28.11.2019
3615 Clouds -14 1032 72 0 1.93 133 05:18 28.11.2019
3616 Clouds -14 1032 72 0 1.93 133 03:43 28.11.2019
3617 Clouds -15 1033 67 0 2.72 135 02:18 28.11.2019
3618 Clouds -16 1033 64 0 2.43 132 00:52 28.11.2019
3619 Clouds -16 1033 64 0 2.43 132 00:26 28.11.2019
3620 Clouds -16 1033 64 0 2.43 132 23:59 27.11.2019
3621 Clouds -16 1033 64 0 2.43 132 23:38 27.11.2019
3622 Clouds -14 1033 65 0 2.9 136 23:19 27.11.2019
3623 Clouds -14 1033 65 0 2.9 136 22:54 27.11.2019
3624 Clouds -14 1033 65 0 2.9 136 22:36 27.11.2019
3625 Clouds -14 1033 65 0 2.9 136 22:18 27.11.2019
3626 Clouds -14 1033 65 0 2.9 136 21:55 27.11.2019
3627 Clouds -14 1033 65 0 2.9 136 21:36 27.11.2019
3628 Clouds -14 1033 65 0 2.9 136 21:18 27.11.2019
3629 Clouds -14 1033 65 0 2.9 136 21:18 27.11.2019
3630 Clouds -14 1033 65 0 2.9 136 20:55 27.11.2019
3631 Clouds -14 1033 65 0 2.9 136 20:36 27.11.2019
3632 Clouds -15 1035 58 0 3.32 128 20:18 27.11.2019
3633 Clouds -15 1035 58 0 3.32 128 19:54 27.11.2019
3634 Clouds -15 1035 58 0 3.32 128 19:54 27.11.2019
3635 Clouds -15 1035 58 0 3.32 128 19:36 27.11.2019
3636 Clouds -15 1035 58 0 3.32 128 19:18 27.11.2019
3637 Clouds -15 1035 58 0 3.32 128 19:18 27.11.2019
3638 Clouds -15 1035 58 0 3.32 128 18:38 27.11.2019
3639 Clouds -15 1035 58 0 3.32 128 18:19 27.11.2019
3640 Clouds -15 1035 58 0 3.32 128 17:59 27.11.2019
3641 Clouds -15 1035 58 0 3.32 128 17:40 27.11.2019
3642 Clouds -17 1036 57 0 3.86 120 17:22 27.11.2019
3643 Clouds -17 1036 57 0 3.86 120 16:57 27.11.2019
3644 Clouds -17 1036 57 0 3.86 120 16:39 27.11.2019
3645 Clouds -17 1036 57 0 3.86 120 16:21 27.11.2019
3646 Clouds -17 1036 57 0 3.86 120 15:57 27.11.2019
3647 Clouds -17 1036 57 0 3.86 120 15:39 27.11.2019
3648 Clouds -17 1036 57 0 3.86 120 15:21 27.11.2019
3649 Clouds -17 1036 57 0 3.86 120 14:57 27.11.2019
3650 Clouds -17 1036 57 0 3.86 120 14:39 27.11.2019
3651 Clouds -17 1036 57 0 3.86 120 14:39 27.11.2019
3652 Clouds -17 1036 57 0 3.86 120 14:39 27.11.2019
3653 Clear -17 1037 60 0 3.48 119 14:21 27.11.2019
3654 Clear -17 1037 60 0 3.48 119 13:58 27.11.2019
3655 Clear -17 1037 60 0 3.48 119 13:39 27.11.2019
3656 Clear -17 1037 60 0 3.48 119 13:19 27.11.2019
3657 Clouds -17 1037 59 0 3.59 118 12:56 27.11.2019
3658 Clouds -17 1037 59 0 3.59 118 12:38 27.11.2019
3659 Clouds -17 1037 59 0 3.59 118 12:19 27.11.2019
3660 Clouds -17 1037 59 0 3.59 118 11:38 27.11.2019
3661 Clear -15 1036 69 0 2.86 118 11:19 27.11.2019
3662 Clear -15 1036 69 0 2.86 118 10:58 27.11.2019
3663 Clear -15 1036 69 0 2.86 118 10:40 27.11.2019
3664 Clear -15 1036 69 0 2.86 118 10:22 27.11.2019
3665 Clear -15 1036 69 0 2.86 118 09:44 27.11.2019
3666 Clear -15 1036 69 0 2.86 118 09:26 27.11.2019
3667 Clear -15 1036 69 0 2.86 118 08:57 27.11.2019
3668 Clear -15 1036 69 0 2.86 118 08:38 27.11.2019
3669 Clouds -13 1037 81 0 2.15 129 08:19 27.11.2019
3670 Clouds -13 1037 81 0 2.18 131 07:45 27.11.2019
3671 Clouds -13 1037 81 0 2.18 131 07:27 27.11.2019
3672 Clouds -13 1037 81 0 2.18 131 06:47 27.11.2019
3673 Clouds -13 1037 81 0 2.18 131 06:29 27.11.2019
3674 Clouds -13 1037 81 0 2.18 131 05:27 27.11.2019
3675 Clouds -16 1040 80 0 2.82 127 04:59 27.11.2019
3676 Clouds -16 1040 80 0 2.82 127 04:39 27.11.2019
3677 Clouds -16 1040 80 0 2.82 127 03:51 27.11.2019
3678 Clouds -16 1040 80 0 2.82 127 03:22 27.11.2019
3679 Clouds -16 1040 80 0 2.82 127 02:54 27.11.2019
3680 Clouds -18 1041 83 0 2.94 122 01:35 27.11.2019
3681 Clouds -18 1041 83 0 2.87 122 00:44 27.11.2019
3682 Clouds -18 1041 83 0 2.87 122 00:25 27.11.2019
3683 Clouds -18 1041 83 0 2.87 122 23:47 26.11.2019
3684 Clouds -18 1041 83 0 2.87 122 23:26 26.11.2019
3685 Clouds -16 1040 86 0 2.6 121 22:57 26.11.2019
3686 Clouds -16 1040 86 0 2.6 121 22:38 26.11.2019
3687 Clouds -16 1040 86 0 2.6 121 22:19 26.11.2019
3688 Clouds -16 1040 86 0 2.6 121 21:57 26.11.2019
3689 Clouds -16 1040 86 0 2.6 121 21:37 26.11.2019
3690 Clouds -16 1040 86 0 2.6 121 21:19 26.11.2019
3691 Clouds -16 1040 86 0 2.6 121 21:19 26.11.2019
3692 Clouds -16 1040 86 0 2.6 121 20:54 26.11.2019
3693 Clouds -16 1040 86 0 2.6 121 20:36 26.11.2019
3694 Snow -16 1040 91 0 2.56 128 20:18 26.11.2019
3695 Snow -16 1040 91 0 2.56 128 19:54 26.11.2019
3696 Snow -16 1040 91 0 2.56 128 19:54 26.11.2019
3697 Snow -16 1040 91 0 2.56 128 19:36 26.11.2019
3698 Snow -16 1040 91 0 2.56 128 19:18 26.11.2019
3699 Snow -16 1040 91 0 2.56 128 18:54 26.11.2019
3700 Snow -16 1040 91 0 2.56 128 18:36 26.11.2019
3701 Snow -16 1040 91 0 2.56 128 18:18 26.11.2019
3702 Snow -16 1040 91 0 2.56 128 17:42 26.11.2019
3703 Snow -16 1040 91 0 2.56 128 17:23 26.11.2019
3704 -273 0 0 0 0 0 16:58 26.11.2019
3705 Snow -15 1040 95 0 1.91 134 16:38 26.11.2019
3706 Snow -15 1040 95 0 1.91 134 16:20 26.11.2019
3707 Snow -15 1040 95 0 1.91 134 16:00 26.11.2019
3708 Snow -15 1040 95 0 1.91 134 16:00 26.11.2019
3709 Snow -15 1040 95 0 1.91 134 15:39 26.11.2019
3710 Snow -15 1040 95 0 1.91 134 15:21 26.11.2019
3711 Snow -15 1040 95 0 1.91 134 14:59 26.11.2019
3712 Snow -15 1040 95 0 1.91 134 14:41 26.11.2019
3713 Snow -15 1040 95 0 1.91 134 14:23 26.11.2019
3714 Clouds -16 1039 73 0 2.15 140 13:43 26.11.2019
3715 Clouds -16 1039 74 0 1.88 140 13:24 26.11.2019
3716 Clouds -16 1039 74 0 1.88 140 12:56 26.11.2019
3717 Clouds -16 1039 74 0 1.88 140 12:36 26.11.2019
3718 Clouds -16 1039 74 0 1.88 140 12:18 26.11.2019
3719 Clouds -16 1039 74 0 1.88 140 11:54 26.11.2019
3720 Clouds -16 1039 74 0 1.88 140 11:36 26.11.2019
3721 Clouds -14 1037 65 0 1.56 128 11:18 26.11.2019
3722 Clouds -14 1037 65 0 1.56 128 10:54 26.11.2019
3723 Clouds -14 1037 65 0 1.56 128 10:36 26.11.2019
3724 Clouds -14 1037 65 0 1.56 128 10:18 26.11.2019
3725 Clouds -14 1037 65 0 1.56 128 09:42 26.11.2019
3726 Clouds -14 1037 65 0 1.56 128 09:23 26.11.2019
3727 Clouds -14 1037 65 0 1.56 128 09:23 26.11.2019
3728 Clouds -14 1037 65 0 1.56 128 08:46 26.11.2019
3729 Clouds -14 1037 65 0 1.56 128 08:27 26.11.2019
3730 Clouds -12 1038 68 0 1.1 122 07:57 26.11.2019
3731 Clouds -12 1038 68 0 1.1 122 07:36 26.11.2019
3732 Clouds -12 1038 68 0 1.1 122 07:18 26.11.2019
3733 Clouds -12 1038 68 0 1.1 122 06:41 26.11.2019
3734 Clouds -12 1038 68 0 1.1 122 05:58 26.11.2019
3735 Clouds -15 1040 67 0 1.93 115 04:57 26.11.2019
3736 Clouds -15 1040 67 0 1.93 115 03:21 26.11.2019
3737 Clouds -18 1041 61 0 2.25 107 01:36 26.11.2019
3738 Clouds -18 1041 61 0 2.25 107 01:18 26.11.2019
3739 Clouds -18 1041 61 0 2.27 106 00:40 26.11.2019
3740 Clouds -18 1041 61 0 2.27 106 23:59 25.11.2019
3741 Clouds -18 1041 61 0 2.27 106 23:59 25.11.2019
3742 Clouds -18 1041 61 0 2.27 106 23:38 25.11.2019
3743 Clouds -19 1041 62 0 2.29 91 23:19 25.11.2019
3744 Clouds -19 1041 62 0 2.29 91 22:39 25.11.2019
3745 Clouds -19 1041 62 0 2.29 91 22:19 25.11.2019
3746 Clouds -19 1041 62 0 2.29 91 21:59 25.11.2019
3747 Clouds -19 1041 62 0 2.29 91 21:59 25.11.2019
3748 Clouds -19 1041 62 0 2.29 91 21:59 25.11.2019
3749 Clouds -19 1041 62 0 2.29 91 21:41 25.11.2019
3750 Clouds -19 1041 62 0 2.29 91 21:22 25.11.2019
3751 Clouds -19 1041 62 0 2.29 91 20:58 25.11.2019
3752 Clouds -19 1041 62 0 2.29 91 20:40 25.11.2019
3753 Clear -21 1041 52 0 1.85 92 20:20 25.11.2019
3754 Clear -21 1041 52 0 1.85 92 19:57 25.11.2019
3755 Clear -21 1041 52 0 1.85 92 19:39 25.11.2019
3756 Clear -21 1041 52 0 1.85 92 19:20 25.11.2019
3757 Clear -21 1041 52 0 1.85 92 18:58 25.11.2019
3758 Clear -21 1041 52 0 1.85 92 18:40 25.11.2019
3759 Clear -21 1041 52 0 1.85 92 18:21 25.11.2019
3760 Clear -21 1041 52 0 1.85 92 17:58 25.11.2019
3761 Clear -21 1041 52 0 1.85 92 17:40 25.11.2019
3762 Clear -21 1040 48 0 1.2 88 17:21 25.11.2019
3763 Clear -21 1040 48 0 1.2 88 16:58 25.11.2019
3764 Clear -21 1040 48 0 1.2 88 16:40 25.11.2019
3765 Clear -21 1040 48 0 1.2 88 16:22 25.11.2019
3766 Clear -21 1040 48 0 1.2 88 15:56 25.11.2019
3767 Clear -21 1040 48 0 1.2 88 15:37 25.11.2019
3768 Clear -21 1040 48 0 1.2 88 15:19 25.11.2019
3769 Clear -21 1040 48 0 1.2 88 14:43 25.11.2019
3770 Clear -21 1040 48 0 1.2 88 14:25 25.11.2019
3771 Clear -20 1037 47 0 1.44 96 13:57 25.11.2019
3772 Clear -20 1037 47 0 1.44 96 13:57 25.11.2019
3773 Clear -20 1037 47 0 1.44 96 13:37 25.11.2019
3774 Clear -20 1037 47 0 1.31 99 13:18 25.11.2019
3775 Clear -20 1037 47 0 1.31 99 12:57 25.11.2019
3776 Clear -20 1037 47 0 1.31 99 12:38 25.11.2019
3777 Clear -20 1037 47 0 1.31 99 12:19 25.11.2019
3778 Clear -20 1037 47 0 1.31 99 12:19 25.11.2019
3779 Clear -20 1037 47 0 1.31 99 11:40 25.11.2019
3780 Clear -20 1037 47 0 1.31 99 11:40 25.11.2019
3781 Clear -20 1037 47 0 1.31 99 11:40 25.11.2019
3782 Clear -18 1033 50 0 1.23 239 11:21 25.11.2019
3783 Clear -18 1033 50 0 1.23 239 10:58 25.11.2019
3784 Clear -18 1033 50 0 1.23 239 10:39 25.11.2019
3785 Clear -18 1033 50 0 1.23 239 10:19 25.11.2019
3786 Clear -18 1033 50 0 1.23 239 09:42 25.11.2019
3787 Clear -18 1033 50 0 1.23 239 09:24 25.11.2019
3788 Clear -18 1033 50 0 1.23 239 08:42 25.11.2019
3789 Clear -17 1033 49 0 1.28 247 08:24 25.11.2019
3790 Clouds -13 1030 60 0 1.2 269 07:56 25.11.2019
3791 Clouds -13 1030 60 0 1.2 269 07:37 25.11.2019
3792 Clouds -13 1030 60 0 1.2 269 07:18 25.11.2019
3793 Clouds -13 1030 60 0 1.2 269 06:24 25.11.2019
3794 Clouds -13 1030 60 0 1.2 269 06:24 25.11.2019
3795 Clouds -13 1030 60 0 1.2 269 06:24 25.11.2019
3796 Clouds -13 1030 60 0 1.2 269 06:24 25.11.2019
3797 Clouds -13 1030 60 0 1.2 269 05:57 25.11.2019
3798 Clouds -13 1030 60 0 1.2 269 05:32 25.11.2019
3799 Clouds -15 1031 44 0 0.94 163 04:48 25.11.2019
3800 Clouds -15 1031 44 0 0.94 163 02:36 25.11.2019
3801 Clear -17 1032 32 0 1.93 132 01:43 25.11.2019
3802 Clear -17 1032 32 0 1.93 132 01:24 25.11.2019
3803 Clouds -17 1032 33 0 1.93 132 00:45 25.11.2019
3804 Clouds -17 1032 33 0 1.93 132 00:20 25.11.2019
3805 Clouds -17 1032 33 0 1.93 132 23:44 24.11.2019
3806 Clouds -18 1033 36 0 2.16 123 23:20 24.11.2019
3807 Clouds -18 1033 36 0 2.16 123 22:57 24.11.2019
3808 Clouds -18 1033 36 0 2.16 123 22:39 24.11.2019
3809 Clouds -18 1033 36 0 2.16 123 22:19 24.11.2019
3810 Clouds -18 1033 36 0 2.16 123 21:57 24.11.2019
3811 Clouds -18 1033 36 0 2.16 123 21:38 24.11.2019
3812 Clouds -18 1033 36 0 2.16 123 21:20 24.11.2019
3813 Clouds -18 1033 36 0 2.16 123 20:56 24.11.2019
3814 Clouds -18 1033 36 0 2.16 123 20:37 24.11.2019
3815 Clouds -18 1035 42 0 2.81 130 20:18 24.11.2019
3816 Clouds -18 1035 42 0 2.81 130 19:56 24.11.2019
3817 Clouds -18 1035 42 0 2.81 130 19:56 24.11.2019
3818 Clouds -18 1035 42 0 2.81 130 19:38 24.11.2019
3819 Clouds -18 1035 42 0 2.81 130 19:19 24.11.2019
3820 Clouds -18 1035 42 0 2.81 130 18:56 24.11.2019
3821 Clouds -18 1035 42 0 2.81 130 18:36 24.11.2019
3822 Clouds -18 1035 42 0 2.81 130 18:18 24.11.2019
3823 Clouds -18 1035 42 0 2.81 130 17:55 24.11.2019
3824 Clouds -18 1035 42 0 2.81 130 17:36 24.11.2019
3825 Clouds -19 1036 41 0 3.26 132 17:18 24.11.2019
3826 Clouds -19 1036 41 0 3.26 132 17:18 24.11.2019
3827 Clouds -19 1036 41 0 3.26 132 16:54 24.11.2019
3828 Clouds -19 1036 41 0 3.26 132 16:36 24.11.2019
3829 Clouds -19 1036 41 0 3.26 132 16:18 24.11.2019
3830 Clouds -19 1036 41 0 3.26 132 15:42 24.11.2019
3831 Clouds -19 1036 41 0 3.26 132 15:24 24.11.2019
3832 Clouds -19 1036 41 0 3.26 132 15:24 24.11.2019
3833 Clouds -19 1036 41 0 3.26 132 14:56 24.11.2019
3834 Clouds -19 1036 41 0 3.26 132 14:38 24.11.2019
3835 Clouds -17 1038 49 0 3.06 128 14:18 24.11.2019
3836 Clouds -17 1038 49 0 3.06 128 13:39 24.11.2019
3837 Clouds -18 1038 47 0 3.13 129 13:21 24.11.2019
3838 Clouds -18 1038 47 0 3.13 129 12:58 24.11.2019
3839 Clouds -18 1038 47 0 3.13 129 12:39 24.11.2019
3840 Clouds -18 1038 47 0 3.13 129 12:18 24.11.2019
3841 Clouds -18 1038 47 0 3.13 129 11:55 24.11.2019
3842 Clouds -18 1038 47 0 3.13 129 11:36 24.11.2019
3843 Clouds -17 1038 52 0 3.32 134 11:18 24.11.2019
3844 Clouds -17 1038 52 0 3.32 134 10:45 24.11.2019
3845 Clouds -17 1038 52 0 3.32 134 10:27 24.11.2019
3846 Clouds -17 1038 52 0 3.32 134 09:55 24.11.2019
3847 Clouds -17 1038 52 0 3.32 134 09:36 24.11.2019
3848 Clouds -17 1038 52 0 3.32 134 09:36 24.11.2019
3849 Clouds -17 1038 52 0 3.32 134 09:18 24.11.2019
3850 Clouds -17 1038 52 0 3.32 134 08:43 24.11.2019
3851 Clouds -15 1040 64 0 2.87 132 08:21 24.11.2019
3852 Clouds -15 1040 64 0 2.77 132 07:55 24.11.2019
3853 Clouds -15 1040 64 0 2.77 132 07:36 24.11.2019
3854 Clouds -15 1040 64 0 2.77 132 07:18 24.11.2019
3855 Clouds -15 1040 64 0 2.77 132 05:59 24.11.2019
3856 Clear -19 1046 55 0 3.06 128 04:47 24.11.2019
3857 Clear -19 1046 55 0 3.06 128 03:25 24.11.2019
3858 Clear -24 1050 51 0 3.16 121 01:58 24.11.2019
3859 Clear -24 1050 51 0 3.16 121 01:39 24.11.2019
3860 Clear -24 1050 51 0 3.14 122 01:20 24.11.2019
3861 Clear -24 1050 51 0 3.14 122 00:46 24.11.2019
3862 Clear -24 1050 51 0 3.14 122 00:23 24.11.2019
3863 Clear -24 1050 51 0 3.14 122 23:44 23.11.2019
3864 Clear -26 1052 58 0 2.76 115 23:21 23.11.2019
3865 Clear -26 1052 58 0 2.76 115 22:58 23.11.2019
3866 Clear -26 1052 58 0 2.76 115 22:39 23.11.2019
3867 Clear -26 1052 58 0 2.76 115 22:21 23.11.2019
3868 Clear -26 1052 58 0 2.76 115 21:58 23.11.2019
3869 Clear -26 1052 58 0 2.76 115 21:40 23.11.2019
3870 Clear -26 1052 58 0 2.76 115 21:21 23.11.2019
3871 Clear -26 1052 58 0 2.76 115 20:40 23.11.2019
3872 Clear -27 1054 66 0 2.39 127 20:22 23.11.2019
3873 Clear -27 1054 66 0 2.39 127 19:58 23.11.2019
3874 Clear -27 1054 66 0 2.39 127 19:40 23.11.2019
3875 Clear -27 1054 66 0 2.39 127 19:19 23.11.2019
3876 Clear -27 1054 66 0 2.39 127 18:59 23.11.2019
3877 Clear -27 1054 66 0 2.39 127 18:39 23.11.2019
3878 Clear -27 1054 66 0 2.39 127 18:20 23.11.2019
3879 Clear -27 1054 66 0 2.39 127 17:54 23.11.2019
3880 Clear -27 1054 66 0 2.39 127 17:36 23.11.2019
3881 Clear -28 1055 80 0 1.96 109 17:18 23.11.2019
3882 Clear -28 1055 80 0 1.96 109 16:54 23.11.2019
3883 Clear -28 1055 80 0 1.96 109 16:36 23.11.2019
3884 Clear -28 1055 80 0 1.96 109 16:18 23.11.2019
3885 Clear -28 1055 80 0 1.96 109 15:39 23.11.2019
3886 Clear -28 1055 80 0 1.96 109 15:19 23.11.2019
3887 Clear -28 1055 80 0 1.96 109 14:58 23.11.2019
3888 Clear -28 1055 80 0 1.96 109 14:39 23.11.2019
3889 Clouds -29 1054 94 0 1.43 112 14:21 23.11.2019
3890 Clouds -29 1054 94 0 1.43 112 13:54 23.11.2019
3891 Clouds -29 1054 94 0 1.43 112 13:54 23.11.2019
3892 Clouds -29 1054 94 0 1.43 112 13:36 23.11.2019
3893 Clouds -28 1054 94 0 1.63 113 13:18 23.11.2019
3894 Clouds -28 1054 94 0 1.63 113 12:42 23.11.2019
3895 Clouds -28 1054 94 0 1.63 113 12:24 23.11.2019
3896 Clouds -28 1054 94 0 1.63 113 11:45 23.11.2019
3897 Clouds -28 1054 94 0 1.63 113 11:23 23.11.2019
3898 Clouds -27 1050 99 0 0.45 236 10:46 23.11.2019
3899 Clouds -27 1050 99 0 0.45 236 10:23 23.11.2019
3900 Clouds -27 1050 99 0 0.45 236 09:59 23.11.2019
3901 Clouds -27 1050 99 0 0.45 236 09:40 23.11.2019
3902 Clouds -27 1050 99 0 0.45 236 09:18 23.11.2019
3903 Clouds -27 1050 99 0 0.45 236 08:41 23.11.2019
3904 Clouds -27 1050 99 0 0.45 236 08:41 23.11.2019
3905 Clouds -23 1047 91 0 1.22 276 08:19 23.11.2019
3906 Clouds -23 1047 91 0 1.22 276 07:42 23.11.2019
3907 Clouds -23 1047 91 0 1.22 276 06:53 23.11.2019
3908 Clouds -23 1047 91 0 1.22 276 06:27 23.11.2019
3909 Clouds -23 1047 91 0 1.22 276 05:57 23.11.2019
3910 Clouds -23 1047 91 0 1.22 276 05:32 23.11.2019
3911 Clouds -25 1046 96 0 0.61 100 04:57 23.11.2019
3912 Clouds -25 1046 96 0 0.61 100 04:32 23.11.2019
3913 Clouds -25 1046 96 0 0.61 100 03:26 23.11.2019
3914 Clouds -25 1046 96 0 0.61 100 02:37 23.11.2019
3915 Snow -26 1042 99 0 0.43 20 01:39 23.11.2019
3916 Snow -27 1042 99 0 0.41 52 00:47 23.11.2019
3917 Snow -27 1042 99 0 0.41 52 00:47 23.11.2019
3918 Snow -27 1042 99 0 0.41 52 00:19 23.11.2019
3919 Snow -27 1042 99 0 0.41 52 23:54 22.11.2019
3920 Snow -27 1042 99 0 0.41 52 23:36 22.11.2019
3921 Clouds -25 1038 98 0 0.65 292 23:18 22.11.2019
3922 Clouds -25 1038 98 0 0.65 292 22:42 22.11.2019
3923 Clouds -25 1038 98 0 0.65 292 22:23 22.11.2019
3924 Clouds -25 1038 98 0 0.65 292 21:59 22.11.2019
3925 Clouds -25 1038 98 0 0.65 292 21:40 22.11.2019
3926 Clouds -25 1038 98 0 0.65 292 21:21 22.11.2019
3927 Clouds -25 1038 98 0 0.65 292 20:44 22.11.2019
3928 Clouds -25 1034 61 0 0.31 329 20:23 22.11.2019
3929 Clouds -25 1034 61 0 0.31 329 19:58 22.11.2019
3930 Clouds -25 1034 61 0 0.31 329 19:39 22.11.2019
3931 Clouds -25 1034 61 0 0.31 329 19:20 22.11.2019
3932 Clouds -25 1034 61 0 0.31 329 18:59 22.11.2019
3933 Clouds -25 1034 61 0 0.31 329 18:37 22.11.2019
3934 Clouds -25 1034 61 0 0.31 329 18:19 22.11.2019
3935 Clouds -25 1034 61 0 0.31 329 17:41 22.11.2019
3936 Clouds -26 1032 58 0 1.15 119 17:22 22.11.2019
3937 Clouds -26 1032 58 0 1.15 119 16:48 22.11.2019
3938 Clouds -26 1032 58 0 1.15 119 16:30 22.11.2019
3939 Clouds -26 1032 58 0 1.15 119 15:56 22.11.2019
3940 Clouds -26 1032 58 0 1.15 119 15:37 22.11.2019
3941 Clouds -26 1032 58 0 1.15 119 15:37 22.11.2019
3942 Clouds -26 1032 58 0 1.15 119 15:19 22.11.2019
3943 Clouds -26 1032 58 0 1.15 119 14:54 22.11.2019
3944 Clouds -26 1032 58 0 1.15 119 14:36 22.11.2019
3945 Clouds -24 1031 65 0 0.69 145 14:18 22.11.2019
3946 Clouds -24 1031 65 0 0.69 145 13:38 22.11.2019
3947 Clouds -25 1031 64 0 0.62 152 13:19 22.11.2019
3948 Clouds -25 1031 64 0 0.62 152 12:58 22.11.2019
3949 Clouds -25 1031 64 0 0.62 152 12:40 22.11.2019
3950 Clouds -25 1031 64 0 0.62 152 12:19 22.11.2019
3951 Clouds -25 1031 64 0 0.62 152 11:56 22.11.2019
3952 Clouds -25 1031 64 0 0.62 152 11:36 22.11.2019
3953 Clouds -23 1028 76 0 0.73 253 11:18 22.11.2019
3954 Clouds -23 1028 76 0 0.73 253 10:42 22.11.2019
3955 Clouds -23 1028 76 0 0.73 253 10:23 22.11.2019
3956 Clouds -23 1028 76 0 0.73 253 09:59 22.11.2019
3957 Clouds -23 1028 76 0 0.73 253 09:40 22.11.2019
3958 Clouds -23 1028 76 0 0.73 253 09:21 22.11.2019
3959 Clouds -23 1028 76 0 0.73 253 08:57 22.11.2019
3960 Clouds -23 1028 76 0 0.73 253 08:57 22.11.2019
3961 Clouds -23 1028 76 0 0.73 253 08:38 22.11.2019
3962 Clouds -19 1028 70 0 1.1 244 08:20 22.11.2019
3963 Clouds -19 1028 70 0 1.1 244 07:41 22.11.2019
3964 Clouds -19 1028 70 0 1.1 244 07:19 22.11.2019
3965 Clouds -19 1028 70 0 1.1 244 06:42 22.11.2019
3966 Clouds -19 1028 70 0 1.1 244 06:21 22.11.2019
3967 Clouds -19 1028 70 0 1.1 244 05:32 22.11.2019
3968 Clear -23 1031 81 0 1.09 155 03:26 22.11.2019
3969 Clear -23 1031 81 0 1.09 155 02:39 22.11.2019
3970 Clouds -26 1031 99 0 1.17 149 02:20 22.11.2019
3971 Clouds -26 1031 99 0 1.17 149 01:43 22.11.2019
3972 Clouds -26 1031 99 0 1.13 140 01:18 22.11.2019
3973 Clouds -26 1031 99 0 1.13 140 00:40 22.11.2019
3974 Clouds -26 1031 99 0 1.13 140 00:19 22.11.2019
3975 Clouds -26 1031 99 0 1.13 140 23:43 21.11.2019
3976 Clouds -26 1031 99 0 1.13 140 23:24 21.11.2019
3977 Clouds -25 1028 99 0 0.42 302 22:56 21.11.2019
3978 Clouds -25 1028 99 0 0.42 302 22:37 21.11.2019
3979 Clouds -25 1028 99 0 0.42 302 22:19 21.11.2019
3980 Clouds -25 1028 99 0 0.42 302 21:54 21.11.2019
3981 Clouds -25 1028 99 0 0.42 302 21:36 21.11.2019
3982 Clouds -25 1028 99 0 0.42 302 21:18 21.11.2019
3983 Clouds -25 1028 99 0 0.42 302 20:57 21.11.2019
3984 Clouds -25 1028 99 0 0.42 302 20:37 21.11.2019
3985 Snow -16 1022 98 0 3.11 261 20:18 21.11.2019
3986 Snow -16 1022 98 0 3.11 261 19:55 21.11.2019
3987 Snow -16 1022 98 0 3.11 261 19:55 21.11.2019
3988 Snow -16 1022 98 0 3.11 261 19:36 21.11.2019
3989 Snow -16 1022 98 0 3.11 261 19:18 21.11.2019
3990 Snow -16 1022 98 0 3.11 261 18:41 21.11.2019
3991 Snow -16 1022 98 0 3.11 261 18:21 21.11.2019
3992 Snow -16 1022 98 0 3.11 261 17:58 21.11.2019
3993 Snow -16 1022 98 0 3.11 261 17:39 21.11.2019
3994 Snow -16 1022 98 0 3.11 261 17:39 21.11.2019
3995 Snow -16 1022 98 0 3.11 261 17:39 21.11.2019
3996 Snow -13 1016 96 0 3.1 255 17:21 21.11.2019
3997 Snow -13 1016 96 0 3.1 255 16:57 21.11.2019
3998 Snow -13 1016 96 0 3.1 255 16:39 21.11.2019
3999 Snow -13 1016 96 0 3.1 255 16:20 21.11.2019
4000 Snow -13 1016 96 0 3.1 255 15:44 21.11.2019
4001 Snow -13 1016 96 0 3.1 255 15:21 21.11.2019
4002 Snow -13 1016 96 0 3.1 255 14:58 21.11.2019
4003 Snow -13 1016 96 0 3.1 255 14:38 21.11.2019
4004 Snow -11 1011 96 0 3.11 193 14:20 21.11.2019
4005 Snow -11 1011 96 0 3.11 193 13:57 21.11.2019
4006 Snow -11 1011 96 0 3.11 193 13:37 21.11.2019
4007 Snow -10 1011 95 0 5.81 279 13:19 21.11.2019
4008 Snow -10 1011 95 0 5.81 279 12:41 21.11.2019
4009 Snow -10 1011 95 0 5.81 279 12:23 21.11.2019
4010 Snow -10 1011 95 0 5.81 279 11:56 21.11.2019
4011 Snow -10 1011 95 0 5.81 279 11:37 21.11.2019
4012 Snow -10 1011 95 0 5.81 279 11:37 21.11.2019
4013 Snow -10 1011 95 0 5.81 279 11:37 21.11.2019
4014 Snow -8 1008 95 0 2.81 243 11:19 21.11.2019
4015 Snow -8 1008 95 0 2.81 243 10:43 21.11.2019
4016 Snow -8 1008 95 0 2.81 243 10:24 21.11.2019
4017 Snow -8 1008 95 0 2.81 243 09:59 21.11.2019
4018 Snow -8 1008 95 0 2.81 243 09:41 21.11.2019
4019 Snow -8 1008 95 0 2.81 243 09:22 21.11.2019
4020 Snow -8 1008 95 0 2.81 243 08:54 21.11.2019
4021 Snow -8 1008 95 0 2.81 243 08:36 21.11.2019
4022 Snow -8 1008 93 0 2.57 262 08:18 21.11.2019
4023 Snow -8 1008 93 0 2.57 262 07:37 21.11.2019
4024 Snow -8 1008 93 0 2.57 262 07:18 21.11.2019
4025 Snow -8 1008 93 0 2.57 262 06:42 21.11.2019
4026 Snow -8 1008 93 0 2.57 262 06:24 21.11.2019
4027 Snow -8 1010 81 0 1.97 167 04:55 21.11.2019
4028 Snow -8 1010 81 0 1.97 167 02:53 21.11.2019
4029 Snow -8 1010 81 0 1.97 167 02:33 21.11.2019
4030 Snow -9 1011 77 0 1.92 214 01:52 21.11.2019
4031 Snow -9 1012 86 0 2.57 168 01:21 21.11.2019
4032 Snow -9 1012 86 0 2.57 168 00:41 21.11.2019
4033 Snow -9 1012 86 0 2.57 168 00:20 21.11.2019
4034 Snow -9 1012 86 0 2.57 168 00:20 21.11.2019
4035 Snow -9 1012 86 0 2.57 168 23:51 20.11.2019
4036 Clouds -9 1012 72 0 3.75 187 23:22 20.11.2019
4037 Clouds -9 1012 72 0 3.75 187 22:58 20.11.2019
4038 Clouds -9 1012 72 0 3.75 187 22:40 20.11.2019
4039 Clouds -9 1012 72 0 3.75 187 22:20 20.11.2019
4040 Clouds -9 1012 72 0 3.75 187 21:58 20.11.2019
4041 Clouds -9 1012 72 0 3.75 187 21:39 20.11.2019
4042 Clouds -9 1012 72 0 3.75 187 21:20 20.11.2019
4043 Clouds -9 1012 72 0 3.75 187 20:57 20.11.2019
4044 Clouds -9 1012 72 0 3.75 187 20:39 20.11.2019
4045 Clouds -10 1014 69 0 3.57 171 20:21 20.11.2019
4046 Clouds -10 1014 69 0 3.57 171 19:57 20.11.2019
4047 Clouds -10 1014 69 0 3.57 171 19:37 20.11.2019
4048 Clouds -10 1014 69 0 3.57 171 19:19 20.11.2019
4049 Clouds -10 1014 69 0 3.57 171 18:59 20.11.2019
4050 Clouds -10 1014 69 0 3.57 171 18:39 20.11.2019
4051 Clouds -10 1014 69 0 3.57 171 18:21 20.11.2019
4052 Clouds -10 1014 69 0 3.57 171 17:57 20.11.2019
4053 Clouds -10 1014 69 0 3.57 171 17:39 20.11.2019
4054 Clouds -10 1015 65 0 3.53 159 17:20 20.11.2019
4055 Clouds -10 1015 65 0 3.53 159 16:57 20.11.2019
4056 Clouds -10 1015 65 0 3.53 159 16:38 20.11.2019
4057 Clouds -10 1015 65 0 3.53 159 16:18 20.11.2019
4058 Clouds -10 1015 65 0 3.53 159 15:55 20.11.2019
4059 Clouds -10 1015 65 0 3.53 159 15:36 20.11.2019
4060 Clouds -10 1015 65 0 3.53 159 15:18 20.11.2019
4061 Clouds -10 1015 65 0 3.53 159 14:40 20.11.2019
4062 Clouds -10 1015 65 0 3.53 159 14:40 20.11.2019
4063 Clouds -9 1015 65 0 3.09 171 14:22 20.11.2019
4064 Clouds -9 1015 65 0 3.09 171 13:58 20.11.2019
4065 Clouds -9 1015 65 0 3.09 171 13:39 20.11.2019
4066 Clouds -9 1015 66 0 3.14 166 13:20 20.11.2019
4067 Clouds -9 1015 66 0 3.14 166 12:55 20.11.2019
4068 Clouds -9 1015 66 0 3.14 166 12:36 20.11.2019
4069 Clouds -9 1015 66 0 3.14 166 12:18 20.11.2019
4070 Clouds -9 1015 66 0 3.14 166 11:45 20.11.2019
4071 Clouds -9 1014 73 0 2.97 168 11:22 20.11.2019
4072 Clouds -9 1014 73 0 2.97 168 10:56 20.11.2019
4073 Clouds -9 1014 73 0 2.97 168 10:38 20.11.2019
4074 Clouds -9 1014 73 0 2.97 168 10:19 20.11.2019
4075 Clouds -9 1014 73 0 2.97 168 09:43 20.11.2019
4076 Clouds -9 1014 73 0 2.97 168 09:22 20.11.2019
4077 Clouds -9 1014 73 0 2.97 168 08:58 20.11.2019
4078 Clouds -9 1014 73 0 2.97 168 08:39 20.11.2019
4079 Clouds -7 1014 75 0 3.69 175 08:20 20.11.2019
4080 Clouds -7 1014 75 0 3.48 170 07:47 20.11.2019
4081 Clouds -7 1014 75 0 3.48 170 07:26 20.11.2019
4082 Clouds -7 1014 75 0 3.48 170 06:49 20.11.2019
4083 Clouds -7 1014 75 0 3.48 170 06:22 20.11.2019
4084 Clouds -7 1014 75 0 3.48 170 05:42 20.11.2019
4085 Clouds -10 1018 75 0 3.89 144 03:42 20.11.2019
4086 Clear -12 1020 69 0 3.55 143 02:21 20.11.2019
4087 Clear -12 1020 70 0 4.02 138 01:33 20.11.2019
4088 Clear -12 1020 70 0 4.02 138 00:42 20.11.2019
4089 Clear -12 1020 70 0 4.02 138 23:57 19.11.2019
4090 Clear -12 1020 70 0 4.02 138 23:27 19.11.2019
4091 Clear -12 1020 65 0 3.6 146 22:59 19.11.2019
4092 Clear -12 1020 65 0 3.6 146 22:41 19.11.2019
4093 Clear -12 1020 65 0 3.6 146 22:19 19.11.2019
4094 Clear -12 1020 65 0 3.6 146 21:57 19.11.2019
4095 Clear -12 1020 65 0 3.6 146 21:38 19.11.2019
4096 Clear -12 1020 65 0 3.6 146 21:19 19.11.2019
4097 Clear -12 1020 65 0 3.6 146 21:19 19.11.2019
4098 Clear -12 1020 65 0 3.6 146 21:19 19.11.2019
4099 Clear -12 1020 65 0 3.6 146 20:56 19.11.2019
4100 Clear -12 1020 65 0 3.6 146 20:56 19.11.2019
4101 Clear -12 1020 65 0 3.6 146 20:38 19.11.2019
4102 Clouds -12 1021 65 0 3.4 143 20:20 19.11.2019
4103 Clouds -12 1021 65 0 3.4 143 19:56 19.11.2019
4104 Clouds -12 1021 65 0 3.4 143 19:38 19.11.2019
4105 Clouds -12 1021 65 0 3.4 143 19:19 19.11.2019
4106 Clouds -12 1021 65 0 3.4 143 18:55 19.11.2019
4107 Clouds -12 1021 65 0 3.4 143 18:36 19.11.2019
4108 Clouds -12 1021 65 0 3.4 143 18:18 19.11.2019
4109 Clouds -12 1021 65 0 3.4 143 17:55 19.11.2019
4110 Clouds -12 1021 65 0 3.4 143 17:36 19.11.2019
4111 Clouds -12 1020 69 0 3.55 149 17:18 19.11.2019
4112 Clouds -12 1020 69 0 3.55 149 16:42 19.11.2019
4113 Clouds -12 1020 69 0 3.55 149 16:22 19.11.2019
4114 Clouds -12 1020 69 0 3.55 149 15:56 19.11.2019
4115 Clouds -12 1020 69 0 3.55 149 15:38 19.11.2019
4116 Clouds -12 1020 69 0 3.55 149 15:38 19.11.2019
4117 Clouds -12 1020 69 0 3.55 149 15:20 19.11.2019
4118 Clouds -12 1020 69 0 3.55 149 14:55 19.11.2019
4119 Clouds -12 1020 69 0 3.55 149 14:37 19.11.2019
4120 Clouds -12 1020 69 0 3.55 149 14:37 19.11.2019
4121 Clouds -10 1019 63 0 3.29 148 14:19 19.11.2019
4122 Clouds -10 1019 63 0 3.29 148 13:40 19.11.2019
4123 Clouds -10 1019 63 0 3.29 148 13:40 19.11.2019
4124 Clouds -10 1019 62 0 3.24 150 13:19 19.11.2019
4125 Clouds -10 1019 62 0 3.24 150 12:40 19.11.2019
4126 Clouds -10 1019 62 0 3.24 150 12:21 19.11.2019
4127 Clouds -10 1019 62 0 3.24 150 11:57 19.11.2019
4128 Clouds -10 1019 62 0 3.24 150 11:38 19.11.2019
4129 Clear -10 1019 68 0 2.39 132 11:19 19.11.2019
4130 Clear -10 1019 68 0 2.39 132 11:19 19.11.2019
4131 Clear -10 1019 68 0 2.39 132 11:19 19.11.2019
4132 Clear -10 1019 68 0 2.39 132 10:47 19.11.2019
4133 Clear -10 1019 68 0 2.39 132 10:22 19.11.2019
4134 Clear -10 1019 68 0 2.39 132 09:57 19.11.2019
4135 Clear -10 1019 68 0 2.39 132 09:39 19.11.2019
4136 Clear -10 1019 68 0 2.39 132 09:18 19.11.2019
4137 Clear -10 1019 68 0 2.39 132 08:41 19.11.2019
4138 Clear -10 1019 68 0 2.39 132 08:41 19.11.2019
4139 Clouds -7 1019 75 0 1.26 187 08:22 19.11.2019
4140 Clouds -7 1019 75 0 1.26 187 07:57 19.11.2019
4141 Clouds -7 1019 75 0 1.26 187 07:38 19.11.2019
4142 Clouds -7 1019 75 0 1.26 187 07:19 19.11.2019
4143 Clouds -7 1019 75 0 1.26 187 06:45 19.11.2019
4144 Clouds -7 1019 75 0 1.26 187 06:27 19.11.2019
4145 Clouds -7 1019 75 0 1.26 187 05:24 19.11.2019
4146 Clouds -10 1020 72 0 1.56 194 03:47 19.11.2019
4147 Clouds -10 1020 72 0 1.56 194 03:29 19.11.2019
4148 Clouds -10 1020 72 0 1.56 194 02:53 19.11.2019
4149 Clouds -12 1020 67 0 1.9 194 01:58 19.11.2019
4150 Clouds -12 1021 67 0 1.68 201 00:59 19.11.2019
4151 Clouds -12 1021 67 0 1.68 201 00:21 19.11.2019
4152 Clouds -12 1021 67 0 1.68 201 00:21 19.11.2019
4153 Clouds -12 1021 67 0 1.68 201 23:56 18.11.2019
4154 Clouds -12 1021 67 0 1.68 201 23:37 18.11.2019
4155 Clouds -10 1019 67 0 1.85 175 23:18 18.11.2019
4156 Clouds -10 1019 67 0 1.85 175 22:42 18.11.2019
4157 Clouds -10 1019 67 0 1.85 175 22:23 18.11.2019
4158 Clouds -10 1019 67 0 1.85 175 21:55 18.11.2019
4159 Clouds -10 1019 67 0 1.85 175 21:36 18.11.2019
4160 Clouds -10 1019 67 0 1.85 175 21:18 18.11.2019
4161 Clouds -10 1019 67 0 1.85 175 20:42 18.11.2019
4162 Clouds -11 1022 60 0 2.71 144 20:20 18.11.2019
4163 Clouds -11 1022 60 0 2.71 144 19:58 18.11.2019
4164 Clouds -11 1022 60 0 2.71 144 19:58 18.11.2019
4165 Clouds -11 1022 60 0 2.71 144 19:39 18.11.2019
4166 Clouds -11 1022 60 0 2.71 144 19:21 18.11.2019
4167 Clouds -11 1022 60 0 2.71 144 18:57 18.11.2019
4168 Clouds -11 1022 60 0 2.71 144 18:38 18.11.2019
4169 Clouds -11 1022 60 0 2.71 144 18:19 18.11.2019
4170 Clouds -11 1022 60 0 2.71 144 17:59 18.11.2019
4171 Clouds -11 1022 60 0 2.71 144 17:38 18.11.2019
4172 Clouds -13 1023 54 0 2.99 147 17:19 18.11.2019
4173 Clouds -13 1023 54 0 2.99 147 16:43 18.11.2019
4174 Clouds -13 1023 54 0 2.99 147 16:25 18.11.2019
4175 Clouds -13 1023 54 0 2.99 147 15:59 18.11.2019
4176 Clouds -13 1023 54 0 2.99 147 15:41 18.11.2019
4177 Clouds -13 1023 54 0 2.99 147 15:22 18.11.2019
4178 Clouds -13 1023 54 0 2.99 147 14:59 18.11.2019
4179 Clouds -13 1023 54 0 2.99 147 14:41 18.11.2019
4180 Clouds -13 1025 52 0 2.21 146 14:22 18.11.2019
4181 Clouds -13 1025 52 0 2.21 146 13:45 18.11.2019
4182 Clouds -13 1025 52 0 2.28 145 13:27 18.11.2019
4183 Clouds -13 1025 52 0 2.28 145 12:57 18.11.2019
4184 Clouds -13 1025 52 0 2.28 145 12:57 18.11.2019
4185 Clouds -13 1025 52 0 2.28 145 12:37 18.11.2019
4186 Clouds -13 1025 52 0 2.28 145 12:18 18.11.2019
4187 Clouds -13 1025 52 0 2.28 145 11:42 18.11.2019
4188 Clouds -13 1025 52 0 2.28 145 11:24 18.11.2019
4189 Clouds -12 1025 61 0 1.84 154 10:45 18.11.2019
4190 Clouds -12 1025 61 0 1.84 154 10:26 18.11.2019
4191 Clouds -12 1025 61 0 1.84 154 09:59 18.11.2019
4192 Clouds -12 1025 61 0 1.84 154 09:39 18.11.2019
4193 Clouds -12 1025 61 0 1.84 154 09:21 18.11.2019
4194 Clouds -12 1025 61 0 1.84 154 08:58 18.11.2019
4195 Clouds -12 1025 61 0 1.84 154 08:40 18.11.2019
4196 Clear -11 1027 71 0 1.94 135 08:19 18.11.2019
4197 Clear -11 1027 71 0 1.94 135 07:45 18.11.2019
4198 Clear -11 1027 71 0 1.94 135 07:26 18.11.2019
4199 Clear -11 1027 71 0 1.94 135 06:49 18.11.2019
4200 Clear -11 1027 71 0 1.94 135 06:28 18.11.2019
4201 Clear -11 1027 71 0 1.94 135 05:46 18.11.2019
4202 Clear -16 1033 66 0 1.96 144 04:35 18.11.2019
4203 Clouds -20 1036 58 0 2.47 110 01:49 18.11.2019
4204 Clouds -20 1036 58 0 2.47 110 01:30 18.11.2019
4205 Clouds -20 1037 58 0 2.43 109 00:21 18.11.2019
4206 Clouds -20 1037 58 0 2.43 109 23:41 17.11.2019
4207 Clouds -23 1039 55 0 1.89 123 23:23 17.11.2019
4208 Clouds -23 1039 55 0 1.89 123 22:58 17.11.2019
4209 Clouds -23 1039 55 0 1.89 123 22:39 17.11.2019
4210 Clouds -23 1039 55 0 1.89 123 22:21 17.11.2019
4211 Clouds -23 1039 55 0 1.89 123 21:57 17.11.2019
4212 Clouds -23 1039 55 0 1.89 123 21:57 17.11.2019
4213 Clouds -23 1039 55 0 1.89 123 21:39 17.11.2019
4214 Clouds -23 1039 55 0 1.89 123 21:39 17.11.2019
4215 Clouds -23 1039 55 0 1.89 123 21:18 17.11.2019
4216 Clouds -23 1039 55 0 1.89 123 20:55 17.11.2019
4217 Clouds -23 1039 55 0 1.89 123 20:55 17.11.2019
4218 Clouds -23 1039 55 0 1.89 123 20:37 17.11.2019
4219 Clouds -24 1041 51 0 1.21 161 20:19 17.11.2019
4220 Clouds -24 1040 50 0 1.31 158 19:55 17.11.2019
4221 Clouds -24 1040 50 0 1.31 158 19:37 17.11.2019
4222 Clouds -24 1040 50 0 1.31 158 19:37 17.11.2019
4223 Clouds -24 1040 50 0 1.31 158 19:19 17.11.2019
4224 Clouds -24 1040 50 0 1.31 158 18:54 17.11.2019
4225 Clouds -24 1040 50 0 1.31 158 18:36 17.11.2019
4226 Clouds -24 1040 50 0 1.31 158 18:36 17.11.2019
4227 Clouds -24 1040 50 0 1.31 158 18:18 17.11.2019
4228 Clouds -24 1040 50 0 1.31 158 17:57 17.11.2019
4229 Clouds -24 1040 50 0 1.31 158 17:38 17.11.2019
4230 Clouds -23 1041 56 0 0.91 183 17:19 17.11.2019
4231 Clouds -23 1041 56 0 0.91 183 17:19 17.11.2019
4232 Clouds -23 1041 56 0 0.91 183 16:55 17.11.2019
4233 Clouds -23 1041 56 0 0.91 183 16:37 17.11.2019
4234 Clouds -23 1041 56 0 0.91 183 16:37 17.11.2019
4235 Clouds -23 1041 56 0 0.91 183 16:19 17.11.2019
4236 Clouds -23 1041 56 0 0.91 183 15:41 17.11.2019
4237 Clouds -23 1041 56 0 0.91 183 15:19 17.11.2019
4238 Clouds -23 1041 56 0 0.91 183 14:57 17.11.2019
4239 Clouds -23 1041 56 0 0.91 183 14:39 17.11.2019
4240 Clouds -22 1040 55 0 1.58 135 14:21 17.11.2019
4241 Clouds -22 1040 55 0 1.58 135 13:59 17.11.2019
4242 Clouds -22 1040 55 0 1.58 135 13:40 17.11.2019
4243 Clouds -22 1040 55 0 1.58 135 13:20 17.11.2019
4244 Clouds -22 1040 54 0 1.69 133 13:20 17.11.2019
4245 Clouds -22 1040 54 0 1.69 133 12:45 17.11.2019
4246 Clouds -22 1040 54 0 1.69 133 12:25 17.11.2019
4247 Clouds -22 1040 54 0 1.69 133 11:59 17.11.2019
4248 Clouds -22 1040 54 0 1.69 133 11:41 17.11.2019
4249 Clouds -21 1039 68 0 1.61 117 11:21 17.11.2019
4250 Clouds -21 1039 68 0 1.61 117 11:21 17.11.2019
4251 Clouds -21 1039 68 0 1.61 117 10:59 17.11.2019
4252 Clouds -21 1039 68 0 1.61 117 10:40 17.11.2019
4253 Clouds -21 1039 68 0 1.61 117 10:21 17.11.2019
4254 Clouds -21 1039 68 0 1.61 117 10:21 17.11.2019
4255 Clouds -21 1039 68 0 1.61 117 09:42 17.11.2019
4256 Clouds -21 1039 68 0 1.61 117 09:24 17.11.2019
4257 Clouds -21 1039 68 0 1.61 117 08:44 17.11.2019
4258 Clouds -21 1039 68 0 1.61 117 08:26 17.11.2019
4259 Clouds -20 1042 59 0 1.83 152 07:58 17.11.2019
4260 Clouds -20 1042 59 0 1.83 152 07:58 17.11.2019
4261 Clouds -20 1042 59 0 1.83 152 07:40 17.11.2019
4262 Clouds -20 1042 59 0 1.83 152 07:20 17.11.2019
4263 Clouds -20 1042 59 0 1.83 152 06:53 17.11.2019
4264 Clouds -20 1042 59 0 1.83 152 06:29 17.11.2019
4265 Clear -26 1050 65 0 2.3 110 04:57 17.11.2019
4266 Clear -26 1050 65 0 2.3 110 04:00 17.11.2019
4267 Clear -26 1050 65 0 2.3 110 03:37 17.11.2019
4268 Clear -26 1050 65 0 2.3 110 03:19 17.11.2019
4269 Clear -33 1056 69 0 2.21 105 01:54 17.11.2019
4270 Clear -33 1056 70 0 2.04 106 00:59 17.11.2019
4271 Clear -33 1056 70 0 2.04 106 00:38 17.11.2019
4272 Clear -33 1056 70 0 2.04 106 00:19 17.11.2019
4273 Clear -33 1056 70 0 2.04 106 23:42 16.11.2019
4274 Clear -33 1056 70 0 2.04 106 23:42 16.11.2019
4275 Clear -34 1056 88 0 1.27 97 23:18 16.11.2019
4276 Clear -34 1056 88 0 1.27 97 22:42 16.11.2019
4277 Clear -34 1056 88 0 1.27 97 22:20 16.11.2019
4278 Clear -34 1056 88 0 1.27 97 21:58 16.11.2019
4279 Clear -34 1056 88 0 1.27 97 21:40 16.11.2019
4280 Clear -34 1056 88 0 1.27 97 21:21 16.11.2019
4281 Clear -34 1056 88 0 1.27 97 20:58 16.11.2019
4282 Clear -34 1056 88 0 1.27 97 20:39 16.11.2019
4283 Clouds -34 1055 90 0 0.07 69 20:19 16.11.2019
4284 Clouds -34 1055 90 0 0.07 69 19:41 16.11.2019
4285 Clouds -34 1055 90 0 0.07 69 19:22 16.11.2019
4286 Clouds -34 1055 90 0 0.07 69 18:59 16.11.2019
4287 Clouds -34 1055 90 0 0.07 69 18:39 16.11.2019
4288 Clouds -34 1055 90 0 0.07 69 18:20 16.11.2019
4289 Clouds -34 1055 90 0 0.07 69 17:55 16.11.2019
4290 Clouds -34 1055 90 0 0.07 69 17:36 16.11.2019
4291 Clouds -32 1051 90 0 1.76 278 17:18 16.11.2019
4292 Clouds -32 1051 90 0 1.76 278 16:44 16.11.2019
4293 Clouds -32 1051 90 0 1.76 278 16:44 16.11.2019
4294 Clouds -32 1051 90 0 1.76 278 16:26 16.11.2019
4295 Clouds -32 1051 90 0 1.76 278 15:54 16.11.2019
4296 Clouds -32 1051 90 0 1.76 278 15:36 16.11.2019
4297 Clouds -32 1051 90 0 1.76 278 15:18 16.11.2019
4298 Clouds -32 1051 90 0 1.76 278 14:40 16.11.2019
4299 Clouds -32 1051 90 0 1.76 278 14:40 16.11.2019
4300 Snow -27 1045 96 0 3.5 297 14:21 16.11.2019
4301 Snow -27 1045 96 0 3.5 297 13:56 16.11.2019
4302 Snow -27 1045 96 0 3.5 297 13:38 16.11.2019
4303 Clouds -27 1045 95 0 3.03 301 13:19 16.11.2019
4304 Clouds -27 1045 95 0 3.03 301 12:58 16.11.2019
4305 Clouds -27 1045 95 0 3.03 301 12:40 16.11.2019
4306 Clouds -27 1045 95 0 3.03 301 12:20 16.11.2019
4307 Clouds -27 1045 95 0 3.03 301 11:45 16.11.2019
4308 Clouds -27 1045 95 0 3.03 301 11:26 16.11.2019
4309 Snow -21 1035 88 0 4.5 296 10:57 16.11.2019
4310 Snow -21 1035 88 0 4.5 296 10:39 16.11.2019
4311 Snow -21 1035 88 0 4.5 296 10:20 16.11.2019
4312 Snow -21 1035 88 0 4.5 296 09:43 16.11.2019
4313 Snow -21 1035 88 0 4.5 296 09:21 16.11.2019
4314 Snow -21 1035 88 0 4.5 296 08:58 16.11.2019
4315 Snow -21 1035 88 0 4.5 296 08:38 16.11.2019
4316 Snow -17 1028 90 0 3.71 316 08:18 16.11.2019
4317 Snow -17 1028 90 0 3.71 316 08:18 16.11.2019
4318 Snow -17 1028 90 0 3.71 316 07:42 16.11.2019
4319 Snow -17 1028 90 0 3.71 316 07:20 16.11.2019
4320 Snow -17 1028 90 0 3.71 316 06:51 16.11.2019
4321 Snow -17 1028 90 0 3.71 316 06:33 16.11.2019
4322 Snow -17 1028 90 0 3.71 316 05:28 16.11.2019
4323 Snow -15 1023 96 0 5.78 271 03:44 16.11.2019
4324 Snow -15 1023 96 0 5.78 271 03:25 16.11.2019
4325 Snow -14 1015 97 0 3.94 255 01:47 16.11.2019
4326 Snow -14 1017 97 0 3.95 260 01:20 16.11.2019
4327 Snow -14 1017 97 0 3.95 260 00:42 16.11.2019
4328 Snow -14 1017 97 0 3.95 260 00:22 16.11.2019
4329 Snow -14 1017 97 0 3.95 260 23:40 15.11.2019
4330 Snow -13 1011 95 0 3.79 248 23:21 15.11.2019
4331 Snow -13 1011 95 0 3.79 248 22:55 15.11.2019
4332 Snow -13 1011 95 0 3.79 248 22:55 15.11.2019
4333 Snow -13 1011 95 0 3.79 248 22:37 15.11.2019
4334 Snow -13 1011 95 0 3.79 248 22:18 15.11.2019
4335 Snow -13 1011 95 0 3.79 248 22:18 15.11.2019
4336 Snow -13 1011 95 0 3.79 248 21:42 15.11.2019
4337 Snow -13 1011 95 0 3.79 248 21:21 15.11.2019
4338 Snow -13 1011 95 0 3.79 248 20:59 15.11.2019
4339 Snow -13 1011 95 0 3.79 248 20:59 15.11.2019
4340 Snow -13 1011 95 0 3.79 248 20:40 15.11.2019
4341 Snow -11 1009 90 0 3.45 268 20:22 15.11.2019
4342 Snow -11 1009 90 0 3.45 268 19:59 15.11.2019
4343 Snow -11 1009 90 0 3.45 268 19:40 15.11.2019
4344 Snow -11 1009 90 0 3.45 268 19:20 15.11.2019
4345 Snow -11 1009 90 0 3.45 268 18:58 15.11.2019
4346 Snow -11 1009 90 0 3.45 268 18:40 15.11.2019
4347 Snow -11 1009 90 0 3.45 268 18:21 15.11.2019
4348 Snow -11 1009 90 0 3.45 268 17:43 15.11.2019
4349 Snow -11 1009 90 0 3.45 268 17:25 15.11.2019
4350 Snow -11 1009 90 0 3.45 268 17:25 15.11.2019
4351 Clouds -10 1008 67 0 1.88 204 16:58 15.11.2019
4352 Clouds -10 1008 67 0 1.88 204 16:58 15.11.2019
4353 Clouds -10 1008 67 0 1.88 204 16:39 15.11.2019
4354 Clouds -10 1008 67 0 1.88 204 16:20 15.11.2019
4355 Clouds -10 1008 67 0 1.88 204 15:39 15.11.2019
4356 Clouds -10 1008 67 0 1.88 204 15:21 15.11.2019
4357 Clouds -10 1008 67 0 1.88 204 14:58 15.11.2019
4358 Clouds -10 1008 67 0 1.88 204 14:40 15.11.2019
4359 Clouds -9 1007 64 0 2.68 221 14:21 15.11.2019
4360 Clouds -9 1007 64 0 2.68 221 13:59 15.11.2019
4361 Clouds -9 1007 64 0 2.68 221 13:59 15.11.2019
4362 Clouds -9 1007 64 0 2.68 221 13:40 15.11.2019
4363 Clouds -9 1008 62 0 2.84 213 13:21 15.11.2019
4364 Clouds -9 1008 62 0 2.84 213 12:59 15.11.2019
4365 Clouds -9 1008 62 0 2.84 213 12:40 15.11.2019
4366 Clouds -9 1008 62 0 2.84 213 12:21 15.11.2019
4367 Clouds -9 1008 62 0 2.84 213 11:59 15.11.2019
4368 Clouds -9 1008 62 0 2.84 213 11:39 15.11.2019
4369 Clouds -8 1008 60 0 2.62 218 11:21 15.11.2019
4370 Clouds -8 1008 60 0 2.62 218 10:57 15.11.2019
4371 Clouds -8 1008 60 0 2.62 218 10:38 15.11.2019
4372 Clouds -8 1008 60 0 2.62 218 10:18 15.11.2019
4373 Clouds -8 1008 60 0 2.62 218 09:41 15.11.2019
4374 Clouds -8 1008 60 0 2.62 218 09:20 15.11.2019
4375 Clouds -8 1008 60 0 2.62 218 08:44 15.11.2019
4376 Clouds -6 1009 51 0 3.04 240 08:23 15.11.2019
4377 Clouds -6 1009 51 0 3.04 240 07:49 15.11.2019
4378 -273 0 0 0 0 0 07:28 15.11.2019
4379 Clouds -6 1009 51 0 3.04 240 06:52 15.11.2019
4380 Clouds -6 1009 51 0 3.04 240 06:32 15.11.2019
4381 Clouds -6 1009 51 0 3.04 240 05:48 15.11.2019
4382 Clouds -6 1009 51 0 3.04 240 05:26 15.11.2019
4383 Clouds -8 1013 61 0 1.98 191 03:58 15.11.2019
4384 Clouds -8 1013 61 0 1.98 191 03:25 15.11.2019
4385 Clouds -12 1014 58 0 1.75 164 02:21 15.11.2019
4386 Clouds -12 1015 58 0 1.95 164 01:33 15.11.2019
4387 Clouds -12 1015 58 0 1.95 164 01:33 15.11.2019
4388 Clouds -12 1015 58 0 1.95 164 00:54 15.11.2019
4389 Clouds -12 1015 58 0 1.95 164 00:33 15.11.2019
4390 Clouds -12 1015 58 0 1.95 164 23:57 14.11.2019
4391 Clouds -12 1015 58 0 1.95 164 23:38 14.11.2019
4392 Clouds -12 1015 54 0 1.54 158 23:18 14.11.2019
4393 Clouds -12 1015 54 0 1.54 158 22:40 14.11.2019
4394 Clouds -12 1015 54 0 1.54 158 22:21 14.11.2019
4395 Clouds -12 1015 54 0 1.54 158 22:21 14.11.2019
4396 Clouds -12 1015 54 0 1.54 158 21:56 14.11.2019
4397 Clouds -12 1015 54 0 1.54 158 21:56 14.11.2019
4398 Clouds -12 1015 54 0 1.54 158 21:38 14.11.2019
4399 Clouds -12 1015 54 0 1.54 158 21:19 14.11.2019
4400 Clouds -12 1015 54 0 1.54 158 20:42 14.11.2019
4401 Clouds -12 1015 54 0 1.56 176 20:24 14.11.2019
4402 Clouds -12 1016 44 0 1.25 156 19:59 14.11.2019
4403 Clouds -12 1016 44 0 1.25 156 19:59 14.11.2019
4404 Clouds -12 1016 44 0 1.25 156 19:41 14.11.2019
4405 Clouds -12 1016 44 0 1.25 156 19:18 14.11.2019
4406 Clouds -12 1016 44 0 1.25 156 18:56 14.11.2019
4407 Clouds -12 1016 44 0 1.25 156 18:38 14.11.2019
4408 Clouds -12 1016 44 0 1.25 156 18:19 14.11.2019
4409 Clouds -12 1016 44 0 1.25 156 17:55 14.11.2019
4410 Clouds -12 1016 44 0 1.25 156 17:37 14.11.2019
4411 Clouds -11 1015 50 0 1.16 161 17:18 14.11.2019
4412 Clouds -11 1015 50 0 1.16 161 16:55 14.11.2019
4413 Clouds -11 1015 50 0 1.16 161 16:36 14.11.2019
4414 Clouds -11 1015 50 0 1.16 161 16:18 14.11.2019
4415 Clouds -11 1015 50 0 1.16 161 15:54 14.11.2019
4416 Clouds -11 1015 50 0 1.16 161 15:36 14.11.2019
4417 Clouds -11 1015 50 0 1.16 161 15:18 14.11.2019
4418 Clouds -11 1015 50 0 1.16 161 14:41 14.11.2019
4419 Clouds -10 1015 53 0 1.29 181 14:22 14.11.2019
4420 Clouds -10 1015 53 0 1.29 181 13:55 14.11.2019
4421 Clouds -10 1015 53 0 1.29 181 13:37 14.11.2019
4422 Clouds -10 1015 55 0 0.85 144 13:18 14.11.2019
4423 Clouds -10 1015 55 0 0.85 144 12:46 14.11.2019
4424 Clouds -10 1015 55 0 0.85 144 12:26 14.11.2019
4425 Clouds -10 1015 55 0 0.85 144 11:58 14.11.2019
4426 Clouds -10 1015 55 0 0.85 144 11:58 14.11.2019
4427 Clouds -10 1015 55 0 0.85 144 11:38 14.11.2019
4428 Clouds -8 1014 62 0 1.39 226 11:19 14.11.2019
4429 Clouds -8 1014 62 0 1.39 226 10:57 14.11.2019
4430 Clouds -8 1014 62 0 1.39 226 10:38 14.11.2019
4431 Clouds -8 1014 62 0 1.39 226 10:19 14.11.2019
4432 Clouds -8 1014 62 0 1.39 226 09:56 14.11.2019
4433 Clouds -8 1014 62 0 1.39 226 09:37 14.11.2019
4434 Clouds -8 1014 62 0 1.39 226 09:18 14.11.2019
4435 Clouds -8 1014 62 0 1.39 226 08:46 14.11.2019
4436 Clouds -8 1015 65 0 1.7 232 08:24 14.11.2019
4437 Clear -5 1014 53 0 1.96 242 07:43 14.11.2019
4438 Clear -5 1014 53 0 1.96 242 07:25 14.11.2019
4439 Clear -5 1014 53 0 1.96 242 06:55 14.11.2019
4440 Clear -5 1014 53 0 1.96 242 06:36 14.11.2019
4441 Clear -5 1014 53 0 1.96 242 06:18 14.11.2019
4442 Clear -8 1018 62 0 1.02 153 04:39 14.11.2019
4443 Clear -8 1018 62 0 1.02 153 03:50 14.11.2019
4444 Clear -8 1018 62 0 1.02 153 02:41 14.11.2019
4445 Clouds -13 1019 62 0 1.27 141 01:41 14.11.2019
4446 Clouds -12 1019 62 0 1.43 136 00:58 14.11.2019
4447 Clouds -12 1019 62 0 1.43 136 00:40 14.11.2019
4448 Clouds -12 1019 62 0 1.43 136 00:20 14.11.2019
4449 Clouds -12 1019 62 0 1.43 136 23:39 13.11.2019
4450 Clouds -12 1020 63 0 1.36 167 23:20 13.11.2019
4451 Clouds -12 1020 63 0 1.36 167 22:55 13.11.2019
4452 Clouds -12 1020 63 0 1.36 167 22:37 13.11.2019
4453 Clouds -12 1020 63 0 1.36 167 22:19 13.11.2019
4454 Clouds -12 1020 63 0 1.36 167 21:55 13.11.2019
4455 Clouds -12 1020 63 0 1.36 167 21:37 13.11.2019
4456 Clouds -12 1020 63 0 1.36 167 21:18 13.11.2019
4457 Clouds -12 1020 63 0 1.36 167 20:55 13.11.2019
4458 Clouds -12 1020 63 0 1.36 167 20:37 13.11.2019
4459 Clouds -12 1021 65 0 1.39 206 20:18 13.11.2019
4460 Clouds -11 1021 63 0 1.44 206 20:18 13.11.2019
4461 Clouds -11 1021 63 0 1.44 206 19:43 13.11.2019
4462 Clouds -11 1021 63 0 1.44 206 19:20 13.11.2019
4463 Clouds -11 1021 63 0 1.44 206 18:56 13.11.2019
4464 Clouds -11 1021 63 0 1.44 206 18:38 13.11.2019
4465 Clouds -11 1021 63 0 1.44 206 18:38 13.11.2019
4466 Clouds -11 1021 63 0 1.44 206 18:19 13.11.2019
4467 Clouds -11 1021 63 0 1.44 206 17:57 13.11.2019
4468 Clouds -11 1021 63 0 1.44 206 17:57 13.11.2019
4469 Clouds -11 1021 63 0 1.44 206 17:38 13.11.2019
4470 Clouds -12 1021 65 0 1.35 212 17:20 13.11.2019
4471 Clouds -12 1021 65 0 1.44 212 16:58 13.11.2019
4472 Clouds -12 1021 65 0 1.44 212 16:39 13.11.2019
4473 Clouds -12 1021 65 0 1.35 212 16:21 13.11.2019
4474 Clouds -12 1021 65 0 1.35 212 15:58 13.11.2019
4475 Clouds -12 1021 65 0 1.35 212 15:39 13.11.2019
4476 Clouds -12 1021 65 0 1.35 212 15:20 13.11.2019
4477 Clouds -12 1021 65 0 1.35 212 14:42 13.11.2019
4478 Clouds -11 1021 67 0 1.42 208 14:22 13.11.2019
4479 Clouds -11 1021 67 0 1.42 208 13:57 13.11.2019
4480 Clouds -11 1021 67 0 1.42 208 13:36 13.11.2019
4481 Clouds -11 1020 68 0 1.36 212 13:18 13.11.2019
4482 Clouds -11 1020 68 0 1.36 212 13:18 13.11.2019
4483 Clouds -11 1020 68 0 1.36 212 12:54 13.11.2019
4484 Clouds -11 1020 68 0 1.36 212 12:36 13.11.2019
4485 Clouds -11 1020 68 0 1.36 212 12:18 13.11.2019
4486 Clouds -11 1020 68 0 1.36 212 11:40 13.11.2019
4487 Clouds -9 1020 70 0 1.32 221 11:19 13.11.2019
4488 Clouds -9 1020 70 0 1.32 221 10:58 13.11.2019
4489 Clouds -9 1020 70 0 1.32 221 10:39 13.11.2019
4490 Clouds -9 1020 70 0 1.32 221 10:19 13.11.2019
4491 Clouds -9 1020 70 0 1.32 221 09:45 13.11.2019
4492 Clouds -9 1020 70 0 1.32 221 09:22 13.11.2019
4493 Clouds -9 1020 70 0 1.32 221 08:57 13.11.2019
4494 Clouds -9 1020 70 0 1.32 221 08:36 13.11.2019
4495 Clouds -8 1022 55 0 1.62 238 08:18 13.11.2019
4496 Clouds -8 1022 55 0 1.58 243 07:42 13.11.2019
4497 Clouds -8 1022 55 0 1.58 243 07:42 13.11.2019
4498 Clouds -8 1022 55 0 1.58 243 07:20 13.11.2019
4499 Clouds -8 1022 55 0 1.58 243 06:44 13.11.2019
4500 Clouds -8 1022 55 0 1.58 243 06:19 13.11.2019
4501 Clouds -8 1022 55 0 1.58 243 06:19 13.11.2019
4502 Clouds -8 1022 55 0 1.58 243 06:19 13.11.2019
4503 Clouds -8 1022 55 0 1.58 243 06:19 13.11.2019
4504 Clouds -8 1022 55 0 1.58 243 05:52 13.11.2019
4505 Clouds -8 1022 55 0 1.58 243 05:30 13.11.2019
4506 Clouds -11 1028 72 0 1.23 130 04:21 13.11.2019
4507 Clouds -15 1032 84 0 1.71 137 02:18 13.11.2019
4508 Clouds -15 1032 84 0 1.71 137 01:41 13.11.2019
4509 Clouds -15 1032 70 0 1.5 139 00:44 13.11.2019
4510 Clouds -15 1032 70 0 1.5 139 00:44 13.11.2019
4511 Clouds -15 1032 70 0 1.5 139 00:19 13.11.2019
4512 Clouds -15 1032 70 0 1.5 139 23:41 12.11.2019
4513 Clouds -15 1032 70 0 1.5 139 23:41 12.11.2019
4514 Clouds -18 1035 85 0 1.3 143 23:21 12.11.2019
4515 Clouds -18 1035 85 0 1.3 143 22:54 12.11.2019
4516 Clouds -18 1035 85 0 1.3 143 22:36 12.11.2019
4517 Clouds -18 1035 85 0 1.3 143 22:18 12.11.2019
4518 Clouds -18 1035 85 0 1.3 143 21:43 12.11.2019
4519 Clouds -18 1035 85 0 1.3 143 21:24 12.11.2019
4520 Clouds -18 1035 85 0 1.3 143 20:57 12.11.2019
4521 Clouds -18 1035 85 0 1.3 143 20:37 12.11.2019
4522 Clouds -19 1039 86 0 2 142 20:19 12.11.2019
4523 Clouds -19 1039 86 0 2 142 19:57 12.11.2019
4524 Clouds -19 1039 86 0 2 142 19:39 12.11.2019
4525 Clouds -19 1039 86 0 2 142 19:19 12.11.2019
4526 Clouds -19 1039 86 0 2 142 19:19 12.11.2019
4527 Clouds -19 1039 86 0 2 142 18:58 12.11.2019
4528 Clouds -19 1039 86 0 2 142 18:39 12.11.2019
4529 Clouds -19 1039 86 0 2 142 18:39 12.11.2019
4530 Clouds -19 1039 86 0 2 142 18:21 12.11.2019
4531 Clouds -19 1039 86 0 2 142 17:57 12.11.2019
4532 Clouds -19 1039 86 0 2 142 17:39 12.11.2019
4533 Clouds -21 1041 63 0 2.17 120 17:21 12.11.2019
4534 Clouds -21 1041 63 0 2.17 120 16:56 12.11.2019
4535 Clouds -21 1041 63 0 2.17 120 16:38 12.11.2019
4536 Clouds -21 1041 63 0 2.17 120 16:20 12.11.2019
4537 Clouds -21 1041 63 0 2.17 120 15:41 12.11.2019
4538 Clouds -21 1041 63 0 2.17 120 15:21 12.11.2019
4539 Clouds -21 1041 63 0 2.17 120 14:56 12.11.2019
4540 Clouds -21 1041 63 0 2.17 120 14:37 12.11.2019
4541 Clouds -23 1045 78 0 1.44 154 14:18 12.11.2019
4542 Clouds -23 1045 78 0 1.44 154 13:55 12.11.2019
4543 Clouds -23 1045 78 0 1.44 154 13:36 12.11.2019
4544 Clear -24 1047 77 0 1.37 167 13:18 12.11.2019
4545 Clouds -23 1046 78 0 1.41 152 12:42 12.11.2019
4546 Clouds -23 1046 78 0 1.41 152 12:19 12.11.2019
4547 Clouds -23 1046 78 0 1.41 152 11:58 12.11.2019
4548 Clouds -23 1046 78 0 1.41 152 11:39 12.11.2019
4549 Clear -22 1045 67 0 2.52 297 11:21 12.11.2019
4550 Clouds -21 1045 70 0 2.85 291 10:56 12.11.2019
4551 Clouds -21 1045 70 0 2.85 291 10:37 12.11.2019
4552 Clear -22 1045 67 0 2.52 297 10:19 12.11.2019
4553 Clear -22 1045 67 0 2.52 297 09:40 12.11.2019
4554 Clouds -21 1045 70 0 2.85 291 09:20 12.11.2019
4555 Clouds -21 1045 70 0 2.85 291 08:51 12.11.2019
4556 Clouds -21 1045 70 0 2.85 291 08:30 12.11.2019
4557 Clouds -20 1045 53 0 4.55 308 07:44 12.11.2019
4558 Clouds -20 1045 53 0 4.55 308 07:25 12.11.2019
4559 Clouds -20 1045 53 0 4.55 308 06:56 12.11.2019
4560 Clouds -20 1045 53 0 4.55 308 06:30 12.11.2019
4561 Clouds -20 1045 53 0 4.55 308 05:59 12.11.2019
4562 Clouds -20 1045 53 0 4.55 308 05:29 12.11.2019
4563 Clouds -22 1045 63 0 2.57 309 04:41 12.11.2019
4564 Clouds -22 1045 63 0 2.57 309 02:51 12.11.2019
4565 Clouds -22 1042 78 0 2.27 306 01:39 12.11.2019
4566 Clouds -22 1042 77 0 2.01 309 01:19 12.11.2019
4567 Clouds -22 1042 77 0 2.01 309 00:44 12.11.2019
4568 Clouds -22 1042 77 0 2.01 309 00:22 12.11.2019
4569 Clouds -22 1042 77 0 2.01 309 23:43 11.11.2019
4570 Clouds -20 1037 79 0 2.15 320 23:21 11.11.2019
4571 Clouds -20 1037 79 0 2.15 320 22:40 11.11.2019
4572 Clouds -20 1037 79 0 2.15 320 22:20 11.11.2019
4573 Clouds -20 1037 79 0 2.15 320 21:59 11.11.2019
4574 Clouds -20 1037 79 0 2.15 320 21:40 11.11.2019
4575 Clouds -20 1037 79 0 2.15 320 21:22 11.11.2019
4576 Clouds -20 1037 79 0 2.15 320 20:59 11.11.2019
4577 Clouds -20 1037 79 0 2.15 320 20:59 11.11.2019
4578 Clouds -20 1037 79 0 2.15 320 20:41 11.11.2019
4579 Clouds -18 1033 86 0 2.16 320 20:20 11.11.2019
4580 Clouds -19 1034 88 0 2.15 318 19:56 11.11.2019
4581 Clouds -19 1034 88 0 2.15 318 19:38 11.11.2019
4582 Clouds -19 1034 88 0 2.15 318 19:38 11.11.2019
4583 Clouds -19 1034 88 0 2.15 318 19:18 11.11.2019
4584 Clouds -19 1034 88 0 2.15 318 19:18 11.11.2019
4585 Clouds -19 1034 88 0 2.15 318 18:42 11.11.2019
4586 Clouds -19 1034 88 0 2.15 318 18:22 11.11.2019
4587 Clouds -19 1034 88 0 2.15 318 18:00 11.11.2019
4588 Clouds -19 1034 88 0 2.15 318 17:41 11.11.2019
4589 Snow -16 1028 88 0 2.54 350 17:22 11.11.2019
4590 Snow -16 1028 88 0 2.54 350 16:40 11.11.2019
4591 Snow -16 1028 88 0 2.54 350 16:21 11.11.2019
4592 Snow -16 1028 88 0 2.54 350 15:57 11.11.2019
4593 Snow -16 1028 88 0 2.54 350 15:38 11.11.2019
4594 Snow -16 1028 88 0 2.54 350 15:19 11.11.2019
4595 Snow -16 1028 88 0 2.54 350 14:42 11.11.2019
4596 Snow -16 1028 88 0 2.54 350 14:42 11.11.2019
4597 Snow -16 1028 88 0 2.54 350 14:24 11.11.2019
4598 Snow -11 1021 93 0 3.03 238 13:58 11.11.2019
4599 Snow -11 1021 93 0 3.03 238 13:37 11.11.2019
4600 Snow -10 1020 91 0 3.43 226 13:19 11.11.2019
4601 Snow -10 1020 91 0 3.43 226 12:56 11.11.2019
4602 Snow -10 1020 91 0 3.43 226 12:38 11.11.2019
4603 Snow -10 1020 91 0 3.43 226 12:20 11.11.2019
4604 Snow -10 1020 91 0 3.43 226 11:42 11.11.2019
4605 Snow -8 1013 88 0 5.27 306 11:22 11.11.2019
4606 Snow -8 1013 88 0 5.27 306 10:56 11.11.2019
4607 Snow -8 1013 88 0 5.27 306 10:38 11.11.2019
4608 Snow -8 1013 88 0 5.27 306 10:18 11.11.2019
4609 Snow -8 1013 88 0 5.27 306 09:43 11.11.2019
4610 Snow -8 1013 88 0 5.27 306 09:21 11.11.2019
4611 Snow -8 1013 88 0 5.27 306 08:43 11.11.2019
4612 Snow -8 1013 76 0 9.16 293 08:23 11.11.2019
4613 Snow -5 1008 80 0 7.53 261 07:58 11.11.2019
4614 Snow -5 1008 80 0 7.53 261 07:39 11.11.2019
4615 Snow -5 1008 80 0 7.53 261 07:20 11.11.2019
4616 Snow -5 1008 80 0 7.53 261 06:57 11.11.2019
4617 Snow -5 1008 80 0 7.53 261 06:38 11.11.2019
4618 Snow -5 1008 80 0 7.53 261 06:20 11.11.2019
4619 Snow -5 1008 80 0 7.53 261 05:48 11.11.2019
4620 Snow -6 1010 84 0 4.46 236 03:56 11.11.2019
4621 Snow -6 1010 84 0 4.46 236 03:56 11.11.2019
4622 Snow -6 1010 84 0 4.46 236 02:49 11.11.2019
4623 Snow -8 1011 96 0 1.34 230 02:18 11.11.2019
4624 Snow -8 1011 96 0 1.34 230 01:37 11.11.2019
4625 Snow -8 1012 96 0 1.61 236 00:58 11.11.2019
4626 Snow -8 1012 96 0 1.61 236 00:40 11.11.2019
4627 Snow -8 1012 96 0 1.61 236 23:58 10.11.2019
4628 Snow -8 1012 96 0 1.61 236 23:38 10.11.2019
4629 Snow -6 1012 96 0 2.07 291 23:19 10.11.2019
4630 Snow -6 1012 96 0 2.07 291 23:19 10.11.2019
4631 Snow -6 1012 96 0 2.07 291 23:19 10.11.2019
4632 Snow -6 1012 96 0 2.07 291 22:56 10.11.2019
4633 Snow -6 1012 96 0 2.07 291 22:38 10.11.2019
4634 Snow -6 1012 96 0 2.07 291 22:19 10.11.2019
4635 Snow -6 1012 96 0 2.07 291 22:19 10.11.2019
4636 Snow -6 1012 96 0 2.07 291 21:55 10.11.2019
4637 Snow -6 1012 96 0 2.07 291 21:37 10.11.2019
4638 Snow -6 1012 96 0 2.07 291 21:19 10.11.2019
4639 Snow -6 1012 96 0 2.07 291 20:41 10.11.2019
4640 Snow -6 1012 92 0 0.97 248 20:22 10.11.2019
4641 Snow -6 1012 92 0 0.97 248 19:56 10.11.2019
4642 Snow -6 1012 92 0 0.97 248 19:37 10.11.2019
4643 Snow -6 1012 92 0 0.97 248 19:19 10.11.2019
4644 Snow -6 1012 92 0 0.97 248 18:58 10.11.2019
4645 Snow -6 1012 92 0 0.97 248 18:39 10.11.2019
4646 Snow -6 1012 92 0 0.97 248 18:19 10.11.2019
4647 Snow -6 1012 92 0 0.97 248 18:19 10.11.2019
4648 Snow -6 1012 92 0 0.97 248 17:56 10.11.2019
4649 Snow -6 1012 92 0 0.97 248 17:38 10.11.2019
4650 Snow -6 1012 92 0 0.97 248 17:38 10.11.2019
4651 Clouds -5 1012 73 0 0.74 72 17:20 10.11.2019
4652 Clouds -5 1012 73 0 0.74 72 16:58 10.11.2019
4653 Clouds -5 1012 73 0 0.74 72 16:39 10.11.2019
4654 Clouds -5 1012 73 0 0.74 72 16:20 10.11.2019
4655 Clouds -5 1012 73 0 0.74 72 15:55 10.11.2019
4656 Clouds -5 1012 73 0 0.74 72 15:36 10.11.2019
4657 Clouds -5 1012 73 0 0.74 72 15:18 10.11.2019
4658 Clouds -5 1012 73 0 0.74 72 14:41 10.11.2019
4659 Clouds -4 1013 61 0 0.41 52 14:23 10.11.2019
4660 Clouds -4 1013 61 0 0.41 52 13:58 10.11.2019
4661 Clouds -4 1013 61 0 0.41 52 13:40 10.11.2019
4662 Clouds -4 1013 61 0 0.41 52 13:20 10.11.2019
4663 Clouds -5 1012 62 0 0.41 130 12:44 10.11.2019
4664 Clouds -5 1012 62 0 0.41 130 12:22 10.11.2019
4665 Clouds -5 1012 62 0 0.41 130 11:57 10.11.2019
4666 Clouds -5 1012 62 0 0.41 130 11:39 10.11.2019
4667 Clouds -3 1011 55 0 0.8 286 11:21 10.11.2019
4668 Clouds -3 1011 55 0 0.8 286 10:59 10.11.2019
4669 Clouds -3 1011 55 0 0.8 286 10:40 10.11.2019
4670 Clouds -3 1011 55 0 0.8 286 10:20 10.11.2019
4671 Clouds -3 1011 55 0 0.8 286 10:20 10.11.2019
4672 Clouds -3 1011 55 0 0.8 286 09:43 10.11.2019
4673 Clouds -3 1011 55 0 0.8 286 09:24 10.11.2019
4674 Clouds -3 1011 55 0 0.8 286 08:56 10.11.2019
4675 Clouds -3 1011 55 0 0.8 286 08:36 10.11.2019
4676 Clouds -1 1012 38 0 1.24 242 08:18 10.11.2019
4677 Clouds -1 1012 38 0 1.24 242 07:42 10.11.2019
4678 Clouds -1 1012 38 0 1.24 242 07:23 10.11.2019
4679 Clouds -1 1012 38 0 1.24 242 06:33 10.11.2019
4680 Clouds -1 1012 38 0 1.24 242 05:33 10.11.2019
4681 Clouds -3 1016 47 0 1.02 177 03:22 10.11.2019
4682 Clouds -7 1017 66 0 0.88 136 01:47 10.11.2019
4683 Clouds -8 1018 67 0 0.87 156 01:19 10.11.2019
4684 Clouds -8 1018 67 0 0.87 156 00:41 10.11.2019
4685 Clouds -8 1018 67 0 0.87 156 23:48 09.11.2019
4686 Clouds -8 1019 71 0 1.35 177 23:21 09.11.2019
4687 Clouds -8 1019 71 0 1.35 177 22:59 09.11.2019
4688 Clouds -8 1019 71 0 1.35 177 22:41 09.11.2019
4689 Clouds -8 1019 71 0 1.35 177 22:20 09.11.2019
4690 Clouds -8 1019 71 0 1.35 177 21:56 09.11.2019
4691 Clouds -8 1019 71 0 1.35 177 21:56 09.11.2019
4692 Clouds -8 1019 71 0 1.35 177 21:37 09.11.2019
4693 Clouds -8 1019 71 0 1.35 177 21:19 09.11.2019
4694 Clouds -8 1019 71 0 1.35 177 20:42 09.11.2019
4695 Clouds -7 1019 68 0 1.38 226 20:22 09.11.2019
4696 Clouds -7 1019 68 0 1.38 226 19:58 09.11.2019
4697 Clouds -7 1019 68 0 1.38 226 19:39 09.11.2019
4698 Clouds -7 1019 68 0 1.38 226 19:21 09.11.2019
4699 Clouds -7 1019 68 0 1.38 226 19:21 09.11.2019
4700 Clouds -7 1019 68 0 1.38 226 18:54 09.11.2019
4701 Clouds -7 1019 68 0 1.38 226 18:36 09.11.2019
4702 Clouds -7 1019 68 0 1.38 226 18:18 09.11.2019
4703 Clouds -7 1019 68 0 1.38 226 17:41 09.11.2019
4704 Clouds -7 1019 69 0 1.06 264 17:22 09.11.2019
4705 Clouds -7 1019 69 0 1.06 264 16:43 09.11.2019
4706 Clouds -7 1019 69 0 1.06 264 16:22 09.11.2019
4707 Clouds -7 1019 69 0 1.06 264 15:59 09.11.2019
4708 Clouds -7 1019 69 0 1.06 264 15:41 09.11.2019
4709 Clouds -7 1019 69 0 1.06 264 15:23 09.11.2019
4710 Clouds -7 1019 69 0 1.06 264 14:44 09.11.2019
4711 Clouds -4 1017 58 0 1.17 284 14:22 09.11.2019
4712 Clouds -4 1017 58 0 1.17 284 14:22 09.11.2019
4713 Clouds -4 1017 58 0 1.17 284 13:58 09.11.2019
4714 Clouds -4 1017 58 0 1.17 284 13:39 09.11.2019
4715 Clouds -5 1017 64 0 0.63 233 13:19 09.11.2019
4716 Clouds -5 1017 64 0 0.63 233 12:56 09.11.2019
4717 Clouds -5 1017 64 0 0.63 233 12:56 09.11.2019
4718 Clouds -5 1017 64 0 0.63 233 12:38 09.11.2019
4719 Clouds -5 1017 64 0 0.63 233 12:19 09.11.2019
4720 Clouds -5 1017 64 0 0.63 233 11:47 09.11.2019
4721 Clouds -3 1016 60 0 1.2 246 11:21 09.11.2019
4722 Clouds -3 1016 60 0 1.2 246 10:56 09.11.2019
4723 Clouds -3 1016 60 0 1.2 246 10:38 09.11.2019
4724 Clouds -3 1016 60 0 1.2 246 10:18 09.11.2019
4725 Clouds -3 1016 60 0 1.2 246 09:42 09.11.2019
4726 Clouds -3 1016 60 0 1.2 246 09:20 09.11.2019
4727 Clouds -3 1016 60 0 1.2 246 08:52 09.11.2019
4728 Clear -6 1018 83 0 0.66 204 08:25 09.11.2019
4729 Clouds -5 1018 86 0 0.89 262 07:57 09.11.2019
4730 Clouds -5 1018 86 0 0.89 262 07:38 09.11.2019
4731 Clouds -5 1018 86 0 0.89 262 07:19 09.11.2019
4732 Clouds -5 1018 86 0 0.89 262 06:45 09.11.2019
4733 Clouds -5 1018 86 0 0.89 262 06:27 09.11.2019
4734 Clouds -5 1018 86 0 0.89 262 05:40 09.11.2019
4735 Snow -6 1022 94 0 1.44 264 04:30 09.11.2019
4736 Snow -6 1022 94 0 1.44 264 02:52 09.11.2019
4737 Snow -6 1022 94 0 1.44 264 02:34 09.11.2019
4738 Snow -7 1022 99 0 1.77 281 01:18 09.11.2019
4739 Snow -7 1022 99 0 1.77 281 00:41 09.11.2019
4740 Snow -7 1022 99 0 1.77 281 00:22 09.11.2019
4741 Snow -7 1022 99 0 1.77 281 23:41 08.11.2019
4742 Snow -5 1020 97 0 2.32 291 23:22 08.11.2019
4743 Snow -5 1020 97 0 2.32 291 22:59 08.11.2019
4744 Snow -5 1020 97 0 2.32 291 22:39 08.11.2019
4745 Snow -5 1020 97 0 2.32 291 22:21 08.11.2019
4746 Snow -5 1020 97 0 2.32 291 21:42 08.11.2019
4747 Snow -5 1020 97 0 2.32 291 21:23 08.11.2019
4748 Snow -5 1020 97 0 2.32 291 20:58 08.11.2019
4749 Snow -5 1020 97 0 2.32 291 20:40 08.11.2019
4750 Snow -6 1019 97 0 1.54 273 20:19 08.11.2019
4751 Snow -7 1019 97 0 1.34 258 19:55 08.11.2019
4752 Snow -7 1019 97 0 1.34 258 19:36 08.11.2019
4753 Snow -7 1019 97 0 1.34 258 19:18 08.11.2019
4754 Snow -7 1019 97 0 1.34 258 18:54 08.11.2019
4755 Snow -7 1019 97 0 1.34 258 18:36 08.11.2019
4756 Snow -7 1019 97 0 1.34 258 18:18 08.11.2019
4757 Snow -7 1019 97 0 1.34 258 18:18 08.11.2019
4758 Snow -7 1019 97 0 1.34 258 17:54 08.11.2019
4759 Snow -7 1019 97 0 1.34 258 17:36 08.11.2019
4760 Snow -7 1019 97 0 1.34 258 17:36 08.11.2019
4761 Snow -5 1019 97 0 2.5 252 17:18 08.11.2019
4762 Snow -5 1019 97 0 2.5 252 16:57 08.11.2019
4763 Snow -5 1019 97 0 2.5 252 16:57 08.11.2019
4764 Snow -5 1019 97 0 2.5 252 16:38 08.11.2019
4765 Snow -5 1019 97 0 2.5 252 16:18 08.11.2019
4766 Snow -5 1019 97 0 2.5 252 15:41 08.11.2019
4767 Snow -5 1019 97 0 2.5 252 15:23 08.11.2019
4768 Snow -5 1019 97 0 2.5 252 14:57 08.11.2019
4769 Snow -5 1019 97 0 2.5 252 14:38 08.11.2019
4770 Snow -4 1018 96 0 2.85 291 14:20 08.11.2019
4771 Snow -4 1018 96 0 2.85 291 13:59 08.11.2019
4772 Snow -4 1018 96 0 2.85 291 13:39 08.11.2019
4773 Snow -4 1018 96 0 2.85 291 13:21 08.11.2019
4774 Snow -4 1018 97 0 1.6 293 12:48 08.11.2019
4775 Snow -4 1018 97 0 1.6 293 12:29 08.11.2019
4776 Snow -4 1018 97 0 1.6 293 11:58 08.11.2019
4777 Snow -4 1018 97 0 1.6 293 11:40 08.11.2019
4778 Snow -3 1016 95 0 1.2 237 11:21 08.11.2019
4779 Snow -3 1016 95 0 1.2 237 10:58 08.11.2019
4780 Snow -3 1016 95 0 1.2 237 10:40 08.11.2019
4781 Snow -3 1016 95 0 1.2 237 10:21 08.11.2019
4782 Snow -3 1016 95 0 1.2 237 09:58 08.11.2019
4783 Snow -3 1016 95 0 1.2 237 09:37 08.11.2019
4784 Snow -3 1016 95 0 1.2 237 09:19 08.11.2019
4785 Snow -3 1016 95 0 1.2 237 08:45 08.11.2019
4786 Snow -2 1016 89 0 1.69 133 08:21 08.11.2019
4787 Snow -2 1016 89 0 1.69 133 07:45 08.11.2019
4788 Snow -2 1016 89 0 1.69 133 07:23 08.11.2019
4789 Snow -2 1016 89 0 1.69 133 06:56 08.11.2019
4790 Snow -2 1016 89 0 1.69 133 06:56 08.11.2019
4791 Snow -2 1016 89 0 1.69 133 06:37 08.11.2019
4792 Snow -2 1016 89 0 1.69 133 06:19 08.11.2019
4793 Snow -2 1016 89 0 1.69 133 05:26 08.11.2019
4794 Snow -3 1018 78 0 0.9 161 04:29 08.11.2019
4795 Snow -3 1018 78 0 0.9 161 03:42 08.11.2019
4796 Snow -3 1018 78 0 0.9 161 03:18 08.11.2019
4797 Clouds -3 1018 55 0 2.67 116 01:54 08.11.2019
4798 Clouds -3 1018 55 0 2.67 116 01:36 08.11.2019
4799 Clouds -3 1018 56 0 2.78 115 00:46 08.11.2019
4800 Clouds -3 1018 56 0 2.78 115 00:22 08.11.2019
4801 Clouds -3 1018 56 0 2.78 115 00:22 08.11.2019
4802 Clouds -3 1018 56 0 2.78 115 23:49 07.11.2019
4803 Clouds -3 1018 56 0 2.78 115 23:28 07.11.2019
4804 Clouds -3 1018 56 0 2.72 120 22:58 07.11.2019
4805 Clouds -3 1018 56 0 2.72 120 22:40 07.11.2019
4806 Clouds -3 1018 56 0 2.72 120 22:20 07.11.2019
4807 Clouds -3 1018 56 0 2.72 120 21:39 07.11.2019
4808 Clouds -3 1018 56 0 2.72 120 21:21 07.11.2019
4809 Clouds -3 1018 56 0 2.72 120 20:59 07.11.2019
4810 Clouds -3 1018 56 0 2.72 120 20:40 07.11.2019
4811 Clouds -3 1018 56 0 2.72 120 20:40 07.11.2019
4812 Clouds -2 1019 55 0 2.66 124 20:22 07.11.2019
4813 Clouds -2 1019 55 0 2.66 124 19:58 07.11.2019
4814 Clouds -2 1019 55 0 2.66 124 19:39 07.11.2019
4815 Clouds -2 1019 55 0 2.66 124 19:20 07.11.2019
4816 Clouds -2 1019 55 0 2.66 124 18:57 07.11.2019
4817 Clouds -2 1019 55 0 2.66 124 18:38 07.11.2019
4818 Clouds -2 1019 55 0 2.66 124 18:38 07.11.2019
4819 Clouds -2 1019 55 0 2.66 124 18:19 07.11.2019
4820 Clouds -2 1019 55 0 2.66 124 17:56 07.11.2019
4821 Clouds -2 1019 55 0 2.66 124 17:38 07.11.2019
4822 Clouds -2 1020 56 0 2.49 122 17:20 07.11.2019
4823 Clouds -2 1020 56 0 2.49 122 16:55 07.11.2019
4824 Clouds -2 1020 56 0 2.49 122 16:37 07.11.2019
4825 Clouds -2 1020 56 0 2.49 122 16:19 07.11.2019
4826 Clouds -2 1020 56 0 2.49 122 15:42 07.11.2019
4827 Clouds -2 1020 56 0 2.49 122 15:21 07.11.2019
4828 Clouds -2 1020 56 0 2.49 122 14:58 07.11.2019
4829 Clouds -2 1020 56 0 2.49 122 14:38 07.11.2019
4830 Clouds -2 1021 58 0 2.14 136 14:20 07.11.2019
4831 Clouds -2 1021 58 0 2.14 136 13:55 07.11.2019
4832 Clouds -2 1021 58 0 2.14 136 13:37 07.11.2019
4833 Clouds -2 1021 58 0 2.14 136 13:37 07.11.2019
4834 Clouds -2 1021 58 0 2.21 136 13:19 07.11.2019
4835 Clouds -2 1021 58 0 2.21 136 12:56 07.11.2019
4836 Clouds -2 1021 58 0 2.21 136 12:38 07.11.2019
4837 Clouds -2 1021 58 0 2.21 136 12:18 07.11.2019
4838 Clouds -2 1021 58 0 2.21 136 11:42 07.11.2019
4839 Clouds 1 1020 49 0 1.04 171 11:23 07.11.2019
4840 Clouds 1 1020 49 0 1.04 171 10:43 07.11.2019
4841 Clouds 1 1020 49 0 1.04 171 10:19 07.11.2019
4842 Clouds 1 1020 49 0 1.04 171 09:56 07.11.2019
4843 Clouds 1 1020 49 0 1.04 171 09:38 07.11.2019
4844 Clouds 1 1020 49 0 1.04 171 09:20 07.11.2019
4845 Clouds 1 1020 49 0 1.04 171 09:20 07.11.2019
4846 -273 0 0 0 0 0 08:45 07.11.2019
4847 Clouds 1 1020 49 0 1.04 171 08:45 07.11.2019
4848 -273 0 0 0 0 0 08:24 07.11.2019
4849 Clouds 1 1020 49 0 1 173 08:24 07.11.2019
4850 Clouds 3 1021 40 0 1.1 178 07:58 07.11.2019
4851 Clouds 3 1021 40 0 1.1 178 07:40 07.11.2019
4852 Clouds 3 1021 40 0 1.1 178 07:20 07.11.2019
4853 Clouds 3 1021 40 0 1.1 178 06:46 07.11.2019
4854 Clouds 3 1021 40 0 1.1 178 06:46 07.11.2019
4855 Clouds 3 1021 40 0 1.1 178 06:25 07.11.2019
4856 Clouds 3 1021 40 0 1.1 178 05:50 07.11.2019
4857 Clouds 3 1021 40 0 1.1 178 05:31 07.11.2019
4858 -273 0 0 0 0 0 04:52 07.11.2019
4859 Clear 0 1024 52 0 1.78 130 04:30 07.11.2019
4860 -273 0 0 0 0 0 01:50 07.11.2019
4861 Clouds -5 1025 75 0 1.98 130 01:49 07.11.2019
4862 Clouds -5 1025 74 0 1.96 130 00:46 07.11.2019
4863 Clouds -5 1025 74 0 1.96 130 00:18 07.11.2019
4864 Clouds -5 1025 74 0 1.96 130 23:45 06.11.2019
4865 Clouds -4 1025 74 0 1.82 131 23:20 06.11.2019
4866 Clouds -4 1025 74 0 1.82 131 22:41 06.11.2019
4867 Clouds -4 1025 74 0 1.82 131 22:22 06.11.2019
4868 Clouds -4 1025 74 0 1.82 131 21:59 06.11.2019
4869 Clouds -4 1025 74 0 1.82 131 21:41 06.11.2019
4870 Clouds -4 1025 74 0 1.82 131 21:20 06.11.2019
4871 Clouds -4 1025 74 0 1.82 131 20:58 06.11.2019
4872 Clouds -4 1025 74 0 1.82 131 20:39 06.11.2019
4873 Clouds -4 1025 74 0 1.82 131 20:39 06.11.2019
4874 Clouds -3 1024 69 0 1.95 124 20:20 06.11.2019
4875 Clouds -4 1024 67 0 1.92 121 19:58 06.11.2019
4876 Clouds -4 1024 67 0 1.92 121 19:38 06.11.2019
4877 Clouds -4 1024 67 0 1.92 121 19:19 06.11.2019
4878 Clouds -4 1024 67 0 1.92 121 18:57 06.11.2019
4879 Clouds -4 1024 67 0 1.92 121 18:38 06.11.2019
4880 Clouds -4 1024 67 0 1.92 121 18:18 06.11.2019
4881 Clouds -4 1024 67 0 1.92 121 17:54 06.11.2019
4882 Clouds -4 1024 67 0 1.92 121 17:36 06.11.2019
4883 Clouds -3 1024 64 0 2.02 134 17:18 06.11.2019
4884 Clouds -3 1024 64 0 2.02 134 16:54 06.11.2019
4885 Clouds -3 1024 64 0 2.02 134 16:36 06.11.2019
4886 Clouds -3 1024 64 0 2.02 134 16:18 06.11.2019
4887 Clouds -3 1024 64 0 2.02 134 15:54 06.11.2019
4888 Clouds -3 1024 64 0 2.02 134 15:36 06.11.2019
4889 Clouds -3 1024 64 0 2.02 134 15:18 06.11.2019
4890 Clouds -3 1024 64 0 2.02 134 14:54 06.11.2019
4891 Clouds -3 1024 64 0 2.02 134 14:36 06.11.2019
4892 Clouds -3 1024 60 0 1.57 146 14:18 06.11.2019
4893 Clouds -2 1023 60 0 1.6 144 13:38 06.11.2019
4894 Clouds -3 1024 60 0 1.57 146 13:38 06.11.2019
4895 Clouds -2 1023 60 0 1.6 144 13:20 06.11.2019
4896 Clouds -2 1023 60 0 1.6 144 12:55 06.11.2019
4897 Clouds -2 1023 60 0 1.6 144 12:37 06.11.2019
4898 Clouds -2 1023 60 0 1.6 144 12:19 06.11.2019
4899 Clouds -2 1023 60 0 1.6 144 11:57 06.11.2019
4900 Clouds -2 1023 60 0 1.6 144 11:36 06.11.2019
4901 Clouds 1 1021 49 0 0.6 169 11:18 06.11.2019
4902 Clouds 1 1021 49 0 0.6 169 10:55 06.11.2019
4903 Clouds 1 1021 49 0 0.6 169 10:37 06.11.2019
4904 Clouds 1 1021 49 0 0.6 169 10:19 06.11.2019
4905 Clouds 1 1021 49 0 0.6 169 09:42 06.11.2019
4906 Clouds 1 1021 49 0 0.6 169 09:21 06.11.2019
4907 Clouds 1 1021 49 0 0.6 169 08:56 06.11.2019
4908 Clouds 1 1021 49 0 0.6 169 08:38 06.11.2019
4909 Clouds 3 1021 40 0 0.52 135 08:19 06.11.2019
4910 Clouds 3 1021 40 0 0.52 135 07:47 06.11.2019
4911 Clouds 3 1021 40 0 0.52 135 07:29 06.11.2019
4912 Clouds 3 1021 40 0 0.52 135 06:59 06.11.2019
4913 Clouds 3 1021 40 0 0.52 135 06:38 06.11.2019
4914 Clouds 3 1021 40 0 0.52 135 06:20 06.11.2019
4915 Clouds 0 1024 48 0 1.6 98 03:52 06.11.2019
4916 Clouds -4 1024 67 0 1.49 84 02:18 06.11.2019
4917 Clouds -4 1024 66 0 1.45 86 00:51 06.11.2019
4918 Clouds -4 1024 66 0 1.45 86 00:26 06.11.2019
4919 Clouds -4 1024 66 0 1.45 86 23:56 05.11.2019
4920 Clouds -4 1024 66 0 1.45 86 23:37 05.11.2019
4921 Clouds -4 1024 66 0 1.45 86 23:37 05.11.2019
4922 Clouds -4 1024 69 0 1.16 82 23:18 05.11.2019
4923 Clouds -4 1024 69 0 1.16 82 23:18 05.11.2019
4924 Clouds -4 1024 69 0 1.16 82 23:18 05.11.2019
4925 Clouds -4 1024 69 0 1.16 82 22:41 05.11.2019
4926 Clouds -4 1024 69 0 1.16 82 22:19 05.11.2019
4927 Clouds -4 1024 69 0 1.16 82 21:57 05.11.2019
4928 Clouds -4 1024 69 0 1.16 82 21:39 05.11.2019
4929 Clouds -4 1024 69 0 1.16 82 21:19 05.11.2019
4930 Clouds -4 1024 69 0 1.16 82 20:56 05.11.2019
4931 Clouds -4 1024 69 0 1.16 82 20:38 05.11.2019
4932 Clouds -4 1024 67 0 1.13 97 20:19 05.11.2019
4933 Clouds -4 1024 67 0 1.32 95 19:42 05.11.2019
4934 -273 0 0 0 0 0 19:23 05.11.2019
4935 Clouds -4 1024 67 0 1.32 95 18:59 05.11.2019
4936 Clouds -4 1024 67 0 1.32 95 18:40 05.11.2019
4937 Clouds -4 1024 67 0 1.32 95 18:22 05.11.2019
4938 Clouds -4 1024 67 0 1.32 95 17:59 05.11.2019
4939 Clouds -4 1024 67 0 1.32 95 17:39 05.11.2019
4940 Clouds -3 1023 67 0 0.7 35 17:21 05.11.2019
4941 Clouds -3 1023 67 0 0.7 35 16:58 05.11.2019
4942 Clouds -3 1023 67 0 0.7 35 16:40 05.11.2019
4943 Clouds -3 1023 67 0 0.7 35 16:20 05.11.2019
4944 Clouds -3 1023 67 0 0.7 35 15:41 05.11.2019
4945 Clouds -3 1023 67 0 0.7 35 15:20 05.11.2019
4946 Clouds -3 1023 67 0 0.7 35 14:59 05.11.2019
4947 Clouds -3 1023 67 0 0.7 35 14:41 05.11.2019
4948 Clouds -3 1021 64 0 0.59 345 14:22 05.11.2019
4949 Clouds -3 1021 64 0 0.59 345 13:58 05.11.2019
4950 Clouds -3 1021 64 0 0.59 345 13:40 05.11.2019
4951 Clouds -3 1021 64 0 0.59 345 13:22 05.11.2019
4952 Clouds -3 1020 66 0 0.51 339 12:40 05.11.2019
4953 Clouds -3 1020 66 0 0.51 339 12:21 05.11.2019
4954 Clouds -3 1020 66 0 0.51 339 11:57 05.11.2019
4955 Clouds -3 1020 66 0 0.51 339 11:38 05.11.2019
4956 Clouds 2 1018 50 0 1.38 300 11:19 05.11.2019
4957 Clouds 2 1018 50 0 1.38 300 10:48 05.11.2019
4958 Clouds 2 1018 50 0 1.38 300 10:27 05.11.2019
4959 Clouds 2 1018 50 0 1.38 300 10:27 05.11.2019
4960 Clouds 2 1018 50 0 1.38 300 09:59 05.11.2019
4961 Clouds 2 1018 50 0 1.38 300 09:41 05.11.2019
4962 Clouds 2 1018 50 0 1.38 300 09:21 05.11.2019
4963 Clouds 2 1018 50 0 1.38 300 08:57 05.11.2019
4964 Clouds 2 1018 50 0 1.38 300 08:37 05.11.2019
4965 Clouds 3 1018 41 0 1.47 289 08:19 05.11.2019
4966 Clouds 3 1018 41 0 1.57 291 07:45 05.11.2019
4967 Clouds 3 1018 41 0 1.57 291 07:26 05.11.2019
4968 Clouds 3 1018 41 0 1.57 291 06:52 05.11.2019
4969 Clouds 3 1018 41 0 1.57 291 06:33 05.11.2019
4970 Clouds 3 1018 41 0 1.57 291 05:49 05.11.2019
4971 Clear 1 1021 50 0 1.4 138 05:21 05.11.2019
4972 Clear 1 1021 50 0 1.4 138 04:22 05.11.2019
4973 Clear 1 1021 50 0 1.4 138 03:32 05.11.2019
4974 Clear 1 1021 50 0 1.4 138 02:43 05.11.2019
4975 Clouds -3 1022 69 0 2.38 137 01:56 05.11.2019
4976 Clouds -3 1022 69 0 2.39 136 00:48 05.11.2019
4977 Clouds -3 1022 69 0 2.39 136 00:27 05.11.2019
4978 Clouds -3 1022 69 0 2.39 136 23:43 04.11.2019
4979 Clouds -2 1022 67 0 2.85 137 23:19 04.11.2019
4980 Clouds -2 1022 67 0 2.85 137 22:57 04.11.2019
4981 Clouds -2 1022 67 0 2.85 137 22:39 04.11.2019
4982 Clouds -2 1022 67 0 2.85 137 22:20 04.11.2019
4983 Clouds -2 1022 67 0 2.85 137 22:20 04.11.2019
4984 Clouds -2 1022 67 0 2.85 137 21:55 04.11.2019
4985 Clouds -2 1022 67 0 2.85 137 21:37 04.11.2019
4986 Clouds -2 1022 67 0 2.85 137 21:18 04.11.2019
4987 Clouds -2 1022 67 0 2.85 137 20:55 04.11.2019
4988 Clouds -2 1022 67 0 2.85 137 20:37 04.11.2019
4989 Clouds -1 1023 60 0 3.62 137 20:19 04.11.2019
4990 Clouds -1 1023 60 0 3.62 137 19:56 04.11.2019
4991 Clouds -1 1023 60 0 3.62 137 19:38 04.11.2019
4992 Clouds -1 1023 60 0 3.62 137 19:20 04.11.2019
4993 Clouds -1 1023 60 0 3.62 137 18:42 04.11.2019
4994 Clouds -1 1023 60 0 3.62 137 18:23 04.11.2019
4995 Clouds -1 1023 60 0 3.62 137 17:59 04.11.2019
4996 Clouds -1 1023 60 0 3.62 137 17:37 04.11.2019
4997 Clouds -1 1023 56 0 3.55 148 17:19 04.11.2019
4998 Clouds -1 1023 56 0 3.55 148 16:55 04.11.2019
4999 Clouds -1 1023 56 0 3.55 148 16:36 04.11.2019
5000 Clouds -1 1023 56 0 3.55 148 16:18 04.11.2019
5001 Clouds -1 1023 56 0 3.55 148 15:41 04.11.2019
5002 Clouds -1 1023 56 0 3.55 148 15:21 04.11.2019
5003 Clouds -1 1023 56 0 3.55 148 14:58 04.11.2019
5004 Clouds -1 1023 56 0 3.55 148 14:58 04.11.2019
5005 Clouds -1 1023 56 0 3.55 148 14:40 04.11.2019
5006 Clouds -1 1023 52 0 3.65 148 14:20 04.11.2019
5007 Clouds -1 1023 52 0 3.65 148 13:58 04.11.2019
5008 Clouds -1 1023 52 0 3.65 148 13:40 04.11.2019
5009 Clouds -1 1023 55 0 3.72 148 13:21 04.11.2019
5010 Clouds -1 1023 55 0 3.72 148 12:56 04.11.2019
5011 Clouds -1 1023 55 0 3.72 148 12:38 04.11.2019
5012 Clouds -1 1023 55 0 3.72 148 12:18 04.11.2019
5013 Clouds -1 1023 55 0 3.72 148 11:42 04.11.2019
5014 Clouds 2 1022 47 0 2.69 155 11:23 04.11.2019
5015 Clouds 2 1022 47 0 2.69 155 10:59 04.11.2019
5016 Clouds 2 1022 47 0 2.69 155 10:41 04.11.2019
5017 Clouds 2 1022 47 0 2.69 155 10:23 04.11.2019
5018 Clouds 2 1022 47 0 2.69 155 09:45 04.11.2019
5019 Clouds 2 1022 47 0 2.69 155 09:27 04.11.2019
5020 Clouds 2 1022 47 0 2.69 155 08:57 04.11.2019
5021 Clouds 2 1022 47 0 2.69 155 08:37 04.11.2019
5022 Clouds 4 1024 39 0 2.61 143 08:18 04.11.2019
5023 Clouds 4 1024 39 0 2.61 143 07:43 04.11.2019
5024 Clouds 4 1024 39 0 2.61 143 07:21 04.11.2019
5025 Clouds 4 1024 39 0 2.61 143 06:56 04.11.2019
5026 Clouds 4 1024 39 0 2.61 143 06:18 04.11.2019
5027 Clouds 4 1024 39 0 2.61 143 05:42 04.11.2019
5028 Clouds 1 1028 48 0 2.62 116 04:43 04.11.2019
5029 Clouds 1 1028 48 0 2.62 116 04:21 04.11.2019
5030 Clouds 1 1028 48 0 2.62 116 02:25 04.11.2019
5031 Clouds -4 1029 68 0 2.19 126 01:21 04.11.2019
5032 Clouds -4 1029 68 0 2.19 126 00:40 04.11.2019
5033 Clouds -4 1029 68 0 2.19 126 00:20 04.11.2019
5034 Clouds -4 1029 68 0 2.19 126 23:41 03.11.2019
5035 Clouds -3 1029 62 0 1.62 91 23:21 03.11.2019
5036 Clouds -3 1029 62 0 1.62 91 23:21 03.11.2019
5037 Clouds -3 1029 62 0 1.62 91 22:57 03.11.2019
5038 Clouds -3 1029 62 0 1.62 91 22:39 03.11.2019
5039 Clouds -3 1029 62 0 1.62 91 22:20 03.11.2019
5040 Clouds -3 1029 62 0 1.62 91 21:56 03.11.2019
5041 Clouds -3 1029 62 0 1.62 91 21:38 03.11.2019
5042 Clouds -3 1029 62 0 1.62 91 21:19 03.11.2019
5043 Clouds -3 1029 62 0 1.62 91 20:54 03.11.2019
5044 Clouds -3 1029 62 0 1.62 91 20:36 03.11.2019
5045 Clouds -3 1030 60 0 1.11 75 20:18 03.11.2019
5046 Clouds -3 1030 60 0 1.11 75 19:54 03.11.2019
5047 Clouds -3 1030 60 0 1.11 75 19:36 03.11.2019
5048 Clouds -3 1030 60 0 1.11 75 19:18 03.11.2019
5049 Clouds -3 1030 60 0 1.11 75 18:38 03.11.2019
5050 Clouds -3 1030 60 0 1.11 75 18:18 03.11.2019
5051 Clouds -3 1030 60 0 1.11 75 18:18 03.11.2019
5052 Clouds -3 1030 60 0 1.11 75 17:57 03.11.2019
5053 Clouds -3 1030 60 0 1.11 75 17:39 03.11.2019
5054 Clouds -2 1028 59 0 0.2 284 17:18 03.11.2019
5055 Clouds -2 1028 59 0 0.2 284 16:54 03.11.2019
5056 Clouds -2 1028 59 0 0.2 284 16:36 03.11.2019
5057 Clouds -2 1028 59 0 0.2 284 16:18 03.11.2019
5058 Clouds -2 1028 59 0 0.2 284 15:45 03.11.2019
5059 Clouds -2 1028 59 0 0.2 284 15:25 03.11.2019
5060 Clouds -2 1028 59 0 0.2 284 14:57 03.11.2019
5061 Clouds -2 1028 59 0 0.2 284 14:38 03.11.2019
5062 Clouds -1 1025 53 0 1.21 273 14:18 03.11.2019
5063 Clouds -1 1025 53 0 1.21 273 13:54 03.11.2019
5064 Clouds -1 1025 53 0 1.21 273 13:36 03.11.2019
5065 Clouds -2 1025 54 0 0.78 269 13:18 03.11.2019
5066 Clouds -2 1025 54 0 0.78 269 12:37 03.11.2019
5067 Clouds -2 1025 54 0 0.78 269 12:19 03.11.2019
5068 Clouds -2 1025 54 0 0.78 269 11:54 03.11.2019
5069 Clouds -2 1025 54 0 0.78 269 11:36 03.11.2019
5070 Clouds 3 1021 42 0 1.3 252 11:18 03.11.2019
5071 Clouds 3 1021 42 0 1.3 252 10:40 03.11.2019
5072 Clouds 3 1021 42 0 1.3 252 10:22 03.11.2019
5073 Clouds 3 1021 42 0 1.3 252 09:57 03.11.2019
5074 Clouds 3 1021 42 0 1.3 252 09:39 03.11.2019
5075 Clouds 3 1021 42 0 1.3 252 09:21 03.11.2019
5076 Clouds 3 1021 42 0 1.3 252 08:41 03.11.2019
5077 Clouds 6 1020 32 0 2.15 169 08:22 03.11.2019
5078 Clouds 6 1020 32 0 2.15 169 07:46 03.11.2019
5079 Clouds 6 1020 32 0 2.15 169 07:25 03.11.2019
5080 Clouds 6 1020 32 0 2.15 169 06:50 03.11.2019
5081 Clouds 6 1020 32 0 2.15 169 06:31 03.11.2019
5082 Clouds 6 1020 32 0 2.15 169 05:39 03.11.2019
5083 Clouds 3 1022 38 0 2.56 145 04:58 03.11.2019
5084 Clouds 3 1022 38 0 2.56 145 04:36 03.11.2019
5085 Clouds 3 1022 38 0 2.56 145 03:31 03.11.2019
5086 Clouds 3 1022 38 0 2.56 145 02:42 03.11.2019
5087 Clouds -2 1022 49 0 2.87 131 02:19 03.11.2019
5088 Clouds -2 1022 49 0 2.87 131 01:38 03.11.2019
5089 Clouds -2 1022 49 0 2.87 131 01:20 03.11.2019
5090 Clouds -2 1022 49 0 2.9 130 00:43 03.11.2019
5091 Clouds -2 1022 49 0 2.9 130 00:25 03.11.2019
5092 Clouds -2 1022 49 0 2.9 130 23:57 02.11.2019
5093 Clouds -2 1022 49 0 2.9 130 23:38 02.11.2019
5094 Clouds -1 1021 50 0 2.8 128 23:19 02.11.2019
5095 Clouds -1 1021 50 0 2.8 128 22:55 02.11.2019
5096 Clouds -1 1021 50 0 2.8 128 22:37 02.11.2019
5097 Clouds -1 1021 50 0 2.8 128 22:37 02.11.2019
5098 Clouds -1 1021 50 0 2.8 128 22:18 02.11.2019
5099 Clouds -1 1021 50 0 2.8 128 21:56 02.11.2019
5100 Clouds -1 1021 50 0 2.8 128 21:37 02.11.2019
5101 Clouds -1 1021 50 0 2.8 128 21:37 02.11.2019
5102 Clouds -1 1021 50 0 2.8 128 21:18 02.11.2019
5103 Clouds -1 1021 50 0 2.8 128 20:58 02.11.2019
5104 Clouds -1 1021 50 0 2.8 128 20:39 02.11.2019
5105 Clouds -1 1021 50 0 2.8 128 20:39 02.11.2019
5106 Clouds -1 1021 52 0 2.68 127 20:19 02.11.2019
5107 Clouds -1 1021 52 0 2.68 127 19:41 02.11.2019
5108 Clouds -1 1021 52 0 2.68 127 19:23 02.11.2019
5109 Clouds -1 1021 52 0 2.68 127 18:56 02.11.2019
5110 Clouds -1 1021 52 0 2.68 127 18:38 02.11.2019
5111 Clouds -1 1021 52 0 2.68 127 18:20 02.11.2019
5112 Clouds -1 1021 52 0 2.68 127 17:57 02.11.2019
5113 Clouds -1 1021 52 0 2.68 127 17:38 02.11.2019
5114 Clear -1 1022 51 0 2.42 135 17:20 02.11.2019
5115 Clear -1 1022 51 0 2.42 135 16:57 02.11.2019
5116 Clear -1 1022 51 0 2.42 135 16:36 02.11.2019
5117 Clear -1 1022 51 0 2.42 135 16:18 02.11.2019
5118 Clear -1 1022 51 0 2.42 135 16:18 02.11.2019
5119 Clear -1 1022 51 0 2.42 135 15:41 02.11.2019
5120 Clear -1 1022 51 0 2.42 135 15:19 02.11.2019
5121 Clear -1 1022 51 0 2.42 135 14:43 02.11.2019
5122 Clear 0 1021 52 0 2.18 131 14:23 02.11.2019
5123 Clear 0 1021 52 0 2.18 131 13:57 02.11.2019
5124 Clear 0 1021 52 0 2.18 131 13:38 02.11.2019
5125 Clear 0 1020 53 0 2.24 131 13:19 02.11.2019
5126 Clear 0 1020 53 0 2.24 131 12:41 02.11.2019
5127 Clear 0 1020 53 0 2.24 131 12:22 02.11.2019
5128 Clear 0 1020 53 0 2.24 131 12:22 02.11.2019
5129 Clear 0 1020 53 0 2.24 131 11:57 02.11.2019
5130 Clear 0 1020 53 0 2.24 131 11:39 02.11.2019
5131 Clear 4 1019 49 0 1.18 148 11:20 02.11.2019
5132 Clear 4 1019 49 0 1.18 148 10:48 02.11.2019
5133 Clear 4 1019 49 0 1.18 148 10:27 02.11.2019
5134 Clear 4 1019 49 0 1.18 148 09:57 02.11.2019
5135 Clear 4 1019 49 0 1.18 148 09:39 02.11.2019
5136 Clear 4 1019 49 0 1.18 148 09:19 02.11.2019
5137 Clear 4 1019 49 0 1.18 148 09:19 02.11.2019
5138 Clear 4 1019 49 0 1.18 148 08:45 02.11.2019
5139 Clear 4 1019 49 0 1.18 148 08:45 02.11.2019
5140 Clear 7 1018 36 0 0.95 141 08:22 02.11.2019
5141 Clear 7 1018 36 0 0.95 141 07:48 02.11.2019
5142 Clear 7 1018 36 0 0.95 141 07:28 02.11.2019
5143 Clear 7 1018 36 0 0.95 141 06:55 02.11.2019
5144 Clear 7 1018 36 0 0.95 141 06:30 02.11.2019
5145 Clear 7 1018 36 0 0.95 141 05:56 02.11.2019
5146 Clear 3 1020 40 0 1.99 117 05:20 02.11.2019
5147 Clear 3 1020 40 0 1.99 117 04:21 02.11.2019
5148 Clear 3 1020 40 0 1.99 117 04:21 02.11.2019
5149 Clear 3 1020 40 0 1.99 117 03:47 02.11.2019
5150 Clear 3 1020 40 0 1.99 117 02:40 02.11.2019
5151 Clear -3 1020 53 0 1.79 114 01:43 02.11.2019
5152 Clear -3 1020 53 0 1.8 112 01:21 02.11.2019
5153 Clear -3 1020 53 0 1.8 112 00:48 02.11.2019
5154 Clear -3 1020 53 0 1.8 112 00:26 02.11.2019
5155 Clear -3 1020 53 0 1.8 112 23:46 01.11.2019
5156 Clear -3 1019 53 0 1.49 115 23:22 01.11.2019
5157 Clear -3 1019 53 0 1.49 115 22:57 01.11.2019
5158 Clear -3 1019 53 0 1.49 115 22:39 01.11.2019
5159 Clear -3 1019 53 0 1.49 115 22:20 01.11.2019
5160 Clear -3 1019 53 0 1.49 115 21:41 01.11.2019
5161 Clear -3 1019 53 0 1.49 115 21:23 01.11.2019
5162 Clear -3 1019 53 0 1.49 115 20:56 01.11.2019
5163 Clear -3 1019 53 0 1.49 115 20:38 01.11.2019
5164 Clear -3 1021 54 0 1.12 110 20:19 01.11.2019
5165 Clear -3 1021 54 0 1.12 110 19:55 01.11.2019
5166 Clear -3 1021 54 0 1.12 110 19:36 01.11.2019
5167 Clear -3 1021 54 0 1.12 110 19:18 01.11.2019
5168 Clear -3 1021 54 0 1.12 110 18:39 01.11.2019
5169 Clear -3 1021 54 0 1.12 110 18:20 01.11.2019
5170 -273 0 0 0 0 0 17:55 01.11.2019
5171 Clear -3 1021 54 0 1.12 110 17:36 01.11.2019
5172 Clear -3 1020 56 0 0.77 142 17:18 01.11.2019
5173 Clear -3 1020 56 0 0.77 142 16:37 01.11.2019
5174 Clear -3 1020 56 0 0.77 142 16:18 01.11.2019
5175 Clear -3 1020 56 0 0.77 142 15:41 01.11.2019
5176 Clear -3 1020 56 0 0.77 142 15:22 01.11.2019
5177 Clear -3 1020 56 0 0.77 142 14:58 01.11.2019
5178 Clear -3 1020 56 0 0.77 142 14:40 01.11.2019
5179 Clear -2 1020 57 0 0.02 54 14:21 01.11.2019
5180 Clear -2 1020 57 0 0.02 54 13:56 01.11.2019
5181 Clear -2 1020 57 0 0.02 54 13:37 01.11.2019
5182 Clear -2 1019 64 0 0.23 145 13:18 01.11.2019
5183 Clear -2 1019 64 0 0.23 145 12:43 01.11.2019
5184 Clear -2 1019 64 0 0.23 145 12:24 01.11.2019
5185 Clear -2 1019 64 0 0.23 145 11:43 01.11.2019
5186 Clear -2 1019 64 0 0.23 145 11:43 01.11.2019
5187 Clear -2 1019 64 0 0.23 145 11:25 01.11.2019
5188 Clear 3 1017 46 0 0.86 289 10:58 01.11.2019
5189 Clear 3 1017 46 0 0.86 289 10:39 01.11.2019
5190 Clear 3 1017 46 0 0.86 289 10:20 01.11.2019
5191 Clear 3 1017 46 0 0.86 289 09:45 01.11.2019
5192 Clear 3 1017 46 0 0.86 289 09:26 01.11.2019
5193 Clear 3 1017 46 0 0.86 289 08:58 01.11.2019
5194 Clear 3 1017 46 0 0.86 289 08:40 01.11.2019
5195 Clear 5 1018 33 0 0.84 230 08:21 01.11.2019
5196 Clear 5 1018 33 0 0.84 230 07:53 01.11.2019
5197 Clear 5 1018 33 0 0.84 230 07:25 01.11.2019
5198 Clear 5 1018 33 0 0.84 230 06:56 01.11.2019
5199 Clear 5 1018 33 0 0.84 230 06:37 01.11.2019
5200 Clear 5 1018 33 0 0.84 230 06:18 01.11.2019
5201 Clear 5 1018 33 0 0.84 230 06:18 01.11.2019
5202 Clear 5 1018 33 0 0.84 230 05:41 01.11.2019
5203 Clouds 2 1020 41 0 1.84 128 03:33 01.11.2019
5204 Clear -4 1020 59 0 1.97 123 01:51 01.11.2019
5205 Clear -4 1020 59 0 1.97 123 01:26 01.11.2019
5206 Clear -4 1020 59 0 1.93 124 00:21 01.11.2019
5207 Clear -4 1020 59 0 1.93 124 23:55 31.10.2019
5208 Clear -4 1020 59 0 1.93 124 23:36 31.10.2019
5209 Clear -3 1019 58 0 1.92 128 23:18 31.10.2019
5210 Clear -3 1019 58 0 1.92 128 22:42 31.10.2019
5211 Clear -3 1019 58 0 1.92 128 22:23 31.10.2019
5212 Clear -3 1019 58 0 1.92 128 21:56 31.10.2019
5213 Clear -3 1019 58 0 1.92 128 21:38 31.10.2019
5214 Clear -3 1019 58 0 1.92 128 21:18 31.10.2019
5215 Clear -3 1019 58 0 1.92 128 21:18 31.10.2019
5216 Clear -3 1019 58 0 1.92 128 20:41 31.10.2019
5217 Clear -3 1019 58 0 1.92 128 20:41 31.10.2019
5218 Clear -3 1019 58 0 1.92 128 20:41 31.10.2019
5219 Clear -2 1020 53 0 2.02 133 20:22 31.10.2019
5220 Clear -2 1020 53 0 2.02 133 19:58 31.10.2019
5221 Clear -2 1020 53 0 2.02 133 19:38 31.10.2019
5222 Clear -2 1020 53 0 2.02 133 19:19 31.10.2019
5223 Clear -2 1020 53 0 2.02 133 18:44 31.10.2019
5224 Clear -2 1020 53 0 2.02 133 18:25 31.10.2019
5225 Clear -2 1020 53 0 2.02 133 17:58 31.10.2019
5226 Clear -2 1020 53 0 2.02 133 17:40 31.10.2019
5227 Clear -2 1020 53 0 1.9 136 17:20 31.10.2019
5228 Clear -2 1020 53 0 1.9 136 16:54 31.10.2019
5229 Clear -2 1020 53 0 1.9 136 16:36 31.10.2019
5230 Clear -2 1020 53 0 1.9 136 16:18 31.10.2019
5231 Clear -2 1020 53 0 1.9 136 15:40 31.10.2019
5232 Clear -2 1020 53 0 1.9 136 15:21 31.10.2019
5233 Clear -2 1020 53 0 1.9 136 14:58 31.10.2019
5234 Clear -2 1020 53 0 1.9 136 14:40 31.10.2019
5235 Clear -2 1019 55 0 1.51 155 14:22 31.10.2019
5236 Clear -2 1019 55 0 1.51 155 14:21 31.10.2019
5237 Clear -2 1019 55 0 1.51 155 13:59 31.10.2019
5238 Clear -2 1019 55 0 1.51 155 13:59 31.10.2019
5239 Clear -2 1019 55 0 1.51 155 13:38 31.10.2019
5240 Clear -2 1019 57 0 1.33 155 13:19 31.10.2019
5241 Clear -2 1019 57 0 1.33 155 12:55 31.10.2019
5242 Clear -2 1019 57 0 1.33 155 12:37 31.10.2019
5243 Clear -2 1019 57 0 1.33 155 12:18 31.10.2019
5244 Clear -2 1019 57 0 1.33 155 11:45 31.10.2019
5245 Clear 4 1016 45 0 1.12 191 11:20 31.10.2019
5246 Clear 4 1016 45 0 1.12 191 10:57 31.10.2019
5247 Clear 4 1016 45 0 1.12 191 10:57 31.10.2019
5248 Clear 4 1016 45 0 1.12 191 10:38 31.10.2019
5249 Clear 4 1016 45 0 1.12 191 10:20 31.10.2019
5250 Clear 4 1016 45 0 1.12 191 09:44 31.10.2019
5251 Clear 4 1016 45 0 1.12 191 09:20 31.10.2019
5252 Clear 4 1016 45 0 1.12 191 08:57 31.10.2019
5253 Clear 4 1016 45 0 1.12 191 08:39 31.10.2019
5254 Clear 7 1016 33 0 2.24 159 08:20 31.10.2019
5255 Clear 7 1016 33 0 2.24 159 07:43 31.10.2019
5256 Clear 7 1016 33 0 2.24 159 07:24 31.10.2019
5257 Clear 7 1016 33 0 2.24 159 06:39 31.10.2019
5258 Clear 7 1016 33 0 2.24 159 06:20 31.10.2019
5259 Clear 3 1017 45 0 2.93 127 05:18 31.10.2019
5260 Clear 3 1017 45 0 2.93 127 05:18 31.10.2019
5261 Clear 3 1017 45 0 2.93 127 02:47 31.10.2019
5262 Clear -1 1018 57 0 3.47 124 02:22 31.10.2019
5263 Clear -1 1018 57 0 3.47 124 02:22 31.10.2019
5264 Clear -1 1018 56 0 3.45 123 00:47 31.10.2019
5265 Clear -1 1018 56 0 3.45 123 00:24 31.10.2019
5266 Clear -1 1018 56 0 3.45 123 23:34 30.10.2019
5267 Clear -1 1017 52 0 3.3 118 22:59 30.10.2019
5268 Clear -1 1017 52 0 3.3 118 22:39 30.10.2019
5269 Clear -1 1017 52 0 3.3 118 22:19 30.10.2019
5270 Clear -1 1017 52 0 3.3 118 21:54 30.10.2019
5271 Clear -1 1017 52 0 3.3 118 21:36 30.10.2019
5272 Clear -1 1017 52 0 3.3 118 21:18 30.10.2019
5273 Clear -1 1017 52 0 3.3 118 20:56 30.10.2019
5274 Clear -1 1017 52 0 3.3 118 20:56 30.10.2019
5275 Clear -1 1017 52 0 3.3 118 20:36 30.10.2019
5276 Clear -1 1017 53 0 3.6 122 20:36 30.10.2019
5277 Clear -1 1018 53 0 3.15 116 20:18 30.10.2019
5278 Clear -1 1018 53 0 3.15 116 20:18 30.10.2019
5279 Clear -1 1018 53 0 3.15 116 19:40 30.10.2019
5280 Clear -1 1018 53 0 3.15 116 19:40 30.10.2019
5281 Clear -1 1018 53 0 3.15 116 19:22 30.10.2019
5282 -273 0 0 0 0 0 18:59 30.10.2019
5283 Clear -1 1018 53 0 3.15 116 18:38 30.10.2019
5284 Clear -1 1018 53 0 3.15 116 18:18 30.10.2019
5285 Clear -1 1018 53 0 3.15 116 17:55 30.10.2019
5286 Clear -1 1018 53 0 3.15 116 17:36 30.10.2019
5287 Clear 0 1018 54 0 2.72 117 17:18 30.10.2019
5288 Clear 0 1018 54 0 2.72 117 16:42 30.10.2019
5289 Clear 0 1018 54 0 2.72 117 16:23 30.10.2019
5290 Clear 0 1018 54 0 2.72 117 15:57 30.10.2019
5291 Clear 0 1018 54 0 2.72 117 15:38 30.10.2019
5292 Clear 0 1018 54 0 2.72 117 15:19 30.10.2019
5293 Clear 0 1018 54 0 2.72 117 14:56 30.10.2019
5294 Clear 0 1018 54 0 2.72 117 14:38 30.10.2019
5295 Clear -1 1019 59 0 1.83 125 14:20 30.10.2019
5296 Clear -1 1019 59 0 1.83 125 13:54 30.10.2019
5297 Clear -1 1019 59 0 1.83 125 13:36 30.10.2019
5298 Clear -1 1019 59 0 2.09 126 13:18 30.10.2019
5299 Clear -1 1019 59 0 2.09 126 12:42 30.10.2019
5300 Clear -1 1019 59 0 2.09 126 12:23 30.10.2019
5301 Clear -1 1019 59 0 2.09 126 11:54 30.10.2019
5302 Clear -1 1019 59 0 2.09 126 11:36 30.10.2019
5303 Clear -1 1019 59 0 2.09 126 11:36 30.10.2019
5304 Clear 3 1017 47 0 0.25 181 11:18 30.10.2019
5305 Clear 3 1017 47 0 0.25 181 10:41 30.10.2019
5306 Clear 3 1017 47 0 0.25 181 10:23 30.10.2019
5307 Clear 3 1017 47 0 0.25 181 09:42 30.10.2019
5308 Clear 3 1017 47 0 0.25 181 09:22 30.10.2019
5309 Clear 3 1017 47 0 0.25 181 08:57 30.10.2019
5310 Clear 3 1017 47 0 0.25 181 08:39 30.10.2019
5311 Clear 6 1019 33 0 0.62 289 08:19 30.10.2019
5312 Clear 6 1019 33 0 0.62 289 07:43 30.10.2019
5313 Clear 6 1019 33 0 0.62 289 06:59 30.10.2019
5314 Clear 6 1019 33 0 0.62 289 06:41 30.10.2019
5315 Clear 6 1019 33 0 0.62 289 05:58 30.10.2019
5316 Clear 6 1019 33 0 0.62 289 05:40 30.10.2019
5317 Clear 3 1020 39 0 1.56 138 04:26 30.10.2019
5318 Clear 3 1020 39 0 1.56 138 04:26 30.10.2019
5319 Clear 3 1020 39 0 1.56 138 03:39 30.10.2019
5320 Clear 3 1020 39 0 1.56 138 02:49 30.10.2019
5321 Clear -4 1021 68 0 1.37 146 01:49 30.10.2019
5322 Clear -5 1021 67 0 1.36 143 00:43 30.10.2019
5323 Clear -5 1021 67 0 1.36 143 00:25 30.10.2019
5324 Clear -5 1021 67 0 1.36 143 23:41 29.10.2019
5325 Clear -5 1020 57 0 0.92 166 23:22 29.10.2019
5326 Clear -5 1020 57 0 0.92 166 22:45 29.10.2019
5327 Clear -5 1020 57 0 0.92 166 22:20 29.10.2019
5328 Clear -5 1020 57 0 0.92 166 21:56 29.10.2019
5329 Clear -5 1020 57 0 0.92 166 21:38 29.10.2019
5330 Clear -5 1020 57 0 0.92 166 21:20 29.10.2019
5331 Clear -5 1020 57 0 0.92 166 20:42 29.10.2019
5332 Clear -4 1021 45 0 0.73 147 20:23 29.10.2019
5333 Clear -4 1021 45 0 0.73 147 19:59 29.10.2019
5334 Clear -4 1021 45 0 0.73 147 19:41 29.10.2019
5335 Clear -4 1021 45 0 0.73 147 19:22 29.10.2019
5336 Clear -4 1021 45 0 0.73 147 18:59 29.10.2019
5337 Clear -4 1021 45 0 0.73 147 18:40 29.10.2019
5338 Clear -4 1021 45 0 0.73 147 18:21 29.10.2019
5339 Clear -4 1021 45 0 0.73 147 17:59 29.10.2019
5340 Clear -4 1021 45 0 0.73 147 17:40 29.10.2019
5341 Clear -3 1021 43 0 1.41 151 17:21 29.10.2019
5342 Clear -3 1021 43 0 1.41 151 16:58 29.10.2019
5343 Clear -3 1021 43 0 1.41 151 16:38 29.10.2019
5344 Clear -3 1021 43 0 1.41 151 16:18 29.10.2019
5345 Clear -3 1021 43 0 1.41 151 15:42 29.10.2019
5346 Clear -3 1021 43 0 1.41 151 15:22 29.10.2019
5347 Clear -3 1021 43 0 1.41 151 14:59 29.10.2019
5348 Clear -3 1021 43 0 1.41 151 14:41 29.10.2019
5349 Clear -3 1020 51 0 1.02 190 14:23 29.10.2019
5350 Clear -3 1020 51 0 1.02 190 13:57 29.10.2019
5351 Clear -3 1020 51 0 1.02 190 13:39 29.10.2019
5352 Clouds -3 1020 50 0 1.28 182 13:21 29.10.2019
5353 Clouds -3 1020 50 0 1.28 182 12:43 29.10.2019
5354 Clouds -3 1020 50 0 1.28 182 12:25 29.10.2019
5355 Clouds -3 1020 50 0 1.28 182 11:55 29.10.2019
5356 Clouds -3 1020 50 0 1.28 182 11:37 29.10.2019
5357 Clouds 2 1017 41 0 1.35 226 11:18 29.10.2019
5358 Clouds 2 1017 41 0 1.35 226 10:56 29.10.2019
5359 Clouds 2 1017 41 0 1.35 226 10:38 29.10.2019
5360 Clouds 2 1017 41 0 1.35 226 10:19 29.10.2019
5361 Clouds 2 1017 41 0 1.35 226 09:42 29.10.2019
5362 Clouds 2 1017 41 0 1.35 226 09:23 29.10.2019
5363 Clouds 2 1017 41 0 1.35 226 08:57 29.10.2019
5364 Clouds 2 1017 41 0 1.35 226 08:39 29.10.2019
5365 Clear 2 1017 34 0 1.83 277 08:20 29.10.2019
5366 Clear 2 1017 34 0 1.83 277 07:48 29.10.2019
5367 Clear 2 1017 34 0 1.83 277 07:20 29.10.2019
5368 Clear 2 1017 34 0 1.83 277 06:53 29.10.2019
5369 Clear 2 1017 34 0 1.83 277 06:29 29.10.2019
5370 Clear 2 1017 34 0 1.83 277 05:54 29.10.2019
5371 Clear 2 1017 34 0 1.83 277 05:36 29.10.2019
5372 Clear 0 1019 41 0 1.2 221 04:39 29.10.2019
5373 Clear 0 1019 41 0 1.2 221 02:34 29.10.2019
5374 Clear -6 1018 71 0 1.16 253 01:56 29.10.2019
5375 Clear -6 1018 77 0 1.07 230 01:34 29.10.2019
5376 Clear -6 1018 77 0 1.07 230 00:52 29.10.2019
5377 Clear -6 1018 77 0 1.07 230 23:59 28.10.2019
5378 Clear -6 1018 77 0 1.07 230 23:37 28.10.2019
5379 Clear -4 1016 72 0 1.68 257 23:19 28.10.2019
5380 Clear -4 1016 72 0 1.68 257 22:39 28.10.2019
5381 Clear -4 1016 72 0 1.68 257 22:20 28.10.2019
5382 Clear -4 1016 72 0 1.68 257 21:58 28.10.2019
5383 Clear -4 1016 72 0 1.68 257 21:39 28.10.2019
5384 Clear -4 1016 72 0 1.68 257 21:21 28.10.2019
5385 Clear -4 1016 72 0 1.68 257 20:58 28.10.2019
5386 Clear -4 1016 72 0 1.68 257 20:39 28.10.2019
5387 Clear -4 1015 59 0 1.48 232 20:20 28.10.2019
5388 Clear -4 1015 59 0 1.48 232 19:54 28.10.2019
5389 Clear -4 1015 59 0 1.48 232 19:36 28.10.2019
5390 Clear -4 1015 59 0 1.48 232 19:18 28.10.2019
5391 Clear -4 1015 59 0 1.48 232 18:55 28.10.2019
5392 Clear -4 1015 59 0 1.48 232 18:37 28.10.2019
5393 Clear -4 1015 59 0 1.48 232 18:18 28.10.2019
5394 Clear -4 1015 59 0 1.48 232 17:55 28.10.2019
5395 Clear -4 1015 59 0 1.48 232 17:36 28.10.2019
5396 Clear -3 1014 56 0 1.48 179 17:18 28.10.2019
5397 Clear -3 1014 56 0 1.48 179 16:44 28.10.2019
5398 Clear -3 1014 56 0 1.48 179 16:24 28.10.2019
5399 Clear -3 1014 56 0 1.48 179 15:59 28.10.2019
5400 Clear -3 1014 56 0 1.48 179 15:40 28.10.2019
5401 Clear -3 1014 56 0 1.48 179 15:21 28.10.2019
5402 Clear -3 1014 56 0 1.48 179 14:58 28.10.2019
5403 Clear -3 1014 56 0 1.48 179 14:40 28.10.2019
5404 Clear -2 1013 55 0 2.1 161 14:19 28.10.2019
5405 Clear -2 1013 55 0 2.1 161 13:58 28.10.2019
5406 Clear -2 1013 55 0 2.1 161 13:40 28.10.2019
5407 Clear -2 1013 56 0 2.03 165 13:18 28.10.2019
5408 Clear -2 1013 56 0 2.03 165 12:43 28.10.2019
5409 Clear -2 1013 56 0 2.03 165 12:21 28.10.2019
5410 Clear -2 1013 56 0 2.03 165 11:54 28.10.2019
5411 Clear -2 1013 56 0 2.03 165 11:36 28.10.2019
5412 Clear 3 1011 43 0 1.33 224 11:18 28.10.2019
5413 Clear 3 1011 43 0 1.33 224 10:39 28.10.2019
5414 Clear 3 1011 43 0 1.33 224 10:21 28.10.2019
5415 Clear 3 1011 43 0 1.33 224 09:57 28.10.2019
5416 Clear 3 1011 43 0 1.33 224 09:38 28.10.2019
5417 Clear 3 1011 43 0 1.33 224 09:19 28.10.2019
5418 Clear 3 1011 43 0 1.33 224 08:57 28.10.2019
5419 Clear 3 1011 43 0 1.33 224 08:57 28.10.2019
5420 Clear 3 1011 46 0 1.19 201 08:38 28.10.2019
5421 Clear 3 1011 43 0 1.33 224 08:38 28.10.2019
5422 Clear 5 1012 35 0 2.11 208 08:19 28.10.2019
5423 Clear 5 1012 35 0 2.11 208 07:55 28.10.2019
5424 Clear 5 1012 35 0 2.11 208 07:36 28.10.2019
5425 Clear 5 1012 35 0 2.11 208 07:18 28.10.2019
5426 Clear 5 1012 35 0 2.11 208 06:39 28.10.2019
5427 Clear 5 1012 35 0 2.11 208 05:34 28.10.2019
5428 Clear 2 1016 44 0 2.38 146 03:45 28.10.2019
5429 Clear 2 1016 44 0 2.38 146 02:46 28.10.2019
5430 Clear -5 1018 60 0 3.08 128 01:52 28.10.2019
5431 Clear -5 1018 58 0 3.26 131 00:53 28.10.2019
5432 Clear -5 1018 58 0 3.26 131 00:31 28.10.2019
5433 Clear -5 1018 58 0 3.26 131 23:47 27.10.2019
5434 Clear -5 1020 48 0 2.87 130 23:23 27.10.2019
5435 Clear -5 1020 48 0 2.87 130 22:57 27.10.2019
5436 Clear -5 1020 48 0 2.87 130 22:39 27.10.2019
5437 Clear -5 1020 48 0 2.87 130 22:21 27.10.2019
5438 Clear -5 1020 48 0 2.87 130 21:57 27.10.2019
5439 Clear -5 1020 48 0 2.87 130 21:39 27.10.2019
5440 Clear -5 1020 48 0 2.87 130 21:20 27.10.2019
5441 Clear -5 1021 50 0 3.05 133 20:55 27.10.2019
5442 Clear -5 1021 50 0 3.05 133 20:37 27.10.2019
5443 Clouds -6 1023 54 0 1.93 128 20:19 27.10.2019
5444 Clouds -6 1023 54 0 1.93 128 19:40 27.10.2019
5445 Clouds -6 1023 54 0 1.93 128 19:21 27.10.2019
5446 Clouds -6 1023 54 0 1.93 128 18:57 27.10.2019
5447 Clouds -6 1023 54 0 1.93 128 18:57 27.10.2019
5448 Clouds -6 1023 54 0 1.93 128 18:39 27.10.2019
5449 Clouds -6 1023 54 0 1.93 128 18:39 27.10.2019
5450 Clouds -6 1023 54 0 1.93 128 18:21 27.10.2019
5451 Clouds -6 1023 54 0 1.93 128 17:57 27.10.2019
5452 Clouds -6 1023 54 0 1.93 128 17:38 27.10.2019
5453 Clouds -7 1025 61 0 1.16 134 17:19 27.10.2019
5454 Clouds -7 1025 61 0 1.16 134 16:56 27.10.2019
5455 Clouds -7 1025 61 0 1.16 134 16:56 27.10.2019
5456 Clouds -7 1025 61 0 1.16 134 16:38 27.10.2019
5457 Clouds -7 1025 61 0 1.16 134 16:19 27.10.2019
5458 Clouds -7 1025 61 0 1.16 134 15:55 27.10.2019
5459 Clouds -7 1025 61 0 1.16 134 15:37 27.10.2019
5460 Clouds -7 1025 61 0 1.16 134 15:18 27.10.2019
5461 Clouds -7 1025 61 0 1.16 134 14:41 27.10.2019
5462 Clouds -7 1026 61 0 1.14 146 14:20 27.10.2019
5463 Clouds -7 1026 61 0 1.14 146 13:56 27.10.2019
5464 Clouds -7 1026 61 0 1.14 146 13:37 27.10.2019
5465 Clouds -7 1026 55 0 1.29 137 13:19 27.10.2019
5466 Clouds -7 1026 55 0 1.29 137 13:19 27.10.2019
5467 Clouds -7 1026 55 0 1.29 137 12:43 27.10.2019
5468 Clouds -7 1026 55 0 1.29 137 12:24 27.10.2019
5469 Clouds -7 1026 55 0 1.29 137 11:56 27.10.2019
5470 Clouds -7 1026 55 0 1.29 137 11:38 27.10.2019
5471 Clouds -4 1024 43 0 3.53 308 11:19 27.10.2019
5472 Clouds -4 1024 43 0 3.53 308 10:42 27.10.2019
5473 Clouds -4 1024 43 0 3.53 308 10:23 27.10.2019
5474 Clouds -4 1024 43 0 3.53 308 09:44 27.10.2019
5475 Clouds -4 1024 43 0 3.53 308 09:20 27.10.2019
5476 Clouds -4 1024 43 0 3.53 308 08:59 27.10.2019
5477 Clouds -4 1024 43 0 3.53 308 08:41 27.10.2019
5478 Clouds -6 1025 42 0 7.29 332 08:20 27.10.2019
5479 Clouds -6 1025 42 0 7.29 332 07:50 27.10.2019
5480 Clouds -6 1025 42 0 7.29 332 07:29 27.10.2019
5481 Clouds -6 1025 42 0 7.29 332 06:56 27.10.2019
5482 Clouds -6 1025 42 0 7.29 332 06:38 27.10.2019
5483 Clouds -6 1025 42 0 7.29 332 06:20 27.10.2019
5484 Clouds -6 1025 42 0 7.29 332 05:38 27.10.2019
5485 Clouds -9 1027 46 0 8.4 317 04:35 27.10.2019
5486 Snow -10 1022 69 0 4.25 321 02:46 27.10.2019
5487 Snow -10 1023 79 0 2.83 290 01:36 27.10.2019
5488 Snow -10 1023 79 0 2.83 290 01:18 27.10.2019
5489 Snow -10 1023 79 0 2.83 290 00:42 27.10.2019
5490 Snow -6 1015 68 0 6.39 287 23:59 26.10.2019
5491 Snow -6 1015 68 0 6.39 287 23:40 26.10.2019
5492 Snow -6 1015 68 0 6.39 287 23:22 26.10.2019
5493 Snow -6 1015 68 0 6.39 287 22:59 26.10.2019
5494 Snow -6 1015 68 0 6.39 287 22:39 26.10.2019
5495 Snow -6 1015 68 0 6.39 287 22:20 26.10.2019
5496 Snow -6 1015 68 0 6.39 287 21:59 26.10.2019
5497 Snow -6 1015 68 0 6.39 287 21:40 26.10.2019
5498 Snow -4 1010 76 0 3.88 270 21:19 26.10.2019
5499 Snow -4 1010 76 0 3.88 270 20:45 26.10.2019
5500 Snow -4 1010 76 0 3.88 270 20:20 26.10.2019
5501 Snow -4 1010 76 0 3.88 270 19:57 26.10.2019
5502 Snow -4 1010 76 0 3.88 270 19:38 26.10.2019
5503 Snow -4 1010 76 0 3.88 270 19:19 26.10.2019
5504 Snow -4 1010 76 0 3.88 270 18:56 26.10.2019
5505 Snow -4 1010 76 0 3.88 270 18:37 26.10.2019
5506 Snow -2 1011 50 0 3.23 228 18:18 26.10.2019
5507 Snow -2 1011 50 0 3.23 228 17:39 26.10.2019
5508 Snow -2 1011 50 0 3.23 228 17:21 26.10.2019
5509 Snow -2 1011 50 0 3.23 228 16:59 26.10.2019
5510 Snow -2 1011 50 0 3.23 228 16:41 26.10.2019
5511 Snow -2 1011 50 0 3.23 228 16:41 26.10.2019
5512 Snow -2 1011 50 0 3.23 228 16:22 26.10.2019
5513 Snow -2 1011 50 0 3.23 228 15:41 26.10.2019
5514 Clouds -4 1011 54 0 3.15 178 15:20 26.10.2019
5515 Clouds -4 1011 54 0 3.15 178 14:41 26.10.2019
5516 Clouds -4 1011 51 0 3 178 14:22 26.10.2019
5517 Clouds -4 1011 51 0 3 178 13:59 26.10.2019
5518 Clouds -4 1011 51 0 3 178 13:41 26.10.2019
5519 Clouds -4 1011 51 0 3 178 13:21 26.10.2019
5520 Clouds -4 1011 51 0 3 178 12:48 26.10.2019
5521 Clouds -4 1011 51 0 3 178 12:25 26.10.2019
5522 Clouds -4 1011 51 0 3 178 12:25 26.10.2019
5523 Clouds 0 1011 35 0 2.86 191 11:50 26.10.2019
5524 Clouds 0 1011 35 0 2.86 191 11:29 26.10.2019
5525 Clouds 0 1011 35 0 2.86 191 10:57 26.10.2019
5526 Clouds 0 1011 35 0 2.86 191 10:39 26.10.2019
5527 Clouds 0 1011 35 0 2.86 191 10:20 26.10.2019
5528 Clouds 0 1011 35 0 2.86 191 09:44 26.10.2019
5529 Clouds -3 1011 63 0 2.66 177 09:26 26.10.2019
5530 Clouds -1 1014 62 0 2.47 176 08:44 26.10.2019
5531 Clouds -1 1014 62 0 2.47 176 08:25 26.10.2019
5532 Clouds -1 1014 62 0 2.47 176 07:54 26.10.2019
5533 Clouds -1 1014 62 0 2.47 176 07:29 26.10.2019
5534 Clouds -1 1014 62 0 2.47 176 06:45 26.10.2019
5535 Clouds -1 1014 62 0 2.47 176 06:26 26.10.2019
5536 Clear -4 1019 67 0 2.03 138 05:21 26.10.2019
5537 Clear -4 1019 67 0 2.03 138 04:24 26.10.2019
5538 Clouds -9 1021 61 0 2.21 130 02:49 26.10.2019
5539 Clouds -9 1021 60 0 2.38 126 01:56 26.10.2019
5540 Clouds -9 1021 60 0 2.38 126 01:29 26.10.2019
5541 Clouds -9 1021 60 0 2.38 126 00:25 26.10.2019
5542 Clouds -10 1021 54 0 1.32 172 23:44 25.10.2019
5543 Clouds -10 1021 54 0 1.32 172 23:44 25.10.2019
5544 Clouds -10 1021 54 0 1.32 172 23:20 25.10.2019
5545 Clouds -10 1021 54 0 1.32 172 22:41 25.10.2019
5546 Clouds -10 1021 54 0 1.32 172 22:23 25.10.2019
5547 Clouds -10 1021 54 0 1.32 172 21:58 25.10.2019
5548 Clouds -10 1021 54 0 1.32 172 21:40 25.10.2019
5549 Clouds -9 1022 47 0 1.86 169 21:21 25.10.2019
5550 Clouds -9 1022 47 0 1.86 169 20:56 25.10.2019
5551 Clouds -9 1022 47 0 1.86 169 20:38 25.10.2019
5552 Clouds -9 1022 47 0 1.86 169 20:18 25.10.2019
5553 Clouds -9 1022 47 0 1.86 169 19:43 25.10.2019
5554 Clouds -9 1022 47 0 1.86 169 19:25 25.10.2019
5555 Clouds -9 1022 47 0 1.86 169 18:45 25.10.2019
5556 Clouds -8 1022 41 0 1.94 180 18:23 25.10.2019
5557 Clouds -8 1022 41 0 1.94 180 17:42 25.10.2019
5558 Clouds -8 1022 41 0 1.94 180 17:22 25.10.2019
5559 Clouds -8 1022 41 0 1.94 180 16:56 25.10.2019
5560 Clouds -8 1022 41 0 1.94 180 16:37 25.10.2019
5561 Clouds -8 1022 41 0 1.94 180 16:19 25.10.2019
5562 Clouds -8 1022 41 0 1.94 180 15:40 25.10.2019
5563 Clouds -8 1021 46 0 1.47 171 15:22 25.10.2019
5564 Clouds -8 1021 46 0 1.47 171 14:58 25.10.2019
5565 Clouds -8 1021 46 0 1.47 171 14:58 25.10.2019
5566 Clouds -8 1021 46 0 1.47 171 14:58 25.10.2019
5567 Clouds -8 1021 46 0 1.47 171 14:39 25.10.2019
5568 Clouds -8 1020 51 0 2.22 159 14:20 25.10.2019
5569 Clouds -8 1020 51 0 2.22 159 13:42 25.10.2019
5570 Clouds -8 1020 51 0 2.22 159 13:24 25.10.2019
5571 Clouds -8 1020 51 0 2.22 159 12:56 25.10.2019
5572 Clouds -8 1020 51 0 2.22 159 12:38 25.10.2019
5573 Clouds -4 1017 57 0 2.32 166 12:19 25.10.2019
5574 Clouds -4 1017 57 0 2.32 166 11:40 25.10.2019
5575 Clouds -4 1017 57 0 2.32 166 11:22 25.10.2019
5576 Clouds -4 1017 57 0 2.32 166 10:57 25.10.2019
5577 Clouds -4 1017 57 0 2.32 166 10:57 25.10.2019
5578 Clouds -4 1017 57 0 2.32 166 10:38 25.10.2019
5579 Clouds -4 1017 57 0 2.32 166 10:19 25.10.2019
5580 Clouds -4 1017 57 0 2.32 166 09:42 25.10.2019
5581 Clouds -3 1019 56 0 2.12 168 09:21 25.10.2019
5582 Clouds -3 1019 56 0 2.12 168 08:59 25.10.2019
5583 Clouds -3 1019 56 0 2.12 168 08:41 25.10.2019
5584 Clouds -3 1019 56 0 2.12 168 08:22 25.10.2019
5585 Clouds -3 1019 56 0 2.12 168 07:47 25.10.2019
5586 Clouds -3 1019 56 0 2.12 168 07:28 25.10.2019
5587 Clouds -3 1019 56 0 2.12 168 06:38 25.10.2019
5588 Clear -6 1023 57 0 2.44 146 05:49 25.10.2019
5589 Clear -6 1023 57 0 2.44 146 05:30 25.10.2019
5590 Clear -6 1023 57 0 2.44 146 04:37 25.10.2019
5591 Clear -10 1026 44 0 3.26 134 02:42 25.10.2019
5592 Clear -10 1026 44 0 3.4 134 01:53 25.10.2019
5593 Clear -10 1026 44 0 3.4 134 00:36 25.10.2019
5594 Clear -10 1026 47 0 3.52 129 23:55 24.10.2019
5595 Clear -10 1026 47 0 3.52 129 23:36 24.10.2019
5596 Clear -10 1026 47 0 3.52 129 23:18 24.10.2019
5597 Clear -10 1026 47 0 3.52 129 22:39 24.10.2019
5598 Clear -10 1026 47 0 3.52 129 22:19 24.10.2019
5599 Clear -10 1026 47 0 3.52 129 21:58 24.10.2019
5600 Clear -10 1026 47 0 3.52 129 21:40 24.10.2019
5601 Clear -10 1027 49 0 3.29 129 21:20 24.10.2019
5602 Clear -10 1027 49 0 3.29 129 20:59 24.10.2019
5603 Clear -10 1027 49 0 3.29 129 20:39 24.10.2019
5604 Clear -10 1027 49 0 3.29 129 20:21 24.10.2019
5605 Clear -10 1027 49 0 3.29 129 19:57 24.10.2019
5606 Clear -10 1027 49 0 3.29 129 19:38 24.10.2019
5607 Clear -10 1027 49 0 3.29 129 19:20 24.10.2019
5608 Clear -10 1027 49 0 3.29 129 18:56 24.10.2019
5609 Clear -10 1027 49 0 3.29 129 18:38 24.10.2019
5610 Clear -10 1028 50 0 3.04 132 18:18 24.10.2019
5611 Clear -10 1028 50 0 3.04 132 17:42 24.10.2019
5612 Clear -10 1028 50 0 3.04 132 17:20 24.10.2019
5613 Clear -10 1028 50 0 3.04 132 16:58 24.10.2019
5614 Clear -10 1028 50 0 3.04 132 16:39 24.10.2019
5615 Clear -10 1028 50 0 3.04 132 16:21 24.10.2019
5616 Clear -10 1028 50 0 3.04 132 15:58 24.10.2019
5617 Clear -10 1028 50 0 3.04 132 15:40 24.10.2019
5618 Clear -9 1028 51 0 2.59 127 15:21 24.10.2019
5619 Clear -9 1028 51 0 2.59 127 14:57 24.10.2019
5620 Clear -9 1028 51 0 2.71 126 14:38 24.10.2019
5621 Clear -9 1028 51 0 2.71 126 14:19 24.10.2019
5622 Clear -9 1028 51 0 2.71 126 13:40 24.10.2019
5623 Clear -9 1028 51 0 2.71 126 13:19 24.10.2019
5624 Clear -9 1028 51 0 2.71 126 12:57 24.10.2019
5625 Clear -9 1028 51 0 2.71 126 12:57 24.10.2019
5626 Clear -9 1028 51 0 2.71 126 12:39 24.10.2019
5627 Clear -6 1025 64 0 1.39 139 12:19 24.10.2019
5628 Clear -6 1025 64 0 1.39 139 11:56 24.10.2019
5629 Clear -6 1025 64 0 1.39 139 11:38 24.10.2019
5630 Clear -6 1025 64 0 1.39 139 11:19 24.10.2019
5631 Clear -6 1025 64 0 1.39 139 10:55 24.10.2019
5632 Clear -6 1025 64 0 1.39 139 10:36 24.10.2019
5633 Clear -6 1025 64 0 1.39 139 10:18 24.10.2019
5634 Clear -6 1025 64 0 1.39 139 09:38 24.10.2019
5635 Clouds -4 1027 57 0 1.14 132 09:18 24.10.2019
5636 Clouds -4 1027 57 0 1.14 132 08:44 24.10.2019
5637 Clouds -4 1027 57 0 1.14 132 08:20 24.10.2019
5638 Clouds -4 1027 57 0 1.14 132 07:56 24.10.2019
5639 Clouds -4 1027 57 0 1.14 132 07:38 24.10.2019
5640 Clouds -4 1027 57 0 1.14 132 07:20 24.10.2019
5641 Clouds -4 1027 57 0 1.14 132 06:39 24.10.2019
5642 Clouds -8 1031 63 0 1.68 106 05:56 24.10.2019
5643 Clouds -8 1031 63 0 1.68 106 05:36 24.10.2019
5644 Clouds -8 1031 63 0 1.68 106 04:44 24.10.2019
5645 Clouds -8 1031 63 0 1.68 106 03:36 24.10.2019
5646 Clouds -13 1034 53 0 1.76 106 02:50 24.10.2019
5647 Clouds -13 1034 53 0 1.7 107 02:21 24.10.2019
5648 Clouds -13 1034 53 0 1.7 107 01:32 24.10.2019
5649 Clouds -13 1034 53 0 1.7 107 00:57 24.10.2019
5650 Clouds -13 1034 53 0 1.7 107 00:30 24.10.2019
5651 Clouds -13 1033 59 0 1.01 116 23:59 23.10.2019
5652 Clouds -13 1033 59 0 1.01 116 23:41 23.10.2019
5653 Clouds -13 1033 59 0 1.01 116 23:21 23.10.2019
5654 Clouds -13 1033 59 0 1.01 116 22:57 23.10.2019
5655 Clouds -13 1033 59 0 1.01 116 22:37 23.10.2019
5656 Clouds -13 1033 59 0 1.01 116 22:18 23.10.2019
5657 Clouds -13 1033 59 0 1.01 116 21:57 23.10.2019
5658 Clouds -13 1033 59 0 1.01 116 21:57 23.10.2019
5659 Clouds -12 1033 56 0 1.1 119 21:37 23.10.2019
5660 Clouds -13 1033 60 0 1.12 119 21:19 23.10.2019
5661 Clouds -13 1033 60 0 1.12 119 20:55 23.10.2019
5662 Clouds -13 1033 60 0 1.12 119 20:36 23.10.2019
5663 Clouds -13 1033 60 0 1.12 119 20:18 23.10.2019
5664 Clouds -13 1033 60 0 1.12 119 19:44 23.10.2019
5665 Clouds -13 1033 60 0 1.12 119 19:20 23.10.2019
5666 Clouds -13 1033 60 0 1.12 119 18:58 23.10.2019
5667 Clouds -13 1033 60 0 1.12 119 18:39 23.10.2019
5668 Clouds -15 1034 71 0 1.86 120 18:19 23.10.2019
5669 Clouds -15 1034 71 0 1.86 120 17:55 23.10.2019
5670 Clouds -15 1034 71 0 1.86 120 17:37 23.10.2019
5671 Clouds -15 1034 71 0 1.86 120 17:18 23.10.2019
5672 Clouds -15 1034 71 0 1.86 120 16:41 23.10.2019
5673 Clouds -15 1034 71 0 1.86 120 16:21 23.10.2019
5674 Clouds -15 1034 71 0 1.86 120 15:57 23.10.2019
5675 Clouds -15 1034 71 0 1.86 120 15:39 23.10.2019
5676 Clouds -14 1033 84 0 1.59 110 15:20 23.10.2019
5677 Clouds -14 1033 84 0 1.59 110 14:56 23.10.2019
5678 Clouds -14 1033 84 0 1.59 110 14:37 23.10.2019
5679 Clouds -14 1033 83 0 1.63 113 14:18 23.10.2019
5680 Clouds -14 1033 83 0 1.63 113 14:18 23.10.2019
5681 Clouds -14 1033 83 0 1.63 113 13:43 23.10.2019
5682 Clouds -14 1033 83 0 1.63 113 13:25 23.10.2019
5683 Clouds -14 1033 83 0 1.63 113 12:57 23.10.2019
5684 Clouds -14 1033 83 0 1.63 113 12:38 23.10.2019
5685 Clear -11 1030 83 0 0.65 303 12:19 23.10.2019
5686 Clear -11 1030 83 0 0.65 303 11:58 23.10.2019
5687 Clear -11 1030 83 0 0.65 303 11:39 23.10.2019
5688 Clear -11 1030 83 0 0.65 303 11:20 23.10.2019
5689 Clear -11 1030 83 0 0.65 303 10:46 23.10.2019
5690 Clear -11 1030 83 0 0.65 303 10:26 23.10.2019
5691 Clear -11 1030 83 0 0.65 303 09:58 23.10.2019
5692 Clear -11 1030 83 0 0.65 303 09:40 23.10.2019
5693 Clear -10 1031 73 0 1.36 264 09:21 23.10.2019
5694 Clear -10 1031 73 0 1.36 264 08:43 23.10.2019
5695 Clear -10 1031 73 0 1.36 264 08:43 23.10.2019
5696 Clear -10 1031 73 0 1.36 264 08:25 23.10.2019
5697 Clear -10 1031 73 0 1.36 264 07:47 23.10.2019
5698 Clear -10 1031 73 0 1.36 264 07:27 23.10.2019
5699 Clear -10 1031 73 0 1.36 264 06:48 23.10.2019
5700 Clear -12 1034 72 0 0.4 162 06:23 23.10.2019
5701 Clear -12 1034 72 0 0.4 162 05:59 23.10.2019
5702 Clear -12 1034 72 0 0.4 162 05:18 23.10.2019
5703 Clear -12 1034 72 0 0.4 162 03:46 23.10.2019
5704 Clear -17 1036 77 0 1.61 105 02:42 23.10.2019
5705 Clear -17 1036 77 0 1.61 105 01:35 23.10.2019
5706 Clear -17 1036 77 0 1.61 105 00:59 23.10.2019
5707 Clear -17 1036 77 0 1.61 105 00:33 23.10.2019
5708 Clear -17 1034 82 0 1.83 91 23:43 22.10.2019
5709 Clear -17 1034 82 0 1.83 91 23:19 22.10.2019
5710 Clear -17 1034 82 0 1.83 91 22:59 22.10.2019
5711 Clear -17 1034 82 0 1.83 91 22:59 22.10.2019
5712 Clear -17 1034 82 0 1.83 91 22:40 22.10.2019
5713 Clear -17 1034 82 0 1.83 91 22:21 22.10.2019
5714 Clear -17 1034 82 0 1.83 91 21:57 22.10.2019
5715 Clear -17 1034 81 0 1.74 90 21:38 22.10.2019
5716 Clouds -16 1033 89 0 1.97 83 21:19 22.10.2019
5717 Clouds -16 1033 89 0 1.97 83 20:58 22.10.2019
5718 Clouds -16 1033 89 0 1.97 83 20:40 22.10.2019
5719 Clouds -16 1033 89 0 1.97 83 20:21 22.10.2019
5720 Clouds -16 1033 89 0 1.97 83 19:55 22.10.2019
5721 Clouds -16 1033 89 0 1.97 83 19:37 22.10.2019
5722 Clouds -16 1033 89 0 1.97 83 19:19 22.10.2019
5723 Clouds -16 1033 89 0 1.97 83 18:41 22.10.2019
5724 Clouds -15 1033 95 0 1.28 78 18:22 22.10.2019
5725 Clouds -15 1033 95 0 1.28 78 17:59 22.10.2019
5726 Clouds -15 1033 95 0 1.28 78 17:39 22.10.2019
5727 Clouds -15 1033 95 0 1.28 78 17:39 22.10.2019
5728 Clouds -15 1033 95 0 1.28 78 17:20 22.10.2019
5729 Clouds -15 1033 95 0 1.28 78 17:20 22.10.2019
5730 Clouds -15 1033 95 0 1.28 78 16:58 22.10.2019
5731 Clouds -15 1033 95 0 1.28 78 16:39 22.10.2019
5732 Clouds -15 1033 95 0 1.28 78 16:39 22.10.2019
5733 Clouds -15 1033 95 0 1.28 78 16:20 22.10.2019
5734 Clouds -15 1033 95 0 1.28 78 15:58 22.10.2019
5735 Clouds -15 1033 95 0 1.28 78 15:40 22.10.2019
5736 Clouds -14 1030 94 0 0.76 172 15:19 22.10.2019
5737 Clouds -14 1030 94 0 0.76 172 14:44 22.10.2019
5738 Clouds -15 1030 95 0 0.61 153 14:21 22.10.2019
5739 Clouds -15 1030 95 0 0.61 153 13:43 22.10.2019
5740 Clouds -15 1030 95 0 0.61 153 13:23 22.10.2019
5741 Clouds -15 1030 95 0 0.61 153 12:59 22.10.2019
5742 Clouds -15 1030 95 0 0.61 153 12:41 22.10.2019
5743 Snow -9 1026 90 0 2.34 273 12:21 22.10.2019
5744 Snow -9 1026 90 0 2.34 273 11:57 22.10.2019
5745 Snow -9 1026 90 0 2.34 273 11:38 22.10.2019
5746 Snow -9 1026 90 0 2.34 273 11:20 22.10.2019
5747 Snow -9 1026 90 0 2.34 273 10:57 22.10.2019
5748 Snow -9 1026 90 0 2.34 273 10:37 22.10.2019
5749 Snow -9 1026 90 0 2.34 273 10:18 22.10.2019
5750 Snow -9 1026 90 0 2.34 273 10:18 22.10.2019
5751 Snow -9 1026 90 0 2.34 273 09:55 22.10.2019
5752 Snow -9 1026 91 0 1.98 266 09:36 22.10.2019
5753 Snow -8 1025 86 0 2.93 264 09:18 22.10.2019
5754 Snow -8 1025 86 0 2.93 264 08:42 22.10.2019
5755 Snow -8 1025 86 0 2.93 264 08:21 22.10.2019
5756 Snow -8 1025 86 0 2.93 264 08:21 22.10.2019
5757 Snow -8 1025 86 0 2.93 264 07:46 22.10.2019
5758 Snow -8 1025 86 0 2.93 264 07:26 22.10.2019
5759 Snow -8 1025 86 0 2.93 264 07:26 22.10.2019
5760 Snow -8 1025 86 0 2.93 264 06:51 22.10.2019
5761 Snow -8 1025 86 0 2.93 264 06:31 22.10.2019
5762 Snow -8 1025 86 0 2.93 264 06:31 22.10.2019
5763 Snow -8 1024 92 0 3.75 250 05:56 22.10.2019
5764 Snow -8 1024 92 0 3.75 250 05:20 22.10.2019
5765 Snow -8 1022 96 0 2.85 247 02:47 22.10.2019
5766 Snow -8 1022 96 0 3.29 240 02:28 22.10.2019
5767 Snow -8 1022 96 0 3.29 240 01:27 22.10.2019
5768 Snow -8 1022 96 0 3.29 240 00:57 22.10.2019
5769 Snow -8 1022 96 0 3.29 240 00:39 22.10.2019
5770 Snow -7 1017 95 0 3.82 244 00:20 22.10.2019
5771 Snow -7 1017 95 0 3.82 244 23:54 21.10.2019
5772 Snow -7 1017 95 0 3.82 244 23:36 21.10.2019
5773 Snow -7 1017 95 0 3.82 244 23:36 21.10.2019
5774 Snow -7 1017 95 0 3.82 244 23:18 21.10.2019
5775 Snow -7 1017 95 0 3.82 244 22:54 21.10.2019
5776 Snow -7 1017 95 0 3.82 244 22:54 21.10.2019
5777 Snow -7 1017 95 0 3.82 244 22:36 21.10.2019
5778 Snow -7 1017 95 0 3.82 244 22:18 21.10.2019
5779 Snow -7 1017 95 0 3.82 244 21:40 21.10.2019
5780 Snow -6 1015 95 0 3.73 244 21:22 21.10.2019
5781 Snow -6 1015 95 0 3.73 244 20:58 21.10.2019
5782 Snow -6 1015 95 0 3.73 244 20:40 21.10.2019
5783 Snow -6 1015 95 0 3.73 244 20:21 21.10.2019
5784 Snow -6 1015 95 0 3.73 244 19:58 21.10.2019
5785 Snow -6 1015 95 0 3.73 244 19:40 21.10.2019
5786 Snow -6 1015 95 0 3.73 244 19:40 21.10.2019
5787 Snow -6 1015 95 0 3.73 244 19:21 21.10.2019
5788 Snow -6 1015 95 0 3.73 244 18:56 21.10.2019
5789 Snow -6 1015 95 0 3.73 244 18:37 21.10.2019
5790 Snow -3 1011 79 0 3.86 203 18:19 21.10.2019
5791 Snow -3 1011 79 0 3.86 203 17:56 21.10.2019
5792 Snow -3 1011 79 0 3.86 203 17:37 21.10.2019
5793 Snow -3 1011 79 0 3.86 203 17:18 21.10.2019
5794 Snow -3 1011 79 0 3.86 203 16:56 21.10.2019
5795 Snow -3 1011 79 0 3.86 203 16:37 21.10.2019
5796 Snow -3 1011 79 0 3.86 203 16:19 21.10.2019
5797 Snow -3 1011 79 0 3.86 203 15:42 21.10.2019
5798 Snow -3 1009 91 0 0.25 26 15:24 21.10.2019
5799 Snow -3 1009 91 0 0.25 26 14:57 21.10.2019
5800 Snow -3 1009 93 0 1.58 296 14:38 21.10.2019
5801 Snow -3 1009 93 0 1.58 296 14:19 21.10.2019
5802 Snow -3 1009 93 0 1.58 296 13:55 21.10.2019
5803 Snow -3 1009 93 0 1.58 296 13:37 21.10.2019
5804 Snow -3 1009 93 0 1.58 296 13:18 21.10.2019
5805 Snow -3 1009 93 0 1.58 296 12:41 21.10.2019
5806 Clouds 0 1006 70 0 4.68 270.87 12:22 21.10.2019
5807 Clouds 0 1006 70 0 4.68 270.87 11:55 21.10.2019
5808 Clouds 0 1006 70 0 4.68 270.87 11:37 21.10.2019
5809 Clouds 0 1006 70 0 4.68 270.87 11:19 21.10.2019
5810 Clouds 0 1006 70 0 4.68 270.87 10:55 21.10.2019
5811 Clouds 0 1006 70 0 4.68 270.87 10:37 21.10.2019
5812 Clouds 0 1006 70 0 4.68 270.87 10:18 21.10.2019
5813 Clouds 0 1006 70 0 4.68 270.87 09:43 21.10.2019
5814 Clouds 0 1007 65 0 6.82 230.467 09:23 21.10.2019
5815 Clouds 0 1007 68 0 4.17 238.666 08:43 21.10.2019
5816 Clouds 0 1007 68 0 4.17 238.666 08:23 21.10.2019
5817 Clouds 0 1007 68 0 4.17 238.666 07:59 21.10.2019
5818 Clouds 0 1007 68 0 4.17 238.666 07:37 21.10.2019
5819 Clouds 0 1007 68 0 4.17 238.666 07:19 21.10.2019
5820 Clouds 0 1007 68 0 4.17 238.666 06:51 21.10.2019
5821 Clouds 0 1007 68 0 4.17 238.666 06:32 21.10.2019
5822 Clouds -2 1009 70 0 2.22 196.541 05:46 21.10.2019
5823 Clouds -2 1009 70 0 2.22 196.541 04:42 21.10.2019
5824 Clouds -4 1010 76 0 1.74 183.994 02:41 21.10.2019
5825 Clouds -4 1010 76 0 1.74 183.994 02:22 21.10.2019
5826 Clouds -4 1010 76 0 1.74 183.994 01:49 21.10.2019
5827 Clouds -3 1011 76 0 1.73 188.496 01:22 21.10.2019
5828 Clouds -3 1011 76 0 1.73 188.496 00:42 21.10.2019
5829 Clouds -3 1010 76 0 2.2 194.963 00:23 21.10.2019
5830 Clouds -3 1010 76 0 2.2 194.963 23:40 20.10.2019
5831 Clouds -3 1010 76 0 2.2 194.963 23:21 20.10.2019
5832 Clouds -3 1010 76 0 2.2 194.963 22:55 20.10.2019
5833 Clouds -3 1010 76 0 2.2 194.963 22:36 20.10.2019
5834 Clouds -3 1010 76 0 2.2 194.963 22:18 20.10.2019
5835 Clouds -3 1010 76 0 2.2 194.963 21:41 20.10.2019
5836 Clouds -3 1010 76 0 2.2 194.963 21:41 20.10.2019
5837 Clouds -4 1011 74 0 2.44 203.765 21:22 20.10.2019
5838 Clouds -4 1011 74 0 1.94 180.532 20:59 20.10.2019
5839 Clouds -4 1011 74 0 1.94 180.532 20:39 20.10.2019
5840 Clouds -4 1011 74 0 1.94 180.532 20:18 20.10.2019
5841 Clouds -4 1011 74 0 1.94 180.532 20:18 20.10.2019
5842 Clouds -4 1011 74 0 1.94 180.532 19:56 20.10.2019
5843 Clouds -4 1011 74 0 1.94 180.532 19:37 20.10.2019
5844 Clouds -4 1011 74 0 1.94 180.532 19:19 20.10.2019
5845 Clouds -4 1011 74 0 1.94 180.532 18:42 20.10.2019
5846 Clouds -4 1012 72 0 1.5 137.452 18:23 20.10.2019
5847 Clouds -4 1012 72 0 1.5 137.452 17:59 20.10.2019
5848 Clouds -4 1012 72 0 1.5 137.452 17:40 20.10.2019
5849 Clouds -4 1012 72 0 1.5 137.452 17:21 20.10.2019
5850 Clouds -4 1012 72 0 1.5 137.452 16:56 20.10.2019
5851 Clouds -4 1012 72 0 1.5 137.452 16:37 20.10.2019
5852 Clouds -4 1012 72 0 1.5 137.452 16:18 20.10.2019
5853 Clouds -4 1012 72 0 1.5 137.452 15:54 20.10.2019
5854 Clouds -4 1012 72 0 1.5 137.452 15:54 20.10.2019
5855 Clouds -4 1012 72 0 1.5 137.452 15:36 20.10.2019
5856 Clouds -4 1013 64 0 1.64 143.808 15:18 20.10.2019
5857 Clouds -4 1013 64 0 1.64 143.808 14:39 20.10.2019
5858 Clouds -4 1013 64 0 1.64 143.808 14:21 20.10.2019
5859 Clouds -4 1013 64 0 1.64 143.808 13:56 20.10.2019
5860 Clouds -4 1013 64 0 1.64 143.808 13:37 20.10.2019
5861 Clouds -5 1013 64 0 1.44 141.471 13:19 20.10.2019
5862 Clouds -5 1013 64 0 1.44 141.471 12:57 20.10.2019
5863 Clouds -5 1013 64 0 1.44 141.471 12:39 20.10.2019
5864 Clouds -5 1013 64 0 1.44 141.471 12:39 20.10.2019
5865 Clouds -2 1012 67 0 1.63 154.142 12:21 20.10.2019
5866 Clouds -2 1012 67 0 1.63 154.142 11:59 20.10.2019
5867 Clouds -2 1012 67 0 1.63 154.142 11:40 20.10.2019
5868 Clouds -2 1012 67 0 1.63 154.142 11:22 20.10.2019
5869 Clouds -2 1012 67 0 1.63 154.142 11:22 20.10.2019
5870 Clouds -2 1012 67 0 1.63 154.142 10:57 20.10.2019
5871 Clouds -2 1012 67 0 1.63 154.142 10:38 20.10.2019
5872 Clouds -2 1012 67 0 1.63 154.142 10:20 20.10.2019
5873 Clouds -2 1012 67 0 1.63 154.142 09:44 20.10.2019
5874 Clouds -1 1014 57 0 1.68 182.59 09:23 20.10.2019
5875 Clouds -1 1014 56 0 1.82 195.855 08:59 20.10.2019
5876 Clouds -1 1014 56 0 1.82 195.855 08:39 20.10.2019
5877 Clouds -1 1014 56 0 1.82 195.855 08:20 20.10.2019
5878 Clouds -1 1014 56 0 1.82 195.855 07:47 20.10.2019
5879 Clouds -1 1014 56 0 1.82 195.855 07:26 20.10.2019
5880 Clouds -1 1014 56 0 1.82 195.855 06:28 20.10.2019
5881 Clouds -4 1018 60 0 1.39 167.69 04:28 20.10.2019
5882 Clouds -4 1018 60 0 1.39 167.69 03:49 20.10.2019
5883 Clouds -9 1019 55 0 0.66 142.431 03:22 20.10.2019
5884 Clouds -9 1019 55 0 0.66 142.431 02:46 20.10.2019
5885 Clouds -9 1019 55 0 0.66 142.431 02:18 20.10.2019
5886 Clouds -9 1019 55 0 0.66 142.431 01:45 20.10.2019
5887 Clouds -8 1019 53 0 0.69 135.585 01:19 20.10.2019
5888 Clouds -8 1019 53 0 0.69 135.585 00:47 20.10.2019
5889 Clouds -8 1019 53 0 0.69 135.585 00:47 20.10.2019
5890 Clouds -9 1019 53 0 1.09 106.901 00:20 20.10.2019
5891 Clouds -9 1019 53 0 1.09 106.901 23:44 19.10.2019
5892 Clouds -9 1019 53 0 1.09 106.901 23:24 19.10.2019
5893 Clouds -9 1019 53 0 1.09 106.901 22:58 19.10.2019
5894 Clouds -9 1019 53 0 1.09 106.901 22:40 19.10.2019
5895 Clouds -9 1019 53 0 1.09 106.901 22:20 19.10.2019
5896 Clouds -9 1019 53 0 1.09 106.901 21:46 19.10.2019
5897 Clouds -9 1019 53 0 1.09 106.901 21:46 19.10.2019
5898 Clouds -9 1019 53 0 1.09 106.901 21:25 19.10.2019
5899 Clouds -10 1021 58 0 1.33 110.743 20:57 19.10.2019
5900 Clouds -10 1021 58 0 1.33 110.743 20:39 19.10.2019
5901 Clouds -10 1021 58 0 1.33 110.743 20:20 19.10.2019
5902 Clouds -10 1021 58 0 1.33 110.743 19:41 19.10.2019
5903 Clouds -10 1021 58 0 1.33 110.743 19:23 19.10.2019
5904 Clouds -10 1021 58 0 1.33 110.743 18:44 19.10.2019
5905 Clouds -10 1021 58 0 1.33 110.743 18:25 19.10.2019
5906 Clear -10 1022 60 0 1.38 144.254 17:59 19.10.2019
5907 Clear -10 1022 60 0 1.38 144.254 17:40 19.10.2019
5908 Clear -10 1022 60 0 1.38 144.254 17:21 19.10.2019
5909 Clear -10 1022 60 0 1.38 144.254 16:54 19.10.2019
5910 Clear -10 1022 60 0 1.38 144.254 16:36 19.10.2019
5911 Clear -10 1022 60 0 1.38 144.254 16:18 19.10.2019
5912 Clear -10 1022 60 0 1.38 144.254 15:40 19.10.2019
5913 Clear -10 1022 60 0 1.38 144.254 15:40 19.10.2019
5914 Clear -9 1022 58 0 1.26 188.439 15:22 19.10.2019
5915 Clear -9 1022 58 0 1.26 188.439 14:38 19.10.2019
5916 Clear -9 1022 58 0 1.26 188.439 14:20 19.10.2019
5917 Clear -9 1022 58 0 1.26 188.439 13:56 19.10.2019
5918 Clear -9 1022 58 0 1.26 188.439 13:38 19.10.2019
5919 Clouds -9 1022 58 0 1.44 173.699 13:18 19.10.2019
5920 Clouds -9 1022 58 0 1.44 173.699 12:55 19.10.2019
5921 Clouds -9 1022 58 0 1.44 173.699 12:36 19.10.2019
5922 Clouds -6 1020 63 0 1.03 203.895 12:18 19.10.2019
5923 Clouds -6 1020 63 0 1.03 203.895 11:40 19.10.2019
5924 Clouds -6 1020 63 0 1.03 203.895 11:22 19.10.2019
5925 Clouds -6 1020 63 0 1.03 203.895 10:55 19.10.2019
5926 Clouds -6 1020 63 0 1.03 203.895 10:37 19.10.2019
5927 Clouds -6 1020 63 0 1.03 203.895 10:19 19.10.2019
5928 Clouds -6 1020 63 0 1.03 203.895 09:41 19.10.2019
5929 Clear -5 1022 55 0 2.92 246.028 09:23 19.10.2019
5930 Clear -5 1022 55 0 2.92 246.028 09:23 19.10.2019
5931 Clear -6 1022 71 0 2.3 201.727 08:58 19.10.2019
5932 Clear -6 1022 71 0 2.3 201.727 08:58 19.10.2019
5933 Clear -6 1022 71 0 2.3 201.727 08:58 19.10.2019
5934 Clear -6 1022 71 0 2.3 201.727 08:58 19.10.2019
5935 Clear -6 1022 71 0 2.3 201.727 08:39 19.10.2019
5936 Clear -6 1022 71 0 2.3 201.727 08:20 19.10.2019
5937 Clear -6 1022 71 0 2.3 201.727 08:20 19.10.2019
5938 Clear -6 1022 71 0 2.3 201.727 07:42 19.10.2019
5939 Clear -6 1022 71 0 2.3 201.727 07:23 19.10.2019
5940 Clear -6 1022 71 0 2.3 201.727 07:23 19.10.2019
5941 Clear -6 1022 71 0 2.3 201.727 06:40 19.10.2019
5942 Clear -8 1024 78 0 1.61 200.074 05:55 19.10.2019
5943 Clear -8 1024 78 0 1.61 200.074 05:27 19.10.2019
5944 Clear -8 1024 78 0 1.61 200.074 03:25 19.10.2019
5945 Clear -12 1026 85 0 0.81 277.125 02:35 19.10.2019
5946 Clear -12 1026 85 0 0.81 277.125 01:50 19.10.2019
5947 Clear -12 1026 86 0 0.72 275.151 00:59 19.10.2019
5948 Clear -12 1026 86 0 0.72 275.151 00:41 19.10.2019
5949 Clear -10 1023 89 0 2.31 287.354 00:21 19.10.2019
5950 Clear -10 1023 89 0 2.31 287.354 23:39 18.10.2019
5951 Clear -10 1023 89 0 2.31 287.354 23:21 18.10.2019
5952 Clear -10 1023 89 0 2.31 287.354 22:55 18.10.2019
5953 Clear -10 1023 89 0 2.31 287.354 22:37 18.10.2019
5954 Clear -10 1023 89 0 2.31 287.354 22:37 18.10.2019
5955 Clear -10 1023 89 0 2.31 287.354 22:18 18.10.2019
5956 Clear -10 1023 89 0 2.31 287.354 21:56 18.10.2019
5957 Clear -10 1024 88 0 1.67 306.272 21:36 18.10.2019
5958 Clouds -9 1022 85 0 2.68 285.898 21:18 18.10.2019
5959 Clouds -9 1022 85 0 2.68 285.898 20:43 18.10.2019
5960 Clouds -9 1022 85 0 2.68 285.898 20:24 18.10.2019
5961 Clouds -9 1022 85 0 2.68 285.898 19:58 18.10.2019
5962 Clouds -9 1022 85 0 2.68 285.898 19:40 18.10.2019
5963 Clouds -9 1022 85 0 2.68 285.898 19:40 18.10.2019
5964 Clouds -9 1022 85 0 2.68 285.898 19:22 18.10.2019
5965 Clouds -9 1022 85 0 2.68 285.898 18:59 18.10.2019
5966 Clouds -9 1022 85 0 2.68 285.898 18:59 18.10.2019
5967 Clouds -9 1022 85 0 2.68 285.898 18:41 18.10.2019
5968 Clouds -4 1018 83 0 3.75 327.742 18:23 18.10.2019
5969 Clouds -4 1018 83 0 3.75 327.742 17:56 18.10.2019
5970 Clouds -4 1018 83 0 3.75 327.742 17:37 18.10.2019
5971 Clouds -4 1018 83 0 3.75 327.742 17:19 18.10.2019
5972 Clouds -4 1018 83 0 3.75 327.742 16:40 18.10.2019
5973 Clouds -4 1018 83 0 3.75 327.742 16:21 18.10.2019
5974 Clouds -4 1018 83 0 3.75 327.742 15:57 18.10.2019
5975 Clouds -4 1018 83 0 3.75 327.742 15:38 18.10.2019
5976 Clouds -2 1016 98 0 2.4 247.331 15:20 18.10.2019
5977 Clouds -2 1016 98 0 2.4 247.331 15:20 18.10.2019
5978 Clouds -2 1016 98 0 2.4 247.331 14:57 18.10.2019
5979 Clouds -2 1016 98 0 2.4 247.331 14:38 18.10.2019
5980 Clouds -2 1016 98 0 2.4 247.331 14:19 18.10.2019
5981 Clouds -2 1016 98 0 2.4 247.331 13:55 18.10.2019
5982 Clouds -2 1016 98 0 2.4 247.331 13:36 18.10.2019
5983 Clouds -2 1015 97 0 1.68 254.682 13:18 18.10.2019
5984 Clouds -2 1015 97 0 1.68 254.682 12:54 18.10.2019
5985 Clouds -2 1015 97 0 1.68 254.682 12:54 18.10.2019
5986 Clouds -2 1015 97 0 1.68 254.682 12:36 18.10.2019
5987 Clouds -2 1012 95 0 1.25 273.17 12:18 18.10.2019
5988 Clouds -2 1012 95 0 1.25 273.17 11:41 18.10.2019
5989 Clouds -2 1012 95 0 1.25 273.17 11:41 18.10.2019
5990 Clouds -2 1012 95 0 1.25 273.17 11:20 18.10.2019
5991 Clouds -2 1012 95 0 1.25 273.17 10:57 18.10.2019
5992 Clouds -2 1012 95 0 1.25 273.17 10:39 18.10.2019
5993 Clouds -2 1012 95 0 1.25 273.17 10:19 18.10.2019
5994 Clouds -2 1012 95 0 1.25 273.17 09:57 18.10.2019
5995 Clouds -2 1012 95 0 1.25 273.17 09:39 18.10.2019
5996 Clouds 6 1009 40 0 8.4 233.123 09:19 18.10.2019
5997 Clouds 6 1009 40 0 8.4 233.123 09:19 18.10.2019
5998 Clouds 6 1009 40 0 8.4 233.123 08:44 18.10.2019
5999 -273 0 0 0 0 0 08:24 18.10.2019
6000 Clouds 6 1009 40 0 8.4 233.123 07:51 18.10.2019
6001 Clouds 6 1009 40 0 8.4 233.123 07:33 18.10.2019
6002 Clouds 6 1009 40 0 8.4 233.123 06:55 18.10.2019
6003 Clouds 6 1009 40 0 8.4 233.123 06:35 18.10.2019
6004 Clouds 3 1009 41 0 2.39 178.055 05:59 18.10.2019
6005 Clouds 3 1009 41 0 2.39 178.055 05:41 18.10.2019
6006 Clouds 3 1009 41 0 2.39 178.055 05:18 18.10.2019
6007 Clouds 3 1009 41 0 2.39 178.055 03:36 18.10.2019
6008 Clouds -2 1010 52 0 1.99 172.546 02:51 18.10.2019
6009 Clouds -2 1010 52 0 1.99 172.546 02:32 18.10.2019
6010 Clouds -2 1010 52 0 1.99 172.546 01:39 18.10.2019
6011 Clouds -2 1010 51 0 1.95 170.161 01:18 18.10.2019
6012 Clouds -2 1010 51 0 1.95 170.161 00:40 18.10.2019
6013 Clouds -1 1010 46 0 2.18 161.981 00:19 18.10.2019
6014 Clouds -1 1010 46 0 2.18 161.981 00:19 18.10.2019
6015 Clouds -1 1010 46 0 2.18 161.981 23:39 17.10.2019
6016 Clouds -1 1010 46 0 2.18 161.981 23:20 17.10.2019
6017 Clouds -1 1010 46 0 2.18 161.981 22:56 17.10.2019
6018 Clouds -1 1010 46 0 2.18 161.981 22:56 17.10.2019
6019 Clouds -1 1010 46 0 2.18 161.981 22:56 17.10.2019
6020 Clouds -1 1010 46 0 2.18 161.981 22:38 17.10.2019
6021 Clouds -1 1010 46 0 2.18 161.981 22:19 17.10.2019
6022 Clouds -1 1010 46 0 2.18 161.981 21:56 17.10.2019
6023 Clouds -1 1010 46 0 2.18 161.981 21:38 17.10.2019
6024 Clouds -1 1010 44 0 2.12 167.013 21:20 17.10.2019
6025 Clouds -1 1010 43 0 2.05 171.435 20:57 17.10.2019
6026 Clouds -1 1010 43 0 2.05 171.435 20:39 17.10.2019
6027 Clouds -1 1010 43 0 2.05 171.435 20:19 17.10.2019
6028 Clouds -1 1010 43 0 2.05 171.435 19:56 17.10.2019
6029 Clouds -1 1010 43 0 2.05 171.435 19:38 17.10.2019
6030 Clouds -1 1010 43 0 2.05 171.435 19:19 17.10.2019
6031 Clouds -1 1010 43 0 2.05 171.435 18:43 17.10.2019
6032 Clouds 0 1011 41 0 1.96 156.717 18:21 17.10.2019
6033 Clouds 0 1011 41 0 1.96 156.717 17:58 17.10.2019
6034 Clouds 0 1012 37 0 3.632 133 17:40 17.10.2019
6035 Clouds 0 1012 37 0 3.632 133 17:22 17.10.2019
6036 Clouds 0 1012 37 0 3.632 133 16:55 17.10.2019
6037 Clouds 0 1012 37 0 3.632 133 16:37 17.10.2019
6038 Clouds 0 1012 37 0 3.632 133 16:18 17.10.2019
6039 Clouds 0 1012 37 0 3.632 133 15:55 17.10.2019
6040 Clouds 0 1012 37 0 3.632 133 15:37 17.10.2019
6041 Clear 0 1012 39 0 2.546 153 15:18 17.10.2019
6042 Clouds 0 1012 37 0 2.717 152 14:42 17.10.2019
6043 Clouds 0 1012 37 0 2.717 152 14:23 17.10.2019
6044 Clouds 0 1012 37 0 2.717 152 13:54 17.10.2019
6045 Clouds 0 1012 37 0 2.717 152 13:36 17.10.2019
6046 Clouds 0 1012 37 0 2.717 152 13:18 17.10.2019
6047 Clouds 0 1012 37 0 2.717 152 12:41 17.10.2019
6048 Clear 6 1010 29 0 1.187 205 12:20 17.10.2019
6049 Clear 6 1010 29 0 1.187 205 11:58 17.10.2019
6050 Clear 6 1010 29 0 1.187 205 11:40 17.10.2019
6051 Clear 6 1010 29 0 1.187 205 11:19 17.10.2019
6052 Clear 6 1010 29 0 1.187 205 10:54 17.10.2019
6053 Clear 6 1010 29 0 1.187 205 10:54 17.10.2019
6054 Clear 6 1010 29 0 1.187 205 10:54 17.10.2019
6055 Clear 6 1010 29 0 1.187 205 10:36 17.10.2019
6056 Clear 6 1010 29 0 1.187 205 10:18 17.10.2019
6057 Clear 6 1010 29 0 1.187 205 10:18 17.10.2019
6058 Clear 6 1010 29 0 1.187 205 10:18 17.10.2019
6059 Clear 6 1010 29 0 1.345 190 09:41 17.10.2019
6060 Clouds 6 1012 25 0 1.573 225 09:22 17.10.2019
6061 Clouds 6 1012 25 0 1.573 225 08:58 17.10.2019
6062 Clouds 6 1012 25 0 1.573 225 08:58 17.10.2019
6063 Clouds 6 1012 25 0 1.573 225 08:39 17.10.2019
6064 Clouds 6 1012 25 0 1.573 225 08:20 17.10.2019
6065 -273 0 0 0 0 0 07:54 17.10.2019
6066 Clouds 6 1012 25 0 1.573 225 07:54 17.10.2019
6067 Clouds 6 1012 25 0 1.573 225 07:36 17.10.2019
6068 Clouds 6 1012 25 0 1.573 225 07:18 17.10.2019
6069 Clouds 6 1012 25 0 1.573 225 06:39 17.10.2019
6070 Clouds 3 1015 33 0 1.81 152 06:20 17.10.2019
6071 Clouds 3 1015 33 0 1.81 152 05:49 17.10.2019
6072 Clouds 3 1015 33 0 1.81 152 05:30 17.10.2019
6073 Clouds 3 1015 33 0 1.81 152 04:51 17.10.2019
6074 Clouds 3 1015 33 0 1.81 152 03:52 17.10.2019
6075 Clear -4 1018 51 0 2.193 137 02:35 17.10.2019
6076 Clear -4 1018 51 0 2.193 137 00:56 17.10.2019
6077 Clear -4 1018 51 0 2.193 137 00:36 17.10.2019
6078 Clear -4 1017 49 0 1.584 143 00:18 17.10.2019
6079 Clear -4 1017 49 0 1.584 143 23:42 16.10.2019
6080 Clear -4 1017 49 0 1.584 143 23:20 16.10.2019
6081 -273 0 0 0 0 0 22:55 16.10.2019
6082 Clear -4 1017 49 0 1.584 143 22:36 16.10.2019
6083 Clear -4 1017 49 0 1.584 143 22:18 16.10.2019
6084 -273 0 0 0 0 0 21:55 16.10.2019
6085 Clear -4 1017 49 0 1.745 140 21:37 16.10.2019
6086 Clear -4 1018 47 0 1.15 158 21:18 16.10.2019
6087 Clear -4 1018 47 0 1.15 158 21:18 16.10.2019
6088 Clear -4 1018 47 0 1.15 158 20:56 16.10.2019
6089 Clear -4 1018 47 0 1.15 158 20:38 16.10.2019
6090 Clear -4 1018 47 0 1.15 158 20:20 16.10.2019
6091 Clear -4 1018 47 0 1.15 158 20:20 16.10.2019
6092 Clear -4 1018 47 0 1.15 158 19:42 16.10.2019
6093 Clear -4 1018 47 0 1.15 158 19:21 16.10.2019
6094 Clear -4 1018 47 0 1.15 158 18:59 16.10.2019
6095 Clear -4 1018 47 0 1.15 158 18:39 16.10.2019
6096 Clear -4 1018 44 0 1.048 154 18:19 16.10.2019
6097 Clear -4 1018 44 0 1.048 154 17:56 16.10.2019
6098 Clear -4 1018 44 0 1.048 154 17:38 16.10.2019
6099 Clear -4 1018 44 0 1.048 154 17:19 16.10.2019
6100 Clear -4 1018 44 0 1.048 154 16:58 16.10.2019
6101 Clear -4 1018 44 0 1.048 154 16:38 16.10.2019
6102 Clear -4 1018 44 0 1.048 154 16:20 16.10.2019
6103 Clear -4 1018 44 0 1.048 154 15:55 16.10.2019
6104 Clear -4 1018 44 0 1.048 154 15:36 16.10.2019
6105 Clear -3 1018 44 0 0.401 284 15:18 16.10.2019
6106 Clear -3 1018 44 0 0.401 284 15:18 16.10.2019
6107 Clear -3 1018 44 0 0.401 284 14:55 16.10.2019
6108 Clear -3 1017 44 0 0.327 290 14:36 16.10.2019
6109 Clear -3 1017 44 0 0.327 290 14:18 16.10.2019
6110 Clear -3 1017 44 0 0.327 290 13:42 16.10.2019
6111 Clear -3 1017 44 0 0.327 290 13:23 16.10.2019
6112 Clear -3 1017 44 0 0.327 290 12:57 16.10.2019
6113 Clear -3 1017 44 0 0.327 290 12:39 16.10.2019
6114 Clear 4 1016 27 0 2.362 286 12:18 16.10.2019
6115 Clear 4 1016 27 0 2.362 286 11:42 16.10.2019
6116 Clear 4 1016 27 0 2.362 286 11:42 16.10.2019
6117 Clear 4 1016 27 0 2.362 286 11:18 16.10.2019
6118 Clear 4 1016 27 0 2.362 286 11:18 16.10.2019
6119 Clear 4 1016 27 0 2.362 286 10:38 16.10.2019
6120 Clear 4 1016 27 0 2.362 286 10:20 16.10.2019
6121 Clear 4 1016 27 0 2.362 286 09:55 16.10.2019
6122 Clear 4 1016 27 0 2.808 283 09:37 16.10.2019
6123 Clear 4 1017 23 0 2.561 274 09:19 16.10.2019
6124 Clear 4 1017 23 0 2.561 274 08:42 16.10.2019
6125 -273 0 0 0 0 0 08:24 16.10.2019
6126 Clear 4 1017 23 0 2.561 274 07:45 16.10.2019
6127 Clear 4 1017 23 0 2.561 274 07:45 16.10.2019
6128 Clear 4 1017 23 0 2.561 274 07:45 16.10.2019
6129 Clear 4 1017 23 0 2.561 274 07:25 16.10.2019
6130 Clear 4 1017 23 0 2.561 274 07:24 16.10.2019
6131 Clear 4 1017 23 0 2.561 274 06:57 16.10.2019
6132 Clear 4 1017 23 0 2.561 274 06:35 16.10.2019
6133 Clear 1 1021 26 0 1.373 162 05:39 16.10.2019
6134 Clear -5 1023 44 0 1.953 141 02:57 16.10.2019
6135 Clear -5 1023 44 0 1.953 141 02:38 16.10.2019
6136 Clear -5 1023 44 0 2.011 141 01:19 16.10.2019
6137 Clear -5 1023 44 0 2.011 141 00:47 16.10.2019
6138 Clear -5 1023 44 0 2.011 141 00:27 16.10.2019
6139 Clear -4 1023 42 0 2.628 137 23:40 15.10.2019
6140 Clear -4 1023 42 0 2.628 137 23:22 15.10.2019
6141 Clear -4 1023 42 0 2.628 137 22:56 15.10.2019
6142 Clear -4 1023 42 0 2.628 137 22:38 15.10.2019
6143 Clear -4 1023 42 0 2.628 137 22:19 15.10.2019
6144 Clear -4 1023 42 0 2.628 137 21:56 15.10.2019
6145 Clear -4 1023 42 0 2.503 138 21:38 15.10.2019
6146 Clear -4 1023 39 0 2.642 138 21:19 15.10.2019
6147 Clear -4 1023 39 0 2.642 138 20:57 15.10.2019
6148 Clear -4 1023 39 0 2.642 138 20:39 15.10.2019
6149 Clear -4 1023 39 0 2.642 138 20:20 15.10.2019
6150 Clear -4 1023 39 0 2.642 138 19:57 15.10.2019
6151 Clear -4 1023 39 0 2.642 138 19:39 15.10.2019
6152 Clear -4 1023 39 0 2.642 138 19:19 15.10.2019
6153 Clear -4 1023 39 0 2.642 138 19:19 15.10.2019
6154 Clear -4 1023 39 0 2.642 138 18:47 15.10.2019
6155 Clear -4 1023 39 0 2.642 138 18:28 15.10.2019
6156 Clear -3 1024 34 0 2.284 146 17:58 15.10.2019
6157 Clear -3 1024 34 0 2.284 146 17:39 15.10.2019
6158 Clear -3 1024 34 0 2.284 146 17:19 15.10.2019
6159 Clear -3 1024 34 0 2.284 146 16:46 15.10.2019
6160 Clear -3 1024 34 0 2.284 146 16:24 15.10.2019
6161 Clear -3 1024 34 0 2.284 146 15:59 15.10.2019
6162 Clear -3 1024 34 0 2.284 146 15:41 15.10.2019
6163 Clear -3 1024 34 0 2.284 146 15:41 15.10.2019
6164 Clear -3 1023 34 0 1.946 161 15:20 15.10.2019
6165 Clear -3 1023 34 0 1.946 161 14:58 15.10.2019
6166 Clear -3 1023 34 0 1.946 161 14:38 15.10.2019
6167 Clear -2 1023 34 0 2.415 153 14:19 15.10.2019
6168 Clear -2 1023 34 0 2.415 153 13:44 15.10.2019
6169 Clear -2 1023 34 0 2.415 153 13:21 15.10.2019
6170 Clear -2 1023 34 0 2.415 153 12:59 15.10.2019
6171 Clear -2 1023 34 0 2.415 153 12:39 15.10.2019
6172 Clear 5 1022 21 0 1.484 224 12:21 15.10.2019
6173 Clear 5 1022 21 0 1.484 224 11:55 15.10.2019
6174 Clear 5 1022 21 0 1.484 224 11:37 15.10.2019
6175 Clear 5 1022 21 0 1.484 224 11:18 15.10.2019
6176 Clear 5 1022 21 0 1.484 224 10:42 15.10.2019
6177 Clear 4 1021 24 0 1.96 176.63 10:19 15.10.2019
6178 Clear 4 1021 24 0 1.96 176.63 09:57 15.10.2019
6179 Clear 4 1021 24 0 1.96 176.63 09:37 15.10.2019
6180 Clear 4 1023 22 0 2.22 172.856 09:19 15.10.2019
6181 Clear 4 1023 22 0 2.09 173.466 08:42 15.10.2019
6182 Clear 4 1023 22 0 2.09 173.466 08:22 15.10.2019
6183 Clear 4 1023 22 0 2.09 173.466 07:56 15.10.2019
6184 Clear 4 1023 22 0 2.09 173.466 07:56 15.10.2019
6185 Clear 4 1023 22 0 2.09 173.466 07:38 15.10.2019
6186 Clear 4 1023 22 0 2.09 173.466 07:19 15.10.2019
6187 Clear 4 1023 22 0 2.09 173.466 06:44 15.10.2019
6188 -273 0 0 0 0 0 06:26 15.10.2019
6189 Clear 2 1027 24 0 1.52 150.909 05:41 15.10.2019
6190 Clear 2 1027 24 0 1.52 150.909 05:23 15.10.2019
6191 Clear 2 1027 24 0 1.52 150.909 04:25 15.10.2019
6192 Clear 2 1027 24 0 1.52 150.909 03:37 15.10.2019
6193 Clear -6 1028 37 0 0.97 140.436 02:24 15.10.2019
6194 Clear -6 1028 37 0 0.97 140.436 01:48 15.10.2019
6195 Clear -6 1028 37 0 0.93 139.519 01:19 15.10.2019
6196 Clear -6 1028 37 0 0.93 139.519 00:49 15.10.2019
6197 Clear -5 1029 35 0 0.87 144.546 00:21 15.10.2019
6198 Clear -5 1029 35 0 0.87 144.546 23:43 14.10.2019
6199 Clear -5 1029 35 0 0.87 144.546 23:20 14.10.2019
6200 Clear -5 1029 35 0 0.87 144.546 22:55 14.10.2019
6201 Clear -5 1029 35 0 0.87 144.546 22:37 14.10.2019
6202 Clear -5 1029 35 0 0.87 144.546 22:37 14.10.2019
6203 Clear -5 1029 35 0 0.87 144.546 22:18 14.10.2019
6204 Clear -5 1029 35 0 0.87 144.546 21:41 14.10.2019
6205 Clear -5 1029 34 0 0.91 143.557 21:22 14.10.2019
6206 Clear -5 1029 33 0 0.89 144.971 20:59 14.10.2019
6207 Clear -5 1029 33 0 0.89 144.971 20:40 14.10.2019
6208 Clear -5 1029 33 0 0.89 144.971 20:21 14.10.2019
6209 Clear -5 1029 33 0 0.89 144.971 19:59 14.10.2019
6210 Clear -5 1030 36 0 1.73 143 19:40 14.10.2019
6211 Clear -5 1030 36 0 1.73 143 19:22 14.10.2019
6212 Clear -5 1029 33 0 0.89 144.971 18:58 14.10.2019
6213 -273 0 0 0 0 0 18:58 14.10.2019
6214 Clear -5 1029 33 0 0.89 144.971 18:58 14.10.2019
6215 Clear -5 1029 33 0 0.89 144.971 18:38 14.10.2019
6216 Clear -4 1030 35 0 0.91 145.384 18:19 14.10.2019
6217 Clear -4 1030 35 0 0.91 145.384 17:44 14.10.2019
6218 Clear -4 1030 35 0 0.91 145.384 17:26 14.10.2019
6219 Clear -4 1030 35 0 0.91 145.384 16:59 14.10.2019
6220 Clear -4 1030 35 0 0.91 145.384 16:40 14.10.2019
6221 Clear -4 1030 35 0 0.91 145.384 16:20 14.10.2019
6222 Clear -4 1030 35 0 0.91 145.384 15:42 14.10.2019
6223 Clear -4 1029 37 0 0.75 199.113 15:22 14.10.2019
6224 Clear -4 1029 37 0 0.75 199.113 14:56 14.10.2019
6225 Clear -4 1029 37 0 0.75 199.113 14:56 14.10.2019
6226 Clear -4 1029 37 0 0.75 199.113 14:38 14.10.2019
6227 Clear -4 1029 37 0 0.75 199.113 14:18 14.10.2019
6228 Clear -4 1029 37 0 0.75 199.113 13:42 14.10.2019
6229 Clear -4 1029 38 0 0.7 189.341 13:21 14.10.2019
6230 Clear -4 1029 38 0 0.7 189.341 12:55 14.10.2019
6231 Clear -4 1029 38 0 0.7 189.341 12:36 14.10.2019
6232 Clear 4 1028 22 0 1.6 221.687 12:18 14.10.2019
6233 Clear 4 1028 22 0 1.6 221.687 11:44 14.10.2019
6234 Clear 4 1028 22 0 1.6 221.687 11:24 14.10.2019
6235 Clear 4 1028 22 0 1.6 221.687 10:57 14.10.2019
6236 Clear 4 1028 22 0 1.6 221.687 10:37 14.10.2019
6237 Clear 4 1028 22 0 1.6 221.687 10:18 14.10.2019
6238 Clear 4 1028 22 0 1.6 221.687 09:42 14.10.2019
6239 Clear 4 1028 22 0 1.6 221.687 09:41 14.10.2019
6240 Clear 3 1029 19 0 1.16 199.138 09:21 14.10.2019
6241 Clear 3 1029 19 0 1.16 199.138 08:51 14.10.2019
6242 Clear 3 1029 19 0 1.16 199.138 08:23 14.10.2019
6243 Clear 3 1029 19 0 1.16 199.138 07:47 14.10.2019
6244 Clear 3 1029 19 0 1.16 199.138 07:47 14.10.2019
6245 Clear 3 1029 19 0 1.16 199.138 07:25 14.10.2019
6246 Clear 3 1029 19 0 1.16 199.138 06:59 14.10.2019
6247 Clear 3 1029 19 0 1.16 199.138 06:28 14.10.2019
6248 Clear 0 1033 22 0 0.85 150.9 05:57 14.10.2019
6249 Clear 0 1033 22 0 0.85 150.9 05:27 14.10.2019
6250 Clear 0 1033 22 0 0.85 150.9 03:51 14.10.2019
6251 Clear 0 1033 22 0 0.85 150.9 03:26 14.10.2019
6252 Clear -7 1034 39 0 0.55 135.879 02:32 14.10.2019
6253 Clear -7 1034 38 0 0.51 129.012 01:21 14.10.2019
6254 Clear -7 1034 38 0 0.51 129.012 00:44 14.10.2019
6255 Clear -6 1033 38 0 0.55 153.67 00:19 14.10.2019
6256 Clear -6 1033 38 0 0.55 153.67 23:43 13.10.2019
6257 Clear -6 1033 38 0 0.55 153.67 23:20 13.10.2019
6258 Clear -6 1033 38 0 0.55 153.67 22:57 13.10.2019
6259 Clear -6 1033 38 0 0.55 153.67 22:39 13.10.2019
6260 Clear -6 1033 38 0 0.55 153.67 22:20 13.10.2019
6261 Clear -6 1033 38 0 0.55 153.67 21:57 13.10.2019
6262 Clear -6 1033 38 0 0.55 153.67 21:36 13.10.2019
6263 Clear -6 1033 38 0 0.55 153.67 21:36 13.10.2019
6264 Clear -5 1033 39 0 0.56 143.905 21:18 13.10.2019
6265 Clear -5 1033 39 0 0.56 143.905 20:57 13.10.2019
6266 Clear -6 1034 38 0 0.53 137.437 20:37 13.10.2019
6267 Clear -6 1034 38 0 0.53 137.437 20:19 13.10.2019
6268 Clear -6 1034 38 0 0.53 137.437 19:55 13.10.2019
6269 Clear -6 1034 38 0 0.53 137.437 19:55 13.10.2019
6270 Clear -6 1034 38 0 0.53 137.437 19:55 13.10.2019
6271 Clear -6 1034 38 0 0.53 137.437 19:37 13.10.2019
6272 Clear -6 1034 38 0 0.53 137.437 19:37 13.10.2019
6273 Clear -6 1034 38 0 0.53 137.437 19:19 13.10.2019
6274 -273 0 0 0 0 0 18:55 13.10.2019
6275 Clear -6 1034 38 0 0.53 137.437 18:55 13.10.2019
6276 Clear -6 1034 38 0 0.53 137.437 18:36 13.10.2019
6277 Clear -5 1033 39 0 0.42 86.561 18:18 13.10.2019
6278 Clear -5 1033 39 0 0.42 86.561 17:43 13.10.2019
6279 Clear -5 1033 39 0 0.42 86.561 17:25 13.10.2019
6280 -273 0 0 0 0 0 16:56 13.10.2019
6281 Clear -5 1033 39 0 0.42 86.561 16:36 13.10.2019
6282 Clear -5 1033 39 0 0.42 86.561 16:18 13.10.2019
6283 Clear -5 1033 39 0 0.42 86.561 15:55 13.10.2019
6284 Clear -5 1033 39 0 0.42 86.561 15:55 13.10.2019
6285 Clear -5 1033 39 0 0.42 86.561 15:36 13.10.2019
6286 Clouds -5 1032 41 0 0.59 278.42 15:18 13.10.2019
6287 Clouds -5 1032 41 0 0.59 278.42 14:40 13.10.2019
6288 Clouds -5 1032 41 0 0.59 278.42 14:22 13.10.2019
6289 Clouds -5 1032 41 0 0.59 278.42 13:59 13.10.2019
6290 Clouds -5 1032 41 0 0.59 278.42 13:39 13.10.2019
6291 Clouds -5 1032 41 0 0.59 278.42 13:39 13.10.2019
6292 Clouds -5 1032 43 0 0.59 293.707 13:21 13.10.2019
6293 Clouds -5 1032 43 0 0.59 293.707 12:57 13.10.2019
6294 Clouds -5 1032 43 0 0.59 293.707 12:38 13.10.2019
6295 Clouds 2 1030 22 0 2.61 249.13 12:19 13.10.2019
6296 Clouds 2 1030 22 0 2.61 249.13 11:58 13.10.2019
6297 Clouds 2 1030 22 0 2.61 249.13 11:38 13.10.2019
6298 Clouds 2 1030 22 0 2.61 249.13 11:19 13.10.2019
6299 Clouds 2 1030 22 0 2.61 249.13 10:42 13.10.2019
6300 Clouds 2 1030 22 0 2.61 249.13 10:23 13.10.2019
6301 Clouds 2 1030 22 0 2.61 249.13 09:58 13.10.2019
6302 Clouds 2 1030 22 0 2.61 249.13 09:38 13.10.2019
6303 Clouds 2 1030 18 0 1.95 232.673 09:19 13.10.2019
6304 Clouds 2 1030 19 0 1.94 229.888 08:43 13.10.2019
6305 Clouds 2 1030 19 0 1.94 229.888 08:23 13.10.2019
6306 Clouds 2 1030 19 0 1.94 229.888 07:50 13.10.2019
6307 Clouds 2 1030 19 0 1.94 229.888 07:30 13.10.2019
6308 Clouds 2 1030 19 0 1.94 229.888 06:49 13.10.2019
6309 Clouds 0 1033 23 0 1.66 201.667 05:59 13.10.2019
6310 Clouds 0 1033 23 0 1.66 201.667 04:59 13.10.2019
6311 Clouds 0 1033 23 0 1.66 201.667 04:33 13.10.2019
6312 Clear -6 1033 34 0 0.57 161.948 02:50 13.10.2019
6313 Clear -6 1033 34 0 0.57 161.948 02:25 13.10.2019
6314 Clear -6 1033 34 0 0.57 161.948 01:34 13.10.2019
6315 Clear -6 1033 34 0 0.74 173.754 00:53 13.10.2019
6316 Clear -6 1031 36 0 1.32 48.582 00:23 13.10.2019
6317 Clear -6 1031 36 0 1.32 48.582 23:59 12.10.2019
6318 Clear -6 1031 36 0 1.32 48.582 23:40 12.10.2019
6319 Clear -6 1031 36 0 1.32 48.582 23:21 12.10.2019
6320 Clear -6 1031 36 0 1.32 48.582 22:58 12.10.2019
6321 Clear -6 1031 36 0 1.32 48.582 22:39 12.10.2019
6322 Clear -6 1031 36 0 1.32 48.582 22:21 12.10.2019
6323 Clear -6 1031 36 0 1.32 48.582 21:56 12.10.2019
6324 Clear -6 1031 36 0 1.32 48.582 21:37 12.10.2019
6325 Clear -4 1030 38 0 2.25 38.851 21:19 12.10.2019
6326 Clear -5 1030 38 0 2.17 39.87 20:44 12.10.2019
6327 Clear -5 1030 38 0 2.17 39.87 20:26 12.10.2019
6328 -273 0 0 0 0 0 19:42 12.10.2019
6329 Clear -5 1030 38 0 2.17 39.87 19:23 12.10.2019
6330 Clear -5 1030 38 0 2.17 39.87 18:59 12.10.2019
6331 Clear -5 1030 38 0 2.17 39.87 18:59 12.10.2019
6332 Clear -5 1030 38 0 2.17 39.87 18:41 12.10.2019
6333 Clear -4 1029 39 0 2.63 33.394 18:23 12.10.2019
6334 Clear -4 1029 39 0 2.63 33.394 17:45 12.10.2019
6335 Clear -4 1029 39 0 2.63 33.394 17:20 12.10.2019
6336 Clear -4 1029 39 0 2.63 33.394 16:56 12.10.2019
6337 Clear -4 1029 39 0 2.63 33.394 16:38 12.10.2019
6338 Clear -4 1029 39 0 2.63 33.394 16:19 12.10.2019
6339 Clear -4 1029 39 0 2.63 33.394 15:44 12.10.2019
6340 Clear -4 1029 39 0 2.63 33.394 15:25 12.10.2019
6341 Clear -4 1029 39 0 2.63 33.394 15:25 12.10.2019
6342 Clear -3 1026 27 0 2.36 28.131 14:59 12.10.2019
6343 Clear -3 1026 27 0 2.36 28.131 14:38 12.10.2019
6344 Clear -3 1026 27 0 2.36 28.131 14:19 12.10.2019
6345 Clear -3 1026 27 0 2.36 28.131 13:45 12.10.2019
6346 Clear -3 1026 27 0 2.37 31.893 13:27 12.10.2019
6347 Clear -3 1026 27 0 2.37 31.893 12:55 12.10.2019
6348 Clear -3 1026 27 0 2.37 31.893 12:36 12.10.2019
6349 Clear 3 1022 16 0 2.81 29.586 12:18 12.10.2019
6350 Clear 3 1022 16 0 2.81 29.586 11:40 12.10.2019
6351 Clear 3 1022 16 0 2.81 29.586 11:22 12.10.2019
6352 Clear 3 1022 16 0 2.81 29.586 10:56 12.10.2019
6353 Clear 3 1022 16 0 2.81 29.586 10:37 12.10.2019
6354 Clear 3 1022 16 0 2.81 29.586 10:19 12.10.2019
6355 Clear 3 1022 16 0 2.81 29.586 09:56 12.10.2019
6356 Clear 3 1022 16 0 2.81 29.586 09:56 12.10.2019
6357 Clear 3 1022 16 0 2.81 29.586 09:55 12.10.2019
6358 Clear 3 1022 16 0 2.81 29.586 09:37 12.10.2019
6359 Clear 4 1022 14 0 2.09 3.233 09:18 12.10.2019
6360 Clear 4 1022 14 0 2.09 3.233 09:18 12.10.2019
6361 Clear 4 1022 13 0 1.96 352.193 08:41 12.10.2019
6362 Clear 4 1022 13 0 1.96 352.193 08:41 12.10.2019
6363 Clear 4 1022 13 0 1.96 352.193 08:20 12.10.2019
6364 Clear 4 1022 13 0 1.96 352.193 07:36 12.10.2019
6365 Clear 4 1022 13 0 1.96 352.193 07:18 12.10.2019
6366 Clear 1 1024 29 0 1.5 29.003 05:53 12.10.2019
6367 Clear 1 1024 29 0 1.5 29.003 05:24 12.10.2019
6368 Clear 1 1024 29 0 1.5 29.003 04:26 12.10.2019
6369 Clear 1 1024 29 0 1.5 29.003 04:26 12.10.2019
6370 Clear 1 1024 29 0 1.5 29.003 03:42 12.10.2019
6371 Clear -5 1024 77 0 1.74 27.909 02:28 12.10.2019
6372 Clear -5 1024 75 0 1.92 30.366 01:29 12.10.2019
6373 Clear -5 1024 75 0 1.92 30.366 00:43 12.10.2019
6374 Clear -4 1021 75 0 1.67 22.593 00:19 12.10.2019
6375 Clear -4 1021 75 0 1.67 22.593 00:19 12.10.2019
6376 Clear -4 1021 75 0 1.67 22.593 23:40 11.10.2019
6377 Clear -4 1021 75 0 1.67 22.593 23:20 11.10.2019
6378 Clear -4 1021 75 0 1.67 22.593 22:56 11.10.2019
6379 Clear -4 1021 75 0 1.67 22.593 22:37 11.10.2019
6380 Clear -4 1021 75 0 1.67 22.593 22:18 11.10.2019
6381 Clear -4 1021 75 0 1.67 22.593 21:40 11.10.2019
6382 Clear -3 1020 68 0 1.38 18.211 21:21 11.10.2019
6383 Clear -4 1020 69 0 1.21 14.392 20:45 11.10.2019
6384 Clear -4 1020 69 0 1.21 14.392 20:27 11.10.2019
6385 Clear -4 1020 69 0 1.21 14.392 19:59 11.10.2019
6386 Clear -4 1020 69 0 1.21 14.392 19:39 11.10.2019
6387 Clear -4 1020 69 0 1.21 14.392 19:18 11.10.2019
6388 Clear -4 1020 69 0 1.21 14.392 19:18 11.10.2019
6389 Clear -4 1020 69 0 1.21 14.392 19:18 11.10.2019
6390 Clear -4 1020 69 0 1.21 14.392 19:18 11.10.2019
6391 Clear -4 1020 69 0 1.21 14.392 18:59 11.10.2019
6392 Clear -4 1020 69 0 1.21 14.392 18:39 11.10.2019
6393 Clear -3 1019 63 0 1.05 353.828 18:19 11.10.2019
6394 Clear -3 1019 63 0 1.05 353.828 17:59 11.10.2019
6395 Clear -3 1019 63 0 1.05 353.828 17:38 11.10.2019
6396 Clear -3 1019 63 0 1.05 353.828 17:19 11.10.2019
6397 Clear -3 1019 63 0 1.05 353.828 17:19 11.10.2019
6398 Clear -3 1019 63 0 1.05 353.828 16:59 11.10.2019
6399 Clear -3 1019 63 0 1.05 353.828 16:39 11.10.2019
6400 Clear -3 1019 63 0 1.05 353.828 16:19 11.10.2019
6401 Clear -3 1019 63 0 1.05 353.828 15:55 11.10.2019
6402 Clear -3 1019 63 0 1.05 353.828 15:36 11.10.2019
6403 Clear -1 1017 58 0 1.6 320.849 15:18 11.10.2019
6404 Clear -1 1017 58 0 1.6 320.849 14:41 11.10.2019
6405 Clear -1 1017 58 0 1.6 320.849 14:21 11.10.2019
6406 Clear -1 1017 58 0 1.6 320.849 13:45 11.10.2019
6407 Clear -1 1017 60 0 1.62 322.205 13:26 11.10.2019
6408 Clear -1 1017 60 0 1.62 322.205 12:58 11.10.2019
6409 Clear -1 1017 60 0 1.62 322.205 12:39 11.10.2019
6410 Clear 4 1014 41 0 5.12 305.46 12:20 11.10.2019
6411 Clear 4 1014 41 0 5.12 305.46 11:58 11.10.2019
6412 Clear 4 1014 41 0 5.12 305.46 11:38 11.10.2019
6413 Clear 4 1014 41 0 5.12 305.46 11:38 11.10.2019
6414 Clear 4 1014 41 0 5.12 305.46 11:20 11.10.2019
6415 Clear 4 1014 41 0 5.12 305.46 10:55 11.10.2019
6416 Clear 4 1014 41 0 5.12 305.46 10:36 11.10.2019
6417 Clear 4 1014 41 0 5.12 305.46 10:18 11.10.2019
6418 Clear 4 1014 41 0 5.12 305.46 09:42 11.10.2019
6419 Clouds 6 1015 38 0 5.42 293.294 09:21 11.10.2019
6420 Clouds 6 1015 38 0 5.42 293.294 08:57 11.10.2019
6421 Clouds 6 1015 38 0 5.42 293.294 08:38 11.10.2019
6422 Clouds 6 1015 38 0 5.42 293.294 08:20 11.10.2019
6423 Clouds 6 1015 38 0 5.42 293.294 07:52 11.10.2019
6424 Clouds 6 1015 38 0 5.42 293.294 07:33 11.10.2019
6425 Clouds 6 1015 38 0 5.42 293.294 06:50 11.10.2019
6426 Clouds 6 1015 38 0 5.42 293.294 06:25 11.10.2019
6427 Clouds 3 1016 36 0 1.68 284.202 05:47 11.10.2019
6428 Clouds 3 1016 36 0 1.68 284.202 05:29 11.10.2019
6429 Clouds 3 1016 36 0 1.68 284.202 04:58 11.10.2019
6430 Clouds 3 1016 36 0 1.68 284.202 03:27 11.10.2019
6431 Clouds -3 1018 63 0 0.61 340.732 01:18 11.10.2019
6432 Clouds -3 1018 63 0 0.61 340.732 01:18 11.10.2019
6433 Clouds -3 1018 63 0 0.61 340.732 00:31 11.10.2019
6434 Clouds -2 1017 74 0 1.48 270.543 23:58 10.10.2019
6435 Clouds -2 1017 74 0 1.48 270.543 23:40 10.10.2019
6436 Clouds -2 1017 74 0 1.48 270.543 23:19 10.10.2019
6437 Clouds -2 1017 74 0 1.48 270.543 22:55 10.10.2019
6438 Clouds -2 1017 74 0 1.48 270.543 22:36 10.10.2019
6439 Clouds -2 1017 74 0 1.48 270.543 22:18 10.10.2019
6440 Clouds -2 1017 74 0 1.48 270.543 21:42 10.10.2019
6441 Clear -2 1017 77 0 1.32 270.479 21:22 10.10.2019
6442 Clear -2 1018 78 0 1.04 262.978 20:58 10.10.2019
6443 Clear -2 1018 78 0 1.04 262.978 20:39 10.10.2019
6444 Clear -2 1018 78 0 1.04 262.978 20:19 10.10.2019
6445 Clear -2 1018 78 0 1.04 262.978 19:56 10.10.2019
6446 Clear -2 1018 78 0 1.04 262.978 19:38 10.10.2019
6447 Clear -2 1018 78 0 1.04 262.978 19:19 10.10.2019
6448 Clear -2 1018 78 0 1.04 262.978 18:42 10.10.2019
6449 Clear -2 1018 78 0 0.9 9.619 18:21 10.10.2019
6450 Clear -2 1018 78 0 0.9 9.619 17:58 10.10.2019
6451 Clear -2 1018 78 0 0.9 9.619 17:39 10.10.2019
6452 Clear -2 1018 78 0 0.9 9.619 17:18 10.10.2019
6453 Clear -2 1018 78 0 0.9 9.619 17:18 10.10.2019
6454 Clear -2 1018 78 0 0.9 9.619 16:55 10.10.2019
6455 Clear -2 1018 78 0 0.9 9.619 16:37 10.10.2019
6456 Clear -2 1018 78 0 0.9 9.619 16:18 10.10.2019
6457 Clear -2 1018 78 0 0.9 9.619 15:39 10.10.2019
6458 Clouds 0 1017 60 0 2.61 316.085 15:21 10.10.2019
6459 Clouds 0 1017 60 0 2.61 316.085 14:56 10.10.2019
6460 Clouds 0 1017 60 0 2.61 316.085 14:37 10.10.2019
6461 Clouds 0 1017 60 0 2.61 316.085 14:19 10.10.2019
6462 Clouds 0 1017 60 0 2.61 316.085 13:55 10.10.2019
6463 Clouds 0 1017 60 0 2.61 316.085 13:37 10.10.2019
6464 Clouds 0 1017 62 0 2.51 325.303 13:18 10.10.2019
6465 Clouds 0 1017 62 0 2.51 325.303 12:41 10.10.2019
6466 Clouds 6 1015 42 0 6.24 302.633 12:20 10.10.2019
6467 Clouds 6 1015 42 0 6.24 302.633 11:58 10.10.2019
6468 Clouds 6 1015 42 0 6.24 302.633 11:58 10.10.2019
6469 Clouds 6 1015 42 0 6.24 302.633 11:39 10.10.2019
6470 Clouds 6 1015 42 0 6.24 302.633 11:19 10.10.2019
6471 Clouds 6 1015 42 0 6.24 302.633 10:45 10.10.2019
6472 Clouds 6 1015 42 0 6.24 302.633 10:27 10.10.2019
6473 Clouds 6 1015 42 0 6.24 302.633 09:58 10.10.2019
6474 Clouds 6 1015 42 0 6.24 302.633 09:40 10.10.2019
6475 Clouds 6 1016 41 0 5.87 288.352 09:21 10.10.2019
6476 Clouds 6 1016 41 0 6.3 292.075 08:58 10.10.2019
6477 Clouds 6 1016 41 0 6.3 292.075 08:38 10.10.2019
6478 Clouds 6 1016 41 0 6.3 292.075 08:19 10.10.2019
6479 Clouds 6 1016 41 0 6.3 292.075 08:19 10.10.2019
6480 Clouds 6 1016 41 0 6.3 292.075 07:45 10.10.2019
6481 Clouds 6 1016 41 0 6.3 292.075 07:23 10.10.2019
6482 Clouds 6 1016 41 0 6.3 292.075 06:49 10.10.2019
6483 Clouds 6 1016 41 0 6.3 292.075 06:29 10.10.2019
6484 Clear 3 1018 46 0 1.57 216.468 05:28 10.10.2019
6485 Clear 3 1018 46 0 1.57 216.468 05:28 10.10.2019
6486 Clear 3 1018 46 0 1.57 216.468 04:54 10.10.2019
6487 Clear 3 1018 46 0 1.57 216.468 04:33 10.10.2019
6488 Clear -4 1020 82 0 1.08 228.446 01:46 10.10.2019
6489 Clear -4 1020 82 0 1.08 228.446 01:46 10.10.2019
6490 Clear -4 1020 79 0 1.09 240.711 01:26 10.10.2019
6491 Clear -4 1020 79 0 1.09 240.711 00:54 10.10.2019
6492 Clear -3 1020 79 0 1.13 248.915 00:23 10.10.2019
6493 Clear -3 1020 79 0 1.13 248.915 23:40 09.10.2019
6494 Clear -3 1020 79 0 1.13 248.915 23:22 09.10.2019
6495 Clear -3 1020 79 0 1.13 248.915 22:57 09.10.2019
6496 Clear -3 1020 79 0 1.13 248.915 22:38 09.10.2019
6497 Clear -3 1020 79 0 1.13 248.915 22:20 09.10.2019
6498 Clear -3 1020 79 0 1.13 248.915 21:41 09.10.2019
6499 Clear -2 1020 81 0 0.9 279.869 21:21 09.10.2019
6500 Clear -2 1020 80 0 0.84 273.47 20:56 09.10.2019
6501 Clear -2 1020 80 0 0.84 273.47 20:38 09.10.2019
6502 Clear -2 1020 80 0 0.84 273.47 20:19 09.10.2019
6503 Clear -2 1020 80 0 0.84 273.47 20:19 09.10.2019
6504 Clear -2 1020 80 0 0.84 273.47 19:58 09.10.2019
6505 Clear -2 1020 80 0 0.84 273.47 19:40 09.10.2019
6506 Clear -2 1020 80 0 0.84 273.47 19:21 09.10.2019
6507 Clear -2 1020 80 0 0.84 273.47 18:38 09.10.2019
6508 Clear -2 1020 76 0 0.89 335.966 18:20 09.10.2019
6509 Clear -2 1020 76 0 0.89 335.966 17:57 09.10.2019
6510 Clear -2 1020 76 0 0.89 335.966 17:37 09.10.2019
6511 Clear -2 1020 76 0 0.89 335.966 17:19 09.10.2019
6512 Clear -2 1020 76 0 0.89 335.966 16:55 09.10.2019
6513 Clear -2 1020 76 0 0.89 335.966 16:36 09.10.2019
6514 Clear -2 1020 76 0 0.89 335.966 16:18 09.10.2019
6515 Clear -2 1020 76 0 0.89 335.966 15:55 09.10.2019
6516 Clear -2 1020 76 0 0.89 335.966 15:55 09.10.2019
6517 Clear -2 1020 76 0 0.89 335.966 15:36 09.10.2019
6518 Clear 2 1019 52 0 4.03 318.72 15:18 09.10.2019
6519 Clear 2 1019 52 0 4.03 318.72 14:42 09.10.2019
6520 Clear 2 1019 52 0 4.03 318.72 14:42 09.10.2019
6521 Clear 2 1019 52 0 4.03 318.72 14:18 09.10.2019
6522 Clear 2 1019 52 0 4.03 318.72 13:58 09.10.2019
6523 Clear 2 1019 52 0 4.03 318.72 13:36 09.10.2019
6524 Clear 2 1019 52 0 4.03 318.72 13:36 09.10.2019
6525 Clear 2 1019 52 0 3.88 321.172 13:18 09.10.2019
6526 Clear 2 1019 52 0 3.88 321.172 12:42 09.10.2019
6527 Clear 6 1017 38 0 6.91 311.85 12:22 09.10.2019
6528 Clear 6 1017 38 0 6.91 311.85 11:58 09.10.2019
6529 Clear 6 1017 38 0 6.91 311.85 11:39 09.10.2019
6530 Clear 6 1017 38 0 6.91 311.85 11:20 09.10.2019
6531 -273 0 0 0 0 0 10:55 09.10.2019
6532 Clear 6 1017 38 0 6.91 311.85 10:37 09.10.2019
6533 Clear 6 1017 38 0 6.91 311.85 10:18 09.10.2019
6534 Clear 6 1017 38 0 6.91 311.85 09:42 09.10.2019
6535 Clear 7 1017 36 0 5.53 302.414 09:19 09.10.2019
6536 Clear 7 1017 36 0 5.53 302.414 08:56 09.10.2019
6537 Clear 7 1017 37 0 5.02 294.795 08:37 09.10.2019
6538 Clear 7 1017 37 0 5.02 294.795 08:18 09.10.2019
6539 Clear 7 1017 37 0 5.02 294.795 08:18 09.10.2019
6540 Clear 7 1017 37 0 5.02 294.795 07:43 09.10.2019
6541 Clear 7 1017 37 0 5.02 294.795 07:23 09.10.2019
6542 Clear 7 1017 37 0 5.02 294.795 06:52 09.10.2019
6543 Clear 5 1019 39 0 1.77 246.267 06:20 09.10.2019
6544 Clear 5 1019 39 0 1.77 246.267 06:20 09.10.2019
6545 Clear 5 1019 39 0 1.77 246.267 05:46 09.10.2019
6546 Clear 5 1019 39 0 1.77 246.267 04:27 09.10.2019
6547 Clear -3 1020 63 0 0.63 291.279 02:54 09.10.2019
6548 Clear -3 1020 63 0 0.63 291.279 01:44 09.10.2019
6549 Clear -3 1020 63 0 0.77 275.666 01:21 09.10.2019
6550 Clear -3 1020 63 0 0.77 275.666 01:21 09.10.2019
6551 Clear -3 1020 63 0 0.77 275.666 01:21 09.10.2019
6552 Clear -3 1020 63 0 0.77 275.666 00:57 09.10.2019
6553 Clear -3 1020 63 0 0.77 275.666 00:39 09.10.2019
6554 Clear -2 1019 63 0 1.22 287.469 00:20 09.10.2019
6555 Clear -2 1019 63 0 1.22 287.469 23:40 08.10.2019
6556 Clear -2 1019 63 0 1.22 287.469 23:19 08.10.2019
6557 Clear -2 1019 63 0 1.22 287.469 22:58 08.10.2019
6558 Clear -2 1019 63 0 1.22 287.469 22:39 08.10.2019
6559 Clear -2 1019 63 0 1.22 287.469 22:20 08.10.2019
6560 Clear -2 1019 63 0 1.22 287.469 21:57 08.10.2019
6561 Clear -2 1019 63 0 1.22 287.469 21:39 08.10.2019
6562 Clouds -1 1019 60 0 1.16 281.455 21:19 08.10.2019
6563 Clouds -1 1019 60 0 1.16 281.455 20:56 08.10.2019
6564 Clear -1 1019 58 0 1.3 269.912 20:38 08.10.2019
6565 Clear -1 1019 58 0 1.3 269.912 20:20 08.10.2019
6566 Clear -1 1019 58 0 1.3 269.912 19:58 08.10.2019
6567 Clear -1 1019 58 0 1.3 269.912 19:39 08.10.2019
6568 Clear -1 1019 58 0 1.3 269.912 19:20 08.10.2019
6569 Clear -1 1019 58 0 1.3 269.912 18:54 08.10.2019
6570 Clear -1 1019 58 0 1.3 269.912 18:36 08.10.2019
6571 Clear 0 1018 51 0 1.39 266.663 18:18 08.10.2019
6572 Clear 0 1018 51 0 1.39 266.663 17:40 08.10.2019
6573 Clear 0 1018 51 0 1.39 266.663 17:20 08.10.2019
6574 Clear 0 1018 51 0 1.39 266.663 16:58 08.10.2019
6575 Clear 0 1018 51 0 1.39 266.663 16:38 08.10.2019
6576 Clear 0 1018 51 0 1.39 266.663 16:20 08.10.2019
6577 Clear 0 1018 51 0 1.39 266.663 15:41 08.10.2019
6578 Clear 0 1018 51 0 1.39 266.663 15:41 08.10.2019
6579 Clear 2 1018 44 0 1.98 279.291 15:21 08.10.2019
6580 Clear 2 1018 44 0 1.98 279.291 14:58 08.10.2019
6581 Clear 2 1018 44 0 1.98 279.291 14:39 08.10.2019
6582 Clear 2 1018 44 0 1.98 279.291 14:20 08.10.2019
6583 -273 0 0 0 0 0 13:56 08.10.2019
6584 Clear 2 1018 44 0 1.98 279.291 13:38 08.10.2019
6585 Clear 2 1018 44 0 1.98 279.291 13:18 08.10.2019
6586 Clear 2 1018 41 0 2.05 269.413 12:56 08.10.2019
6587 Clear 2 1018 41 0 2.05 269.413 12:37 08.10.2019
6588 Clear 8 1016 28 0 5.64 261.258 12:18 08.10.2019
6589 Clear 8 1016 28 0 5.64 261.258 11:41 08.10.2019
6590 Clear 8 1016 28 0 5.64 261.258 11:22 08.10.2019
6591 Clear 8 1016 28 0 5.64 261.258 10:56 08.10.2019
6592 Clear 8 1016 28 0 5.64 261.258 10:36 08.10.2019
6593 Clear 8 1016 28 0 5.64 261.258 10:18 08.10.2019
6594 Clear 8 1016 28 0 5.64 261.258 09:41 08.10.2019
6595 Clear 8 1016 28 0 5.64 261.258 09:41 08.10.2019
6596 Clear 8 1016 28 0 5.64 261.258 09:41 08.10.2019
6597 Clear 9 1018 27 0 6.18 243.12 09:23 08.10.2019
6598 Clear 9 1018 27 0 6.18 243.12 08:57 08.10.2019
6599 Clear 9 1018 27 0 6.31 244.535 08:39 08.10.2019
6600 Clear 9 1018 27 0 6.31 244.535 08:21 08.10.2019
6601 Clear 9 1018 27 0 6.31 244.535 07:41 08.10.2019
6602 Clear 9 1018 27 0 6.31 244.535 07:20 08.10.2019
6603 Clear 9 1018 27 0 6.31 244.535 07:20 08.10.2019
6604 Clear 9 1018 27 0 6.31 244.535 06:47 08.10.2019
6605 Clear 9 1018 27 0 6.31 244.535 06:26 08.10.2019
6606 Clear 6 1021 38 0 2.38 197.956 05:44 08.10.2019
6607 Clear 6 1021 38 0 2.38 197.956 05:24 08.10.2019
6608 Clear 6 1021 38 0 2.38 197.956 03:32 08.10.2019
6609 Clear -1 1022 68 0 1.35 163.317 02:46 08.10.2019
6610 Clear -1 1022 68 0 1.35 163.317 02:26 08.10.2019
6611 Clear -1 1022 68 0 1.35 163.317 01:42 08.10.2019
6612 Clear -1 1022 64 0 1.33 162.286 00:57 08.10.2019
6613 Clear -1 1022 64 0 1.33 162.286 00:36 08.10.2019
6614 Clear -1 1022 70 0 1.12 160.135 00:18 08.10.2019
6615 Clear -1 1022 70 0 1.12 160.135 23:38 07.10.2019
6616 Clear -1 1022 70 0 1.12 160.135 23:19 07.10.2019
6617 Clear -1 1022 70 0 1.12 160.135 22:55 07.10.2019
6618 Clear -1 1022 70 0 1.12 160.135 22:37 07.10.2019
6619 Clear -1 1022 70 0 1.12 160.135 22:19 07.10.2019
6620 Clear -1 1022 70 0 1.12 160.135 21:55 07.10.2019
6621 Clear -1 1022 70 0 1.12 160.135 21:37 07.10.2019
6622 Clear -1 1023 68 0 0.79 153.564 21:18 07.10.2019
6623 Clear -1 1023 67 0 0.79 154.957 20:56 07.10.2019
6624 Clear -1 1023 67 0 0.79 154.957 20:38 07.10.2019
6625 Clear -1 1023 67 0 0.79 154.957 20:18 07.10.2019
6626 Clear -1 1023 67 0 0.79 154.957 19:42 07.10.2019
6627 Clear -1 1023 67 0 0.79 154.957 19:42 07.10.2019
6628 Clear -1 1023 67 0 0.79 154.957 19:21 07.10.2019
6629 Clear -1 1023 67 0 0.79 154.957 19:00 07.10.2019
6630 Clear -1 1023 67 0 0.79 154.957 18:41 07.10.2019
6631 Clear 0 1024 62 0 0.97 64.987 18:19 07.10.2019
6632 Clear 0 1024 62 0 0.97 64.987 17:56 07.10.2019
6633 Clear 0 1024 62 0 0.97 64.987 17:38 07.10.2019
6634 Clear 0 1024 62 0 0.97 64.987 17:18 07.10.2019
6635 Clear 0 1024 62 0 0.97 64.987 16:44 07.10.2019
6636 Clear 0 1024 62 0 0.97 64.987 16:25 07.10.2019
6637 Clear 0 1024 62 0 0.97 64.987 15:57 07.10.2019
6638 Clear 0 1024 62 0 0.97 64.987 15:38 07.10.2019
6639 Clear 2 1024 55 0 1.86 42.673 15:20 07.10.2019
6640 Clear 2 1024 55 0 1.86 42.673 14:41 07.10.2019
6641 Clear 2 1024 55 0 1.86 42.673 14:23 07.10.2019
6642 Clear 2 1024 55 0 1.86 42.673 13:45 07.10.2019
6643 Clear 2 1024 57 0 1.71 49.37 13:21 07.10.2019
6644 Clear 2 1024 57 0 1.71 49.37 12:58 07.10.2019
6645 Clear 2 1024 57 0 1.71 49.37 12:39 07.10.2019
6646 Clear 8 1023 36 0 1.29 6.095 12:20 07.10.2019
6647 Clear 8 1023 36 0 1.29 6.095 11:59 07.10.2019
6648 Clear 8 1023 36 0 1.29 6.095 11:40 07.10.2019
6649 Clear 8 1023 36 0 1.29 6.095 11:20 07.10.2019
6650 Clear 8 1023 36 0 1.29 6.095 10:43 07.10.2019
6651 Clear 8 1023 36 0 1.29 6.095 10:23 07.10.2019
6652 Clear 8 1023 36 0 1.29 6.095 09:58 07.10.2019
6653 Clear 8 1023 36 0 1.29 6.095 09:38 07.10.2019
6654 Clear 8 1023 36 0 1.29 6.095 09:38 07.10.2019
6655 Clear 8 1025 37 0 1.03 338.549 09:20 07.10.2019
6656 Clear 8 1025 39 0 0.82 331.496 08:43 07.10.2019
6657 Clear 8 1025 39 0 0.82 331.496 08:20 07.10.2019
6658 Clear 8 1025 39 0 0.82 331.496 07:47 07.10.2019
6659 Clear 8 1025 39 0 0.82 331.496 07:27 07.10.2019
6660 Clear 8 1025 39 0 0.82 331.496 06:58 07.10.2019
6661 Clear 8 1025 39 0 0.82 331.496 06:38 07.10.2019
6662 Clear 5 1026 51 0 1.44 48.508 06:18 07.10.2019
6663 Clear 5 1026 51 0 1.44 48.508 05:26 07.10.2019
6664 Clear 5 1026 51 0 1.44 48.508 04:49 07.10.2019
6665 Clear 5 1026 51 0 1.44 48.508 03:46 07.10.2019
6666 Clear 5 1026 51 0 1.44 48.508 03:46 07.10.2019
6667 Clear 5 1026 51 0 1.44 48.508 03:27 07.10.2019
6668 Clear -1 1027 74 0 1.93 37.664 02:37 07.10.2019
6669 Clear -1 1027 74 0 1.93 37.664 02:18 07.10.2019
6670 Clear -1 1027 74 0 1.93 37.664 02:18 07.10.2019
6671 Clear -1 1027 73 0 1.93 35.438 01:23 07.10.2019
6672 Clear -1 1027 73 0 1.93 35.438 00:51 07.10.2019
6673 Clear -1 1026 71 0 1.8 32.984 00:24 07.10.2019
6674 Clear -1 1026 71 0 1.8 32.984 23:59 06.10.2019
6675 Clear -1 1026 71 0 1.8 32.984 23:40 06.10.2019
6676 Clear -1 1026 71 0 1.8 32.984 23:19 06.10.2019
6677 Clear -1 1026 71 0 1.8 32.984 22:55 06.10.2019
6678 Clear -1 1026 71 0 1.8 32.984 22:55 06.10.2019
6679 Clear -1 1026 71 0 1.8 32.984 22:37 06.10.2019
6680 Clear -1 1026 71 0 1.8 32.984 22:18 06.10.2019
6681 Clear -1 1026 71 0 1.8 32.984 21:55 06.10.2019
6682 Clear -1 1026 71 0 1.8 32.984 21:55 06.10.2019
6683 Clear -1 1026 71 0 1.8 32.984 21:36 06.10.2019
6684 Clear -1 1027 64 0 1.4 27.206 21:18 06.10.2019
6685 Clear -1 1027 64 0 1.4 27.206 20:54 06.10.2019
6686 Clear -1 1027 64 0 1.4 27.206 20:54 06.10.2019
6687 Clear -1 1027 63 0 1.4 29.126 20:36 06.10.2019
6688 Clear -1 1027 63 0 1.4 29.126 20:18 06.10.2019
6689 Clear -1 1027 63 0 1.4 29.126 19:54 06.10.2019
6690 Clear -1 1027 63 0 1.4 29.126 19:36 06.10.2019
6691 Clear -1 1027 63 0 1.4 29.126 19:18 06.10.2019
6692 Clear -1 1027 63 0 1.4 29.126 18:54 06.10.2019
6693 Clear -1 1027 63 0 1.4 29.126 18:54 06.10.2019
6694 Clear -1 1027 63 0 1.4 29.126 18:36 06.10.2019
6695 Clear 0 1027 60 0 1.41 30.811 18:18 06.10.2019
6696 Clear 0 1027 60 0 1.41 30.811 17:42 06.10.2019
6697 Clear 0 1027 60 0 1.41 30.811 17:20 06.10.2019
6698 Clear 0 1027 60 0 1.41 30.811 16:55 06.10.2019
6699 Clear 0 1027 60 0 1.41 30.811 16:55 06.10.2019
6700 Clear 0 1027 60 0 1.41 30.811 16:36 06.10.2019
6701 Clear 0 1027 60 0 1.41 30.811 16:18 06.10.2019
6702 Clear 0 1027 60 0 1.41 30.811 15:42 06.10.2019
6703 Clear 1 1026 59 0 1.21 329.443 15:19 06.10.2019
6704 Clear 1 1026 59 0 1.21 329.443 15:19 06.10.2019
6705 -273 0 0 0 0 0 15:19 06.10.2019
6706 Clear 1 1026 59 0 1.21 329.443 14:44 06.10.2019
6707 Clear 1 1026 59 0 1.21 329.443 14:25 06.10.2019
6708 Clear 1 1026 59 0 1.21 329.443 13:58 06.10.2019
6709 Clear 1 1026 59 0 1.21 329.443 13:39 06.10.2019
6710 Clear 0 1026 58 0 1.16 326.159 13:21 06.10.2019
6711 Clear 0 1026 58 0 1.16 326.159 12:57 06.10.2019
6712 Clear 0 1026 58 0 1.16 326.159 12:39 06.10.2019
6713 Clear 7 1024 37 0 2.75 292.466 12:20 06.10.2019
6714 Clear 7 1024 37 0 2.75 292.466 11:57 06.10.2019
6715 Clear 7 1024 37 0 2.75 292.466 11:38 06.10.2019
6716 Clear 7 1024 37 0 2.75 292.466 11:20 06.10.2019
6717 Clear 7 1024 37 0 2.75 292.466 10:44 06.10.2019
6718 Clear 7 1024 37 0 2.75 292.466 10:26 06.10.2019
6719 Clear 7 1024 37 0 2.75 292.466 09:58 06.10.2019
6720 Clear 7 1024 37 0 2.75 292.466 09:40 06.10.2019
6721 Clear 7 1026 32 0 1.33 291.103 09:19 06.10.2019
6722 Clear 7 1026 32 0 1.33 291.103 08:43 06.10.2019
6723 Clear 7 1025 32 0 1.59 276.977 08:21 06.10.2019
6724 Clear 7 1025 32 0 1.59 276.977 07:57 06.10.2019
6725 Clear 7 1025 32 0 1.59 276.977 07:35 06.10.2019
6726 Clear 4 1027 26 0 0.5 261.081 06:23 06.10.2019
6727 Clear 4 1027 26 0 0.5 261.081 05:35 06.10.2019
6728 Clear 4 1027 26 0 0.5 261.081 04:26 06.10.2019
6729 Clear -4 1030 40 0 0.16 22.457 02:46 06.10.2019
6730 Clear -4 1030 40 0 0.16 22.457 02:27 06.10.2019
6731 Clear -4 1030 40 0 0.16 22.457 01:46 06.10.2019
6732 Clear -4 1030 41 0 0.09 305.096 01:27 06.10.2019
6733 Clear -4 1030 41 0 0.09 305.096 00:53 06.10.2019
6734 Clear -4 1030 41 0 0.09 305.096 00:27 06.10.2019
6735 Clear -4 1029 38 0 0.11 154.558 23:45 05.10.2019
6736 Clear -4 1029 38 0 0.11 154.558 23:23 05.10.2019
6737 Clear -4 1029 38 0 0.11 154.558 22:58 05.10.2019
6738 Clear -4 1029 38 0 0.11 154.558 22:40 05.10.2019
6739 Clear -4 1029 38 0 0.11 154.558 22:20 05.10.2019
6740 Clear -4 1029 38 0 0.11 154.558 21:57 05.10.2019
6741 Clear -4 1029 38 0 0.11 154.558 21:39 05.10.2019
6742 Clear -4 1029 38 0 0.11 154.558 21:39 05.10.2019
6743 Clear -3 1030 40 0 0.79 35.841 21:20 05.10.2019
6744 Clear -3 1030 40 0 0.79 35.841 20:56 05.10.2019
6745 Clear -3 1030 41 0 0.48 70.738 20:37 05.10.2019
6746 Clear -3 1030 41 0 0.48 70.738 20:37 05.10.2019
6747 Clear -3 1030 41 0 0.48 70.738 20:18 05.10.2019
6748 Clear -3 1030 41 0 0.48 70.738 19:38 05.10.2019
6749 Clear -3 1030 41 0 0.48 70.738 19:19 05.10.2019
6750 Clear -3 1030 41 0 0.48 70.738 18:56 05.10.2019
6751 Clear -3 1030 41 0 0.48 70.738 18:37 05.10.2019
6752 Clear -3 1030 42 0 0.97 16.745 18:19 05.10.2019
6753 Clear -3 1030 42 0 0.97 16.745 17:43 05.10.2019